<?xml version="1.0" encoding="UTF-8" standalone="no" ?>
<gpx xmlns="http://www.topografix.com/GPX/1/1" xmlns:xsi="http://www.w3.org/2001/XMLSchema-instance" xsi:schemaLocation="http://www.topografix.com/GPX/1/1 http://www.topografix.com/GPX/1/1/gpx.xsd" version="1.1" creator="VisuGPX - https://www.visugpx.com">
  <metadata>
    <name>2024-08-04  VTT TwoNav</name>
    <desc><![CDATA[2024-08-04_105208.trk]]></desc>
  </metadata>
  <trk>
    <name><![CDATA[2024-08-04  VTT TwoNav_1]]></name>
    <trkseg>
      <trkpt lat="48.04981" lon="6.85618">
        <ele>816.3</ele>
        <time>2024-08-04T08:52:08Z</time>
      </trkpt>
      <trkpt lat="48.04981" lon="6.85624">
        <ele>816.2</ele>
        <time>2024-08-04T08:52:09Z</time>
      </trkpt>
      <trkpt lat="48.04981" lon="6.85628">
        <ele>816.1</ele>
        <time>2024-08-04T08:52:10Z</time>
      </trkpt>
      <trkpt lat="48.04981" lon="6.85632">
        <ele>816</ele>
        <time>2024-08-04T08:52:19Z</time>
      </trkpt>
      <trkpt lat="48.04981" lon="6.85635">
        <ele>815.9</ele>
        <time>2024-08-04T08:52:19Z</time>
      </trkpt>
      <trkpt lat="48.04988" lon="6.85645">
        <ele>815.5</ele>
        <time>2024-08-04T08:52:28Z</time>
      </trkpt>
      <trkpt lat="48.04997" lon="6.85651">
        <ele>815.1</ele>
        <time>2024-08-04T08:52:38Z</time>
      </trkpt>
      <trkpt lat="48.05005" lon="6.8566">
        <ele>814.7</ele>
        <time>2024-08-04T08:52:48Z</time>
      </trkpt>
      <trkpt lat="48.05013" lon="6.85668">
        <ele>814.3</ele>
        <time>2024-08-04T08:52:57Z</time>
      </trkpt>
      <trkpt lat="48.05021" lon="6.85676">
        <ele>813.9</ele>
        <time>2024-08-04T08:53:05Z</time>
      </trkpt>
      <trkpt lat="48.05028" lon="6.85684">
        <ele>813.5</ele>
        <time>2024-08-04T08:53:13Z</time>
      </trkpt>
      <trkpt lat="48.05033" lon="6.85695">
        <ele>813.5</ele>
        <time>2024-08-04T08:53:21Z</time>
      </trkpt>
      <trkpt lat="48.05029" lon="6.85708">
        <ele>814.3</ele>
        <time>2024-08-04T08:53:30Z</time>
      </trkpt>
      <trkpt lat="48.0502" lon="6.85715">
        <ele>815.1</ele>
        <time>2024-08-04T08:53:39Z</time>
      </trkpt>
      <trkpt lat="48.05011" lon="6.85719">
        <ele>815.9</ele>
        <time>2024-08-04T08:53:48Z</time>
      </trkpt>
      <trkpt lat="48.05002" lon="6.85723">
        <ele>816.6</ele>
        <time>2024-08-04T08:53:56Z</time>
      </trkpt>
      <trkpt lat="48.04992" lon="6.85726">
        <ele>817.3</ele>
        <time>2024-08-04T08:54:04Z</time>
      </trkpt>
      <trkpt lat="48.04983" lon="6.85732">
        <ele>817.9</ele>
        <time>2024-08-04T08:54:15Z</time>
      </trkpt>
      <trkpt lat="48.04975" lon="6.85738">
        <ele>818.5</ele>
        <time>2024-08-04T08:54:24Z</time>
      </trkpt>
      <trkpt lat="48.04966" lon="6.85742">
        <ele>819</ele>
        <time>2024-08-04T08:54:33Z</time>
      </trkpt>
      <trkpt lat="48.04957" lon="6.85747">
        <ele>819.5</ele>
        <time>2024-08-04T08:54:41Z</time>
      </trkpt>
      <trkpt lat="48.04947" lon="6.8575">
        <ele>820</ele>
        <time>2024-08-04T08:54:49Z</time>
      </trkpt>
      <trkpt lat="48.04938" lon="6.85754">
        <ele>820.3</ele>
        <time>2024-08-04T08:54:57Z</time>
      </trkpt>
      <trkpt lat="48.04929" lon="6.85754">
        <ele>820.6</ele>
        <time>2024-08-04T08:55:05Z</time>
      </trkpt>
      <trkpt lat="48.0492" lon="6.8576">
        <ele>820.7</ele>
        <time>2024-08-04T08:55:13Z</time>
      </trkpt>
      <trkpt lat="48.0491" lon="6.85763">
        <ele>820.7</ele>
        <time>2024-08-04T08:55:20Z</time>
      </trkpt>
      <trkpt lat="48.04901" lon="6.85764">
        <ele>820.8</ele>
        <time>2024-08-04T08:55:27Z</time>
      </trkpt>
      <trkpt lat="48.04892" lon="6.85769">
        <ele>820.8</ele>
        <time>2024-08-04T08:55:36Z</time>
      </trkpt>
      <trkpt lat="48.04882" lon="6.85771">
        <ele>820.9</ele>
        <time>2024-08-04T08:55:45Z</time>
      </trkpt>
      <trkpt lat="48.04873" lon="6.85768">
        <ele>821</ele>
        <time>2024-08-04T08:55:52Z</time>
      </trkpt>
      <trkpt lat="48.04864" lon="6.85766">
        <ele>821.1</ele>
        <time>2024-08-04T08:55:59Z</time>
      </trkpt>
      <trkpt lat="48.04857" lon="6.85756">
        <ele>820.9</ele>
        <time>2024-08-04T08:56:09Z</time>
      </trkpt>
      <trkpt lat="48.04849" lon="6.85749">
        <ele>820.6</ele>
        <time>2024-08-04T08:56:17Z</time>
      </trkpt>
      <trkpt lat="48.0484" lon="6.85742">
        <ele>820.4</ele>
        <time>2024-08-04T08:56:24Z</time>
      </trkpt>
      <trkpt lat="48.04831" lon="6.85736">
        <ele>820.2</ele>
        <time>2024-08-04T08:56:33Z</time>
      </trkpt>
      <trkpt lat="48.04824" lon="6.85727">
        <ele>820</ele>
        <time>2024-08-04T08:56:41Z</time>
      </trkpt>
      <trkpt lat="48.04814" lon="6.85725">
        <ele>819.8</ele>
        <time>2024-08-04T08:56:48Z</time>
      </trkpt>
      <trkpt lat="48.04804" lon="6.85722">
        <ele>819.6</ele>
        <time>2024-08-04T08:56:53Z</time>
      </trkpt>
      <trkpt lat="48.04795" lon="6.85718">
        <ele>819.5</ele>
        <time>2024-08-04T08:57:02Z</time>
      </trkpt>
      <trkpt lat="48.04786" lon="6.8572">
        <ele>819.3</ele>
        <time>2024-08-04T08:57:10Z</time>
      </trkpt>
      <trkpt lat="48.04776" lon="6.85716">
        <ele>819.1</ele>
        <time>2024-08-04T08:57:17Z</time>
      </trkpt>
      <trkpt lat="48.04767" lon="6.85707">
        <ele>818.9</ele>
        <time>2024-08-04T08:57:21Z</time>
      </trkpt>
      <trkpt lat="48.04759" lon="6.85701">
        <ele>818.7</ele>
        <time>2024-08-04T08:57:29Z</time>
      </trkpt>
      <trkpt lat="48.04753" lon="6.85692">
        <ele>818.5</ele>
        <time>2024-08-04T08:57:38Z</time>
      </trkpt>
      <trkpt lat="48.04746" lon="6.85682">
        <ele>818.3</ele>
        <time>2024-08-04T08:57:47Z</time>
      </trkpt>
      <trkpt lat="48.04744" lon="6.85671">
        <ele>818.1</ele>
        <time>2024-08-04T08:57:58Z</time>
      </trkpt>
      <trkpt lat="48.04745" lon="6.85671">
        <ele>818.1</ele>
        <time>2024-08-04T08:57:59Z</time>
      </trkpt>
      <trkpt lat="48.04746" lon="6.85672">
        <ele>818.1</ele>
        <time>2024-08-04T08:58:00Z</time>
      </trkpt>
      <trkpt lat="48.04743" lon="6.85675">
        <ele>818.1</ele>
        <time>2024-08-04T08:58:06Z</time>
      </trkpt>
      <trkpt lat="48.04743" lon="6.85675">
        <ele>818.1</ele>
        <time>2024-08-04T08:58:07Z</time>
      </trkpt>
      <trkpt lat="48.04744" lon="6.85674">
        <ele>818.1</ele>
        <time>2024-08-04T08:58:08Z</time>
      </trkpt>
      <trkpt lat="48.04744" lon="6.85673">
        <ele>818.1</ele>
        <time>2024-08-04T08:58:09Z</time>
      </trkpt>
      <trkpt lat="48.04744" lon="6.85673">
        <ele>818</ele>
        <time>2024-08-04T08:58:10Z</time>
      </trkpt>
      <trkpt lat="48.04742" lon="6.85667">
        <ele>818</ele>
        <time>2024-08-04T08:58:14Z</time>
      </trkpt>
      <trkpt lat="48.04742" lon="6.85665">
        <ele>818</ele>
        <time>2024-08-04T08:58:15Z</time>
      </trkpt>
      <trkpt lat="48.04737" lon="6.85654">
        <ele>817.7</ele>
        <time>2024-08-04T08:58:24Z</time>
      </trkpt>
      <trkpt lat="48.04734" lon="6.8564">
        <ele>817.3</ele>
        <time>2024-08-04T08:58:34Z</time>
      </trkpt>
      <trkpt lat="48.04726" lon="6.8563">
        <ele>816.9</ele>
        <time>2024-08-04T08:58:41Z</time>
      </trkpt>
      <trkpt lat="48.0472" lon="6.85619">
        <ele>816.5</ele>
        <time>2024-08-04T08:58:48Z</time>
      </trkpt>
      <trkpt lat="48.04715" lon="6.85607">
        <ele>816.2</ele>
        <time>2024-08-04T08:58:56Z</time>
      </trkpt>
      <trkpt lat="48.04708" lon="6.85598">
        <ele>815.8</ele>
        <time>2024-08-04T08:59:04Z</time>
      </trkpt>
      <trkpt lat="48.04701" lon="6.85588">
        <ele>815.6</ele>
        <time>2024-08-04T08:59:13Z</time>
      </trkpt>
      <trkpt lat="48.04695" lon="6.85576">
        <ele>815.3</ele>
        <time>2024-08-04T08:59:22Z</time>
      </trkpt>
      <trkpt lat="48.0469" lon="6.85564">
        <ele>815.1</ele>
        <time>2024-08-04T08:59:31Z</time>
      </trkpt>
      <trkpt lat="48.04688" lon="6.85551">
        <ele>814.8</ele>
        <time>2024-08-04T08:59:41Z</time>
      </trkpt>
      <trkpt lat="48.04687" lon="6.85536">
        <ele>814.5</ele>
        <time>2024-08-04T08:59:50Z</time>
      </trkpt>
      <trkpt lat="48.04689" lon="6.85523">
        <ele>814.3</ele>
        <time>2024-08-04T08:59:58Z</time>
      </trkpt>
      <trkpt lat="48.04691" lon="6.85508">
        <ele>814</ele>
        <time>2024-08-04T09:00:07Z</time>
      </trkpt>
      <trkpt lat="48.04688" lon="6.85494">
        <ele>813.7</ele>
        <time>2024-08-04T09:00:16Z</time>
      </trkpt>
      <trkpt lat="48.04681" lon="6.85485">
        <ele>813.4</ele>
        <time>2024-08-04T09:00:22Z</time>
      </trkpt>
      <trkpt lat="48.04673" lon="6.85476">
        <ele>813</ele>
        <time>2024-08-04T09:00:29Z</time>
      </trkpt>
      <trkpt lat="48.04669" lon="6.85463">
        <ele>812.7</ele>
        <time>2024-08-04T09:00:37Z</time>
      </trkpt>
      <trkpt lat="48.04667" lon="6.85448">
        <ele>812.4</ele>
        <time>2024-08-04T09:00:46Z</time>
      </trkpt>
      <trkpt lat="48.04662" lon="6.85437">
        <ele>812.1</ele>
        <time>2024-08-04T09:00:54Z</time>
      </trkpt>
      <trkpt lat="48.04653" lon="6.85429">
        <ele>811.7</ele>
        <time>2024-08-04T09:01:01Z</time>
      </trkpt>
      <trkpt lat="48.04645" lon="6.85425">
        <ele>811.4</ele>
        <time>2024-08-04T09:01:09Z</time>
      </trkpt>
      <trkpt lat="48.04637" lon="6.85416">
        <ele>811.1</ele>
        <time>2024-08-04T09:01:16Z</time>
      </trkpt>
      <trkpt lat="48.04631" lon="6.85404">
        <ele>810.8</ele>
        <time>2024-08-04T09:01:27Z</time>
      </trkpt>
      <trkpt lat="48.04625" lon="6.85395">
        <ele>810.4</ele>
        <time>2024-08-04T09:01:36Z</time>
      </trkpt>
      <trkpt lat="48.04622" lon="6.85381">
        <ele>810.1</ele>
        <time>2024-08-04T09:01:45Z</time>
      </trkpt>
      <trkpt lat="48.04623" lon="6.85367">
        <ele>809.7</ele>
        <time>2024-08-04T09:01:54Z</time>
      </trkpt>
      <trkpt lat="48.04627" lon="6.85354">
        <ele>809.4</ele>
        <time>2024-08-04T09:02:03Z</time>
      </trkpt>
      <trkpt lat="48.04624" lon="6.85341">
        <ele>809</ele>
        <time>2024-08-04T09:02:11Z</time>
      </trkpt>
      <trkpt lat="48.04621" lon="6.85327">
        <ele>808.6</ele>
        <time>2024-08-04T09:02:18Z</time>
      </trkpt>
      <trkpt lat="48.04626" lon="6.85313">
        <ele>808.1</ele>
        <time>2024-08-04T09:02:26Z</time>
      </trkpt>
      <trkpt lat="48.04632" lon="6.85303">
        <ele>807.7</ele>
        <time>2024-08-04T09:02:32Z</time>
      </trkpt>
      <trkpt lat="48.04633" lon="6.85289">
        <ele>807.2</ele>
        <time>2024-08-04T09:02:40Z</time>
      </trkpt>
      <trkpt lat="48.04633" lon="6.85276">
        <ele>806.7</ele>
        <time>2024-08-04T09:02:48Z</time>
      </trkpt>
      <trkpt lat="48.04635" lon="6.85261">
        <ele>806.2</ele>
        <time>2024-08-04T09:02:58Z</time>
      </trkpt>
      <trkpt lat="48.04642" lon="6.85251">
        <ele>805.9</ele>
        <time>2024-08-04T09:03:06Z</time>
      </trkpt>
      <trkpt lat="48.0465" lon="6.85242">
        <ele>805.8</ele>
        <time>2024-08-04T09:03:14Z</time>
      </trkpt>
      <trkpt lat="48.04659" lon="6.85237">
        <ele>805.8</ele>
        <time>2024-08-04T09:03:26Z</time>
      </trkpt>
      <trkpt lat="48.04668" lon="6.85235">
        <ele>806</ele>
        <time>2024-08-04T09:03:35Z</time>
      </trkpt>
      <trkpt lat="48.04678" lon="6.85233">
        <ele>806.3</ele>
        <time>2024-08-04T09:03:44Z</time>
      </trkpt>
      <trkpt lat="48.04687" lon="6.85226">
        <ele>806.7</ele>
        <time>2024-08-04T09:03:51Z</time>
      </trkpt>
      <trkpt lat="48.04694" lon="6.85217">
        <ele>807.1</ele>
        <time>2024-08-04T09:03:58Z</time>
      </trkpt>
      <trkpt lat="48.047" lon="6.85206">
        <ele>807.6</ele>
        <time>2024-08-04T09:04:05Z</time>
      </trkpt>
      <trkpt lat="48.04707" lon="6.85196">
        <ele>808</ele>
        <time>2024-08-04T09:04:14Z</time>
      </trkpt>
      <trkpt lat="48.04716" lon="6.85187">
        <ele>808.5</ele>
        <time>2024-08-04T09:04:21Z</time>
      </trkpt>
      <trkpt lat="48.04723" lon="6.85178">
        <ele>809</ele>
        <time>2024-08-04T09:04:28Z</time>
      </trkpt>
      <trkpt lat="48.04727" lon="6.85165">
        <ele>809.5</ele>
        <time>2024-08-04T09:04:36Z</time>
      </trkpt>
      <trkpt lat="48.04733" lon="6.85154">
        <ele>810.1</ele>
        <time>2024-08-04T09:04:43Z</time>
      </trkpt>
      <trkpt lat="48.04736" lon="6.8514">
        <ele>810.7</ele>
        <time>2024-08-04T09:04:51Z</time>
      </trkpt>
      <trkpt lat="48.04732" lon="6.85128">
        <ele>811.2</ele>
        <time>2024-08-04T09:04:58Z</time>
      </trkpt>
      <trkpt lat="48.04727" lon="6.85115">
        <ele>811.8</ele>
        <time>2024-08-04T09:05:05Z</time>
      </trkpt>
      <trkpt lat="48.04723" lon="6.85102">
        <ele>812.4</ele>
        <time>2024-08-04T09:05:13Z</time>
      </trkpt>
      <trkpt lat="48.0472" lon="6.85088">
        <ele>813</ele>
        <time>2024-08-04T09:05:22Z</time>
      </trkpt>
      <trkpt lat="48.04715" lon="6.85076">
        <ele>813.5</ele>
        <time>2024-08-04T09:05:31Z</time>
      </trkpt>
      <trkpt lat="48.04711" lon="6.85063">
        <ele>814.1</ele>
        <time>2024-08-04T09:05:39Z</time>
      </trkpt>
      <trkpt lat="48.0471" lon="6.85049">
        <ele>814.5</ele>
        <time>2024-08-04T09:05:46Z</time>
      </trkpt>
      <trkpt lat="48.04713" lon="6.85036">
        <ele>815</ele>
        <time>2024-08-04T09:05:55Z</time>
      </trkpt>
      <trkpt lat="48.04714" lon="6.85022">
        <ele>815.5</ele>
        <time>2024-08-04T09:06:05Z</time>
      </trkpt>
      <trkpt lat="48.04715" lon="6.85008">
        <ele>816</ele>
        <time>2024-08-04T09:06:14Z</time>
      </trkpt>
      <trkpt lat="48.04714" lon="6.84994">
        <ele>816.5</ele>
        <time>2024-08-04T09:06:23Z</time>
      </trkpt>
      <trkpt lat="48.04714" lon="6.84979">
        <ele>816.9</ele>
        <time>2024-08-04T09:06:32Z</time>
      </trkpt>
      <trkpt lat="48.04715" lon="6.84965">
        <ele>817.3</ele>
        <time>2024-08-04T09:06:40Z</time>
      </trkpt>
      <trkpt lat="48.0472" lon="6.84952">
        <ele>817.7</ele>
        <time>2024-08-04T09:06:48Z</time>
      </trkpt>
      <trkpt lat="48.04721" lon="6.84938">
        <ele>818.1</ele>
        <time>2024-08-04T09:06:56Z</time>
      </trkpt>
      <trkpt lat="48.04722" lon="6.84923">
        <ele>818.5</ele>
        <time>2024-08-04T09:07:05Z</time>
      </trkpt>
      <trkpt lat="48.04723" lon="6.84908">
        <ele>819</ele>
        <time>2024-08-04T09:07:13Z</time>
      </trkpt>
      <trkpt lat="48.04719" lon="6.84893">
        <ele>819.6</ele>
        <time>2024-08-04T09:07:21Z</time>
      </trkpt>
      <trkpt lat="48.04714" lon="6.84882">
        <ele>820.1</ele>
        <time>2024-08-04T09:07:28Z</time>
      </trkpt>
      <trkpt lat="48.04706" lon="6.84872">
        <ele>820.8</ele>
        <time>2024-08-04T09:07:36Z</time>
      </trkpt>
      <trkpt lat="48.04698" lon="6.84865">
        <ele>821.3</ele>
        <time>2024-08-04T09:07:44Z</time>
      </trkpt>
      <trkpt lat="48.0469" lon="6.84857">
        <ele>821.9</ele>
        <time>2024-08-04T09:07:53Z</time>
      </trkpt>
      <trkpt lat="48.04681" lon="6.8485">
        <ele>822.5</ele>
        <time>2024-08-04T09:08:04Z</time>
      </trkpt>
      <trkpt lat="48.04673" lon="6.84843">
        <ele>823.1</ele>
        <time>2024-08-04T09:08:11Z</time>
      </trkpt>
      <trkpt lat="48.04665" lon="6.84835">
        <ele>823.6</ele>
        <time>2024-08-04T09:08:18Z</time>
      </trkpt>
      <trkpt lat="48.04657" lon="6.84828">
        <ele>824.1</ele>
        <time>2024-08-04T09:08:28Z</time>
      </trkpt>
      <trkpt lat="48.04648" lon="6.84822">
        <ele>824.7</ele>
        <time>2024-08-04T09:08:35Z</time>
      </trkpt>
      <trkpt lat="48.0464" lon="6.84814">
        <ele>825.3</ele>
        <time>2024-08-04T09:08:42Z</time>
      </trkpt>
      <trkpt lat="48.04632" lon="6.84807">
        <ele>825.8</ele>
        <time>2024-08-04T09:08:50Z</time>
      </trkpt>
      <trkpt lat="48.04625" lon="6.84798">
        <ele>826.3</ele>
        <time>2024-08-04T09:08:57Z</time>
      </trkpt>
      <trkpt lat="48.04616" lon="6.8479">
        <ele>826.8</ele>
        <time>2024-08-04T09:09:05Z</time>
      </trkpt>
      <trkpt lat="48.0461" lon="6.84779">
        <ele>827.3</ele>
        <time>2024-08-04T09:09:14Z</time>
      </trkpt>
      <trkpt lat="48.04604" lon="6.84768">
        <ele>827.7</ele>
        <time>2024-08-04T09:09:22Z</time>
      </trkpt>
      <trkpt lat="48.04597" lon="6.84759">
        <ele>828.1</ele>
        <time>2024-08-04T09:09:31Z</time>
      </trkpt>
      <trkpt lat="48.04589" lon="6.8475">
        <ele>828.6</ele>
        <time>2024-08-04T09:09:40Z</time>
      </trkpt>
      <trkpt lat="48.04582" lon="6.84741">
        <ele>829.1</ele>
        <time>2024-08-04T09:09:48Z</time>
      </trkpt>
      <trkpt lat="48.04575" lon="6.84732">
        <ele>829.6</ele>
        <time>2024-08-04T09:09:56Z</time>
      </trkpt>
      <trkpt lat="48.04569" lon="6.84721">
        <ele>830.1</ele>
        <time>2024-08-04T09:10:04Z</time>
      </trkpt>
      <trkpt lat="48.04563" lon="6.84709">
        <ele>830.6</ele>
        <time>2024-08-04T09:10:12Z</time>
      </trkpt>
      <trkpt lat="48.04557" lon="6.84697">
        <ele>831.2</ele>
        <time>2024-08-04T09:10:21Z</time>
      </trkpt>
      <trkpt lat="48.04551" lon="6.84686">
        <ele>831.7</ele>
        <time>2024-08-04T09:10:31Z</time>
      </trkpt>
      <trkpt lat="48.04543" lon="6.84678">
        <ele>832.2</ele>
        <time>2024-08-04T09:10:39Z</time>
      </trkpt>
      <trkpt lat="48.04535" lon="6.84671">
        <ele>832.8</ele>
        <time>2024-08-04T09:10:47Z</time>
      </trkpt>
      <trkpt lat="48.04527" lon="6.84666">
        <ele>833.4</ele>
        <time>2024-08-04T09:10:54Z</time>
      </trkpt>
      <trkpt lat="48.04517" lon="6.84664">
        <ele>834.2</ele>
        <time>2024-08-04T09:11:02Z</time>
      </trkpt>
      <trkpt lat="48.04508" lon="6.84666">
        <ele>834.8</ele>
        <time>2024-08-04T09:11:09Z</time>
      </trkpt>
      <trkpt lat="48.04498" lon="6.84664">
        <ele>835.4</ele>
        <time>2024-08-04T09:11:17Z</time>
      </trkpt>
      <trkpt lat="48.0449" lon="6.84656">
        <ele>835.8</ele>
        <time>2024-08-04T09:11:25Z</time>
      </trkpt>
      <trkpt lat="48.04484" lon="6.84646">
        <ele>836.3</ele>
        <time>2024-08-04T09:11:32Z</time>
      </trkpt>
      <trkpt lat="48.04481" lon="6.84633">
        <ele>836.7</ele>
        <time>2024-08-04T09:11:41Z</time>
      </trkpt>
      <trkpt lat="48.04478" lon="6.84618">
        <ele>837.1</ele>
        <time>2024-08-04T09:11:50Z</time>
      </trkpt>
      <trkpt lat="48.04471" lon="6.84608">
        <ele>837.3</ele>
        <time>2024-08-04T09:11:58Z</time>
      </trkpt>
      <trkpt lat="48.04464" lon="6.846">
        <ele>837.5</ele>
        <time>2024-08-04T09:12:06Z</time>
      </trkpt>
      <trkpt lat="48.04458" lon="6.84587">
        <ele>837.6</ele>
        <time>2024-08-04T09:12:15Z</time>
      </trkpt>
      <trkpt lat="48.04455" lon="6.84577">
        <ele>837.6</ele>
        <time>2024-08-04T09:12:28Z</time>
      </trkpt>
      <trkpt lat="48.04455" lon="6.84577">
        <ele>837.6</ele>
        <time>2024-08-04T09:12:29Z</time>
      </trkpt>
      <trkpt lat="48.04455" lon="6.84578">
        <ele>837.6</ele>
        <time>2024-08-04T09:12:30Z</time>
      </trkpt>
      <trkpt lat="48.04457" lon="6.84577">
        <ele>837.6</ele>
        <time>2024-08-04T09:12:46Z</time>
      </trkpt>
      <trkpt lat="48.04457" lon="6.84575">
        <ele>837.6</ele>
        <time>2024-08-04T09:12:47Z</time>
      </trkpt>
      <trkpt lat="48.04457" lon="6.84562">
        <ele>837.6</ele>
        <time>2024-08-04T09:12:55Z</time>
      </trkpt>
      <trkpt lat="48.0445" lon="6.84551">
        <ele>837.6</ele>
        <time>2024-08-04T09:13:03Z</time>
      </trkpt>
      <trkpt lat="48.04442" lon="6.84544">
        <ele>837.6</ele>
        <time>2024-08-04T09:13:09Z</time>
      </trkpt>
      <trkpt lat="48.04434" lon="6.84535">
        <ele>837.5</ele>
        <time>2024-08-04T09:13:17Z</time>
      </trkpt>
      <trkpt lat="48.04428" lon="6.84524">
        <ele>837.5</ele>
        <time>2024-08-04T09:13:25Z</time>
      </trkpt>
      <trkpt lat="48.04423" lon="6.84512">
        <ele>837.5</ele>
        <time>2024-08-04T09:13:32Z</time>
      </trkpt>
      <trkpt lat="48.04417" lon="6.845">
        <ele>837.6</ele>
        <time>2024-08-04T09:13:40Z</time>
      </trkpt>
      <trkpt lat="48.0441" lon="6.84492">
        <ele>837.6</ele>
        <time>2024-08-04T09:13:48Z</time>
      </trkpt>
      <trkpt lat="48.044" lon="6.84487">
        <ele>837.6</ele>
        <time>2024-08-04T09:13:58Z</time>
      </trkpt>
      <trkpt lat="48.0439" lon="6.84485">
        <ele>837.6</ele>
        <time>2024-08-04T09:14:06Z</time>
      </trkpt>
      <trkpt lat="48.04381" lon="6.84481">
        <ele>837.6</ele>
        <time>2024-08-04T09:14:13Z</time>
      </trkpt>
      <trkpt lat="48.04372" lon="6.84477">
        <ele>837.6</ele>
        <time>2024-08-04T09:14:20Z</time>
      </trkpt>
      <trkpt lat="48.04363" lon="6.84471">
        <ele>837.6</ele>
        <time>2024-08-04T09:14:28Z</time>
      </trkpt>
      <trkpt lat="48.04355" lon="6.84463">
        <ele>837.6</ele>
        <time>2024-08-04T09:14:36Z</time>
      </trkpt>
      <trkpt lat="48.04348" lon="6.84455">
        <ele>837.7</ele>
        <time>2024-08-04T09:14:45Z</time>
      </trkpt>
      <trkpt lat="48.04341" lon="6.84445">
        <ele>837.7</ele>
        <time>2024-08-04T09:14:57Z</time>
      </trkpt>
      <trkpt lat="48.04337" lon="6.84432">
        <ele>837.7</ele>
        <time>2024-08-04T09:15:07Z</time>
      </trkpt>
      <trkpt lat="48.04338" lon="6.84418">
        <ele>837.7</ele>
        <time>2024-08-04T09:15:15Z</time>
      </trkpt>
      <trkpt lat="48.04346" lon="6.84409">
        <ele>837.6</ele>
        <time>2024-08-04T09:15:24Z</time>
      </trkpt>
      <trkpt lat="48.04355" lon="6.84405">
        <ele>837.6</ele>
        <time>2024-08-04T09:15:33Z</time>
      </trkpt>
      <trkpt lat="48.04361" lon="6.84393">
        <ele>837.6</ele>
        <time>2024-08-04T09:15:43Z</time>
      </trkpt>
      <trkpt lat="48.04366" lon="6.8439">
        <ele>837.5</ele>
        <time>2024-08-04T09:15:51Z</time>
      </trkpt>
      <trkpt lat="48.04366" lon="6.8439">
        <ele>837.5</ele>
        <time>2024-08-04T09:15:52Z</time>
      </trkpt>
      <trkpt lat="48.04367" lon="6.84389">
        <ele>837.5</ele>
        <time>2024-08-04T09:16:11Z</time>
      </trkpt>
      <trkpt lat="48.04367" lon="6.84388">
        <ele>837.5</ele>
        <time>2024-08-04T09:16:12Z</time>
      </trkpt>
      <trkpt lat="48.04371" lon="6.84375">
        <ele>837.6</ele>
        <time>2024-08-04T09:16:19Z</time>
      </trkpt>
      <trkpt lat="48.04374" lon="6.84361">
        <ele>837.6</ele>
        <time>2024-08-04T09:16:27Z</time>
      </trkpt>
      <trkpt lat="48.04377" lon="6.84346">
        <ele>837.7</ele>
        <time>2024-08-04T09:16:35Z</time>
      </trkpt>
      <trkpt lat="48.04381" lon="6.84333">
        <ele>837.8</ele>
        <time>2024-08-04T09:16:42Z</time>
      </trkpt>
      <trkpt lat="48.04385" lon="6.8432">
        <ele>837.9</ele>
        <time>2024-08-04T09:16:49Z</time>
      </trkpt>
      <trkpt lat="48.0439" lon="6.84308">
        <ele>837.9</ele>
        <time>2024-08-04T09:16:56Z</time>
      </trkpt>
      <trkpt lat="48.04396" lon="6.84297">
        <ele>838</ele>
        <time>2024-08-04T09:17:03Z</time>
      </trkpt>
      <trkpt lat="48.04395" lon="6.84282">
        <ele>838.1</ele>
        <time>2024-08-04T09:17:10Z</time>
      </trkpt>
      <trkpt lat="48.04392" lon="6.84269">
        <ele>838.2</ele>
        <time>2024-08-04T09:17:16Z</time>
      </trkpt>
      <trkpt lat="48.04387" lon="6.84258">
        <ele>838.3</ele>
        <time>2024-08-04T09:17:23Z</time>
      </trkpt>
      <trkpt lat="48.04381" lon="6.84245">
        <ele>838.4</ele>
        <time>2024-08-04T09:17:31Z</time>
      </trkpt>
      <trkpt lat="48.04377" lon="6.84233">
        <ele>838.5</ele>
        <time>2024-08-04T09:17:40Z</time>
      </trkpt>
      <trkpt lat="48.04372" lon="6.8422">
        <ele>838.7</ele>
        <time>2024-08-04T09:17:47Z</time>
      </trkpt>
      <trkpt lat="48.04368" lon="6.84207">
        <ele>838.8</ele>
        <time>2024-08-04T09:17:55Z</time>
      </trkpt>
      <trkpt lat="48.0437" lon="6.84193">
        <ele>839</ele>
        <time>2024-08-04T09:18:04Z</time>
      </trkpt>
      <trkpt lat="48.0437" lon="6.8418">
        <ele>839.2</ele>
        <time>2024-08-04T09:18:12Z</time>
      </trkpt>
      <trkpt lat="48.04365" lon="6.84167">
        <ele>839.6</ele>
        <time>2024-08-04T09:18:21Z</time>
      </trkpt>
      <trkpt lat="48.04359" lon="6.84157">
        <ele>840</ele>
        <time>2024-08-04T09:18:28Z</time>
      </trkpt>
      <trkpt lat="48.04352" lon="6.84146">
        <ele>840.5</ele>
        <time>2024-08-04T09:18:36Z</time>
      </trkpt>
      <trkpt lat="48.04346" lon="6.84136">
        <ele>841.1</ele>
        <time>2024-08-04T09:18:44Z</time>
      </trkpt>
      <trkpt lat="48.04342" lon="6.84122">
        <ele>841.6</ele>
        <time>2024-08-04T09:18:52Z</time>
      </trkpt>
      <trkpt lat="48.04343" lon="6.84109">
        <ele>842.1</ele>
        <time>2024-08-04T09:18:59Z</time>
      </trkpt>
      <trkpt lat="48.0435" lon="6.84099">
        <ele>842.5</ele>
        <time>2024-08-04T09:19:07Z</time>
      </trkpt>
      <trkpt lat="48.0436" lon="6.84094">
        <ele>842.9</ele>
        <time>2024-08-04T09:19:15Z</time>
      </trkpt>
      <trkpt lat="48.04369" lon="6.8409">
        <ele>843.4</ele>
        <time>2024-08-04T09:19:24Z</time>
      </trkpt>
      <trkpt lat="48.04378" lon="6.84084">
        <ele>843.9</ele>
        <time>2024-08-04T09:19:32Z</time>
      </trkpt>
      <trkpt lat="48.04387" lon="6.84079">
        <ele>844.4</ele>
        <time>2024-08-04T09:19:39Z</time>
      </trkpt>
      <trkpt lat="48.04395" lon="6.84071">
        <ele>844.9</ele>
        <time>2024-08-04T09:19:47Z</time>
      </trkpt>
      <trkpt lat="48.04403" lon="6.84062">
        <ele>845.2</ele>
        <time>2024-08-04T09:19:56Z</time>
      </trkpt>
      <trkpt lat="48.04405" lon="6.84048">
        <ele>844.8</ele>
        <time>2024-08-04T09:20:05Z</time>
      </trkpt>
      <trkpt lat="48.04401" lon="6.84035">
        <ele>844.2</ele>
        <time>2024-08-04T09:20:14Z</time>
      </trkpt>
      <trkpt lat="48.04396" lon="6.84022">
        <ele>843.6</ele>
        <time>2024-08-04T09:20:22Z</time>
      </trkpt>
      <trkpt lat="48.0439" lon="6.84011">
        <ele>843</ele>
        <time>2024-08-04T09:20:30Z</time>
      </trkpt>
      <trkpt lat="48.04384" lon="6.83999">
        <ele>842.4</ele>
        <time>2024-08-04T09:20:38Z</time>
      </trkpt>
      <trkpt lat="48.04378" lon="6.83989">
        <ele>841.7</ele>
        <time>2024-08-04T09:20:46Z</time>
      </trkpt>
      <trkpt lat="48.04371" lon="6.83978">
        <ele>841.1</ele>
        <time>2024-08-04T09:20:54Z</time>
      </trkpt>
      <trkpt lat="48.04364" lon="6.83967">
        <ele>840.6</ele>
        <time>2024-08-04T09:21:02Z</time>
      </trkpt>
      <trkpt lat="48.04358" lon="6.83957">
        <ele>840</ele>
        <time>2024-08-04T09:21:10Z</time>
      </trkpt>
      <trkpt lat="48.0435" lon="6.83948">
        <ele>839.3</ele>
        <time>2024-08-04T09:21:18Z</time>
      </trkpt>
      <trkpt lat="48.04342" lon="6.83941">
        <ele>838.7</ele>
        <time>2024-08-04T09:21:26Z</time>
      </trkpt>
      <trkpt lat="48.04333" lon="6.83935">
        <ele>837.9</ele>
        <time>2024-08-04T09:21:34Z</time>
      </trkpt>
      <trkpt lat="48.04325" lon="6.83928">
        <ele>837.1</ele>
        <time>2024-08-04T09:21:42Z</time>
      </trkpt>
      <trkpt lat="48.04317" lon="6.83921">
        <ele>836.2</ele>
        <time>2024-08-04T09:21:50Z</time>
      </trkpt>
      <trkpt lat="48.0431" lon="6.8391">
        <ele>835.5</ele>
        <time>2024-08-04T09:21:59Z</time>
      </trkpt>
      <trkpt lat="48.04308" lon="6.83895">
        <ele>835.1</ele>
        <time>2024-08-04T09:22:08Z</time>
      </trkpt>
      <trkpt lat="48.04311" lon="6.83882">
        <ele>834.9</ele>
        <time>2024-08-04T09:22:16Z</time>
      </trkpt>
      <trkpt lat="48.04314" lon="6.83868">
        <ele>834.8</ele>
        <time>2024-08-04T09:22:24Z</time>
      </trkpt>
      <trkpt lat="48.04317" lon="6.83855">
        <ele>834.8</ele>
        <time>2024-08-04T09:22:32Z</time>
      </trkpt>
      <trkpt lat="48.04321" lon="6.83841">
        <ele>834.8</ele>
        <time>2024-08-04T09:22:40Z</time>
      </trkpt>
      <trkpt lat="48.04323" lon="6.83827">
        <ele>834.9</ele>
        <time>2024-08-04T09:22:48Z</time>
      </trkpt>
      <trkpt lat="48.04329" lon="6.83815">
        <ele>834.7</ele>
        <time>2024-08-04T09:22:56Z</time>
      </trkpt>
      <trkpt lat="48.04339" lon="6.83811">
        <ele>834.4</ele>
        <time>2024-08-04T09:23:04Z</time>
      </trkpt>
      <trkpt lat="48.04348" lon="6.8381">
        <ele>834.2</ele>
        <time>2024-08-04T09:23:13Z</time>
      </trkpt>
      <trkpt lat="48.04358" lon="6.83809">
        <ele>834</ele>
        <time>2024-08-04T09:23:21Z</time>
      </trkpt>
      <trkpt lat="48.04367" lon="6.83807">
        <ele>833.9</ele>
        <time>2024-08-04T09:23:28Z</time>
      </trkpt>
      <trkpt lat="48.04376" lon="6.83805">
        <ele>833.7</ele>
        <time>2024-08-04T09:23:35Z</time>
      </trkpt>
      <trkpt lat="48.04386" lon="6.83803">
        <ele>833.5</ele>
        <time>2024-08-04T09:23:43Z</time>
      </trkpt>
      <trkpt lat="48.04395" lon="6.838">
        <ele>833.3</ele>
        <time>2024-08-04T09:23:50Z</time>
      </trkpt>
      <trkpt lat="48.04405" lon="6.83797">
        <ele>833</ele>
        <time>2024-08-04T09:23:58Z</time>
      </trkpt>
      <trkpt lat="48.04413" lon="6.8379">
        <ele>832.7</ele>
        <time>2024-08-04T09:24:06Z</time>
      </trkpt>
      <trkpt lat="48.04419" lon="6.83779">
        <ele>832.9</ele>
        <time>2024-08-04T09:24:13Z</time>
      </trkpt>
      <trkpt lat="48.04426" lon="6.83769">
        <ele>834</ele>
        <time>2024-08-04T09:24:21Z</time>
      </trkpt>
      <trkpt lat="48.04434" lon="6.8376">
        <ele>835.3</ele>
        <time>2024-08-04T09:24:28Z</time>
      </trkpt>
      <trkpt lat="48.04441" lon="6.83751">
        <ele>836.5</ele>
        <time>2024-08-04T09:24:35Z</time>
      </trkpt>
      <trkpt lat="48.04448" lon="6.83742">
        <ele>837.8</ele>
        <time>2024-08-04T09:24:43Z</time>
      </trkpt>
      <trkpt lat="48.04454" lon="6.83731">
        <ele>839</ele>
        <time>2024-08-04T09:24:52Z</time>
      </trkpt>
      <trkpt lat="48.0446" lon="6.83721">
        <ele>840.1</ele>
        <time>2024-08-04T09:25:00Z</time>
      </trkpt>
      <trkpt lat="48.04468" lon="6.83711">
        <ele>841.3</ele>
        <time>2024-08-04T09:25:09Z</time>
      </trkpt>
      <trkpt lat="48.04471" lon="6.83709">
        <ele>842.3</ele>
        <time>2024-08-04T09:25:21Z</time>
      </trkpt>
      <trkpt lat="48.04471" lon="6.83709">
        <ele>842.3</ele>
        <time>2024-08-04T09:25:22Z</time>
      </trkpt>
      <trkpt lat="48.04471" lon="6.83709">
        <ele>842.3</ele>
        <time>2024-08-04T09:26:26Z</time>
      </trkpt>
      <trkpt lat="48.04471" lon="6.83709">
        <ele>842.4</ele>
        <time>2024-08-04T09:26:27Z</time>
      </trkpt>
      <trkpt lat="48.04472" lon="6.83709">
        <ele>842.5</ele>
        <time>2024-08-04T09:26:28Z</time>
      </trkpt>
      <trkpt lat="48.04471" lon="6.83695">
        <ele>844.3</ele>
        <time>2024-08-04T09:26:40Z</time>
      </trkpt>
      <trkpt lat="48.04466" lon="6.83684">
        <ele>845.2</ele>
        <time>2024-08-04T09:26:48Z</time>
      </trkpt>
      <trkpt lat="48.04461" lon="6.83672">
        <ele>846.2</ele>
        <time>2024-08-04T09:26:56Z</time>
      </trkpt>
      <trkpt lat="48.04457" lon="6.83659">
        <ele>847.2</ele>
        <time>2024-08-04T09:27:04Z</time>
      </trkpt>
      <trkpt lat="48.04453" lon="6.83646">
        <ele>848.1</ele>
        <time>2024-08-04T09:27:13Z</time>
      </trkpt>
      <trkpt lat="48.04449" lon="6.83633">
        <ele>849</ele>
        <time>2024-08-04T09:27:21Z</time>
      </trkpt>
      <trkpt lat="48.04444" lon="6.83621">
        <ele>849.7</ele>
        <time>2024-08-04T09:27:28Z</time>
      </trkpt>
      <trkpt lat="48.04441" lon="6.83608">
        <ele>850.5</ele>
        <time>2024-08-04T09:27:36Z</time>
      </trkpt>
      <trkpt lat="48.04438" lon="6.83595">
        <ele>851.2</ele>
        <time>2024-08-04T09:27:44Z</time>
      </trkpt>
      <trkpt lat="48.04434" lon="6.83583">
        <ele>851.2</ele>
        <time>2024-08-04T09:27:51Z</time>
      </trkpt>
      <trkpt lat="48.04427" lon="6.83572">
        <ele>851</ele>
        <time>2024-08-04T09:27:59Z</time>
      </trkpt>
      <trkpt lat="48.04422" lon="6.83561">
        <ele>850.8</ele>
        <time>2024-08-04T09:28:07Z</time>
      </trkpt>
      <trkpt lat="48.04416" lon="6.83549">
        <ele>850.4</ele>
        <time>2024-08-04T09:28:15Z</time>
      </trkpt>
      <trkpt lat="48.04411" lon="6.83536">
        <ele>850</ele>
        <time>2024-08-04T09:28:23Z</time>
      </trkpt>
      <trkpt lat="48.04405" lon="6.83526">
        <ele>849.6</ele>
        <time>2024-08-04T09:28:30Z</time>
      </trkpt>
      <trkpt lat="48.04398" lon="6.83516">
        <ele>849.3</ele>
        <time>2024-08-04T09:28:38Z</time>
      </trkpt>
      <trkpt lat="48.04391" lon="6.83506">
        <ele>848.9</ele>
        <time>2024-08-04T09:28:45Z</time>
      </trkpt>
      <trkpt lat="48.04383" lon="6.83497">
        <ele>848.7</ele>
        <time>2024-08-04T09:28:53Z</time>
      </trkpt>
      <trkpt lat="48.04374" lon="6.83493">
        <ele>848.6</ele>
        <time>2024-08-04T09:29:00Z</time>
      </trkpt>
      <trkpt lat="48.04365" lon="6.83491">
        <ele>848.8</ele>
        <time>2024-08-04T09:29:07Z</time>
      </trkpt>
      <trkpt lat="48.04356" lon="6.83487">
        <ele>849.1</ele>
        <time>2024-08-04T09:29:14Z</time>
      </trkpt>
      <trkpt lat="48.04347" lon="6.83483">
        <ele>849.3</ele>
        <time>2024-08-04T09:29:22Z</time>
      </trkpt>
      <trkpt lat="48.04337" lon="6.83481">
        <ele>849.3</ele>
        <time>2024-08-04T09:29:30Z</time>
      </trkpt>
      <trkpt lat="48.04328" lon="6.83481">
        <ele>849.1</ele>
        <time>2024-08-04T09:29:38Z</time>
      </trkpt>
      <trkpt lat="48.04318" lon="6.83481">
        <ele>848.8</ele>
        <time>2024-08-04T09:29:46Z</time>
      </trkpt>
      <trkpt lat="48.0431" lon="6.83474">
        <ele>848.6</ele>
        <time>2024-08-04T09:29:54Z</time>
      </trkpt>
      <trkpt lat="48.04301" lon="6.83468">
        <ele>848.4</ele>
        <time>2024-08-04T09:30:04Z</time>
      </trkpt>
      <trkpt lat="48.04292" lon="6.8346">
        <ele>848.2</ele>
        <time>2024-08-04T09:30:14Z</time>
      </trkpt>
      <trkpt lat="48.04287" lon="6.83447">
        <ele>848.1</ele>
        <time>2024-08-04T09:30:22Z</time>
      </trkpt>
      <trkpt lat="48.04282" lon="6.83435">
        <ele>848.2</ele>
        <time>2024-08-04T09:30:28Z</time>
      </trkpt>
      <trkpt lat="48.04277" lon="6.83423">
        <ele>848.4</ele>
        <time>2024-08-04T09:30:35Z</time>
      </trkpt>
      <trkpt lat="48.04272" lon="6.83411">
        <ele>848.8</ele>
        <time>2024-08-04T09:30:42Z</time>
      </trkpt>
      <trkpt lat="48.04265" lon="6.83399">
        <ele>849.3</ele>
        <time>2024-08-04T09:30:49Z</time>
      </trkpt>
      <trkpt lat="48.04258" lon="6.83389">
        <ele>849.9</ele>
        <time>2024-08-04T09:30:56Z</time>
      </trkpt>
      <trkpt lat="48.04252" lon="6.8338">
        <ele>850.4</ele>
        <time>2024-08-04T09:31:04Z</time>
      </trkpt>
      <trkpt lat="48.04252" lon="6.83366">
        <ele>850.9</ele>
        <time>2024-08-04T09:31:14Z</time>
      </trkpt>
      <trkpt lat="48.0425" lon="6.83352">
        <ele>851.4</ele>
        <time>2024-08-04T09:31:24Z</time>
      </trkpt>
      <trkpt lat="48.04247" lon="6.83338">
        <ele>851.8</ele>
        <time>2024-08-04T09:31:33Z</time>
      </trkpt>
      <trkpt lat="48.04244" lon="6.83324">
        <ele>852.3</ele>
        <time>2024-08-04T09:31:42Z</time>
      </trkpt>
      <trkpt lat="48.04241" lon="6.83311">
        <ele>852.7</ele>
        <time>2024-08-04T09:31:50Z</time>
      </trkpt>
      <trkpt lat="48.04236" lon="6.83298">
        <ele>853.1</ele>
        <time>2024-08-04T09:31:58Z</time>
      </trkpt>
      <trkpt lat="48.04232" lon="6.83286">
        <ele>853.5</ele>
        <time>2024-08-04T09:32:06Z</time>
      </trkpt>
      <trkpt lat="48.0423" lon="6.83273">
        <ele>853.9</ele>
        <time>2024-08-04T09:32:14Z</time>
      </trkpt>
      <trkpt lat="48.04226" lon="6.83259">
        <ele>854.3</ele>
        <time>2024-08-04T09:32:22Z</time>
      </trkpt>
      <trkpt lat="48.04223" lon="6.83247">
        <ele>854.7</ele>
        <time>2024-08-04T09:32:31Z</time>
      </trkpt>
      <trkpt lat="48.0422" lon="6.83233">
        <ele>855.1</ele>
        <time>2024-08-04T09:32:39Z</time>
      </trkpt>
      <trkpt lat="48.04216" lon="6.83219">
        <ele>855.5</ele>
        <time>2024-08-04T09:32:47Z</time>
      </trkpt>
      <trkpt lat="48.04212" lon="6.83206">
        <ele>855.8</ele>
        <time>2024-08-04T09:32:55Z</time>
      </trkpt>
      <trkpt lat="48.04208" lon="6.83193">
        <ele>856.2</ele>
        <time>2024-08-04T09:33:04Z</time>
      </trkpt>
      <trkpt lat="48.04205" lon="6.8318">
        <ele>856.6</ele>
        <time>2024-08-04T09:33:12Z</time>
      </trkpt>
      <trkpt lat="48.04203" lon="6.83166">
        <ele>857</ele>
        <time>2024-08-04T09:33:21Z</time>
      </trkpt>
      <trkpt lat="48.04201" lon="6.83152">
        <ele>857.4</ele>
        <time>2024-08-04T09:33:31Z</time>
      </trkpt>
      <trkpt lat="48.04199" lon="6.83138">
        <ele>857.8</ele>
        <time>2024-08-04T09:33:41Z</time>
      </trkpt>
      <trkpt lat="48.04198" lon="6.83124">
        <ele>858.2</ele>
        <time>2024-08-04T09:33:51Z</time>
      </trkpt>
      <trkpt lat="48.04197" lon="6.8311">
        <ele>858.7</ele>
        <time>2024-08-04T09:34:00Z</time>
      </trkpt>
      <trkpt lat="48.04193" lon="6.83097">
        <ele>859.2</ele>
        <time>2024-08-04T09:34:09Z</time>
      </trkpt>
      <trkpt lat="48.04194" lon="6.83083">
        <ele>859.8</ele>
        <time>2024-08-04T09:34:17Z</time>
      </trkpt>
      <trkpt lat="48.04193" lon="6.83069">
        <ele>860.4</ele>
        <time>2024-08-04T09:34:26Z</time>
      </trkpt>
      <trkpt lat="48.04191" lon="6.83055">
        <ele>861</ele>
        <time>2024-08-04T09:34:35Z</time>
      </trkpt>
      <trkpt lat="48.0419" lon="6.8304">
        <ele>861.6</ele>
        <time>2024-08-04T09:34:44Z</time>
      </trkpt>
      <trkpt lat="48.04191" lon="6.83026">
        <ele>862.1</ele>
        <time>2024-08-04T09:34:52Z</time>
      </trkpt>
      <trkpt lat="48.04191" lon="6.83012">
        <ele>862.7</ele>
        <time>2024-08-04T09:35:00Z</time>
      </trkpt>
      <trkpt lat="48.0419" lon="6.82998">
        <ele>863.2</ele>
        <time>2024-08-04T09:35:08Z</time>
      </trkpt>
      <trkpt lat="48.04187" lon="6.82985">
        <ele>863.4</ele>
        <time>2024-08-04T09:35:16Z</time>
      </trkpt>
      <trkpt lat="48.04183" lon="6.82972">
        <ele>863.3</ele>
        <time>2024-08-04T09:35:27Z</time>
      </trkpt>
      <trkpt lat="48.04179" lon="6.82959">
        <ele>863.1</ele>
        <time>2024-08-04T09:35:35Z</time>
      </trkpt>
      <trkpt lat="48.04176" lon="6.82945">
        <ele>862.7</ele>
        <time>2024-08-04T09:35:43Z</time>
      </trkpt>
      <trkpt lat="48.04174" lon="6.82932">
        <ele>862.3</ele>
        <time>2024-08-04T09:35:52Z</time>
      </trkpt>
      <trkpt lat="48.04171" lon="6.82917">
        <ele>861.7</ele>
        <time>2024-08-04T09:36:02Z</time>
      </trkpt>
      <trkpt lat="48.04171" lon="6.82904">
        <ele>861.3</ele>
        <time>2024-08-04T09:36:10Z</time>
      </trkpt>
      <trkpt lat="48.04171" lon="6.8289">
        <ele>860.9</ele>
        <time>2024-08-04T09:36:21Z</time>
      </trkpt>
      <trkpt lat="48.04168" lon="6.82877">
        <ele>860.6</ele>
        <time>2024-08-04T09:36:30Z</time>
      </trkpt>
      <trkpt lat="48.04166" lon="6.82862">
        <ele>860.5</ele>
        <time>2024-08-04T09:36:40Z</time>
      </trkpt>
      <trkpt lat="48.04161" lon="6.8285">
        <ele>860.7</ele>
        <time>2024-08-04T09:36:51Z</time>
      </trkpt>
      <trkpt lat="48.04155" lon="6.8284">
        <ele>861</ele>
        <time>2024-08-04T09:37:01Z</time>
      </trkpt>
      <trkpt lat="48.04148" lon="6.82829">
        <ele>861.4</ele>
        <time>2024-08-04T09:37:12Z</time>
      </trkpt>
      <trkpt lat="48.04142" lon="6.82817">
        <ele>861.7</ele>
        <time>2024-08-04T09:37:23Z</time>
      </trkpt>
      <trkpt lat="48.04137" lon="6.82804">
        <ele>861.8</ele>
        <time>2024-08-04T09:37:32Z</time>
      </trkpt>
      <trkpt lat="48.0413" lon="6.82793">
        <ele>861.8</ele>
        <time>2024-08-04T09:37:40Z</time>
      </trkpt>
      <trkpt lat="48.04125" lon="6.82781">
        <ele>861.8</ele>
        <time>2024-08-04T09:37:49Z</time>
      </trkpt>
      <trkpt lat="48.04122" lon="6.82767">
        <ele>861.7</ele>
        <time>2024-08-04T09:37:58Z</time>
      </trkpt>
      <trkpt lat="48.04116" lon="6.82756">
        <ele>861.7</ele>
        <time>2024-08-04T09:38:09Z</time>
      </trkpt>
      <trkpt lat="48.04109" lon="6.82747">
        <ele>861.7</ele>
        <time>2024-08-04T09:38:19Z</time>
      </trkpt>
      <trkpt lat="48.04104" lon="6.82734">
        <ele>861.9</ele>
        <time>2024-08-04T09:38:27Z</time>
      </trkpt>
      <trkpt lat="48.04099" lon="6.82722">
        <ele>862.3</ele>
        <time>2024-08-04T09:38:38Z</time>
      </trkpt>
      <trkpt lat="48.04097" lon="6.82709">
        <ele>862.6</ele>
        <time>2024-08-04T09:38:46Z</time>
      </trkpt>
      <trkpt lat="48.04095" lon="6.82696">
        <ele>863</ele>
        <time>2024-08-04T09:38:55Z</time>
      </trkpt>
      <trkpt lat="48.04095" lon="6.82682">
        <ele>863.4</ele>
        <time>2024-08-04T09:39:04Z</time>
      </trkpt>
      <trkpt lat="48.04095" lon="6.82668">
        <ele>864</ele>
        <time>2024-08-04T09:39:14Z</time>
      </trkpt>
      <trkpt lat="48.04094" lon="6.82654">
        <ele>864.3</ele>
        <time>2024-08-04T09:39:23Z</time>
      </trkpt>
      <trkpt lat="48.04092" lon="6.8264">
        <ele>864.3</ele>
        <time>2024-08-04T09:39:32Z</time>
      </trkpt>
      <trkpt lat="48.04089" lon="6.82627">
        <ele>864</ele>
        <time>2024-08-04T09:39:42Z</time>
      </trkpt>
      <trkpt lat="48.04085" lon="6.82615">
        <ele>863.6</ele>
        <time>2024-08-04T09:39:53Z</time>
      </trkpt>
      <trkpt lat="48.04082" lon="6.82601">
        <ele>863.1</ele>
        <time>2024-08-04T09:40:05Z</time>
      </trkpt>
      <trkpt lat="48.04079" lon="6.82587">
        <ele>862.8</ele>
        <time>2024-08-04T09:40:15Z</time>
      </trkpt>
      <trkpt lat="48.04078" lon="6.82573">
        <ele>862.6</ele>
        <time>2024-08-04T09:40:25Z</time>
      </trkpt>
      <trkpt lat="48.04077" lon="6.82569">
        <ele>862.6</ele>
        <time>2024-08-04T09:40:34Z</time>
      </trkpt>
      <trkpt lat="48.04077" lon="6.82569">
        <ele>862.6</ele>
        <time>2024-08-04T09:40:35Z</time>
      </trkpt>
      <trkpt lat="48.04077" lon="6.82569">
        <ele>862.6</ele>
        <time>2024-08-04T09:40:36Z</time>
      </trkpt>
      <trkpt lat="48.04077" lon="6.82569">
        <ele>862.6</ele>
        <time>2024-08-04T09:40:37Z</time>
      </trkpt>
      <trkpt lat="48.04077" lon="6.82569">
        <ele>862.6</ele>
        <time>2024-08-04T09:40:38Z</time>
      </trkpt>
      <trkpt lat="48.04077" lon="6.82569">
        <ele>862.6</ele>
        <time>2024-08-04T09:40:39Z</time>
      </trkpt>
      <trkpt lat="48.04077" lon="6.82569">
        <ele>862.6</ele>
        <time>2024-08-04T09:40:40Z</time>
      </trkpt>
      <trkpt lat="48.04077" lon="6.82568">
        <ele>862.6</ele>
        <time>2024-08-04T09:40:41Z</time>
      </trkpt>
      <trkpt lat="48.04077" lon="6.82567">
        <ele>862.6</ele>
        <time>2024-08-04T09:40:42Z</time>
      </trkpt>
      <trkpt lat="48.04077" lon="6.82567">
        <ele>862.5</ele>
        <time>2024-08-04T09:40:43Z</time>
      </trkpt>
      <trkpt lat="48.04077" lon="6.82553">
        <ele>862.6</ele>
        <time>2024-08-04T09:40:55Z</time>
      </trkpt>
      <trkpt lat="48.04077" lon="6.82538">
        <ele>862.7</ele>
        <time>2024-08-04T09:41:05Z</time>
      </trkpt>
      <trkpt lat="48.04076" lon="6.82525">
        <ele>863.2</ele>
        <time>2024-08-04T09:41:15Z</time>
      </trkpt>
      <trkpt lat="48.04079" lon="6.8251">
        <ele>863.9</ele>
        <time>2024-08-04T09:41:26Z</time>
      </trkpt>
      <trkpt lat="48.04078" lon="6.82496">
        <ele>864.6</ele>
        <time>2024-08-04T09:41:36Z</time>
      </trkpt>
      <trkpt lat="48.04076" lon="6.82483">
        <ele>865.4</ele>
        <time>2024-08-04T09:41:45Z</time>
      </trkpt>
      <trkpt lat="48.04075" lon="6.82469">
        <ele>866.1</ele>
        <time>2024-08-04T09:41:53Z</time>
      </trkpt>
      <trkpt lat="48.04075" lon="6.82456">
        <ele>866.8</ele>
        <time>2024-08-04T09:42:01Z</time>
      </trkpt>
      <trkpt lat="48.04076" lon="6.82442">
        <ele>867.5</ele>
        <time>2024-08-04T09:42:10Z</time>
      </trkpt>
      <trkpt lat="48.04078" lon="6.82428">
        <ele>868.2</ele>
        <time>2024-08-04T09:42:18Z</time>
      </trkpt>
      <trkpt lat="48.04079" lon="6.82415">
        <ele>868.8</ele>
        <time>2024-08-04T09:42:26Z</time>
      </trkpt>
      <trkpt lat="48.04079" lon="6.824">
        <ele>869.5</ele>
        <time>2024-08-04T09:42:35Z</time>
      </trkpt>
      <trkpt lat="48.04079" lon="6.82386">
        <ele>870.3</ele>
        <time>2024-08-04T09:42:44Z</time>
      </trkpt>
      <trkpt lat="48.04079" lon="6.82372">
        <ele>870.9</ele>
        <time>2024-08-04T09:42:53Z</time>
      </trkpt>
      <trkpt lat="48.04079" lon="6.82358">
        <ele>871.3</ele>
        <time>2024-08-04T09:43:02Z</time>
      </trkpt>
      <trkpt lat="48.04077" lon="6.82344">
        <ele>871.2</ele>
        <time>2024-08-04T09:43:11Z</time>
      </trkpt>
      <trkpt lat="48.04077" lon="6.8233">
        <ele>871</ele>
        <time>2024-08-04T09:43:18Z</time>
      </trkpt>
      <trkpt lat="48.04079" lon="6.82315">
        <ele>870.7</ele>
        <time>2024-08-04T09:43:26Z</time>
      </trkpt>
      <trkpt lat="48.04082" lon="6.82301">
        <ele>870.2</ele>
        <time>2024-08-04T09:43:34Z</time>
      </trkpt>
      <trkpt lat="48.04086" lon="6.82289">
        <ele>869.7</ele>
        <time>2024-08-04T09:43:41Z</time>
      </trkpt>
      <trkpt lat="48.04089" lon="6.82276">
        <ele>869.3</ele>
        <time>2024-08-04T09:43:48Z</time>
      </trkpt>
      <trkpt lat="48.04093" lon="6.82262">
        <ele>868.9</ele>
        <time>2024-08-04T09:43:56Z</time>
      </trkpt>
      <trkpt lat="48.04096" lon="6.82248">
        <ele>868.5</ele>
        <time>2024-08-04T09:44:05Z</time>
      </trkpt>
      <trkpt lat="48.04102" lon="6.82237">
        <ele>868</ele>
        <time>2024-08-04T09:44:14Z</time>
      </trkpt>
      <trkpt lat="48.04102" lon="6.82223">
        <ele>867.5</ele>
        <time>2024-08-04T09:44:23Z</time>
      </trkpt>
      <trkpt lat="48.04102" lon="6.82207">
        <ele>866.8</ele>
        <time>2024-08-04T09:44:29Z</time>
      </trkpt>
      <trkpt lat="48.04103" lon="6.82193">
        <ele>866.2</ele>
        <time>2024-08-04T09:44:37Z</time>
      </trkpt>
      <trkpt lat="48.04104" lon="6.82179">
        <ele>865.6</ele>
        <time>2024-08-04T09:44:46Z</time>
      </trkpt>
      <trkpt lat="48.04105" lon="6.82166">
        <ele>865.2</ele>
        <time>2024-08-04T09:44:54Z</time>
      </trkpt>
      <trkpt lat="48.0411" lon="6.82153">
        <ele>865</ele>
        <time>2024-08-04T09:45:03Z</time>
      </trkpt>
      <trkpt lat="48.04112" lon="6.82139">
        <ele>864.9</ele>
        <time>2024-08-04T09:45:12Z</time>
      </trkpt>
      <trkpt lat="48.04114" lon="6.82125">
        <ele>864.9</ele>
        <time>2024-08-04T09:45:20Z</time>
      </trkpt>
      <trkpt lat="48.04118" lon="6.82112">
        <ele>865.1</ele>
        <time>2024-08-04T09:45:28Z</time>
      </trkpt>
      <trkpt lat="48.04122" lon="6.82098">
        <ele>865.4</ele>
        <time>2024-08-04T09:45:36Z</time>
      </trkpt>
      <trkpt lat="48.04124" lon="6.82084">
        <ele>865.9</ele>
        <time>2024-08-04T09:45:44Z</time>
      </trkpt>
      <trkpt lat="48.04127" lon="6.82072">
        <ele>866.5</ele>
        <time>2024-08-04T09:45:52Z</time>
      </trkpt>
      <trkpt lat="48.04131" lon="6.82059">
        <ele>867.3</ele>
        <time>2024-08-04T09:46:00Z</time>
      </trkpt>
      <trkpt lat="48.04132" lon="6.82046">
        <ele>868.1</ele>
        <time>2024-08-04T09:46:08Z</time>
      </trkpt>
      <trkpt lat="48.04134" lon="6.82031">
        <ele>868.9</ele>
        <time>2024-08-04T09:46:17Z</time>
      </trkpt>
      <trkpt lat="48.04135" lon="6.82016">
        <ele>869.5</ele>
        <time>2024-08-04T09:46:26Z</time>
      </trkpt>
      <trkpt lat="48.04137" lon="6.82002">
        <ele>869.9</ele>
        <time>2024-08-04T09:46:35Z</time>
      </trkpt>
      <trkpt lat="48.04136" lon="6.81988">
        <ele>870.1</ele>
        <time>2024-08-04T09:46:43Z</time>
      </trkpt>
      <trkpt lat="48.04136" lon="6.81974">
        <ele>870.2</ele>
        <time>2024-08-04T09:46:51Z</time>
      </trkpt>
      <trkpt lat="48.04137" lon="6.8196">
        <ele>870.2</ele>
        <time>2024-08-04T09:46:59Z</time>
      </trkpt>
      <trkpt lat="48.04137" lon="6.81947">
        <ele>870.3</ele>
        <time>2024-08-04T09:47:07Z</time>
      </trkpt>
      <trkpt lat="48.04136" lon="6.81933">
        <ele>870.5</ele>
        <time>2024-08-04T09:47:15Z</time>
      </trkpt>
      <trkpt lat="48.04134" lon="6.81919">
        <ele>870.9</ele>
        <time>2024-08-04T09:47:23Z</time>
      </trkpt>
      <trkpt lat="48.04136" lon="6.81905">
        <ele>871.2</ele>
        <time>2024-08-04T09:47:31Z</time>
      </trkpt>
      <trkpt lat="48.04136" lon="6.81891">
        <ele>871.4</ele>
        <time>2024-08-04T09:47:39Z</time>
      </trkpt>
      <trkpt lat="48.04137" lon="6.81876">
        <ele>871.6</ele>
        <time>2024-08-04T09:47:48Z</time>
      </trkpt>
      <trkpt lat="48.04138" lon="6.81861">
        <ele>871.8</ele>
        <time>2024-08-04T09:47:56Z</time>
      </trkpt>
      <trkpt lat="48.04139" lon="6.81847">
        <ele>872</ele>
        <time>2024-08-04T09:48:05Z</time>
      </trkpt>
      <trkpt lat="48.04141" lon="6.81843">
        <ele>872</ele>
        <time>2024-08-04T09:48:19Z</time>
      </trkpt>
      <trkpt lat="48.04141" lon="6.81843">
        <ele>872</ele>
        <time>2024-08-04T09:48:20Z</time>
      </trkpt>
      <trkpt lat="48.04141" lon="6.81843">
        <ele>872</ele>
        <time>2024-08-04T09:48:21Z</time>
      </trkpt>
      <trkpt lat="48.04141" lon="6.81843">
        <ele>872</ele>
        <time>2024-08-04T09:48:22Z</time>
      </trkpt>
      <trkpt lat="48.04141" lon="6.81842">
        <ele>872</ele>
        <time>2024-08-04T09:48:23Z</time>
      </trkpt>
      <trkpt lat="48.04139" lon="6.8183">
        <ele>872</ele>
        <time>2024-08-04T09:48:31Z</time>
      </trkpt>
      <trkpt lat="48.04138" lon="6.81822">
        <ele>871.8</ele>
        <time>2024-08-04T09:48:41Z</time>
      </trkpt>
      <trkpt lat="48.04138" lon="6.81822">
        <ele>871.8</ele>
        <time>2024-08-04T09:48:42Z</time>
      </trkpt>
      <trkpt lat="48.04138" lon="6.81822">
        <ele>871.8</ele>
        <time>2024-08-04T09:48:43Z</time>
      </trkpt>
      <trkpt lat="48.04139" lon="6.8182">
        <ele>871.8</ele>
        <time>2024-08-04T09:48:51Z</time>
      </trkpt>
      <trkpt lat="48.04139" lon="6.8182">
        <ele>871.8</ele>
        <time>2024-08-04T09:48:52Z</time>
      </trkpt>
      <trkpt lat="48.04139" lon="6.8182">
        <ele>871.8</ele>
        <time>2024-08-04T09:48:53Z</time>
      </trkpt>
      <trkpt lat="48.04139" lon="6.8182">
        <ele>871.8</ele>
        <time>2024-08-04T09:48:54Z</time>
      </trkpt>
      <trkpt lat="48.04139" lon="6.8182">
        <ele>871.8</ele>
        <time>2024-08-04T09:48:55Z</time>
      </trkpt>
      <trkpt lat="48.04138" lon="6.81819">
        <ele>871.8</ele>
        <time>2024-08-04T09:48:58Z</time>
      </trkpt>
      <trkpt lat="48.04138" lon="6.81819">
        <ele>871.7</ele>
        <time>2024-08-04T09:48:59Z</time>
      </trkpt>
      <trkpt lat="48.04138" lon="6.81819">
        <ele>871.7</ele>
        <time>2024-08-04T09:49:00Z</time>
      </trkpt>
      <trkpt lat="48.04138" lon="6.81819">
        <ele>871.7</ele>
        <time>2024-08-04T09:49:01Z</time>
      </trkpt>
      <trkpt lat="48.04138" lon="6.81819">
        <ele>871.7</ele>
        <time>2024-08-04T09:49:02Z</time>
      </trkpt>
      <trkpt lat="48.04138" lon="6.81819">
        <ele>871.7</ele>
        <time>2024-08-04T09:49:03Z</time>
      </trkpt>
      <trkpt lat="48.04138" lon="6.81817">
        <ele>871.7</ele>
        <time>2024-08-04T09:49:09Z</time>
      </trkpt>
      <trkpt lat="48.04138" lon="6.81816">
        <ele>871.7</ele>
        <time>2024-08-04T09:49:10Z</time>
      </trkpt>
      <trkpt lat="48.04136" lon="6.81802">
        <ele>871.2</ele>
        <time>2024-08-04T09:49:19Z</time>
      </trkpt>
      <trkpt lat="48.04136" lon="6.81789">
        <ele>870.7</ele>
        <time>2024-08-04T09:49:28Z</time>
      </trkpt>
      <trkpt lat="48.04138" lon="6.81774">
        <ele>870</ele>
        <time>2024-08-04T09:49:36Z</time>
      </trkpt>
      <trkpt lat="48.04138" lon="6.8176">
        <ele>869.3</ele>
        <time>2024-08-04T09:49:44Z</time>
      </trkpt>
      <trkpt lat="48.04139" lon="6.81746">
        <ele>868.5</ele>
        <time>2024-08-04T09:49:53Z</time>
      </trkpt>
      <trkpt lat="48.04141" lon="6.81732">
        <ele>867.7</ele>
        <time>2024-08-04T09:50:02Z</time>
      </trkpt>
      <trkpt lat="48.04144" lon="6.81717">
        <ele>866.9</ele>
        <time>2024-08-04T09:50:11Z</time>
      </trkpt>
      <trkpt lat="48.04145" lon="6.81704">
        <ele>866.1</ele>
        <time>2024-08-04T09:50:19Z</time>
      </trkpt>
      <trkpt lat="48.04145" lon="6.8169">
        <ele>865.3</ele>
        <time>2024-08-04T09:50:27Z</time>
      </trkpt>
      <trkpt lat="48.04144" lon="6.81676">
        <ele>864.5</ele>
        <time>2024-08-04T09:50:35Z</time>
      </trkpt>
      <trkpt lat="48.04141" lon="6.81662">
        <ele>863.7</ele>
        <time>2024-08-04T09:50:43Z</time>
      </trkpt>
      <trkpt lat="48.04142" lon="6.81648">
        <ele>862.6</ele>
        <time>2024-08-04T09:50:51Z</time>
      </trkpt>
      <trkpt lat="48.04152" lon="6.81652">
        <ele>861.4</ele>
        <time>2024-08-04T09:51:04Z</time>
      </trkpt>
      <trkpt lat="48.04159" lon="6.81662">
        <ele>860.2</ele>
        <time>2024-08-04T09:51:11Z</time>
      </trkpt>
      <trkpt lat="48.04165" lon="6.81674">
        <ele>859.3</ele>
        <time>2024-08-04T09:51:19Z</time>
      </trkpt>
      <trkpt lat="48.04172" lon="6.81684">
        <ele>858.5</ele>
        <time>2024-08-04T09:51:27Z</time>
      </trkpt>
      <trkpt lat="48.0418" lon="6.8169">
        <ele>857.8</ele>
        <time>2024-08-04T09:51:36Z</time>
      </trkpt>
      <trkpt lat="48.04189" lon="6.81689">
        <ele>857</ele>
        <time>2024-08-04T09:51:45Z</time>
      </trkpt>
      <trkpt lat="48.04196" lon="6.81698">
        <ele>856</ele>
        <time>2024-08-04T09:51:55Z</time>
      </trkpt>
      <trkpt lat="48.04204" lon="6.81706">
        <ele>855.6</ele>
        <time>2024-08-04T09:52:03Z</time>
      </trkpt>
      <trkpt lat="48.04213" lon="6.81711">
        <ele>855.4</ele>
        <time>2024-08-04T09:52:10Z</time>
      </trkpt>
      <trkpt lat="48.04225" lon="6.81711">
        <ele>855.2</ele>
        <time>2024-08-04T09:52:16Z</time>
      </trkpt>
      <trkpt lat="48.04233" lon="6.81704">
        <ele>855.1</ele>
        <time>2024-08-04T09:52:23Z</time>
      </trkpt>
      <trkpt lat="48.0424" lon="6.81695">
        <ele>855</ele>
        <time>2024-08-04T09:52:30Z</time>
      </trkpt>
      <trkpt lat="48.04247" lon="6.81683">
        <ele>854.9</ele>
        <time>2024-08-04T09:52:38Z</time>
      </trkpt>
      <trkpt lat="48.04253" lon="6.81674">
        <ele>854.9</ele>
        <time>2024-08-04T09:52:45Z</time>
      </trkpt>
      <trkpt lat="48.04258" lon="6.81662">
        <ele>854.8</ele>
        <time>2024-08-04T09:52:53Z</time>
      </trkpt>
      <trkpt lat="48.04264" lon="6.81651">
        <ele>854.7</ele>
        <time>2024-08-04T09:53:01Z</time>
      </trkpt>
      <trkpt lat="48.04269" lon="6.81638">
        <ele>854.6</ele>
        <time>2024-08-04T09:53:09Z</time>
      </trkpt>
      <trkpt lat="48.04275" lon="6.81626">
        <ele>854.6</ele>
        <time>2024-08-04T09:53:17Z</time>
      </trkpt>
      <trkpt lat="48.04281" lon="6.81614">
        <ele>854.6</ele>
        <time>2024-08-04T09:53:25Z</time>
      </trkpt>
      <trkpt lat="48.04289" lon="6.81607">
        <ele>854.7</ele>
        <time>2024-08-04T09:53:33Z</time>
      </trkpt>
      <trkpt lat="48.04298" lon="6.81602">
        <ele>854.9</ele>
        <time>2024-08-04T09:53:41Z</time>
      </trkpt>
      <trkpt lat="48.04306" lon="6.81594">
        <ele>855</ele>
        <time>2024-08-04T09:53:49Z</time>
      </trkpt>
      <trkpt lat="48.04312" lon="6.81581">
        <ele>855.1</ele>
        <time>2024-08-04T09:53:57Z</time>
      </trkpt>
      <trkpt lat="48.04315" lon="6.81567">
        <ele>855</ele>
        <time>2024-08-04T09:54:05Z</time>
      </trkpt>
      <trkpt lat="48.0432" lon="6.81554">
        <ele>854.9</ele>
        <time>2024-08-04T09:54:13Z</time>
      </trkpt>
      <trkpt lat="48.04326" lon="6.81541">
        <ele>854.8</ele>
        <time>2024-08-04T09:54:21Z</time>
      </trkpt>
      <trkpt lat="48.04332" lon="6.8153">
        <ele>854.7</ele>
        <time>2024-08-04T09:54:29Z</time>
      </trkpt>
      <trkpt lat="48.04338" lon="6.81518">
        <ele>854.6</ele>
        <time>2024-08-04T09:54:37Z</time>
      </trkpt>
      <trkpt lat="48.04344" lon="6.81506">
        <ele>854.6</ele>
        <time>2024-08-04T09:54:45Z</time>
      </trkpt>
      <trkpt lat="48.0435" lon="6.81494">
        <ele>854.5</ele>
        <time>2024-08-04T09:54:53Z</time>
      </trkpt>
      <trkpt lat="48.04356" lon="6.81483">
        <ele>854.5</ele>
        <time>2024-08-04T09:55:01Z</time>
      </trkpt>
      <trkpt lat="48.04362" lon="6.81472">
        <ele>854.5</ele>
        <time>2024-08-04T09:55:09Z</time>
      </trkpt>
      <trkpt lat="48.04368" lon="6.8146">
        <ele>854.4</ele>
        <time>2024-08-04T09:55:17Z</time>
      </trkpt>
      <trkpt lat="48.04375" lon="6.8145">
        <ele>854.4</ele>
        <time>2024-08-04T09:55:25Z</time>
      </trkpt>
      <trkpt lat="48.04381" lon="6.81438">
        <ele>854.4</ele>
        <time>2024-08-04T09:55:33Z</time>
      </trkpt>
      <trkpt lat="48.04387" lon="6.81428">
        <ele>854.4</ele>
        <time>2024-08-04T09:55:41Z</time>
      </trkpt>
      <trkpt lat="48.04396" lon="6.8142">
        <ele>854.5</ele>
        <time>2024-08-04T09:55:49Z</time>
      </trkpt>
      <trkpt lat="48.04402" lon="6.81408">
        <ele>854.5</ele>
        <time>2024-08-04T09:55:57Z</time>
      </trkpt>
      <trkpt lat="48.04408" lon="6.81398">
        <ele>854.6</ele>
        <time>2024-08-04T09:56:05Z</time>
      </trkpt>
      <trkpt lat="48.04415" lon="6.81387">
        <ele>854.8</ele>
        <time>2024-08-04T09:56:14Z</time>
      </trkpt>
      <trkpt lat="48.04422" lon="6.81376">
        <ele>855</ele>
        <time>2024-08-04T09:56:23Z</time>
      </trkpt>
      <trkpt lat="48.0443" lon="6.81369">
        <ele>855.3</ele>
        <time>2024-08-04T09:56:32Z</time>
      </trkpt>
      <trkpt lat="48.04439" lon="6.81362">
        <ele>855.7</ele>
        <time>2024-08-04T09:56:42Z</time>
      </trkpt>
      <trkpt lat="48.04448" lon="6.81358">
        <ele>856.2</ele>
        <time>2024-08-04T09:56:51Z</time>
      </trkpt>
      <trkpt lat="48.04456" lon="6.81348">
        <ele>856.6</ele>
        <time>2024-08-04T09:56:58Z</time>
      </trkpt>
      <trkpt lat="48.04464" lon="6.81342">
        <ele>857</ele>
        <time>2024-08-04T09:57:06Z</time>
      </trkpt>
      <trkpt lat="48.04473" lon="6.81341">
        <ele>857.5</ele>
        <time>2024-08-04T09:57:15Z</time>
      </trkpt>
      <trkpt lat="48.04482" lon="6.81337">
        <ele>858</ele>
        <time>2024-08-04T09:57:22Z</time>
      </trkpt>
      <trkpt lat="48.04491" lon="6.81335">
        <ele>858.5</ele>
        <time>2024-08-04T09:57:28Z</time>
      </trkpt>
      <trkpt lat="48.04501" lon="6.81337">
        <ele>859</ele>
        <time>2024-08-04T09:57:35Z</time>
      </trkpt>
      <trkpt lat="48.04511" lon="6.81338">
        <ele>859.5</ele>
        <time>2024-08-04T09:57:42Z</time>
      </trkpt>
      <trkpt lat="48.04521" lon="6.81337">
        <ele>859.9</ele>
        <time>2024-08-04T09:57:50Z</time>
      </trkpt>
      <trkpt lat="48.0453" lon="6.81328">
        <ele>860.3</ele>
        <time>2024-08-04T09:57:56Z</time>
      </trkpt>
      <trkpt lat="48.04537" lon="6.81319">
        <ele>860.7</ele>
        <time>2024-08-04T09:58:03Z</time>
      </trkpt>
      <trkpt lat="48.04543" lon="6.81306">
        <ele>861.1</ele>
        <time>2024-08-04T09:58:12Z</time>
      </trkpt>
      <trkpt lat="48.04548" lon="6.81295">
        <ele>861.4</ele>
        <time>2024-08-04T09:58:19Z</time>
      </trkpt>
      <trkpt lat="48.04554" lon="6.81284">
        <ele>861.8</ele>
        <time>2024-08-04T09:58:26Z</time>
      </trkpt>
      <trkpt lat="48.0456" lon="6.81272">
        <ele>862.3</ele>
        <time>2024-08-04T09:58:34Z</time>
      </trkpt>
      <trkpt lat="48.04565" lon="6.81259">
        <ele>862.7</ele>
        <time>2024-08-04T09:58:42Z</time>
      </trkpt>
      <trkpt lat="48.04569" lon="6.81245">
        <ele>863.2</ele>
        <time>2024-08-04T09:58:50Z</time>
      </trkpt>
      <trkpt lat="48.04573" lon="6.81232">
        <ele>863.9</ele>
        <time>2024-08-04T09:58:58Z</time>
      </trkpt>
      <trkpt lat="48.04575" lon="6.81217">
        <ele>864.9</ele>
        <time>2024-08-04T09:59:06Z</time>
      </trkpt>
      <trkpt lat="48.04571" lon="6.81204">
        <ele>865.9</ele>
        <time>2024-08-04T09:59:14Z</time>
      </trkpt>
      <trkpt lat="48.04567" lon="6.81192">
        <ele>866.5</ele>
        <time>2024-08-04T09:59:21Z</time>
      </trkpt>
      <trkpt lat="48.04561" lon="6.8118">
        <ele>867.3</ele>
        <time>2024-08-04T09:59:29Z</time>
      </trkpt>
      <trkpt lat="48.04556" lon="6.81169">
        <ele>868.2</ele>
        <time>2024-08-04T09:59:38Z</time>
      </trkpt>
      <trkpt lat="48.0455" lon="6.81158">
        <ele>869.1</ele>
        <time>2024-08-04T09:59:46Z</time>
      </trkpt>
      <trkpt lat="48.04545" lon="6.81146">
        <ele>870</ele>
        <time>2024-08-04T09:59:54Z</time>
      </trkpt>
      <trkpt lat="48.04538" lon="6.81136">
        <ele>870.8</ele>
        <time>2024-08-04T10:00:00Z</time>
      </trkpt>
      <trkpt lat="48.04529" lon="6.81131">
        <ele>871.4</ele>
        <time>2024-08-04T10:00:09Z</time>
      </trkpt>
      <trkpt lat="48.04521" lon="6.81125">
        <ele>871.7</ele>
        <time>2024-08-04T10:00:15Z</time>
      </trkpt>
      <trkpt lat="48.04514" lon="6.81117">
        <ele>871.9</ele>
        <time>2024-08-04T10:00:21Z</time>
      </trkpt>
      <trkpt lat="48.04505" lon="6.81112">
        <ele>872</ele>
        <time>2024-08-04T10:00:28Z</time>
      </trkpt>
      <trkpt lat="48.04497" lon="6.81103">
        <ele>872.2</ele>
        <time>2024-08-04T10:00:35Z</time>
      </trkpt>
      <trkpt lat="48.0449" lon="6.81093">
        <ele>872.2</ele>
        <time>2024-08-04T10:00:41Z</time>
      </trkpt>
      <trkpt lat="48.04483" lon="6.81085">
        <ele>872.3</ele>
        <time>2024-08-04T10:00:48Z</time>
      </trkpt>
      <trkpt lat="48.04477" lon="6.81075">
        <ele>872.5</ele>
        <time>2024-08-04T10:00:57Z</time>
      </trkpt>
      <trkpt lat="48.04472" lon="6.81063">
        <ele>872.7</ele>
        <time>2024-08-04T10:01:05Z</time>
      </trkpt>
      <trkpt lat="48.04467" lon="6.81051">
        <ele>872.9</ele>
        <time>2024-08-04T10:01:13Z</time>
      </trkpt>
      <trkpt lat="48.04463" lon="6.81037">
        <ele>873.2</ele>
        <time>2024-08-04T10:01:21Z</time>
      </trkpt>
      <trkpt lat="48.04459" lon="6.81024">
        <ele>873.6</ele>
        <time>2024-08-04T10:01:28Z</time>
      </trkpt>
      <trkpt lat="48.04456" lon="6.81011">
        <ele>874</ele>
        <time>2024-08-04T10:01:35Z</time>
      </trkpt>
      <trkpt lat="48.04455" lon="6.80996">
        <ele>874.5</ele>
        <time>2024-08-04T10:01:43Z</time>
      </trkpt>
      <trkpt lat="48.04454" lon="6.80981">
        <ele>875.1</ele>
        <time>2024-08-04T10:01:51Z</time>
      </trkpt>
      <trkpt lat="48.04455" lon="6.80967">
        <ele>875.7</ele>
        <time>2024-08-04T10:01:59Z</time>
      </trkpt>
      <trkpt lat="48.04458" lon="6.80952">
        <ele>876.4</ele>
        <time>2024-08-04T10:02:08Z</time>
      </trkpt>
      <trkpt lat="48.04462" lon="6.80939">
        <ele>877.4</ele>
        <time>2024-08-04T10:02:16Z</time>
      </trkpt>
      <trkpt lat="48.04464" lon="6.80925">
        <ele>878.5</ele>
        <time>2024-08-04T10:02:25Z</time>
      </trkpt>
      <trkpt lat="48.04468" lon="6.80912">
        <ele>879.7</ele>
        <time>2024-08-04T10:02:34Z</time>
      </trkpt>
      <trkpt lat="48.04471" lon="6.80899">
        <ele>881</ele>
        <time>2024-08-04T10:02:43Z</time>
      </trkpt>
      <trkpt lat="48.04475" lon="6.80885">
        <ele>882.3</ele>
        <time>2024-08-04T10:02:52Z</time>
      </trkpt>
      <trkpt lat="48.04479" lon="6.80873">
        <ele>883.5</ele>
        <time>2024-08-04T10:03:01Z</time>
      </trkpt>
      <trkpt lat="48.04484" lon="6.80861">
        <ele>884.7</ele>
        <time>2024-08-04T10:03:09Z</time>
      </trkpt>
      <trkpt lat="48.04488" lon="6.80849">
        <ele>885.7</ele>
        <time>2024-08-04T10:03:17Z</time>
      </trkpt>
      <trkpt lat="48.04495" lon="6.80839">
        <ele>886.7</ele>
        <time>2024-08-04T10:03:25Z</time>
      </trkpt>
      <trkpt lat="48.04499" lon="6.80827">
        <ele>887.8</ele>
        <time>2024-08-04T10:03:33Z</time>
      </trkpt>
      <trkpt lat="48.04503" lon="6.80813">
        <ele>888.8</ele>
        <time>2024-08-04T10:03:41Z</time>
      </trkpt>
      <trkpt lat="48.04507" lon="6.80801">
        <ele>889.8</ele>
        <time>2024-08-04T10:03:49Z</time>
      </trkpt>
      <trkpt lat="48.04512" lon="6.80789">
        <ele>890.8</ele>
        <time>2024-08-04T10:03:57Z</time>
      </trkpt>
      <trkpt lat="48.04517" lon="6.80778">
        <ele>891.9</ele>
        <time>2024-08-04T10:04:05Z</time>
      </trkpt>
      <trkpt lat="48.04523" lon="6.80767">
        <ele>893</ele>
        <time>2024-08-04T10:04:13Z</time>
      </trkpt>
      <trkpt lat="48.04528" lon="6.80755">
        <ele>894.1</ele>
        <time>2024-08-04T10:04:21Z</time>
      </trkpt>
      <trkpt lat="48.04535" lon="6.80745">
        <ele>895.3</ele>
        <time>2024-08-04T10:04:29Z</time>
      </trkpt>
      <trkpt lat="48.04542" lon="6.80737">
        <ele>896.5</ele>
        <time>2024-08-04T10:04:36Z</time>
      </trkpt>
      <trkpt lat="48.04546" lon="6.80725">
        <ele>897.7</ele>
        <time>2024-08-04T10:04:44Z</time>
      </trkpt>
      <trkpt lat="48.04554" lon="6.80716">
        <ele>898.9</ele>
        <time>2024-08-04T10:04:55Z</time>
      </trkpt>
      <trkpt lat="48.04561" lon="6.80706">
        <ele>900.2</ele>
        <time>2024-08-04T10:05:06Z</time>
      </trkpt>
      <trkpt lat="48.04567" lon="6.80696">
        <ele>901.3</ele>
        <time>2024-08-04T10:05:16Z</time>
      </trkpt>
      <trkpt lat="48.04573" lon="6.80685">
        <ele>902.4</ele>
        <time>2024-08-04T10:05:23Z</time>
      </trkpt>
      <trkpt lat="48.04579" lon="6.80674">
        <ele>903.5</ele>
        <time>2024-08-04T10:05:31Z</time>
      </trkpt>
      <trkpt lat="48.04586" lon="6.80665">
        <ele>904.6</ele>
        <time>2024-08-04T10:05:38Z</time>
      </trkpt>
      <trkpt lat="48.04593" lon="6.80653">
        <ele>905.6</ele>
        <time>2024-08-04T10:05:46Z</time>
      </trkpt>
      <trkpt lat="48.04595" lon="6.8064">
        <ele>906.4</ele>
        <time>2024-08-04T10:05:53Z</time>
      </trkpt>
      <trkpt lat="48.046" lon="6.80628">
        <ele>907</ele>
        <time>2024-08-04T10:06:00Z</time>
      </trkpt>
      <trkpt lat="48.04607" lon="6.80618">
        <ele>907.7</ele>
        <time>2024-08-04T10:06:07Z</time>
      </trkpt>
      <trkpt lat="48.0461" lon="6.80605">
        <ele>908.4</ele>
        <time>2024-08-04T10:06:15Z</time>
      </trkpt>
      <trkpt lat="48.04614" lon="6.80592">
        <ele>909.2</ele>
        <time>2024-08-04T10:06:23Z</time>
      </trkpt>
      <trkpt lat="48.04615" lon="6.80577">
        <ele>910.1</ele>
        <time>2024-08-04T10:06:31Z</time>
      </trkpt>
      <trkpt lat="48.04618" lon="6.80563">
        <ele>911</ele>
        <time>2024-08-04T10:06:39Z</time>
      </trkpt>
      <trkpt lat="48.04622" lon="6.8055">
        <ele>911.9</ele>
        <time>2024-08-04T10:06:47Z</time>
      </trkpt>
      <trkpt lat="48.04626" lon="6.80537">
        <ele>912.8</ele>
        <time>2024-08-04T10:06:55Z</time>
      </trkpt>
      <trkpt lat="48.0463" lon="6.80523">
        <ele>913.8</ele>
        <time>2024-08-04T10:07:03Z</time>
      </trkpt>
      <trkpt lat="48.04635" lon="6.80511">
        <ele>914.6</ele>
        <time>2024-08-04T10:07:11Z</time>
      </trkpt>
      <trkpt lat="48.04636" lon="6.80496">
        <ele>915.6</ele>
        <time>2024-08-04T10:07:19Z</time>
      </trkpt>
      <trkpt lat="48.04634" lon="6.80482">
        <ele>916.6</ele>
        <time>2024-08-04T10:07:26Z</time>
      </trkpt>
      <trkpt lat="48.04636" lon="6.80468">
        <ele>917.4</ele>
        <time>2024-08-04T10:07:34Z</time>
      </trkpt>
      <trkpt lat="48.04638" lon="6.80455">
        <ele>918.1</ele>
        <time>2024-08-04T10:07:42Z</time>
      </trkpt>
      <trkpt lat="48.04638" lon="6.8044">
        <ele>918.7</ele>
        <time>2024-08-04T10:07:50Z</time>
      </trkpt>
      <trkpt lat="48.04639" lon="6.80425">
        <ele>919.2</ele>
        <time>2024-08-04T10:07:58Z</time>
      </trkpt>
      <trkpt lat="48.0464" lon="6.80411">
        <ele>919.7</ele>
        <time>2024-08-04T10:08:06Z</time>
      </trkpt>
      <trkpt lat="48.04642" lon="6.80396">
        <ele>920.4</ele>
        <time>2024-08-04T10:08:15Z</time>
      </trkpt>
      <trkpt lat="48.04643" lon="6.80382">
        <ele>921.1</ele>
        <time>2024-08-04T10:08:24Z</time>
      </trkpt>
      <trkpt lat="48.04641" lon="6.80368">
        <ele>922</ele>
        <time>2024-08-04T10:08:31Z</time>
      </trkpt>
      <trkpt lat="48.04638" lon="6.80355">
        <ele>922.8</ele>
        <time>2024-08-04T10:08:38Z</time>
      </trkpt>
      <trkpt lat="48.04635" lon="6.80341">
        <ele>923.8</ele>
        <time>2024-08-04T10:08:46Z</time>
      </trkpt>
      <trkpt lat="48.04633" lon="6.80327">
        <ele>924.9</ele>
        <time>2024-08-04T10:08:54Z</time>
      </trkpt>
      <trkpt lat="48.04633" lon="6.80313">
        <ele>925.9</ele>
        <time>2024-08-04T10:09:03Z</time>
      </trkpt>
      <trkpt lat="48.04638" lon="6.80302">
        <ele>927</ele>
        <time>2024-08-04T10:09:11Z</time>
      </trkpt>
      <trkpt lat="48.04641" lon="6.80288">
        <ele>928.2</ele>
        <time>2024-08-04T10:09:20Z</time>
      </trkpt>
      <trkpt lat="48.04645" lon="6.80275">
        <ele>929.3</ele>
        <time>2024-08-04T10:09:29Z</time>
      </trkpt>
      <trkpt lat="48.0465" lon="6.80262">
        <ele>930.1</ele>
        <time>2024-08-04T10:09:38Z</time>
      </trkpt>
      <trkpt lat="48.04653" lon="6.80248">
        <ele>930.7</ele>
        <time>2024-08-04T10:09:46Z</time>
      </trkpt>
      <trkpt lat="48.04651" lon="6.80235">
        <ele>930.9</ele>
        <time>2024-08-04T10:09:53Z</time>
      </trkpt>
      <trkpt lat="48.04643" lon="6.80226">
        <ele>931.1</ele>
        <time>2024-08-04T10:10:01Z</time>
      </trkpt>
      <trkpt lat="48.04635" lon="6.8022">
        <ele>931.2</ele>
        <time>2024-08-04T10:10:09Z</time>
      </trkpt>
      <trkpt lat="48.04626" lon="6.80212">
        <ele>931</ele>
        <time>2024-08-04T10:10:17Z</time>
      </trkpt>
      <trkpt lat="48.04619" lon="6.80202">
        <ele>930.4</ele>
        <time>2024-08-04T10:10:26Z</time>
      </trkpt>
      <trkpt lat="48.04615" lon="6.80188">
        <ele>929.4</ele>
        <time>2024-08-04T10:10:36Z</time>
      </trkpt>
      <trkpt lat="48.0461" lon="6.80177">
        <ele>928.6</ele>
        <time>2024-08-04T10:10:45Z</time>
      </trkpt>
      <trkpt lat="48.04604" lon="6.80166">
        <ele>927.9</ele>
        <time>2024-08-04T10:10:53Z</time>
      </trkpt>
      <trkpt lat="48.046" lon="6.80154">
        <ele>927.5</ele>
        <time>2024-08-04T10:11:02Z</time>
      </trkpt>
      <trkpt lat="48.04595" lon="6.80142">
        <ele>927.4</ele>
        <time>2024-08-04T10:11:10Z</time>
      </trkpt>
      <trkpt lat="48.0459" lon="6.80129">
        <ele>927.5</ele>
        <time>2024-08-04T10:11:17Z</time>
      </trkpt>
      <trkpt lat="48.04588" lon="6.80115">
        <ele>927.7</ele>
        <time>2024-08-04T10:11:25Z</time>
      </trkpt>
      <trkpt lat="48.04586" lon="6.80102">
        <ele>928</ele>
        <time>2024-08-04T10:11:32Z</time>
      </trkpt>
      <trkpt lat="48.04585" lon="6.80088">
        <ele>928.4</ele>
        <time>2024-08-04T10:11:40Z</time>
      </trkpt>
      <trkpt lat="48.04584" lon="6.80083">
        <ele>928.5</ele>
        <time>2024-08-04T10:11:47Z</time>
      </trkpt>
      <trkpt lat="48.04584" lon="6.80083">
        <ele>928.5</ele>
        <time>2024-08-04T10:11:48Z</time>
      </trkpt>
      <trkpt lat="48.04585" lon="6.80082">
        <ele>928.6</ele>
        <time>2024-08-04T10:11:54Z</time>
      </trkpt>
      <trkpt lat="48.04585" lon="6.8008">
        <ele>928.6</ele>
        <time>2024-08-04T10:11:55Z</time>
      </trkpt>
      <trkpt lat="48.04585" lon="6.80079">
        <ele>928.7</ele>
        <time>2024-08-04T10:11:56Z</time>
      </trkpt>
      <trkpt lat="48.04591" lon="6.80068">
        <ele>929.4</ele>
        <time>2024-08-04T10:12:05Z</time>
      </trkpt>
      <trkpt lat="48.04598" lon="6.80058">
        <ele>930</ele>
        <time>2024-08-04T10:12:14Z</time>
      </trkpt>
      <trkpt lat="48.04605" lon="6.80048">
        <ele>930.8</ele>
        <time>2024-08-04T10:12:24Z</time>
      </trkpt>
      <trkpt lat="48.04612" lon="6.80039">
        <ele>931.6</ele>
        <time>2024-08-04T10:12:34Z</time>
      </trkpt>
      <trkpt lat="48.04619" lon="6.8003">
        <ele>932.4</ele>
        <time>2024-08-04T10:12:45Z</time>
      </trkpt>
      <trkpt lat="48.04625" lon="6.80019">
        <ele>933.2</ele>
        <time>2024-08-04T10:12:54Z</time>
      </trkpt>
      <trkpt lat="48.0463" lon="6.80007">
        <ele>933.8</ele>
        <time>2024-08-04T10:13:03Z</time>
      </trkpt>
      <trkpt lat="48.04633" lon="6.79994">
        <ele>934.4</ele>
        <time>2024-08-04T10:13:12Z</time>
      </trkpt>
      <trkpt lat="48.04637" lon="6.79982">
        <ele>935.1</ele>
        <time>2024-08-04T10:13:22Z</time>
      </trkpt>
      <trkpt lat="48.04637" lon="6.79982">
        <ele>935.2</ele>
        <time>2024-08-04T10:13:26Z</time>
      </trkpt>
      <trkpt lat="48.04637" lon="6.79982">
        <ele>935.2</ele>
        <time>2024-08-04T10:13:27Z</time>
      </trkpt>
      <trkpt lat="48.04637" lon="6.79982">
        <ele>935.2</ele>
        <time>2024-08-04T10:13:31Z</time>
      </trkpt>
      <trkpt lat="48.04637" lon="6.79982">
        <ele>935.2</ele>
        <time>2024-08-04T10:13:32Z</time>
      </trkpt>
      <trkpt lat="48.04638" lon="6.79983">
        <ele>935.3</ele>
        <time>2024-08-04T10:13:38Z</time>
      </trkpt>
      <trkpt lat="48.04638" lon="6.79983">
        <ele>935.3</ele>
        <time>2024-08-04T10:13:39Z</time>
      </trkpt>
      <trkpt lat="48.04638" lon="6.79983">
        <ele>935.3</ele>
        <time>2024-08-04T10:13:40Z</time>
      </trkpt>
      <trkpt lat="48.04638" lon="6.79983">
        <ele>935.3</ele>
        <time>2024-08-04T10:14:02Z</time>
      </trkpt>
      <trkpt lat="48.04638" lon="6.79983">
        <ele>935.3</ele>
        <time>2024-08-04T10:14:03Z</time>
      </trkpt>
      <trkpt lat="48.0464" lon="6.79976">
        <ele>935.8</ele>
        <time>2024-08-04T10:14:17Z</time>
      </trkpt>
      <trkpt lat="48.0464" lon="6.79976">
        <ele>935.8</ele>
        <time>2024-08-04T10:14:18Z</time>
      </trkpt>
      <trkpt lat="48.04641" lon="6.7998">
        <ele>936.2</ele>
        <time>2024-08-04T10:14:29Z</time>
      </trkpt>
      <trkpt lat="48.04641" lon="6.7998">
        <ele>936.2</ele>
        <time>2024-08-04T10:14:30Z</time>
      </trkpt>
      <trkpt lat="48.04642" lon="6.79966">
        <ele>937.3</ele>
        <time>2024-08-04T10:14:40Z</time>
      </trkpt>
      <trkpt lat="48.04648" lon="6.79956">
        <ele>938.4</ele>
        <time>2024-08-04T10:15:06Z</time>
      </trkpt>
      <trkpt lat="48.04652" lon="6.79944">
        <ele>939.4</ele>
        <time>2024-08-04T10:15:21Z</time>
      </trkpt>
      <trkpt lat="48.04655" lon="6.7993">
        <ele>940.2</ele>
        <time>2024-08-04T10:15:39Z</time>
      </trkpt>
      <trkpt lat="48.04653" lon="6.79917">
        <ele>940.7</ele>
        <time>2024-08-04T10:16:00Z</time>
      </trkpt>
      <trkpt lat="48.04653" lon="6.79918">
        <ele>940.7</ele>
        <time>2024-08-04T10:16:04Z</time>
      </trkpt>
      <trkpt lat="48.04653" lon="6.79918">
        <ele>940.7</ele>
        <time>2024-08-04T10:16:05Z</time>
      </trkpt>
      <trkpt lat="48.04654" lon="6.79914">
        <ele>940.8</ele>
        <time>2024-08-04T10:16:08Z</time>
      </trkpt>
      <trkpt lat="48.04655" lon="6.79913">
        <ele>940.8</ele>
        <time>2024-08-04T10:16:09Z</time>
      </trkpt>
      <trkpt lat="48.04655" lon="6.79913">
        <ele>940.8</ele>
        <time>2024-08-04T10:16:10Z</time>
      </trkpt>
      <trkpt lat="48.04656" lon="6.79899">
        <ele>941</ele>
        <time>2024-08-04T10:16:30Z</time>
      </trkpt>
      <trkpt lat="48.04661" lon="6.79886">
        <ele>941</ele>
        <time>2024-08-04T10:16:39Z</time>
      </trkpt>
      <trkpt lat="48.04668" lon="6.79876">
        <ele>940.9</ele>
        <time>2024-08-04T10:16:47Z</time>
      </trkpt>
      <trkpt lat="48.04674" lon="6.79865">
        <ele>940.7</ele>
        <time>2024-08-04T10:16:56Z</time>
      </trkpt>
      <trkpt lat="48.0468" lon="6.79853">
        <ele>940.3</ele>
        <time>2024-08-04T10:17:04Z</time>
      </trkpt>
      <trkpt lat="48.04686" lon="6.79843">
        <ele>940.1</ele>
        <time>2024-08-04T10:17:11Z</time>
      </trkpt>
      <trkpt lat="48.04692" lon="6.79832">
        <ele>939.9</ele>
        <time>2024-08-04T10:17:19Z</time>
      </trkpt>
      <trkpt lat="48.04697" lon="6.7982">
        <ele>939.8</ele>
        <time>2024-08-04T10:17:27Z</time>
      </trkpt>
      <trkpt lat="48.04704" lon="6.7981">
        <ele>939.8</ele>
        <time>2024-08-04T10:17:36Z</time>
      </trkpt>
      <trkpt lat="48.04706" lon="6.79796">
        <ele>939.9</ele>
        <time>2024-08-04T10:17:44Z</time>
      </trkpt>
      <trkpt lat="48.0471" lon="6.79784">
        <ele>940</ele>
        <time>2024-08-04T10:17:54Z</time>
      </trkpt>
      <trkpt lat="48.04719" lon="6.79777">
        <ele>940.2</ele>
        <time>2024-08-04T10:18:07Z</time>
      </trkpt>
      <trkpt lat="48.04726" lon="6.79769">
        <ele>940.4</ele>
        <time>2024-08-04T10:18:18Z</time>
      </trkpt>
      <trkpt lat="48.04735" lon="6.79761">
        <ele>940.7</ele>
        <time>2024-08-04T10:18:29Z</time>
      </trkpt>
      <trkpt lat="48.04742" lon="6.79751">
        <ele>941.1</ele>
        <time>2024-08-04T10:18:39Z</time>
      </trkpt>
      <trkpt lat="48.04748" lon="6.7974">
        <ele>941.5</ele>
        <time>2024-08-04T10:18:52Z</time>
      </trkpt>
      <trkpt lat="48.04755" lon="6.7973">
        <ele>942</ele>
        <time>2024-08-04T10:19:01Z</time>
      </trkpt>
      <trkpt lat="48.04762" lon="6.7972">
        <ele>942.6</ele>
        <time>2024-08-04T10:19:09Z</time>
      </trkpt>
      <trkpt lat="48.04767" lon="6.79706">
        <ele>943.2</ele>
        <time>2024-08-04T10:19:18Z</time>
      </trkpt>
      <trkpt lat="48.0477" lon="6.79693">
        <ele>943.8</ele>
        <time>2024-08-04T10:19:25Z</time>
      </trkpt>
      <trkpt lat="48.04768" lon="6.79679">
        <ele>944.3</ele>
        <time>2024-08-04T10:19:32Z</time>
      </trkpt>
      <trkpt lat="48.04763" lon="6.79667">
        <ele>944.7</ele>
        <time>2024-08-04T10:19:39Z</time>
      </trkpt>
      <trkpt lat="48.0476" lon="6.79652">
        <ele>945.3</ele>
        <time>2024-08-04T10:19:48Z</time>
      </trkpt>
      <trkpt lat="48.04755" lon="6.79641">
        <ele>945.8</ele>
        <time>2024-08-04T10:19:58Z</time>
      </trkpt>
      <trkpt lat="48.04747" lon="6.79631">
        <ele>946.4</ele>
        <time>2024-08-04T10:20:08Z</time>
      </trkpt>
      <trkpt lat="48.04738" lon="6.79626">
        <ele>946.8</ele>
        <time>2024-08-04T10:20:18Z</time>
      </trkpt>
      <trkpt lat="48.04729" lon="6.7962">
        <ele>947.2</ele>
        <time>2024-08-04T10:20:26Z</time>
      </trkpt>
      <trkpt lat="48.04721" lon="6.79614">
        <ele>947.4</ele>
        <time>2024-08-04T10:20:33Z</time>
      </trkpt>
      <trkpt lat="48.04712" lon="6.7961">
        <ele>947.4</ele>
        <time>2024-08-04T10:20:43Z</time>
      </trkpt>
      <trkpt lat="48.04703" lon="6.79609">
        <ele>947.5</ele>
        <time>2024-08-04T10:20:52Z</time>
      </trkpt>
      <trkpt lat="48.04692" lon="6.79607">
        <ele>947.6</ele>
        <time>2024-08-04T10:21:01Z</time>
      </trkpt>
      <trkpt lat="48.04683" lon="6.79608">
        <ele>947.7</ele>
        <time>2024-08-04T10:21:12Z</time>
      </trkpt>
      <trkpt lat="48.04674" lon="6.79614">
        <ele>947.7</ele>
        <time>2024-08-04T10:21:19Z</time>
      </trkpt>
      <trkpt lat="48.04665" lon="6.7962">
        <ele>947.8</ele>
        <time>2024-08-04T10:21:27Z</time>
      </trkpt>
      <trkpt lat="48.04656" lon="6.7962">
        <ele>947.8</ele>
        <time>2024-08-04T10:21:34Z</time>
      </trkpt>
      <trkpt lat="48.04646" lon="6.79618">
        <ele>947.7</ele>
        <time>2024-08-04T10:21:42Z</time>
      </trkpt>
      <trkpt lat="48.04637" lon="6.79616">
        <ele>947.5</ele>
        <time>2024-08-04T10:21:50Z</time>
      </trkpt>
      <trkpt lat="48.04626" lon="6.79617">
        <ele>947.3</ele>
        <time>2024-08-04T10:21:57Z</time>
      </trkpt>
      <trkpt lat="48.04618" lon="6.79621">
        <ele>947.2</ele>
        <time>2024-08-04T10:22:06Z</time>
      </trkpt>
      <trkpt lat="48.04609" lon="6.79626">
        <ele>947.2</ele>
        <time>2024-08-04T10:22:19Z</time>
      </trkpt>
      <trkpt lat="48.046" lon="6.79624">
        <ele>947.1</ele>
        <time>2024-08-04T10:22:26Z</time>
      </trkpt>
      <trkpt lat="48.0459" lon="6.79626">
        <ele>947.1</ele>
        <time>2024-08-04T10:22:39Z</time>
      </trkpt>
      <trkpt lat="48.04588" lon="6.79629">
        <ele>947</ele>
        <time>2024-08-04T10:22:41Z</time>
      </trkpt>
      <trkpt lat="48.04588" lon="6.79629">
        <ele>947</ele>
        <time>2024-08-04T10:22:42Z</time>
      </trkpt>
      <trkpt lat="48.04583" lon="6.79634">
        <ele>947</ele>
        <time>2024-08-04T10:22:54Z</time>
      </trkpt>
      <trkpt lat="48.04582" lon="6.79634">
        <ele>947</ele>
        <time>2024-08-04T10:22:55Z</time>
      </trkpt>
      <trkpt lat="48.04582" lon="6.79634">
        <ele>947</ele>
        <time>2024-08-04T10:22:56Z</time>
      </trkpt>
      <trkpt lat="48.04576" lon="6.79631">
        <ele>947</ele>
        <time>2024-08-04T10:23:04Z</time>
      </trkpt>
      <trkpt lat="48.04576" lon="6.79631">
        <ele>947</ele>
        <time>2024-08-04T10:23:05Z</time>
      </trkpt>
      <trkpt lat="48.04574" lon="6.79631">
        <ele>947</ele>
        <time>2024-08-04T10:23:31Z</time>
      </trkpt>
      <trkpt lat="48.04574" lon="6.79631">
        <ele>947</ele>
        <time>2024-08-04T10:23:32Z</time>
      </trkpt>
      <trkpt lat="48.04573" lon="6.79631">
        <ele>947</ele>
        <time>2024-08-04T10:23:36Z</time>
      </trkpt>
      <trkpt lat="48.04573" lon="6.79632">
        <ele>947</ele>
        <time>2024-08-04T10:23:37Z</time>
      </trkpt>
      <trkpt lat="48.04571" lon="6.79632">
        <ele>947</ele>
        <time>2024-08-04T10:23:41Z</time>
      </trkpt>
      <trkpt lat="48.0457" lon="6.79632">
        <ele>947</ele>
        <time>2024-08-04T10:23:42Z</time>
      </trkpt>
      <trkpt lat="48.04569" lon="6.79633">
        <ele>947</ele>
        <time>2024-08-04T10:23:43Z</time>
      </trkpt>
      <trkpt lat="48.04559" lon="6.79632">
        <ele>947.2</ele>
        <time>2024-08-04T10:23:53Z</time>
      </trkpt>
      <trkpt lat="48.0455" lon="6.79631">
        <ele>947.3</ele>
        <time>2024-08-04T10:24:04Z</time>
      </trkpt>
      <trkpt lat="48.04541" lon="6.79632">
        <ele>947.3</ele>
        <time>2024-08-04T10:24:10Z</time>
      </trkpt>
      <trkpt lat="48.04532" lon="6.79633">
        <ele>947.2</ele>
        <time>2024-08-04T10:24:20Z</time>
      </trkpt>
      <trkpt lat="48.04522" lon="6.79629">
        <ele>946.8</ele>
        <time>2024-08-04T10:24:29Z</time>
      </trkpt>
      <trkpt lat="48.04512" lon="6.79624">
        <ele>946.3</ele>
        <time>2024-08-04T10:24:40Z</time>
      </trkpt>
      <trkpt lat="48.04504" lon="6.79618">
        <ele>946</ele>
        <time>2024-08-04T10:24:47Z</time>
      </trkpt>
      <trkpt lat="48.04497" lon="6.79609">
        <ele>945.7</ele>
        <time>2024-08-04T10:24:59Z</time>
      </trkpt>
      <trkpt lat="48.04489" lon="6.796">
        <ele>945.4</ele>
        <time>2024-08-04T10:25:09Z</time>
      </trkpt>
      <trkpt lat="48.04483" lon="6.79588">
        <ele>945.1</ele>
        <time>2024-08-04T10:25:18Z</time>
      </trkpt>
      <trkpt lat="48.04478" lon="6.79576">
        <ele>944.9</ele>
        <time>2024-08-04T10:25:26Z</time>
      </trkpt>
      <trkpt lat="48.0447" lon="6.79566">
        <ele>944.6</ele>
        <time>2024-08-04T10:25:34Z</time>
      </trkpt>
      <trkpt lat="48.04463" lon="6.79557">
        <ele>944.4</ele>
        <time>2024-08-04T10:25:43Z</time>
      </trkpt>
      <trkpt lat="48.04455" lon="6.7955">
        <ele>944.3</ele>
        <time>2024-08-04T10:25:51Z</time>
      </trkpt>
      <trkpt lat="48.04447" lon="6.79542">
        <ele>944.3</ele>
        <time>2024-08-04T10:25:57Z</time>
      </trkpt>
      <trkpt lat="48.0444" lon="6.79534">
        <ele>944.3</ele>
        <time>2024-08-04T10:26:06Z</time>
      </trkpt>
      <trkpt lat="48.04433" lon="6.79526">
        <ele>944.2</ele>
        <time>2024-08-04T10:26:14Z</time>
      </trkpt>
      <trkpt lat="48.04427" lon="6.79515">
        <ele>944.2</ele>
        <time>2024-08-04T10:26:23Z</time>
      </trkpt>
      <trkpt lat="48.04421" lon="6.79504">
        <ele>944</ele>
        <time>2024-08-04T10:26:32Z</time>
      </trkpt>
      <trkpt lat="48.04415" lon="6.79492">
        <ele>943.8</ele>
        <time>2024-08-04T10:26:39Z</time>
      </trkpt>
      <trkpt lat="48.04409" lon="6.79481">
        <ele>943.5</ele>
        <time>2024-08-04T10:26:47Z</time>
      </trkpt>
      <trkpt lat="48.04403" lon="6.79469">
        <ele>943.1</ele>
        <time>2024-08-04T10:26:56Z</time>
      </trkpt>
      <trkpt lat="48.04398" lon="6.79458">
        <ele>942.7</ele>
        <time>2024-08-04T10:27:04Z</time>
      </trkpt>
      <trkpt lat="48.04392" lon="6.79448">
        <ele>942.3</ele>
        <time>2024-08-04T10:27:12Z</time>
      </trkpt>
      <trkpt lat="48.04386" lon="6.79437">
        <ele>941.9</ele>
        <time>2024-08-04T10:27:21Z</time>
      </trkpt>
      <trkpt lat="48.04382" lon="6.79424">
        <ele>941.5</ele>
        <time>2024-08-04T10:27:31Z</time>
      </trkpt>
      <trkpt lat="48.04381" lon="6.79409">
        <ele>940.9</ele>
        <time>2024-08-04T10:27:41Z</time>
      </trkpt>
      <trkpt lat="48.04379" lon="6.79396">
        <ele>940.4</ele>
        <time>2024-08-04T10:27:49Z</time>
      </trkpt>
      <trkpt lat="48.04381" lon="6.79382">
        <ele>939.8</ele>
        <time>2024-08-04T10:27:58Z</time>
      </trkpt>
      <trkpt lat="48.04381" lon="6.79369">
        <ele>939.4</ele>
        <time>2024-08-04T10:28:06Z</time>
      </trkpt>
      <trkpt lat="48.0438" lon="6.79354">
        <ele>939</ele>
        <time>2024-08-04T10:28:17Z</time>
      </trkpt>
      <trkpt lat="48.04379" lon="6.7934">
        <ele>938.5</ele>
        <time>2024-08-04T10:28:27Z</time>
      </trkpt>
      <trkpt lat="48.04377" lon="6.79327">
        <ele>938.2</ele>
        <time>2024-08-04T10:28:36Z</time>
      </trkpt>
      <trkpt lat="48.04376" lon="6.79314">
        <ele>937.8</ele>
        <time>2024-08-04T10:28:43Z</time>
      </trkpt>
      <trkpt lat="48.04374" lon="6.79299">
        <ele>937.5</ele>
        <time>2024-08-04T10:28:50Z</time>
      </trkpt>
      <trkpt lat="48.04369" lon="6.79286">
        <ele>937.2</ele>
        <time>2024-08-04T10:28:57Z</time>
      </trkpt>
      <trkpt lat="48.04365" lon="6.79274">
        <ele>937</ele>
        <time>2024-08-04T10:29:03Z</time>
      </trkpt>
      <trkpt lat="48.04361" lon="6.79261">
        <ele>936.9</ele>
        <time>2024-08-04T10:29:13Z</time>
      </trkpt>
      <trkpt lat="48.04357" lon="6.79247">
        <ele>936.9</ele>
        <time>2024-08-04T10:29:20Z</time>
      </trkpt>
      <trkpt lat="48.04352" lon="6.79235">
        <ele>936.8</ele>
        <time>2024-08-04T10:29:29Z</time>
      </trkpt>
      <trkpt lat="48.04348" lon="6.79223">
        <ele>936.8</ele>
        <time>2024-08-04T10:29:38Z</time>
      </trkpt>
      <trkpt lat="48.04346" lon="6.7921">
        <ele>936.7</ele>
        <time>2024-08-04T10:29:47Z</time>
      </trkpt>
      <trkpt lat="48.04343" lon="6.79196">
        <ele>936.3</ele>
        <time>2024-08-04T10:29:55Z</time>
      </trkpt>
      <trkpt lat="48.0434" lon="6.79183">
        <ele>935.6</ele>
        <time>2024-08-04T10:30:06Z</time>
      </trkpt>
      <trkpt lat="48.04336" lon="6.79169">
        <ele>934.6</ele>
        <time>2024-08-04T10:30:16Z</time>
      </trkpt>
      <trkpt lat="48.04332" lon="6.79156">
        <ele>933.7</ele>
        <time>2024-08-04T10:30:24Z</time>
      </trkpt>
      <trkpt lat="48.04327" lon="6.79145">
        <ele>932.7</ele>
        <time>2024-08-04T10:30:31Z</time>
      </trkpt>
      <trkpt lat="48.04323" lon="6.79133">
        <ele>931.6</ele>
        <time>2024-08-04T10:30:37Z</time>
      </trkpt>
      <trkpt lat="48.04318" lon="6.7912">
        <ele>930.4</ele>
        <time>2024-08-04T10:30:47Z</time>
      </trkpt>
      <trkpt lat="48.04314" lon="6.79108">
        <ele>929.3</ele>
        <time>2024-08-04T10:30:56Z</time>
      </trkpt>
      <trkpt lat="48.04307" lon="6.79097">
        <ele>928</ele>
        <time>2024-08-04T10:31:02Z</time>
      </trkpt>
      <trkpt lat="48.04302" lon="6.79085">
        <ele>926.8</ele>
        <time>2024-08-04T10:31:13Z</time>
      </trkpt>
      <trkpt lat="48.04299" lon="6.79072">
        <ele>925.7</ele>
        <time>2024-08-04T10:31:22Z</time>
      </trkpt>
      <trkpt lat="48.04295" lon="6.7906">
        <ele>924.8</ele>
        <time>2024-08-04T10:31:31Z</time>
      </trkpt>
      <trkpt lat="48.0429" lon="6.79048">
        <ele>923.9</ele>
        <time>2024-08-04T10:31:41Z</time>
      </trkpt>
      <trkpt lat="48.04289" lon="6.79048">
        <ele>923.8</ele>
        <time>2024-08-04T10:31:43Z</time>
      </trkpt>
      <trkpt lat="48.04289" lon="6.79047">
        <ele>923.8</ele>
        <time>2024-08-04T10:31:44Z</time>
      </trkpt>
      <trkpt lat="48.04289" lon="6.79046">
        <ele>923.7</ele>
        <time>2024-08-04T10:31:45Z</time>
      </trkpt>
      <trkpt lat="48.04288" lon="6.79044">
        <ele>923.6</ele>
        <time>2024-08-04T10:31:46Z</time>
      </trkpt>
      <trkpt lat="48.04288" lon="6.79043">
        <ele>923.5</ele>
        <time>2024-08-04T10:31:47Z</time>
      </trkpt>
      <trkpt lat="48.04287" lon="6.79028">
        <ele>922.8</ele>
        <time>2024-08-04T10:31:58Z</time>
      </trkpt>
      <trkpt lat="48.04284" lon="6.79015">
        <ele>922.4</ele>
        <time>2024-08-04T10:32:07Z</time>
      </trkpt>
      <trkpt lat="48.04278" lon="6.79003">
        <ele>922</ele>
        <time>2024-08-04T10:32:15Z</time>
      </trkpt>
      <trkpt lat="48.04276" lon="6.7899">
        <ele>921.7</ele>
        <time>2024-08-04T10:32:24Z</time>
      </trkpt>
      <trkpt lat="48.04271" lon="6.78979">
        <ele>921.5</ele>
        <time>2024-08-04T10:32:35Z</time>
      </trkpt>
      <trkpt lat="48.04265" lon="6.78967">
        <ele>921.3</ele>
        <time>2024-08-04T10:32:42Z</time>
      </trkpt>
      <trkpt lat="48.04263" lon="6.78953">
        <ele>921.2</ele>
        <time>2024-08-04T10:32:52Z</time>
      </trkpt>
      <trkpt lat="48.04261" lon="6.78939">
        <ele>921.1</ele>
        <time>2024-08-04T10:33:00Z</time>
      </trkpt>
      <trkpt lat="48.04259" lon="6.78926">
        <ele>921.1</ele>
        <time>2024-08-04T10:33:08Z</time>
      </trkpt>
      <trkpt lat="48.04257" lon="6.78912">
        <ele>921.1</ele>
        <time>2024-08-04T10:33:17Z</time>
      </trkpt>
      <trkpt lat="48.04255" lon="6.78897">
        <ele>921.2</ele>
        <time>2024-08-04T10:33:27Z</time>
      </trkpt>
      <trkpt lat="48.04255" lon="6.78883">
        <ele>921.3</ele>
        <time>2024-08-04T10:33:35Z</time>
      </trkpt>
      <trkpt lat="48.04257" lon="6.7887">
        <ele>921.5</ele>
        <time>2024-08-04T10:33:43Z</time>
      </trkpt>
      <trkpt lat="48.04262" lon="6.78858">
        <ele>921.7</ele>
        <time>2024-08-04T10:33:54Z</time>
      </trkpt>
      <trkpt lat="48.04269" lon="6.78846">
        <ele>922</ele>
        <time>2024-08-04T10:34:02Z</time>
      </trkpt>
      <trkpt lat="48.04275" lon="6.78833">
        <ele>922.4</ele>
        <time>2024-08-04T10:34:10Z</time>
      </trkpt>
      <trkpt lat="48.04278" lon="6.78819">
        <ele>922.7</ele>
        <time>2024-08-04T10:34:19Z</time>
      </trkpt>
      <trkpt lat="48.04278" lon="6.78804">
        <ele>923.1</ele>
        <time>2024-08-04T10:34:27Z</time>
      </trkpt>
      <trkpt lat="48.04277" lon="6.7879">
        <ele>923.5</ele>
        <time>2024-08-04T10:34:37Z</time>
      </trkpt>
      <trkpt lat="48.04272" lon="6.78778">
        <ele>923.9</ele>
        <time>2024-08-04T10:34:45Z</time>
      </trkpt>
      <trkpt lat="48.0427" lon="6.78764">
        <ele>924.3</ele>
        <time>2024-08-04T10:34:56Z</time>
      </trkpt>
      <trkpt lat="48.04265" lon="6.78753">
        <ele>924.7</ele>
        <time>2024-08-04T10:35:04Z</time>
      </trkpt>
      <trkpt lat="48.04257" lon="6.78743">
        <ele>925.1</ele>
        <time>2024-08-04T10:35:10Z</time>
      </trkpt>
      <trkpt lat="48.04249" lon="6.78736">
        <ele>925.5</ele>
        <time>2024-08-04T10:35:15Z</time>
      </trkpt>
      <trkpt lat="48.0424" lon="6.7873">
        <ele>925.9</ele>
        <time>2024-08-04T10:35:23Z</time>
      </trkpt>
      <trkpt lat="48.04231" lon="6.78726">
        <ele>926.4</ele>
        <time>2024-08-04T10:35:31Z</time>
      </trkpt>
      <trkpt lat="48.04221" lon="6.78723">
        <ele>926.8</ele>
        <time>2024-08-04T10:35:39Z</time>
      </trkpt>
      <trkpt lat="48.04212" lon="6.7872">
        <ele>927.2</ele>
        <time>2024-08-04T10:35:47Z</time>
      </trkpt>
      <trkpt lat="48.04202" lon="6.78722">
        <ele>927.5</ele>
        <time>2024-08-04T10:35:57Z</time>
      </trkpt>
      <trkpt lat="48.04199" lon="6.78723">
        <ele>927.6</ele>
        <time>2024-08-04T10:36:04Z</time>
      </trkpt>
      <trkpt lat="48.04199" lon="6.78723">
        <ele>927.6</ele>
        <time>2024-08-04T10:36:05Z</time>
      </trkpt>
      <trkpt lat="48.04198" lon="6.78723">
        <ele>927.6</ele>
        <time>2024-08-04T10:36:06Z</time>
      </trkpt>
      <trkpt lat="48.04198" lon="6.78724">
        <ele>927.6</ele>
        <time>2024-08-04T10:36:07Z</time>
      </trkpt>
      <trkpt lat="48.04187" lon="6.78727">
        <ele>927.8</ele>
        <time>2024-08-04T10:36:18Z</time>
      </trkpt>
      <trkpt lat="48.04178" lon="6.78722">
        <ele>927.9</ele>
        <time>2024-08-04T10:36:30Z</time>
      </trkpt>
      <trkpt lat="48.04169" lon="6.78719">
        <ele>928.1</ele>
        <time>2024-08-04T10:36:36Z</time>
      </trkpt>
      <trkpt lat="48.0416" lon="6.78716">
        <ele>928.2</ele>
        <time>2024-08-04T10:36:44Z</time>
      </trkpt>
      <trkpt lat="48.0415" lon="6.78715">
        <ele>928.4</ele>
        <time>2024-08-04T10:36:50Z</time>
      </trkpt>
      <trkpt lat="48.04141" lon="6.78712">
        <ele>928.5</ele>
        <time>2024-08-04T10:36:56Z</time>
      </trkpt>
      <trkpt lat="48.04131" lon="6.7871">
        <ele>928.4</ele>
        <time>2024-08-04T10:37:05Z</time>
      </trkpt>
      <trkpt lat="48.04122" lon="6.78709">
        <ele>928.2</ele>
        <time>2024-08-04T10:37:13Z</time>
      </trkpt>
      <trkpt lat="48.04112" lon="6.78706">
        <ele>927.7</ele>
        <time>2024-08-04T10:37:22Z</time>
      </trkpt>
      <trkpt lat="48.04103" lon="6.78703">
        <ele>927.2</ele>
        <time>2024-08-04T10:37:30Z</time>
      </trkpt>
      <trkpt lat="48.04094" lon="6.78702">
        <ele>926.8</ele>
        <time>2024-08-04T10:37:39Z</time>
      </trkpt>
      <trkpt lat="48.04084" lon="6.78698">
        <ele>926.4</ele>
        <time>2024-08-04T10:37:47Z</time>
      </trkpt>
      <trkpt lat="48.04075" lon="6.78695">
        <ele>926.2</ele>
        <time>2024-08-04T10:37:54Z</time>
      </trkpt>
      <trkpt lat="48.04066" lon="6.78691">
        <ele>925.9</ele>
        <time>2024-08-04T10:38:01Z</time>
      </trkpt>
      <trkpt lat="48.04057" lon="6.78688">
        <ele>925.7</ele>
        <time>2024-08-04T10:38:08Z</time>
      </trkpt>
      <trkpt lat="48.04047" lon="6.78684">
        <ele>925.6</ele>
        <time>2024-08-04T10:38:16Z</time>
      </trkpt>
      <trkpt lat="48.04038" lon="6.7868">
        <ele>925.5</ele>
        <time>2024-08-04T10:38:24Z</time>
      </trkpt>
      <trkpt lat="48.04028" lon="6.78678">
        <ele>925.4</ele>
        <time>2024-08-04T10:38:33Z</time>
      </trkpt>
      <trkpt lat="48.04019" lon="6.78676">
        <ele>925.2</ele>
        <time>2024-08-04T10:38:42Z</time>
      </trkpt>
      <trkpt lat="48.04011" lon="6.78668">
        <ele>924.9</ele>
        <time>2024-08-04T10:38:51Z</time>
      </trkpt>
      <trkpt lat="48.04003" lon="6.78659">
        <ele>924.6</ele>
        <time>2024-08-04T10:38:58Z</time>
      </trkpt>
      <trkpt lat="48.03996" lon="6.78648">
        <ele>923.9</ele>
        <time>2024-08-04T10:39:07Z</time>
      </trkpt>
      <trkpt lat="48.0399" lon="6.78636">
        <ele>923</ele>
        <time>2024-08-04T10:39:18Z</time>
      </trkpt>
      <trkpt lat="48.03982" lon="6.78627">
        <ele>922.4</ele>
        <time>2024-08-04T10:39:25Z</time>
      </trkpt>
      <trkpt lat="48.03973" lon="6.78623">
        <ele>921.4</ele>
        <time>2024-08-04T10:39:33Z</time>
      </trkpt>
      <trkpt lat="48.03967" lon="6.78613">
        <ele>920.3</ele>
        <time>2024-08-04T10:39:42Z</time>
      </trkpt>
      <trkpt lat="48.03961" lon="6.78601">
        <ele>919.2</ele>
        <time>2024-08-04T10:39:52Z</time>
      </trkpt>
      <trkpt lat="48.03955" lon="6.78589">
        <ele>918.1</ele>
        <time>2024-08-04T10:39:59Z</time>
      </trkpt>
      <trkpt lat="48.0395" lon="6.78576">
        <ele>917.2</ele>
        <time>2024-08-04T10:40:06Z</time>
      </trkpt>
      <trkpt lat="48.03945" lon="6.78564">
        <ele>916.4</ele>
        <time>2024-08-04T10:40:14Z</time>
      </trkpt>
      <trkpt lat="48.03942" lon="6.78551">
        <ele>915.7</ele>
        <time>2024-08-04T10:40:23Z</time>
      </trkpt>
      <trkpt lat="48.03939" lon="6.78537">
        <ele>914.9</ele>
        <time>2024-08-04T10:40:33Z</time>
      </trkpt>
      <trkpt lat="48.03935" lon="6.78524">
        <ele>914.2</ele>
        <time>2024-08-04T10:40:41Z</time>
      </trkpt>
      <trkpt lat="48.03932" lon="6.78511">
        <ele>913.6</ele>
        <time>2024-08-04T10:40:49Z</time>
      </trkpt>
      <trkpt lat="48.03929" lon="6.78497">
        <ele>912.9</ele>
        <time>2024-08-04T10:40:58Z</time>
      </trkpt>
      <trkpt lat="48.03925" lon="6.78484">
        <ele>912.3</ele>
        <time>2024-08-04T10:41:07Z</time>
      </trkpt>
      <trkpt lat="48.03922" lon="6.78473">
        <ele>911.8</ele>
        <time>2024-08-04T10:41:19Z</time>
      </trkpt>
      <trkpt lat="48.03922" lon="6.78474">
        <ele>911.8</ele>
        <time>2024-08-04T10:41:20Z</time>
      </trkpt>
      <trkpt lat="48.03922" lon="6.78475">
        <ele>911.9</ele>
        <time>2024-08-04T10:41:21Z</time>
      </trkpt>
      <trkpt lat="48.03922" lon="6.78476">
        <ele>912</ele>
        <time>2024-08-04T10:41:22Z</time>
      </trkpt>
      <trkpt lat="48.03923" lon="6.78477">
        <ele>912</ele>
        <time>2024-08-04T10:41:23Z</time>
      </trkpt>
      <trkpt lat="48.03925" lon="6.78491">
        <ele>912.6</ele>
        <time>2024-08-04T10:41:34Z</time>
      </trkpt>
      <trkpt lat="48.0393" lon="6.78503">
        <ele>913.3</ele>
        <time>2024-08-04T10:41:41Z</time>
      </trkpt>
      <trkpt lat="48.03933" lon="6.78516">
        <ele>913.9</ele>
        <time>2024-08-04T10:41:48Z</time>
      </trkpt>
      <trkpt lat="48.03936" lon="6.7853">
        <ele>914.6</ele>
        <time>2024-08-04T10:41:56Z</time>
      </trkpt>
      <trkpt lat="48.03939" lon="6.78543">
        <ele>915.4</ele>
        <time>2024-08-04T10:42:04Z</time>
      </trkpt>
      <trkpt lat="48.03943" lon="6.78557">
        <ele>916.2</ele>
        <time>2024-08-04T10:42:12Z</time>
      </trkpt>
      <trkpt lat="48.03946" lon="6.7857">
        <ele>917</ele>
        <time>2024-08-04T10:42:20Z</time>
      </trkpt>
      <trkpt lat="48.03951" lon="6.78581">
        <ele>917.8</ele>
        <time>2024-08-04T10:42:28Z</time>
      </trkpt>
      <trkpt lat="48.03957" lon="6.78593">
        <ele>918.9</ele>
        <time>2024-08-04T10:42:37Z</time>
      </trkpt>
      <trkpt lat="48.03962" lon="6.78605">
        <ele>919.9</ele>
        <time>2024-08-04T10:42:46Z</time>
      </trkpt>
      <trkpt lat="48.0397" lon="6.78614">
        <ele>921.1</ele>
        <time>2024-08-04T10:42:56Z</time>
      </trkpt>
      <trkpt lat="48.03978" lon="6.78619">
        <ele>922.1</ele>
        <time>2024-08-04T10:43:03Z</time>
      </trkpt>
      <trkpt lat="48.03986" lon="6.78627">
        <ele>923</ele>
        <time>2024-08-04T10:43:12Z</time>
      </trkpt>
      <trkpt lat="48.03992" lon="6.78638">
        <ele>923.6</ele>
        <time>2024-08-04T10:43:20Z</time>
      </trkpt>
      <trkpt lat="48.03998" lon="6.78648">
        <ele>924.3</ele>
        <time>2024-08-04T10:43:28Z</time>
      </trkpt>
      <trkpt lat="48.04005" lon="6.78658">
        <ele>924.7</ele>
        <time>2024-08-04T10:43:36Z</time>
      </trkpt>
      <trkpt lat="48.04012" lon="6.78669">
        <ele>925</ele>
        <time>2024-08-04T10:43:44Z</time>
      </trkpt>
      <trkpt lat="48.0402" lon="6.78678">
        <ele>925.3</ele>
        <time>2024-08-04T10:43:52Z</time>
      </trkpt>
      <trkpt lat="48.04025" lon="6.78688">
        <ele>925.9</ele>
        <time>2024-08-04T10:44:00Z</time>
      </trkpt>
      <trkpt lat="48.04025" lon="6.78688">
        <ele>926</ele>
        <time>2024-08-04T10:44:04Z</time>
      </trkpt>
      <trkpt lat="48.04025" lon="6.78688">
        <ele>926</ele>
        <time>2024-08-04T10:44:05Z</time>
      </trkpt>
      <trkpt lat="48.04026" lon="6.7869">
        <ele>926</ele>
        <time>2024-08-04T10:44:08Z</time>
      </trkpt>
      <trkpt lat="48.04027" lon="6.78692">
        <ele>926.1</ele>
        <time>2024-08-04T10:44:09Z</time>
      </trkpt>
      <trkpt lat="48.04027" lon="6.78694">
        <ele>926.1</ele>
        <time>2024-08-04T10:44:10Z</time>
      </trkpt>
      <trkpt lat="48.04032" lon="6.78706">
        <ele>926.6</ele>
        <time>2024-08-04T10:44:17Z</time>
      </trkpt>
      <trkpt lat="48.04037" lon="6.78718">
        <ele>926.9</ele>
        <time>2024-08-04T10:44:24Z</time>
      </trkpt>
      <trkpt lat="48.04045" lon="6.78726">
        <ele>927.4</ele>
        <time>2024-08-04T10:44:33Z</time>
      </trkpt>
      <trkpt lat="48.04049" lon="6.7873">
        <ele>927.6</ele>
        <time>2024-08-04T10:45:01Z</time>
      </trkpt>
      <trkpt lat="48.04047" lon="6.78727">
        <ele>927.7</ele>
        <time>2024-08-04T11:24:59Z</time>
      </trkpt>
      <trkpt lat="48.04047" lon="6.78727">
        <ele>927.7</ele>
        <time>2024-08-04T11:25:00Z</time>
      </trkpt>
      <trkpt lat="48.04047" lon="6.78727">
        <ele>927.7</ele>
        <time>2024-08-04T11:25:01Z</time>
      </trkpt>
      <trkpt lat="48.04047" lon="6.78727">
        <ele>927.7</ele>
        <time>2024-08-04T11:25:02Z</time>
      </trkpt>
      <trkpt lat="48.04047" lon="6.78727">
        <ele>927.7</ele>
        <time>2024-08-04T11:25:03Z</time>
      </trkpt>
      <trkpt lat="48.04047" lon="6.78727">
        <ele>927.7</ele>
        <time>2024-08-04T11:25:04Z</time>
      </trkpt>
      <trkpt lat="48.04047" lon="6.78727">
        <ele>927.7</ele>
        <time>2024-08-04T11:25:05Z</time>
      </trkpt>
      <trkpt lat="48.04046" lon="6.78729">
        <ele>927.7</ele>
        <time>2024-08-04T11:25:21Z</time>
      </trkpt>
      <trkpt lat="48.04046" lon="6.78729">
        <ele>927.7</ele>
        <time>2024-08-04T11:25:24Z</time>
      </trkpt>
      <trkpt lat="48.04046" lon="6.78729">
        <ele>927.8</ele>
        <time>2024-08-04T11:25:25Z</time>
      </trkpt>
      <trkpt lat="48.04039" lon="6.78719">
        <ele>928.2</ele>
        <time>2024-08-04T11:25:32Z</time>
      </trkpt>
      <trkpt lat="48.04032" lon="6.78708">
        <ele>927.4</ele>
        <time>2024-08-04T11:25:45Z</time>
      </trkpt>
      <trkpt lat="48.04028" lon="6.78695">
        <ele>926.5</ele>
        <time>2024-08-04T11:25:59Z</time>
      </trkpt>
      <trkpt lat="48.04019" lon="6.787">
        <ele>925.4</ele>
        <time>2024-08-04T11:26:11Z</time>
      </trkpt>
      <trkpt lat="48.04015" lon="6.78714">
        <ele>925.1</ele>
        <time>2024-08-04T11:26:19Z</time>
      </trkpt>
      <trkpt lat="48.04012" lon="6.78727">
        <ele>924.4</ele>
        <time>2024-08-04T11:26:40Z</time>
      </trkpt>
      <trkpt lat="48.04009" lon="6.7874">
        <ele>923.4</ele>
        <time>2024-08-04T11:26:52Z</time>
      </trkpt>
      <trkpt lat="48.04006" lon="6.78753">
        <ele>922.1</ele>
        <time>2024-08-04T11:27:03Z</time>
      </trkpt>
      <trkpt lat="48.04003" lon="6.78766">
        <ele>920.6</ele>
        <time>2024-08-04T11:27:14Z</time>
      </trkpt>
      <trkpt lat="48.04001" lon="6.7878">
        <ele>919.2</ele>
        <time>2024-08-04T11:27:24Z</time>
      </trkpt>
      <trkpt lat="48.03999" lon="6.78793">
        <ele>917.9</ele>
        <time>2024-08-04T11:27:35Z</time>
      </trkpt>
      <trkpt lat="48.03999" lon="6.78799">
        <ele>917.3</ele>
        <time>2024-08-04T11:27:51Z</time>
      </trkpt>
      <trkpt lat="48.03999" lon="6.78799">
        <ele>917.3</ele>
        <time>2024-08-04T11:27:52Z</time>
      </trkpt>
      <trkpt lat="48.04" lon="6.788">
        <ele>917.3</ele>
        <time>2024-08-04T11:27:53Z</time>
      </trkpt>
      <trkpt lat="48.03999" lon="6.78804">
        <ele>916.8</ele>
        <time>2024-08-04T11:27:57Z</time>
      </trkpt>
      <trkpt lat="48.03999" lon="6.78805">
        <ele>916.7</ele>
        <time>2024-08-04T11:27:58Z</time>
      </trkpt>
      <trkpt lat="48.03997" lon="6.78819">
        <ele>915.3</ele>
        <time>2024-08-04T11:28:17Z</time>
      </trkpt>
      <trkpt lat="48.03993" lon="6.78831">
        <ele>914</ele>
        <time>2024-08-04T11:28:30Z</time>
      </trkpt>
      <trkpt lat="48.03991" lon="6.78845">
        <ele>912.7</ele>
        <time>2024-08-04T11:28:42Z</time>
      </trkpt>
      <trkpt lat="48.03987" lon="6.78859">
        <ele>911.6</ele>
        <time>2024-08-04T11:28:50Z</time>
      </trkpt>
      <trkpt lat="48.03983" lon="6.78872">
        <ele>910.4</ele>
        <time>2024-08-04T11:28:59Z</time>
      </trkpt>
      <trkpt lat="48.03981" lon="6.78885">
        <ele>909.3</ele>
        <time>2024-08-04T11:29:08Z</time>
      </trkpt>
      <trkpt lat="48.03978" lon="6.78898">
        <ele>908.2</ele>
        <time>2024-08-04T11:29:17Z</time>
      </trkpt>
      <trkpt lat="48.03975" lon="6.78912">
        <ele>907.1</ele>
        <time>2024-08-04T11:29:29Z</time>
      </trkpt>
      <trkpt lat="48.03977" lon="6.78926">
        <ele>906.2</ele>
        <time>2024-08-04T11:29:40Z</time>
      </trkpt>
      <trkpt lat="48.03976" lon="6.78939">
        <ele>905.6</ele>
        <time>2024-08-04T11:29:57Z</time>
      </trkpt>
      <trkpt lat="48.03977" lon="6.78954">
        <ele>904.8</ele>
        <time>2024-08-04T11:30:10Z</time>
      </trkpt>
      <trkpt lat="48.03978" lon="6.78968">
        <ele>903.8</ele>
        <time>2024-08-04T11:30:21Z</time>
      </trkpt>
      <trkpt lat="48.0398" lon="6.78981">
        <ele>902.7</ele>
        <time>2024-08-04T11:30:33Z</time>
      </trkpt>
      <trkpt lat="48.03981" lon="6.78995">
        <ele>901.4</ele>
        <time>2024-08-04T11:30:44Z</time>
      </trkpt>
      <trkpt lat="48.03982" lon="6.7901">
        <ele>899.9</ele>
        <time>2024-08-04T11:30:57Z</time>
      </trkpt>
      <trkpt lat="48.03978" lon="6.79023">
        <ele>898</ele>
        <time>2024-08-04T11:31:15Z</time>
      </trkpt>
      <trkpt lat="48.03973" lon="6.79011">
        <ele>896.9</ele>
        <time>2024-08-04T11:31:29Z</time>
      </trkpt>
      <trkpt lat="48.03967" lon="6.78999">
        <ele>895.8</ele>
        <time>2024-08-04T11:31:43Z</time>
      </trkpt>
      <trkpt lat="48.03963" lon="6.78986">
        <ele>894.6</ele>
        <time>2024-08-04T11:31:55Z</time>
      </trkpt>
      <trkpt lat="48.03961" lon="6.78973">
        <ele>893.6</ele>
        <time>2024-08-04T11:32:08Z</time>
      </trkpt>
      <trkpt lat="48.03958" lon="6.78959">
        <ele>892.5</ele>
        <time>2024-08-04T11:32:20Z</time>
      </trkpt>
      <trkpt lat="48.03954" lon="6.78946">
        <ele>891.5</ele>
        <time>2024-08-04T11:32:30Z</time>
      </trkpt>
      <trkpt lat="48.03951" lon="6.78933">
        <ele>890.4</ele>
        <time>2024-08-04T11:32:42Z</time>
      </trkpt>
      <trkpt lat="48.03949" lon="6.78919">
        <ele>889.3</ele>
        <time>2024-08-04T11:32:52Z</time>
      </trkpt>
      <trkpt lat="48.03949" lon="6.78905">
        <ele>888.3</ele>
        <time>2024-08-04T11:33:03Z</time>
      </trkpt>
      <trkpt lat="48.03947" lon="6.7889">
        <ele>887.2</ele>
        <time>2024-08-04T11:33:13Z</time>
      </trkpt>
      <trkpt lat="48.03944" lon="6.78876">
        <ele>886.3</ele>
        <time>2024-08-04T11:33:24Z</time>
      </trkpt>
      <trkpt lat="48.03941" lon="6.78862">
        <ele>885.3</ele>
        <time>2024-08-04T11:33:32Z</time>
      </trkpt>
      <trkpt lat="48.03939" lon="6.78848">
        <ele>884.4</ele>
        <time>2024-08-04T11:33:42Z</time>
      </trkpt>
      <trkpt lat="48.03934" lon="6.78837">
        <ele>883.5</ele>
        <time>2024-08-04T11:33:51Z</time>
      </trkpt>
      <trkpt lat="48.03928" lon="6.78826">
        <ele>882.7</ele>
        <time>2024-08-04T11:34:02Z</time>
      </trkpt>
      <trkpt lat="48.03924" lon="6.78813">
        <ele>881.9</ele>
        <time>2024-08-04T11:34:08Z</time>
      </trkpt>
      <trkpt lat="48.0392" lon="6.788">
        <ele>880.8</ele>
        <time>2024-08-04T11:34:14Z</time>
      </trkpt>
      <trkpt lat="48.03914" lon="6.78789">
        <ele>879.4</ele>
        <time>2024-08-04T11:34:22Z</time>
      </trkpt>
      <trkpt lat="48.03907" lon="6.78779">
        <ele>877.9</ele>
        <time>2024-08-04T11:34:29Z</time>
      </trkpt>
      <trkpt lat="48.03902" lon="6.78767">
        <ele>876.3</ele>
        <time>2024-08-04T11:34:38Z</time>
      </trkpt>
      <trkpt lat="48.03896" lon="6.78756">
        <ele>874.9</ele>
        <time>2024-08-04T11:34:50Z</time>
      </trkpt>
      <trkpt lat="48.0389" lon="6.78744">
        <ele>873.5</ele>
        <time>2024-08-04T11:34:58Z</time>
      </trkpt>
      <trkpt lat="48.03884" lon="6.78735">
        <ele>872</ele>
        <time>2024-08-04T11:35:16Z</time>
      </trkpt>
      <trkpt lat="48.03883" lon="6.78736">
        <ele>871.9</ele>
        <time>2024-08-04T11:35:22Z</time>
      </trkpt>
      <trkpt lat="48.03883" lon="6.78736">
        <ele>871.8</ele>
        <time>2024-08-04T11:35:23Z</time>
      </trkpt>
      <trkpt lat="48.03881" lon="6.78736">
        <ele>871.5</ele>
        <time>2024-08-04T11:35:27Z</time>
      </trkpt>
      <trkpt lat="48.0388" lon="6.78735">
        <ele>871.4</ele>
        <time>2024-08-04T11:35:28Z</time>
      </trkpt>
      <trkpt lat="48.03878" lon="6.78722">
        <ele>869.8</ele>
        <time>2024-08-04T11:35:39Z</time>
      </trkpt>
      <trkpt lat="48.03874" lon="6.7871">
        <ele>868.3</ele>
        <time>2024-08-04T11:35:53Z</time>
      </trkpt>
      <trkpt lat="48.03867" lon="6.787">
        <ele>866.6</ele>
        <time>2024-08-04T11:36:09Z</time>
      </trkpt>
      <trkpt lat="48.0386" lon="6.78688">
        <ele>864.8</ele>
        <time>2024-08-04T11:36:19Z</time>
      </trkpt>
      <trkpt lat="48.03853" lon="6.78679">
        <ele>863.4</ele>
        <time>2024-08-04T11:36:28Z</time>
      </trkpt>
      <trkpt lat="48.03844" lon="6.78672">
        <ele>862.1</ele>
        <time>2024-08-04T11:36:41Z</time>
      </trkpt>
      <trkpt lat="48.0384" lon="6.78665">
        <ele>861.2</ele>
        <time>2024-08-04T11:36:57Z</time>
      </trkpt>
      <trkpt lat="48.0384" lon="6.78665">
        <ele>861.2</ele>
        <time>2024-08-04T11:36:58Z</time>
      </trkpt>
      <trkpt lat="48.0384" lon="6.78666">
        <ele>861.2</ele>
        <time>2024-08-04T11:37:13Z</time>
      </trkpt>
      <trkpt lat="48.0384" lon="6.78666">
        <ele>861.2</ele>
        <time>2024-08-04T11:37:14Z</time>
      </trkpt>
      <trkpt lat="48.0384" lon="6.78666">
        <ele>861.1</ele>
        <time>2024-08-04T11:37:15Z</time>
      </trkpt>
      <trkpt lat="48.03835" lon="6.78654">
        <ele>859.8</ele>
        <time>2024-08-04T11:37:29Z</time>
      </trkpt>
      <trkpt lat="48.03829" lon="6.78644">
        <ele>858.5</ele>
        <time>2024-08-04T11:37:40Z</time>
      </trkpt>
      <trkpt lat="48.03822" lon="6.78633">
        <ele>857.1</ele>
        <time>2024-08-04T11:37:52Z</time>
      </trkpt>
      <trkpt lat="48.03814" lon="6.78627">
        <ele>855.8</ele>
        <time>2024-08-04T11:38:05Z</time>
      </trkpt>
      <trkpt lat="48.03811" lon="6.78625">
        <ele>855.3</ele>
        <time>2024-08-04T11:38:13Z</time>
      </trkpt>
      <trkpt lat="48.0381" lon="6.78625">
        <ele>855.3</ele>
        <time>2024-08-04T11:38:14Z</time>
      </trkpt>
      <trkpt lat="48.0381" lon="6.78625">
        <ele>855.2</ele>
        <time>2024-08-04T11:38:15Z</time>
      </trkpt>
      <trkpt lat="48.0381" lon="6.78624">
        <ele>855.1</ele>
        <time>2024-08-04T11:38:16Z</time>
      </trkpt>
      <trkpt lat="48.03809" lon="6.78624">
        <ele>855.1</ele>
        <time>2024-08-04T11:38:17Z</time>
      </trkpt>
      <trkpt lat="48.03802" lon="6.78614">
        <ele>853.8</ele>
        <time>2024-08-04T11:38:26Z</time>
      </trkpt>
      <trkpt lat="48.03794" lon="6.78605">
        <ele>852.6</ele>
        <time>2024-08-04T11:38:33Z</time>
      </trkpt>
      <trkpt lat="48.03785" lon="6.78599">
        <ele>851.2</ele>
        <time>2024-08-04T11:38:45Z</time>
      </trkpt>
      <trkpt lat="48.03777" lon="6.7859">
        <ele>849.7</ele>
        <time>2024-08-04T11:38:57Z</time>
      </trkpt>
      <trkpt lat="48.0377" lon="6.78581">
        <ele>848.1</ele>
        <time>2024-08-04T11:39:05Z</time>
      </trkpt>
      <trkpt lat="48.03763" lon="6.78572">
        <ele>846.5</ele>
        <time>2024-08-04T11:39:19Z</time>
      </trkpt>
      <trkpt lat="48.03755" lon="6.78565">
        <ele>844.9</ele>
        <time>2024-08-04T11:39:29Z</time>
      </trkpt>
      <trkpt lat="48.03747" lon="6.78558">
        <ele>843.4</ele>
        <time>2024-08-04T11:39:40Z</time>
      </trkpt>
      <trkpt lat="48.03745" lon="6.78553">
        <ele>842.7</ele>
        <time>2024-08-04T11:39:48Z</time>
      </trkpt>
      <trkpt lat="48.03745" lon="6.78553">
        <ele>842.7</ele>
        <time>2024-08-04T11:39:49Z</time>
      </trkpt>
      <trkpt lat="48.03745" lon="6.78553">
        <ele>842.7</ele>
        <time>2024-08-04T11:39:50Z</time>
      </trkpt>
      <trkpt lat="48.03745" lon="6.78552">
        <ele>842.6</ele>
        <time>2024-08-04T11:39:58Z</time>
      </trkpt>
      <trkpt lat="48.03744" lon="6.78552">
        <ele>842.5</ele>
        <time>2024-08-04T11:39:59Z</time>
      </trkpt>
      <trkpt lat="48.03743" lon="6.78551">
        <ele>842.4</ele>
        <time>2024-08-04T11:40:00Z</time>
      </trkpt>
      <trkpt lat="48.03737" lon="6.78541">
        <ele>841.1</ele>
        <time>2024-08-04T11:40:11Z</time>
      </trkpt>
      <trkpt lat="48.0373" lon="6.78533">
        <ele>839.9</ele>
        <time>2024-08-04T11:40:21Z</time>
      </trkpt>
      <trkpt lat="48.03729" lon="6.78531">
        <ele>839.7</ele>
        <time>2024-08-04T11:40:31Z</time>
      </trkpt>
      <trkpt lat="48.03729" lon="6.78532">
        <ele>839.7</ele>
        <time>2024-08-04T11:40:32Z</time>
      </trkpt>
      <trkpt lat="48.03729" lon="6.78532">
        <ele>839.7</ele>
        <time>2024-08-04T11:40:33Z</time>
      </trkpt>
      <trkpt lat="48.03729" lon="6.78532">
        <ele>839.6</ele>
        <time>2024-08-04T11:40:34Z</time>
      </trkpt>
      <trkpt lat="48.03729" lon="6.78534">
        <ele>839.5</ele>
        <time>2024-08-04T11:40:35Z</time>
      </trkpt>
      <trkpt lat="48.0373" lon="6.78535">
        <ele>839.4</ele>
        <time>2024-08-04T11:40:36Z</time>
      </trkpt>
      <trkpt lat="48.0373" lon="6.78535">
        <ele>839.3</ele>
        <time>2024-08-04T11:40:37Z</time>
      </trkpt>
      <trkpt lat="48.0373" lon="6.78535">
        <ele>839.3</ele>
        <time>2024-08-04T11:40:38Z</time>
      </trkpt>
      <trkpt lat="48.0373" lon="6.78535">
        <ele>839.3</ele>
        <time>2024-08-04T11:40:39Z</time>
      </trkpt>
      <trkpt lat="48.0373" lon="6.78535">
        <ele>839.3</ele>
        <time>2024-08-04T11:40:40Z</time>
      </trkpt>
      <trkpt lat="48.0373" lon="6.78535">
        <ele>839.3</ele>
        <time>2024-08-04T11:40:41Z</time>
      </trkpt>
      <trkpt lat="48.0373" lon="6.78535">
        <ele>839.3</ele>
        <time>2024-08-04T11:40:42Z</time>
      </trkpt>
      <trkpt lat="48.0373" lon="6.78535">
        <ele>839.2</ele>
        <time>2024-08-04T11:40:49Z</time>
      </trkpt>
      <trkpt lat="48.03729" lon="6.78534">
        <ele>839.1</ele>
        <time>2024-08-04T11:40:50Z</time>
      </trkpt>
      <trkpt lat="48.03721" lon="6.78527">
        <ele>837.7</ele>
        <time>2024-08-04T11:40:59Z</time>
      </trkpt>
      <trkpt lat="48.03717" lon="6.78521">
        <ele>836.9</ele>
        <time>2024-08-04T11:41:08Z</time>
      </trkpt>
      <trkpt lat="48.03717" lon="6.78521">
        <ele>836.9</ele>
        <time>2024-08-04T11:41:09Z</time>
      </trkpt>
      <trkpt lat="48.03717" lon="6.7852">
        <ele>836.8</ele>
        <time>2024-08-04T11:41:10Z</time>
      </trkpt>
      <trkpt lat="48.03717" lon="6.7852">
        <ele>836.7</ele>
        <time>2024-08-04T11:41:11Z</time>
      </trkpt>
      <trkpt lat="48.03716" lon="6.78519">
        <ele>836.6</ele>
        <time>2024-08-04T11:41:12Z</time>
      </trkpt>
      <trkpt lat="48.03716" lon="6.78519">
        <ele>836.6</ele>
        <time>2024-08-04T11:41:13Z</time>
      </trkpt>
      <trkpt lat="48.03714" lon="6.78516">
        <ele>836</ele>
        <time>2024-08-04T11:41:21Z</time>
      </trkpt>
      <trkpt lat="48.03714" lon="6.78516">
        <ele>836</ele>
        <time>2024-08-04T11:41:22Z</time>
      </trkpt>
      <trkpt lat="48.03712" lon="6.78515">
        <ele>835.6</ele>
        <time>2024-08-04T11:41:26Z</time>
      </trkpt>
      <trkpt lat="48.03711" lon="6.78514">
        <ele>835.5</ele>
        <time>2024-08-04T11:41:27Z</time>
      </trkpt>
      <trkpt lat="48.03711" lon="6.78514">
        <ele>835.4</ele>
        <time>2024-08-04T11:41:28Z</time>
      </trkpt>
      <trkpt lat="48.0371" lon="6.78513">
        <ele>835.2</ele>
        <time>2024-08-04T11:41:32Z</time>
      </trkpt>
      <trkpt lat="48.0371" lon="6.78513">
        <ele>835.2</ele>
        <time>2024-08-04T11:41:33Z</time>
      </trkpt>
      <trkpt lat="48.0371" lon="6.78513">
        <ele>835.2</ele>
        <time>2024-08-04T11:41:36Z</time>
      </trkpt>
      <trkpt lat="48.0371" lon="6.78513">
        <ele>835.2</ele>
        <time>2024-08-04T11:41:37Z</time>
      </trkpt>
      <trkpt lat="48.0371" lon="6.78513">
        <ele>835.2</ele>
        <time>2024-08-04T11:41:41Z</time>
      </trkpt>
      <trkpt lat="48.0371" lon="6.78513">
        <ele>835.2</ele>
        <time>2024-08-04T11:41:42Z</time>
      </trkpt>
      <trkpt lat="48.0371" lon="6.78513">
        <ele>835.2</ele>
        <time>2024-08-04T11:41:43Z</time>
      </trkpt>
      <trkpt lat="48.03709" lon="6.78513">
        <ele>834.9</ele>
        <time>2024-08-04T11:41:58Z</time>
      </trkpt>
      <trkpt lat="48.03708" lon="6.78512">
        <ele>834.7</ele>
        <time>2024-08-04T11:41:59Z</time>
      </trkpt>
      <trkpt lat="48.03707" lon="6.78511">
        <ele>834.5</ele>
        <time>2024-08-04T11:42:00Z</time>
      </trkpt>
      <trkpt lat="48.037" lon="6.78501">
        <ele>832.5</ele>
        <time>2024-08-04T11:42:10Z</time>
      </trkpt>
      <trkpt lat="48.03693" lon="6.78491">
        <ele>830.4</ele>
        <time>2024-08-04T11:42:20Z</time>
      </trkpt>
      <trkpt lat="48.03687" lon="6.7848">
        <ele>828.2</ele>
        <time>2024-08-04T11:42:30Z</time>
      </trkpt>
      <trkpt lat="48.03681" lon="6.78469">
        <ele>825.8</ele>
        <time>2024-08-04T11:42:47Z</time>
      </trkpt>
      <trkpt lat="48.03673" lon="6.78462">
        <ele>823.2</ele>
        <time>2024-08-04T11:42:59Z</time>
      </trkpt>
      <trkpt lat="48.03664" lon="6.78461">
        <ele>820.9</ele>
        <time>2024-08-04T11:43:11Z</time>
      </trkpt>
      <trkpt lat="48.03654" lon="6.78461">
        <ele>818.7</ele>
        <time>2024-08-04T11:43:26Z</time>
      </trkpt>
      <trkpt lat="48.03645" lon="6.78467">
        <ele>816.6</ele>
        <time>2024-08-04T11:43:36Z</time>
      </trkpt>
      <trkpt lat="48.03636" lon="6.78472">
        <ele>814.6</ele>
        <time>2024-08-04T11:43:47Z</time>
      </trkpt>
      <trkpt lat="48.03631" lon="6.78472">
        <ele>813.5</ele>
        <time>2024-08-04T11:43:56Z</time>
      </trkpt>
      <trkpt lat="48.03631" lon="6.78472">
        <ele>813.5</ele>
        <time>2024-08-04T11:43:57Z</time>
      </trkpt>
      <trkpt lat="48.03631" lon="6.78472">
        <ele>813.5</ele>
        <time>2024-08-04T11:43:58Z</time>
      </trkpt>
      <trkpt lat="48.0363" lon="6.78471">
        <ele>813.2</ele>
        <time>2024-08-04T11:44:01Z</time>
      </trkpt>
      <trkpt lat="48.03629" lon="6.78471">
        <ele>813</ele>
        <time>2024-08-04T11:44:02Z</time>
      </trkpt>
      <trkpt lat="48.03628" lon="6.7847">
        <ele>812.8</ele>
        <time>2024-08-04T11:44:03Z</time>
      </trkpt>
      <trkpt lat="48.0362" lon="6.78465">
        <ele>810.7</ele>
        <time>2024-08-04T11:44:17Z</time>
      </trkpt>
      <trkpt lat="48.03611" lon="6.7846">
        <ele>808.4</ele>
        <time>2024-08-04T11:44:33Z</time>
      </trkpt>
      <trkpt lat="48.03605" lon="6.78449">
        <ele>806.4</ele>
        <time>2024-08-04T11:44:54Z</time>
      </trkpt>
      <trkpt lat="48.03605" lon="6.78435">
        <ele>804.3</ele>
        <time>2024-08-04T11:45:08Z</time>
      </trkpt>
      <trkpt lat="48.03601" lon="6.78423">
        <ele>802.6</ele>
        <time>2024-08-04T11:45:22Z</time>
      </trkpt>
      <trkpt lat="48.03602" lon="6.78409">
        <ele>800.9</ele>
        <time>2024-08-04T11:45:35Z</time>
      </trkpt>
      <trkpt lat="48.03595" lon="6.784">
        <ele>799.3</ele>
        <time>2024-08-04T11:45:43Z</time>
      </trkpt>
      <trkpt lat="48.03591" lon="6.78387">
        <ele>797.6</ele>
        <time>2024-08-04T11:45:52Z</time>
      </trkpt>
      <trkpt lat="48.03594" lon="6.78373">
        <ele>796.1</ele>
        <time>2024-08-04T11:46:06Z</time>
      </trkpt>
      <trkpt lat="48.03596" lon="6.78359">
        <ele>794.8</ele>
        <time>2024-08-04T11:46:15Z</time>
      </trkpt>
      <trkpt lat="48.03594" lon="6.78345">
        <ele>793.4</ele>
        <time>2024-08-04T11:46:25Z</time>
      </trkpt>
      <trkpt lat="48.03593" lon="6.78332">
        <ele>792.2</ele>
        <time>2024-08-04T11:46:36Z</time>
      </trkpt>
      <trkpt lat="48.0359" lon="6.78318">
        <ele>791</ele>
        <time>2024-08-04T11:46:48Z</time>
      </trkpt>
      <trkpt lat="48.03588" lon="6.78305">
        <ele>789.9</ele>
        <time>2024-08-04T11:46:58Z</time>
      </trkpt>
      <trkpt lat="48.03586" lon="6.7829">
        <ele>788.7</ele>
        <time>2024-08-04T11:47:07Z</time>
      </trkpt>
      <trkpt lat="48.03585" lon="6.78275">
        <ele>787.5</ele>
        <time>2024-08-04T11:47:16Z</time>
      </trkpt>
      <trkpt lat="48.03581" lon="6.78263">
        <ele>786.4</ele>
        <time>2024-08-04T11:47:28Z</time>
      </trkpt>
      <trkpt lat="48.0358" lon="6.78249">
        <ele>785.2</ele>
        <time>2024-08-04T11:47:33Z</time>
      </trkpt>
      <trkpt lat="48.03579" lon="6.78235">
        <ele>783.8</ele>
        <time>2024-08-04T11:47:42Z</time>
      </trkpt>
      <trkpt lat="48.03577" lon="6.7822">
        <ele>782.1</ele>
        <time>2024-08-04T11:47:56Z</time>
      </trkpt>
      <trkpt lat="48.0357" lon="6.78211">
        <ele>780.4</ele>
        <time>2024-08-04T11:48:06Z</time>
      </trkpt>
      <trkpt lat="48.03566" lon="6.78199">
        <ele>778.6</ele>
        <time>2024-08-04T11:48:15Z</time>
      </trkpt>
      <trkpt lat="48.0356" lon="6.78187">
        <ele>776.6</ele>
        <time>2024-08-04T11:48:28Z</time>
      </trkpt>
      <trkpt lat="48.03552" lon="6.7818">
        <ele>774.7</ele>
        <time>2024-08-04T11:48:37Z</time>
      </trkpt>
      <trkpt lat="48.03556" lon="6.78166">
        <ele>772.3</ele>
        <time>2024-08-04T11:48:45Z</time>
      </trkpt>
      <trkpt lat="48.03549" lon="6.78157">
        <ele>770.8</ele>
        <time>2024-08-04T11:48:56Z</time>
      </trkpt>
      <trkpt lat="48.03542" lon="6.78149">
        <ele>765.2</ele>
        <time>2024-08-04T11:49:04Z</time>
      </trkpt>
      <trkpt lat="48.03536" lon="6.78153">
        <ele>761.4</ele>
        <time>2024-08-04T11:49:14Z</time>
      </trkpt>
      <trkpt lat="48.03536" lon="6.78153">
        <ele>761.4</ele>
        <time>2024-08-04T11:49:15Z</time>
      </trkpt>
      <trkpt lat="48.03535" lon="6.78156">
        <ele>760.1</ele>
        <time>2024-08-04T11:49:24Z</time>
      </trkpt>
      <trkpt lat="48.03534" lon="6.78155">
        <ele>759.8</ele>
        <time>2024-08-04T11:49:25Z</time>
      </trkpt>
      <trkpt lat="48.03534" lon="6.78154">
        <ele>759.2</ele>
        <time>2024-08-04T11:49:26Z</time>
      </trkpt>
      <trkpt lat="48.03525" lon="6.78157">
        <ele>753.6</ele>
        <time>2024-08-04T11:49:37Z</time>
      </trkpt>
      <trkpt lat="48.03517" lon="6.78166">
        <ele>748.4</ele>
        <time>2024-08-04T11:49:56Z</time>
      </trkpt>
      <trkpt lat="48.03513" lon="6.78178">
        <ele>746.9</ele>
        <time>2024-08-04T11:50:06Z</time>
      </trkpt>
      <trkpt lat="48.03508" lon="6.78191">
        <ele>745.6</ele>
        <time>2024-08-04T11:50:15Z</time>
      </trkpt>
      <trkpt lat="48.03505" lon="6.78204">
        <ele>744.5</ele>
        <time>2024-08-04T11:50:24Z</time>
      </trkpt>
      <trkpt lat="48.035" lon="6.78217">
        <ele>743.5</ele>
        <time>2024-08-04T11:50:34Z</time>
      </trkpt>
      <trkpt lat="48.03496" lon="6.78229">
        <ele>742.5</ele>
        <time>2024-08-04T11:50:44Z</time>
      </trkpt>
      <trkpt lat="48.03488" lon="6.78236">
        <ele>741.4</ele>
        <time>2024-08-04T11:50:55Z</time>
      </trkpt>
      <trkpt lat="48.03482" lon="6.78247">
        <ele>740.2</ele>
        <time>2024-08-04T11:51:07Z</time>
      </trkpt>
      <trkpt lat="48.03477" lon="6.78259">
        <ele>739.1</ele>
        <time>2024-08-04T11:51:17Z</time>
      </trkpt>
      <trkpt lat="48.03472" lon="6.78272">
        <ele>737.8</ele>
        <time>2024-08-04T11:51:27Z</time>
      </trkpt>
      <trkpt lat="48.03468" lon="6.78285">
        <ele>736.6</ele>
        <time>2024-08-04T11:51:38Z</time>
      </trkpt>
      <trkpt lat="48.03464" lon="6.78297">
        <ele>735.3</ele>
        <time>2024-08-04T11:51:48Z</time>
      </trkpt>
      <trkpt lat="48.0346" lon="6.7831">
        <ele>734.1</ele>
        <time>2024-08-04T11:51:58Z</time>
      </trkpt>
      <trkpt lat="48.03457" lon="6.78324">
        <ele>732.8</ele>
        <time>2024-08-04T11:52:11Z</time>
      </trkpt>
      <trkpt lat="48.03454" lon="6.78338">
        <ele>731.3</ele>
        <time>2024-08-04T11:52:20Z</time>
      </trkpt>
      <trkpt lat="48.03449" lon="6.7835">
        <ele>729.8</ele>
        <time>2024-08-04T11:52:29Z</time>
      </trkpt>
      <trkpt lat="48.03445" lon="6.78363">
        <ele>728.3</ele>
        <time>2024-08-04T11:52:42Z</time>
      </trkpt>
      <trkpt lat="48.03442" lon="6.78377">
        <ele>726.7</ele>
        <time>2024-08-04T11:52:55Z</time>
      </trkpt>
      <trkpt lat="48.03439" lon="6.7839">
        <ele>725.1</ele>
        <time>2024-08-04T11:53:05Z</time>
      </trkpt>
      <trkpt lat="48.03433" lon="6.78401">
        <ele>723.6</ele>
        <time>2024-08-04T11:53:16Z</time>
      </trkpt>
      <trkpt lat="48.0343" lon="6.78414">
        <ele>722</ele>
        <time>2024-08-04T11:53:28Z</time>
      </trkpt>
      <trkpt lat="48.03427" lon="6.78428">
        <ele>720.3</ele>
        <time>2024-08-04T11:53:40Z</time>
      </trkpt>
      <trkpt lat="48.03423" lon="6.78441">
        <ele>718.7</ele>
        <time>2024-08-04T11:53:51Z</time>
      </trkpt>
      <trkpt lat="48.03416" lon="6.7845">
        <ele>717.1</ele>
        <time>2024-08-04T11:54:03Z</time>
      </trkpt>
      <trkpt lat="48.03407" lon="6.78456">
        <ele>715.5</ele>
        <time>2024-08-04T11:54:15Z</time>
      </trkpt>
      <trkpt lat="48.03399" lon="6.78463">
        <ele>713.8</ele>
        <time>2024-08-04T11:54:24Z</time>
      </trkpt>
      <trkpt lat="48.03393" lon="6.78473">
        <ele>712.3</ele>
        <time>2024-08-04T11:54:35Z</time>
      </trkpt>
      <trkpt lat="48.03387" lon="6.78485">
        <ele>710.8</ele>
        <time>2024-08-04T11:54:44Z</time>
      </trkpt>
      <trkpt lat="48.03385" lon="6.78499">
        <ele>709.2</ele>
        <time>2024-08-04T11:54:55Z</time>
      </trkpt>
      <trkpt lat="48.03388" lon="6.78513">
        <ele>707.7</ele>
        <time>2024-08-04T11:55:03Z</time>
      </trkpt>
      <trkpt lat="48.03391" lon="6.78526">
        <ele>706.3</ele>
        <time>2024-08-04T11:55:12Z</time>
      </trkpt>
      <trkpt lat="48.03392" lon="6.7854">
        <ele>705</ele>
        <time>2024-08-04T11:55:20Z</time>
      </trkpt>
      <trkpt lat="48.03394" lon="6.78554">
        <ele>703.7</ele>
        <time>2024-08-04T11:55:29Z</time>
      </trkpt>
      <trkpt lat="48.03397" lon="6.78561">
        <ele>703.1</ele>
        <time>2024-08-04T11:55:38Z</time>
      </trkpt>
      <trkpt lat="48.03397" lon="6.78561">
        <ele>703.1</ele>
        <time>2024-08-04T11:55:39Z</time>
      </trkpt>
      <trkpt lat="48.03397" lon="6.78561">
        <ele>703</ele>
        <time>2024-08-04T11:55:40Z</time>
      </trkpt>
      <trkpt lat="48.03397" lon="6.78561">
        <ele>703</ele>
        <time>2024-08-04T11:55:44Z</time>
      </trkpt>
      <trkpt lat="48.03397" lon="6.78562">
        <ele>702.9</ele>
        <time>2024-08-04T11:55:45Z</time>
      </trkpt>
      <trkpt lat="48.03397" lon="6.78563">
        <ele>702.8</ele>
        <time>2024-08-04T11:55:46Z</time>
      </trkpt>
      <trkpt lat="48.03399" lon="6.78578">
        <ele>701.7</ele>
        <time>2024-08-04T11:55:56Z</time>
      </trkpt>
      <trkpt lat="48.03403" lon="6.7859">
        <ele>700.7</ele>
        <time>2024-08-04T11:56:09Z</time>
      </trkpt>
      <trkpt lat="48.03408" lon="6.78603">
        <ele>699.6</ele>
        <time>2024-08-04T11:56:20Z</time>
      </trkpt>
      <trkpt lat="48.03411" lon="6.78616">
        <ele>698.4</ele>
        <time>2024-08-04T11:56:30Z</time>
      </trkpt>
      <trkpt lat="48.03415" lon="6.78629">
        <ele>697.4</ele>
        <time>2024-08-04T11:56:42Z</time>
      </trkpt>
      <trkpt lat="48.03421" lon="6.7864">
        <ele>696.3</ele>
        <time>2024-08-04T11:56:57Z</time>
      </trkpt>
      <trkpt lat="48.03421" lon="6.78641">
        <ele>696.2</ele>
        <time>2024-08-04T11:57:11Z</time>
      </trkpt>
      <trkpt lat="48.03421" lon="6.78641">
        <ele>696.2</ele>
        <time>2024-08-04T11:57:12Z</time>
      </trkpt>
      <trkpt lat="48.03421" lon="6.78641">
        <ele>696.2</ele>
        <time>2024-08-04T11:57:13Z</time>
      </trkpt>
      <trkpt lat="48.03422" lon="6.78643">
        <ele>696</ele>
        <time>2024-08-04T11:57:26Z</time>
      </trkpt>
      <trkpt lat="48.03422" lon="6.78644">
        <ele>695.9</ele>
        <time>2024-08-04T11:57:27Z</time>
      </trkpt>
      <trkpt lat="48.03423" lon="6.78645">
        <ele>695.8</ele>
        <time>2024-08-04T11:57:28Z</time>
      </trkpt>
      <trkpt lat="48.03426" lon="6.78658">
        <ele>694.7</ele>
        <time>2024-08-04T11:57:42Z</time>
      </trkpt>
      <trkpt lat="48.03431" lon="6.78671">
        <ele>693.6</ele>
        <time>2024-08-04T11:57:56Z</time>
      </trkpt>
      <trkpt lat="48.03433" lon="6.78681">
        <ele>692.7</ele>
        <time>2024-08-04T11:58:13Z</time>
      </trkpt>
      <trkpt lat="48.03433" lon="6.78681">
        <ele>692.7</ele>
        <time>2024-08-04T11:58:14Z</time>
      </trkpt>
      <trkpt lat="48.03433" lon="6.7868">
        <ele>692.7</ele>
        <time>2024-08-04T11:58:15Z</time>
      </trkpt>
      <trkpt lat="48.03433" lon="6.78679">
        <ele>692.6</ele>
        <time>2024-08-04T11:58:21Z</time>
      </trkpt>
      <trkpt lat="48.03433" lon="6.78679">
        <ele>692.6</ele>
        <time>2024-08-04T11:58:22Z</time>
      </trkpt>
      <trkpt lat="48.03433" lon="6.78679">
        <ele>692.6</ele>
        <time>2024-08-04T11:58:26Z</time>
      </trkpt>
      <trkpt lat="48.03433" lon="6.78679">
        <ele>692.6</ele>
        <time>2024-08-04T11:58:27Z</time>
      </trkpt>
      <trkpt lat="48.03433" lon="6.78679">
        <ele>692.6</ele>
        <time>2024-08-04T11:58:28Z</time>
      </trkpt>
      <trkpt lat="48.03433" lon="6.78678">
        <ele>692.6</ele>
        <time>2024-08-04T11:59:09Z</time>
      </trkpt>
      <trkpt lat="48.03433" lon="6.78679">
        <ele>692.5</ele>
        <time>2024-08-04T11:59:10Z</time>
      </trkpt>
      <trkpt lat="48.03433" lon="6.78678">
        <ele>692.5</ele>
        <time>2024-08-04T11:59:11Z</time>
      </trkpt>
      <trkpt lat="48.03433" lon="6.78678">
        <ele>692.5</ele>
        <time>2024-08-04T11:59:12Z</time>
      </trkpt>
      <trkpt lat="48.03433" lon="6.78679">
        <ele>692.4</ele>
        <time>2024-08-04T11:59:16Z</time>
      </trkpt>
      <trkpt lat="48.03434" lon="6.7868">
        <ele>692.4</ele>
        <time>2024-08-04T11:59:17Z</time>
      </trkpt>
      <trkpt lat="48.03434" lon="6.78682">
        <ele>692.2</ele>
        <time>2024-08-04T11:59:28Z</time>
      </trkpt>
      <trkpt lat="48.03434" lon="6.78682">
        <ele>692.2</ele>
        <time>2024-08-04T11:59:29Z</time>
      </trkpt>
      <trkpt lat="48.03434" lon="6.78682">
        <ele>692.2</ele>
        <time>2024-08-04T11:59:30Z</time>
      </trkpt>
      <trkpt lat="48.03434" lon="6.78682">
        <ele>692.1</ele>
        <time>2024-08-04T11:59:48Z</time>
      </trkpt>
      <trkpt lat="48.03434" lon="6.78682">
        <ele>692.1</ele>
        <time>2024-08-04T11:59:49Z</time>
      </trkpt>
      <trkpt lat="48.03434" lon="6.78682">
        <ele>692.1</ele>
        <time>2024-08-04T11:59:50Z</time>
      </trkpt>
      <trkpt lat="48.03434" lon="6.78682">
        <ele>692.1</ele>
        <time>2024-08-04T11:59:51Z</time>
      </trkpt>
      <trkpt lat="48.03434" lon="6.78682">
        <ele>692.1</ele>
        <time>2024-08-04T11:59:52Z</time>
      </trkpt>
      <trkpt lat="48.03434" lon="6.78682">
        <ele>692.1</ele>
        <time>2024-08-04T11:59:53Z</time>
      </trkpt>
      <trkpt lat="48.03434" lon="6.7868">
        <ele>692</ele>
        <time>2024-08-04T12:00:16Z</time>
      </trkpt>
      <trkpt lat="48.03434" lon="6.7868">
        <ele>692</ele>
        <time>2024-08-04T12:00:17Z</time>
      </trkpt>
      <trkpt lat="48.03434" lon="6.78679">
        <ele>691.9</ele>
        <time>2024-08-04T12:00:18Z</time>
      </trkpt>
      <trkpt lat="48.03434" lon="6.7868">
        <ele>691.9</ele>
        <time>2024-08-04T12:00:22Z</time>
      </trkpt>
      <trkpt lat="48.03434" lon="6.7868">
        <ele>691.9</ele>
        <time>2024-08-04T12:00:23Z</time>
      </trkpt>
      <trkpt lat="48.03434" lon="6.78681">
        <ele>691.8</ele>
        <time>2024-08-04T12:00:29Z</time>
      </trkpt>
      <trkpt lat="48.03433" lon="6.78682">
        <ele>691.7</ele>
        <time>2024-08-04T12:00:30Z</time>
      </trkpt>
      <trkpt lat="48.03437" lon="6.78695">
        <ele>690.5</ele>
        <time>2024-08-04T12:00:43Z</time>
      </trkpt>
      <trkpt lat="48.03441" lon="6.78708">
        <ele>689.2</ele>
        <time>2024-08-04T12:00:56Z</time>
      </trkpt>
      <trkpt lat="48.03445" lon="6.78721">
        <ele>688</ele>
        <time>2024-08-04T12:01:05Z</time>
      </trkpt>
      <trkpt lat="48.03449" lon="6.78733">
        <ele>686.9</ele>
        <time>2024-08-04T12:01:15Z</time>
      </trkpt>
      <trkpt lat="48.03454" lon="6.78745">
        <ele>685.7</ele>
        <time>2024-08-04T12:01:25Z</time>
      </trkpt>
      <trkpt lat="48.03459" lon="6.78757">
        <ele>684.6</ele>
        <time>2024-08-04T12:01:35Z</time>
      </trkpt>
      <trkpt lat="48.03468" lon="6.78761">
        <ele>683.7</ele>
        <time>2024-08-04T12:01:52Z</time>
      </trkpt>
      <trkpt lat="48.03476" lon="6.7877">
        <ele>682.7</ele>
        <time>2024-08-04T12:02:01Z</time>
      </trkpt>
      <trkpt lat="48.03484" lon="6.78777">
        <ele>681.8</ele>
        <time>2024-08-04T12:02:15Z</time>
      </trkpt>
      <trkpt lat="48.03492" lon="6.78785">
        <ele>680.9</ele>
        <time>2024-08-04T12:02:26Z</time>
      </trkpt>
      <trkpt lat="48.035" lon="6.78793">
        <ele>679.9</ele>
        <time>2024-08-04T12:02:36Z</time>
      </trkpt>
      <trkpt lat="48.03502" lon="6.78806">
        <ele>678.9</ele>
        <time>2024-08-04T12:02:53Z</time>
      </trkpt>
      <trkpt lat="48.03504" lon="6.78806">
        <ele>678.8</ele>
        <time>2024-08-04T12:03:07Z</time>
      </trkpt>
      <trkpt lat="48.03504" lon="6.78806">
        <ele>678.8</ele>
        <time>2024-08-04T12:03:08Z</time>
      </trkpt>
      <trkpt lat="48.03503" lon="6.78806">
        <ele>678.7</ele>
        <time>2024-08-04T12:03:11Z</time>
      </trkpt>
      <trkpt lat="48.03503" lon="6.78807">
        <ele>678.6</ele>
        <time>2024-08-04T12:03:12Z</time>
      </trkpt>
      <trkpt lat="48.03501" lon="6.78806">
        <ele>678.4</ele>
        <time>2024-08-04T12:03:22Z</time>
      </trkpt>
      <trkpt lat="48.03501" lon="6.78805">
        <ele>678.4</ele>
        <time>2024-08-04T12:03:23Z</time>
      </trkpt>
      <trkpt lat="48.03501" lon="6.78805">
        <ele>678.3</ele>
        <time>2024-08-04T12:03:24Z</time>
      </trkpt>
      <trkpt lat="48.035" lon="6.78804">
        <ele>678.3</ele>
        <time>2024-08-04T12:03:25Z</time>
      </trkpt>
      <trkpt lat="48.035" lon="6.78804">
        <ele>678.3</ele>
        <time>2024-08-04T12:03:26Z</time>
      </trkpt>
      <trkpt lat="48.03493" lon="6.78797">
        <ele>678</ele>
        <time>2024-08-04T12:03:46Z</time>
      </trkpt>
      <trkpt lat="48.03493" lon="6.78797">
        <ele>678</ele>
        <time>2024-08-04T12:03:47Z</time>
      </trkpt>
      <trkpt lat="48.03493" lon="6.78796">
        <ele>678</ele>
        <time>2024-08-04T12:03:48Z</time>
      </trkpt>
      <trkpt lat="48.03492" lon="6.78795">
        <ele>677.9</ele>
        <time>2024-08-04T12:03:49Z</time>
      </trkpt>
      <trkpt lat="48.03492" lon="6.78794">
        <ele>677.9</ele>
        <time>2024-08-04T12:03:50Z</time>
      </trkpt>
      <trkpt lat="48.03483" lon="6.78795">
        <ele>677.6</ele>
        <time>2024-08-04T12:04:07Z</time>
      </trkpt>
      <trkpt lat="48.03479" lon="6.78791">
        <ele>677.5</ele>
        <time>2024-08-04T12:04:16Z</time>
      </trkpt>
      <trkpt lat="48.03479" lon="6.7879">
        <ele>677.4</ele>
        <time>2024-08-04T12:04:17Z</time>
      </trkpt>
      <trkpt lat="48.03478" lon="6.7879">
        <ele>677.4</ele>
        <time>2024-08-04T12:04:18Z</time>
      </trkpt>
      <trkpt lat="48.03477" lon="6.7879">
        <ele>677.4</ele>
        <time>2024-08-04T12:04:19Z</time>
      </trkpt>
      <trkpt lat="48.03476" lon="6.7879">
        <ele>677.4</ele>
        <time>2024-08-04T12:04:20Z</time>
      </trkpt>
      <trkpt lat="48.03475" lon="6.78791">
        <ele>677.3</ele>
        <time>2024-08-04T12:04:21Z</time>
      </trkpt>
      <trkpt lat="48.03466" lon="6.78786">
        <ele>677.1</ele>
        <time>2024-08-04T12:04:34Z</time>
      </trkpt>
      <trkpt lat="48.03457" lon="6.78784">
        <ele>676.8</ele>
        <time>2024-08-04T12:04:53Z</time>
      </trkpt>
      <trkpt lat="48.03449" lon="6.78778">
        <ele>676.5</ele>
        <time>2024-08-04T12:05:07Z</time>
      </trkpt>
      <trkpt lat="48.0344" lon="6.7877">
        <ele>676.2</ele>
        <time>2024-08-04T12:05:25Z</time>
      </trkpt>
      <trkpt lat="48.03435" lon="6.78759">
        <ele>676</ele>
        <time>2024-08-04T12:05:40Z</time>
      </trkpt>
      <trkpt lat="48.03439" lon="6.78772">
        <ele>675.7</ele>
        <time>2024-08-04T12:06:10Z</time>
      </trkpt>
      <trkpt lat="48.03445" lon="6.78781">
        <ele>675.4</ele>
        <time>2024-08-04T12:06:19Z</time>
      </trkpt>
      <trkpt lat="48.03451" lon="6.78792">
        <ele>675.2</ele>
        <time>2024-08-04T12:06:28Z</time>
      </trkpt>
      <trkpt lat="48.03459" lon="6.78798">
        <ele>674.9</ele>
        <time>2024-08-04T12:06:38Z</time>
      </trkpt>
      <trkpt lat="48.03449" lon="6.78798">
        <ele>674.6</ele>
        <time>2024-08-04T12:07:03Z</time>
      </trkpt>
      <trkpt lat="48.0344" lon="6.78799">
        <ele>674.4</ele>
        <time>2024-08-04T12:07:12Z</time>
      </trkpt>
      <trkpt lat="48.0343" lon="6.78801">
        <ele>674.1</ele>
        <time>2024-08-04T12:07:23Z</time>
      </trkpt>
      <trkpt lat="48.03422" lon="6.78807">
        <ele>673.9</ele>
        <time>2024-08-04T12:07:33Z</time>
      </trkpt>
      <trkpt lat="48.03417" lon="6.78819">
        <ele>673.6</ele>
        <time>2024-08-04T12:07:43Z</time>
      </trkpt>
      <trkpt lat="48.03411" lon="6.7883">
        <ele>673.4</ele>
        <time>2024-08-04T12:07:58Z</time>
      </trkpt>
      <trkpt lat="48.03405" lon="6.78818">
        <ele>673.1</ele>
        <time>2024-08-04T12:08:16Z</time>
      </trkpt>
      <trkpt lat="48.03398" lon="6.78808">
        <ele>672.9</ele>
        <time>2024-08-04T12:08:35Z</time>
      </trkpt>
      <trkpt lat="48.03395" lon="6.78795">
        <ele>672.6</ele>
        <time>2024-08-04T12:08:52Z</time>
      </trkpt>
      <trkpt lat="48.03393" lon="6.78783">
        <ele>672.4</ele>
        <time>2024-08-04T12:09:09Z</time>
      </trkpt>
      <trkpt lat="48.03393" lon="6.78783">
        <ele>672.4</ele>
        <time>2024-08-04T12:09:10Z</time>
      </trkpt>
      <trkpt lat="48.03393" lon="6.78784">
        <ele>672.4</ele>
        <time>2024-08-04T12:09:13Z</time>
      </trkpt>
      <trkpt lat="48.03393" lon="6.78785">
        <ele>672.4</ele>
        <time>2024-08-04T12:09:14Z</time>
      </trkpt>
      <trkpt lat="48.03393" lon="6.78785">
        <ele>672.3</ele>
        <time>2024-08-04T12:09:15Z</time>
      </trkpt>
      <trkpt lat="48.03391" lon="6.78783">
        <ele>672.3</ele>
        <time>2024-08-04T12:09:23Z</time>
      </trkpt>
      <trkpt lat="48.03391" lon="6.78783">
        <ele>672.3</ele>
        <time>2024-08-04T12:09:24Z</time>
      </trkpt>
      <trkpt lat="48.03391" lon="6.78783">
        <ele>672.3</ele>
        <time>2024-08-04T12:09:25Z</time>
      </trkpt>
      <trkpt lat="48.0339" lon="6.78781">
        <ele>672.2</ele>
        <time>2024-08-04T12:09:29Z</time>
      </trkpt>
      <trkpt lat="48.0339" lon="6.7878">
        <ele>672.2</ele>
        <time>2024-08-04T12:09:30Z</time>
      </trkpt>
      <trkpt lat="48.0339" lon="6.78779">
        <ele>672.2</ele>
        <time>2024-08-04T12:09:31Z</time>
      </trkpt>
      <trkpt lat="48.03391" lon="6.78777">
        <ele>672.2</ele>
        <time>2024-08-04T12:09:36Z</time>
      </trkpt>
      <trkpt lat="48.03391" lon="6.78777">
        <ele>672.2</ele>
        <time>2024-08-04T12:09:37Z</time>
      </trkpt>
      <trkpt lat="48.03388" lon="6.78777">
        <ele>672.1</ele>
        <time>2024-08-04T12:10:04Z</time>
      </trkpt>
      <trkpt lat="48.03388" lon="6.78777">
        <ele>672.1</ele>
        <time>2024-08-04T12:10:05Z</time>
      </trkpt>
      <trkpt lat="48.03387" lon="6.78778">
        <ele>672.1</ele>
        <time>2024-08-04T12:10:06Z</time>
      </trkpt>
      <trkpt lat="48.03386" lon="6.78791">
        <ele>671.8</ele>
        <time>2024-08-04T12:10:16Z</time>
      </trkpt>
      <trkpt lat="48.03391" lon="6.78804">
        <ele>671.6</ele>
        <time>2024-08-04T12:10:23Z</time>
      </trkpt>
      <trkpt lat="48.03387" lon="6.78795">
        <ele>671.4</ele>
        <time>2024-08-04T12:10:44Z</time>
      </trkpt>
      <trkpt lat="48.03387" lon="6.78795">
        <ele>671.4</ele>
        <time>2024-08-04T12:10:45Z</time>
      </trkpt>
      <trkpt lat="48.03386" lon="6.78795">
        <ele>671.4</ele>
        <time>2024-08-04T12:10:46Z</time>
      </trkpt>
      <trkpt lat="48.03386" lon="6.78795">
        <ele>671.4</ele>
        <time>2024-08-04T12:10:47Z</time>
      </trkpt>
      <trkpt lat="48.03384" lon="6.78788">
        <ele>671.2</ele>
        <time>2024-08-04T12:11:02Z</time>
      </trkpt>
      <trkpt lat="48.03384" lon="6.78788">
        <ele>671.2</ele>
        <time>2024-08-04T12:11:03Z</time>
      </trkpt>
      <trkpt lat="48.03383" lon="6.78788">
        <ele>671.2</ele>
        <time>2024-08-04T12:11:06Z</time>
      </trkpt>
      <trkpt lat="48.03383" lon="6.78788">
        <ele>671.2</ele>
        <time>2024-08-04T12:11:07Z</time>
      </trkpt>
      <trkpt lat="48.03375" lon="6.78779">
        <ele>671</ele>
        <time>2024-08-04T12:11:37Z</time>
      </trkpt>
      <trkpt lat="48.03371" lon="6.78767">
        <ele>670.7</ele>
        <time>2024-08-04T12:11:57Z</time>
      </trkpt>
      <trkpt lat="48.03364" lon="6.78757">
        <ele>670.4</ele>
        <time>2024-08-04T12:12:05Z</time>
      </trkpt>
      <trkpt lat="48.03357" lon="6.78747">
        <ele>670.1</ele>
        <time>2024-08-04T12:12:14Z</time>
      </trkpt>
      <trkpt lat="48.03351" lon="6.78737">
        <ele>669.8</ele>
        <time>2024-08-04T12:12:24Z</time>
      </trkpt>
      <trkpt lat="48.03344" lon="6.78728">
        <ele>669.6</ele>
        <time>2024-08-04T12:12:36Z</time>
      </trkpt>
      <trkpt lat="48.03338" lon="6.78717">
        <ele>670</ele>
        <time>2024-08-04T12:12:50Z</time>
      </trkpt>
      <trkpt lat="48.03332" lon="6.78706">
        <ele>668.8</ele>
        <time>2024-08-04T12:13:02Z</time>
      </trkpt>
      <trkpt lat="48.03323" lon="6.78712">
        <ele>663.1</ele>
        <time>2024-08-04T12:13:13Z</time>
      </trkpt>
      <trkpt lat="48.03324" lon="6.78719">
        <ele>661.7</ele>
        <time>2024-08-04T12:13:31Z</time>
      </trkpt>
      <trkpt lat="48.03324" lon="6.78719">
        <ele>661.3</ele>
        <time>2024-08-04T12:13:32Z</time>
      </trkpt>
      <trkpt lat="48.03324" lon="6.78718">
        <ele>661</ele>
        <time>2024-08-04T12:13:33Z</time>
      </trkpt>
      <trkpt lat="48.03324" lon="6.78717">
        <ele>660.7</ele>
        <time>2024-08-04T12:13:34Z</time>
      </trkpt>
      <trkpt lat="48.03324" lon="6.78717">
        <ele>660.3</ele>
        <time>2024-08-04T12:13:35Z</time>
      </trkpt>
      <trkpt lat="48.03324" lon="6.78716">
        <ele>660</ele>
        <time>2024-08-04T12:13:36Z</time>
      </trkpt>
      <trkpt lat="48.03326" lon="6.78712">
        <ele>662.1</ele>
        <time>2024-08-04T12:13:42Z</time>
      </trkpt>
      <trkpt lat="48.03326" lon="6.78711">
        <ele>661.8</ele>
        <time>2024-08-04T12:13:43Z</time>
      </trkpt>
      <trkpt lat="48.03326" lon="6.78711">
        <ele>661.4</ele>
        <time>2024-08-04T12:13:44Z</time>
      </trkpt>
      <trkpt lat="48.03326" lon="6.78712">
        <ele>661.1</ele>
        <time>2024-08-04T12:13:45Z</time>
      </trkpt>
      <trkpt lat="48.03326" lon="6.78712">
        <ele>660.8</ele>
        <time>2024-08-04T12:13:46Z</time>
      </trkpt>
      <trkpt lat="48.03326" lon="6.78712">
        <ele>660.4</ele>
        <time>2024-08-04T12:13:47Z</time>
      </trkpt>
      <trkpt lat="48.03326" lon="6.78712">
        <ele>660.1</ele>
        <time>2024-08-04T12:13:48Z</time>
      </trkpt>
      <trkpt lat="48.03325" lon="6.78713">
        <ele>659.7</ele>
        <time>2024-08-04T12:13:49Z</time>
      </trkpt>
      <trkpt lat="48.03325" lon="6.78714">
        <ele>659.4</ele>
        <time>2024-08-04T12:13:50Z</time>
      </trkpt>
      <trkpt lat="48.03325" lon="6.78715">
        <ele>658</ele>
        <time>2024-08-04T12:13:51Z</time>
      </trkpt>
      <trkpt lat="48.03326" lon="6.7873">
        <ele>654.2</ele>
        <time>2024-08-04T12:14:00Z</time>
      </trkpt>
      <trkpt lat="48.0333" lon="6.78743">
        <ele>653</ele>
        <time>2024-08-04T12:14:11Z</time>
      </trkpt>
      <trkpt lat="48.03331" lon="6.78757">
        <ele>648.7</ele>
        <time>2024-08-04T12:14:21Z</time>
      </trkpt>
      <trkpt lat="48.03331" lon="6.78759">
        <ele>647.1</ele>
        <time>2024-08-04T12:14:28Z</time>
      </trkpt>
      <trkpt lat="48.03331" lon="6.78759">
        <ele>646.7</ele>
        <time>2024-08-04T12:14:29Z</time>
      </trkpt>
      <trkpt lat="48.0333" lon="6.7876">
        <ele>646.4</ele>
        <time>2024-08-04T12:14:30Z</time>
      </trkpt>
      <trkpt lat="48.0333" lon="6.7876">
        <ele>644.6</ele>
        <time>2024-08-04T12:14:31Z</time>
      </trkpt>
      <trkpt lat="48.03329" lon="6.78761">
        <ele>644.2</ele>
        <time>2024-08-04T12:14:32Z</time>
      </trkpt>
      <trkpt lat="48.03329" lon="6.78762">
        <ele>642.7</ele>
        <time>2024-08-04T12:14:33Z</time>
      </trkpt>
      <trkpt lat="48.03331" lon="6.78776">
        <ele>640.3</ele>
        <time>2024-08-04T12:14:46Z</time>
      </trkpt>
      <trkpt lat="48.03325" lon="6.78765">
        <ele>640.6</ele>
        <time>2024-08-04T12:15:13Z</time>
      </trkpt>
      <trkpt lat="48.0332" lon="6.78753">
        <ele>641.5</ele>
        <time>2024-08-04T12:15:28Z</time>
      </trkpt>
      <trkpt lat="48.03319" lon="6.7874">
        <ele>645.1</ele>
        <time>2024-08-04T12:15:41Z</time>
      </trkpt>
      <trkpt lat="48.03317" lon="6.78727">
        <ele>647</ele>
        <time>2024-08-04T12:15:57Z</time>
      </trkpt>
      <trkpt lat="48.03316" lon="6.78728">
        <ele>645.5</ele>
        <time>2024-08-04T12:15:58Z</time>
      </trkpt>
      <trkpt lat="48.03314" lon="6.7873">
        <ele>643.7</ele>
        <time>2024-08-04T12:16:02Z</time>
      </trkpt>
      <trkpt lat="48.03314" lon="6.78729">
        <ele>643.3</ele>
        <time>2024-08-04T12:16:03Z</time>
      </trkpt>
      <trkpt lat="48.0331" lon="6.78725">
        <ele>642.6</ele>
        <time>2024-08-04T12:16:33Z</time>
      </trkpt>
      <trkpt lat="48.0331" lon="6.78725">
        <ele>642.3</ele>
        <time>2024-08-04T12:16:34Z</time>
      </trkpt>
      <trkpt lat="48.0331" lon="6.78725">
        <ele>641.9</ele>
        <time>2024-08-04T12:16:35Z</time>
      </trkpt>
      <trkpt lat="48.0331" lon="6.78725">
        <ele>641.6</ele>
        <time>2024-08-04T12:16:41Z</time>
      </trkpt>
      <trkpt lat="48.0331" lon="6.78725">
        <ele>641.3</ele>
        <time>2024-08-04T12:16:42Z</time>
      </trkpt>
      <trkpt lat="48.0331" lon="6.78725">
        <ele>640.9</ele>
        <time>2024-08-04T12:16:43Z</time>
      </trkpt>
      <trkpt lat="48.0331" lon="6.78725">
        <ele>640.6</ele>
        <time>2024-08-04T12:16:44Z</time>
      </trkpt>
      <trkpt lat="48.0331" lon="6.78725">
        <ele>640.3</ele>
        <time>2024-08-04T12:16:45Z</time>
      </trkpt>
      <trkpt lat="48.0331" lon="6.78725">
        <ele>638.3</ele>
        <time>2024-08-04T12:17:27Z</time>
      </trkpt>
      <trkpt lat="48.0331" lon="6.78725">
        <ele>638</ele>
        <time>2024-08-04T12:17:28Z</time>
      </trkpt>
      <trkpt lat="48.0331" lon="6.78725">
        <ele>637.6</ele>
        <time>2024-08-04T12:17:31Z</time>
      </trkpt>
      <trkpt lat="48.0331" lon="6.78725">
        <ele>637.3</ele>
        <time>2024-08-04T12:17:32Z</time>
      </trkpt>
      <trkpt lat="48.0331" lon="6.78725">
        <ele>637</ele>
        <time>2024-08-04T12:17:33Z</time>
      </trkpt>
      <trkpt lat="48.0331" lon="6.78725">
        <ele>636.6</ele>
        <time>2024-08-04T12:17:41Z</time>
      </trkpt>
      <trkpt lat="48.0331" lon="6.78725">
        <ele>636.3</ele>
        <time>2024-08-04T12:17:42Z</time>
      </trkpt>
      <trkpt lat="48.03309" lon="6.78725">
        <ele>636</ele>
        <time>2024-08-04T12:17:43Z</time>
      </trkpt>
      <trkpt lat="48.03309" lon="6.78725">
        <ele>635.6</ele>
        <time>2024-08-04T12:17:44Z</time>
      </trkpt>
      <trkpt lat="48.03309" lon="6.78725">
        <ele>635.3</ele>
        <time>2024-08-04T12:17:45Z</time>
      </trkpt>
      <trkpt lat="48.03309" lon="6.78725">
        <ele>634.9</ele>
        <time>2024-08-04T12:17:46Z</time>
      </trkpt>
      <trkpt lat="48.03309" lon="6.78725">
        <ele>634.6</ele>
        <time>2024-08-04T12:17:47Z</time>
      </trkpt>
      <trkpt lat="48.03309" lon="6.78725">
        <ele>634.3</ele>
        <time>2024-08-04T12:17:48Z</time>
      </trkpt>
      <trkpt lat="48.03309" lon="6.78725">
        <ele>633.9</ele>
        <time>2024-08-04T12:17:56Z</time>
      </trkpt>
      <trkpt lat="48.03309" lon="6.78725">
        <ele>633.6</ele>
        <time>2024-08-04T12:17:57Z</time>
      </trkpt>
      <trkpt lat="48.0331" lon="6.78726">
        <ele>633.3</ele>
        <time>2024-08-04T12:18:31Z</time>
      </trkpt>
      <trkpt lat="48.0331" lon="6.78726">
        <ele>632.9</ele>
        <time>2024-08-04T12:18:32Z</time>
      </trkpt>
      <trkpt lat="48.0331" lon="6.78726">
        <ele>634.2</ele>
        <time>2024-08-04T12:18:33Z</time>
      </trkpt>
      <trkpt lat="48.03309" lon="6.78728">
        <ele>631.1</ele>
        <time>2024-08-04T12:18:37Z</time>
      </trkpt>
      <trkpt lat="48.03309" lon="6.78728">
        <ele>630.7</ele>
        <time>2024-08-04T12:18:38Z</time>
      </trkpt>
      <trkpt lat="48.03308" lon="6.78727">
        <ele>631.6</ele>
        <time>2024-08-04T12:18:41Z</time>
      </trkpt>
      <trkpt lat="48.03311" lon="6.78726">
        <ele>632.8</ele>
        <time>2024-08-04T12:18:52Z</time>
      </trkpt>
      <trkpt lat="48.03311" lon="6.78726">
        <ele>632.5</ele>
        <time>2024-08-04T12:18:53Z</time>
      </trkpt>
      <trkpt lat="48.03318" lon="6.78717">
        <ele>637.5</ele>
        <time>2024-08-04T12:20:41Z</time>
      </trkpt>
      <trkpt lat="48.03323" lon="6.78705">
        <ele>643</ele>
        <time>2024-08-04T12:22:04Z</time>
      </trkpt>
      <trkpt lat="48.03315" lon="6.7871">
        <ele>637.6</ele>
        <time>2024-08-04T12:25:04Z</time>
      </trkpt>
      <trkpt lat="48.03322" lon="6.78719">
        <ele>639.1</ele>
        <time>2024-08-04T12:27:38Z</time>
      </trkpt>
      <trkpt lat="48.03313" lon="6.78714">
        <ele>635.8</ele>
        <time>2024-08-04T12:28:30Z</time>
      </trkpt>
      <trkpt lat="48.03321" lon="6.78723">
        <ele>636</ele>
        <time>2024-08-04T12:28:46Z</time>
      </trkpt>
      <trkpt lat="48.03316" lon="6.78712">
        <ele>636.6</ele>
        <time>2024-08-04T12:29:21Z</time>
      </trkpt>
      <trkpt lat="48.0332" lon="6.78725">
        <ele>634.2</ele>
        <time>2024-08-04T12:31:23Z</time>
      </trkpt>
      <trkpt lat="48.03327" lon="6.78733">
        <ele>634.1</ele>
        <time>2024-08-04T12:34:03Z</time>
      </trkpt>
      <trkpt lat="48.03319" lon="6.78726">
        <ele>633.5</ele>
        <time>2024-08-04T12:35:02Z</time>
      </trkpt>
      <trkpt lat="48.03325" lon="6.78715">
        <ele>638.1</ele>
        <time>2024-08-04T12:36:26Z</time>
      </trkpt>
      <trkpt lat="48.03329" lon="6.78718">
        <ele>639.2</ele>
        <time>2024-08-04T12:37:21Z</time>
      </trkpt>
      <trkpt lat="48.03329" lon="6.78718">
        <ele>638.8</ele>
        <time>2024-08-04T12:37:22Z</time>
      </trkpt>
      <trkpt lat="48.03329" lon="6.78718">
        <ele>638.5</ele>
        <time>2024-08-04T12:37:23Z</time>
      </trkpt>
      <trkpt lat="48.03323" lon="6.78729">
        <ele>632</ele>
        <time>2024-08-04T12:37:31Z</time>
      </trkpt>
      <trkpt lat="48.03316" lon="6.7874">
        <ele>625.1</ele>
        <time>2024-08-04T12:37:37Z</time>
      </trkpt>
      <trkpt lat="48.03317" lon="6.78754">
        <ele>621</ele>
        <time>2024-08-04T12:37:51Z</time>
      </trkpt>
      <trkpt lat="48.0331" lon="6.78743">
        <ele>620</ele>
        <time>2024-08-04T12:38:34Z</time>
      </trkpt>
      <trkpt lat="48.03304" lon="6.78733">
        <ele>618.9</ele>
        <time>2024-08-04T12:38:45Z</time>
      </trkpt>
      <trkpt lat="48.03294" lon="6.78732">
        <ele>615.3</ele>
        <time>2024-08-04T12:38:58Z</time>
      </trkpt>
      <trkpt lat="48.0329" lon="6.78726">
        <ele>613.4</ele>
        <time>2024-08-04T12:39:09Z</time>
      </trkpt>
      <trkpt lat="48.03289" lon="6.78726">
        <ele>613.1</ele>
        <time>2024-08-04T12:39:10Z</time>
      </trkpt>
      <trkpt lat="48.03288" lon="6.78726">
        <ele>612.7</ele>
        <time>2024-08-04T12:39:11Z</time>
      </trkpt>
      <trkpt lat="48.03288" lon="6.78726">
        <ele>612.4</ele>
        <time>2024-08-04T12:39:12Z</time>
      </trkpt>
      <trkpt lat="48.03288" lon="6.78726">
        <ele>612.1</ele>
        <time>2024-08-04T12:39:13Z</time>
      </trkpt>
      <trkpt lat="48.03284" lon="6.78714">
        <ele>612.2</ele>
        <time>2024-08-04T12:39:31Z</time>
      </trkpt>
      <trkpt lat="48.03277" lon="6.78705">
        <ele>610.8</ele>
        <time>2024-08-04T12:39:40Z</time>
      </trkpt>
      <trkpt lat="48.03267" lon="6.78703">
        <ele>605.8</ele>
        <time>2024-08-04T12:39:50Z</time>
      </trkpt>
      <trkpt lat="48.03259" lon="6.78707">
        <ele>600.7</ele>
        <time>2024-08-04T12:39:59Z</time>
      </trkpt>
      <trkpt lat="48.03266" lon="6.78716">
        <ele>600.2</ele>
        <time>2024-08-04T12:40:06Z</time>
      </trkpt>
      <trkpt lat="48.03273" lon="6.78726">
        <ele>599.7</ele>
        <time>2024-08-04T12:40:12Z</time>
      </trkpt>
      <trkpt lat="48.03278" lon="6.78738">
        <ele>599.3</ele>
        <time>2024-08-04T12:40:22Z</time>
      </trkpt>
      <trkpt lat="48.03284" lon="6.78749">
        <ele>598.8</ele>
        <time>2024-08-04T12:40:31Z</time>
      </trkpt>
      <trkpt lat="48.03288" lon="6.7876">
        <ele>598.3</ele>
        <time>2024-08-04T12:40:41Z</time>
      </trkpt>
      <trkpt lat="48.03294" lon="6.78772">
        <ele>597.8</ele>
        <time>2024-08-04T12:40:50Z</time>
      </trkpt>
      <trkpt lat="48.03299" lon="6.78785">
        <ele>597.3</ele>
        <time>2024-08-04T12:41:01Z</time>
      </trkpt>
      <trkpt lat="48.03298" lon="6.78772">
        <ele>596.9</ele>
        <time>2024-08-04T12:41:17Z</time>
      </trkpt>
      <trkpt lat="48.03294" lon="6.7876">
        <ele>597.5</ele>
        <time>2024-08-04T12:41:26Z</time>
      </trkpt>
      <trkpt lat="48.03289" lon="6.78748">
        <ele>598.1</ele>
        <time>2024-08-04T12:41:35Z</time>
      </trkpt>
      <trkpt lat="48.03285" lon="6.78734">
        <ele>598.7</ele>
        <time>2024-08-04T12:41:44Z</time>
      </trkpt>
      <trkpt lat="48.0328" lon="6.78723">
        <ele>599.3</ele>
        <time>2024-08-04T12:41:52Z</time>
      </trkpt>
      <trkpt lat="48.03274" lon="6.78713">
        <ele>599.9</ele>
        <time>2024-08-04T12:41:58Z</time>
      </trkpt>
      <trkpt lat="48.03271" lon="6.78699">
        <ele>600.5</ele>
        <time>2024-08-04T12:42:07Z</time>
      </trkpt>
      <trkpt lat="48.03267" lon="6.78691">
        <ele>600.9</ele>
        <time>2024-08-04T12:42:19Z</time>
      </trkpt>
      <trkpt lat="48.03267" lon="6.78691">
        <ele>600.9</ele>
        <time>2024-08-04T12:42:20Z</time>
      </trkpt>
      <trkpt lat="48.03267" lon="6.78691">
        <ele>600.9</ele>
        <time>2024-08-04T12:42:21Z</time>
      </trkpt>
      <trkpt lat="48.03267" lon="6.7869">
        <ele>601</ele>
        <time>2024-08-04T12:42:31Z</time>
      </trkpt>
      <trkpt lat="48.03266" lon="6.78689">
        <ele>601</ele>
        <time>2024-08-04T12:42:32Z</time>
      </trkpt>
      <trkpt lat="48.03266" lon="6.78689">
        <ele>601</ele>
        <time>2024-08-04T12:42:33Z</time>
      </trkpt>
      <trkpt lat="48.03266" lon="6.78689">
        <ele>601</ele>
        <time>2024-08-04T12:42:37Z</time>
      </trkpt>
      <trkpt lat="48.03266" lon="6.78689">
        <ele>601</ele>
        <time>2024-08-04T12:42:38Z</time>
      </trkpt>
      <trkpt lat="48.03266" lon="6.7869">
        <ele>601</ele>
        <time>2024-08-04T12:42:41Z</time>
      </trkpt>
      <trkpt lat="48.03266" lon="6.78689">
        <ele>601.1</ele>
        <time>2024-08-04T12:42:42Z</time>
      </trkpt>
      <trkpt lat="48.03261" lon="6.78677">
        <ele>601.7</ele>
        <time>2024-08-04T12:42:54Z</time>
      </trkpt>
      <trkpt lat="48.03256" lon="6.78665">
        <ele>602.3</ele>
        <time>2024-08-04T12:43:06Z</time>
      </trkpt>
      <trkpt lat="48.03248" lon="6.78656">
        <ele>602.7</ele>
        <time>2024-08-04T12:43:14Z</time>
      </trkpt>
      <trkpt lat="48.03247" lon="6.78657">
        <ele>602.8</ele>
        <time>2024-08-04T12:43:21Z</time>
      </trkpt>
      <trkpt lat="48.03247" lon="6.78657">
        <ele>602.8</ele>
        <time>2024-08-04T12:43:22Z</time>
      </trkpt>
      <trkpt lat="48.03247" lon="6.78657">
        <ele>602.8</ele>
        <time>2024-08-04T12:43:23Z</time>
      </trkpt>
      <trkpt lat="48.03246" lon="6.78658">
        <ele>602.9</ele>
        <time>2024-08-04T12:43:37Z</time>
      </trkpt>
      <trkpt lat="48.03245" lon="6.78659">
        <ele>602.9</ele>
        <time>2024-08-04T12:43:38Z</time>
      </trkpt>
      <trkpt lat="48.03246" lon="6.78673">
        <ele>602.4</ele>
        <time>2024-08-04T12:43:47Z</time>
      </trkpt>
      <trkpt lat="48.0325" lon="6.78685">
        <ele>601.8</ele>
        <time>2024-08-04T12:43:56Z</time>
      </trkpt>
      <trkpt lat="48.03253" lon="6.78698">
        <ele>601.2</ele>
        <time>2024-08-04T12:44:04Z</time>
      </trkpt>
      <trkpt lat="48.03256" lon="6.78711">
        <ele>600.6</ele>
        <time>2024-08-04T12:44:12Z</time>
      </trkpt>
      <trkpt lat="48.03259" lon="6.78724">
        <ele>599.9</ele>
        <time>2024-08-04T12:44:23Z</time>
      </trkpt>
      <trkpt lat="48.03264" lon="6.78736">
        <ele>599.3</ele>
        <time>2024-08-04T12:44:35Z</time>
      </trkpt>
      <trkpt lat="48.03268" lon="6.78749">
        <ele>598.6</ele>
        <time>2024-08-04T12:44:43Z</time>
      </trkpt>
      <trkpt lat="48.03272" lon="6.78761">
        <ele>598</ele>
        <time>2024-08-04T12:44:51Z</time>
      </trkpt>
      <trkpt lat="48.03276" lon="6.78775">
        <ele>597.3</ele>
        <time>2024-08-04T12:44:59Z</time>
      </trkpt>
      <trkpt lat="48.0328" lon="6.78788">
        <ele>596.6</ele>
        <time>2024-08-04T12:45:06Z</time>
      </trkpt>
      <trkpt lat="48.03284" lon="6.78801">
        <ele>596</ele>
        <time>2024-08-04T12:45:14Z</time>
      </trkpt>
      <trkpt lat="48.03287" lon="6.78815">
        <ele>595.4</ele>
        <time>2024-08-04T12:45:22Z</time>
      </trkpt>
      <trkpt lat="48.03292" lon="6.78828">
        <ele>594.9</ele>
        <time>2024-08-04T12:45:30Z</time>
      </trkpt>
      <trkpt lat="48.03296" lon="6.7884">
        <ele>594.5</ele>
        <time>2024-08-04T12:45:39Z</time>
      </trkpt>
      <trkpt lat="48.03299" lon="6.78854">
        <ele>594.1</ele>
        <time>2024-08-04T12:45:47Z</time>
      </trkpt>
      <trkpt lat="48.03302" lon="6.78868">
        <ele>593.8</ele>
        <time>2024-08-04T12:45:55Z</time>
      </trkpt>
      <trkpt lat="48.03304" lon="6.78882">
        <ele>593.6</ele>
        <time>2024-08-04T12:46:02Z</time>
      </trkpt>
      <trkpt lat="48.03306" lon="6.78897">
        <ele>593.5</ele>
        <time>2024-08-04T12:46:10Z</time>
      </trkpt>
      <trkpt lat="48.0331" lon="6.7891">
        <ele>593.3</ele>
        <time>2024-08-04T12:46:18Z</time>
      </trkpt>
      <trkpt lat="48.03311" lon="6.78924">
        <ele>593.2</ele>
        <time>2024-08-04T12:46:26Z</time>
      </trkpt>
      <trkpt lat="48.03313" lon="6.78938">
        <ele>593.1</ele>
        <time>2024-08-04T12:46:36Z</time>
      </trkpt>
      <trkpt lat="48.03314" lon="6.78953">
        <ele>592.9</ele>
        <time>2024-08-04T12:46:46Z</time>
      </trkpt>
      <trkpt lat="48.0331" lon="6.78965">
        <ele>592.8</ele>
        <time>2024-08-04T12:46:55Z</time>
      </trkpt>
      <trkpt lat="48.03306" lon="6.78977">
        <ele>592.7</ele>
        <time>2024-08-04T12:47:05Z</time>
      </trkpt>
      <trkpt lat="48.03301" lon="6.7899">
        <ele>592.8</ele>
        <time>2024-08-04T12:47:13Z</time>
      </trkpt>
      <trkpt lat="48.033" lon="6.79005">
        <ele>592.8</ele>
        <time>2024-08-04T12:47:22Z</time>
      </trkpt>
      <trkpt lat="48.03298" lon="6.79019">
        <ele>592.9</ele>
        <time>2024-08-04T12:47:30Z</time>
      </trkpt>
      <trkpt lat="48.03296" lon="6.79033">
        <ele>593.1</ele>
        <time>2024-08-04T12:47:38Z</time>
      </trkpt>
      <trkpt lat="48.03295" lon="6.79047">
        <ele>593.3</ele>
        <time>2024-08-04T12:47:46Z</time>
      </trkpt>
      <trkpt lat="48.03295" lon="6.79061">
        <ele>593.5</ele>
        <time>2024-08-04T12:47:54Z</time>
      </trkpt>
      <trkpt lat="48.03295" lon="6.79076">
        <ele>593.8</ele>
        <time>2024-08-04T12:48:03Z</time>
      </trkpt>
      <trkpt lat="48.03294" lon="6.79089">
        <ele>594.1</ele>
        <time>2024-08-04T12:48:10Z</time>
      </trkpt>
      <trkpt lat="48.03294" lon="6.79103">
        <ele>594.3</ele>
        <time>2024-08-04T12:48:17Z</time>
      </trkpt>
      <trkpt lat="48.03295" lon="6.79118">
        <ele>594.4</ele>
        <time>2024-08-04T12:48:25Z</time>
      </trkpt>
      <trkpt lat="48.03299" lon="6.7913">
        <ele>594.5</ele>
        <time>2024-08-04T12:48:34Z</time>
      </trkpt>
      <trkpt lat="48.03303" lon="6.79143">
        <ele>594.7</ele>
        <time>2024-08-04T12:48:45Z</time>
      </trkpt>
      <trkpt lat="48.03308" lon="6.79156">
        <ele>594.6</ele>
        <time>2024-08-04T12:48:54Z</time>
      </trkpt>
      <trkpt lat="48.03314" lon="6.79168">
        <ele>594.3</ele>
        <time>2024-08-04T12:49:03Z</time>
      </trkpt>
      <trkpt lat="48.0332" lon="6.79178">
        <ele>594.1</ele>
        <time>2024-08-04T12:49:11Z</time>
      </trkpt>
      <trkpt lat="48.03327" lon="6.79189">
        <ele>593.9</ele>
        <time>2024-08-04T12:49:19Z</time>
      </trkpt>
      <trkpt lat="48.03333" lon="6.79199">
        <ele>593.8</ele>
        <time>2024-08-04T12:49:27Z</time>
      </trkpt>
      <trkpt lat="48.03341" lon="6.79208">
        <ele>593.8</ele>
        <time>2024-08-04T12:49:35Z</time>
      </trkpt>
      <trkpt lat="48.03347" lon="6.7922">
        <ele>593.8</ele>
        <time>2024-08-04T12:49:44Z</time>
      </trkpt>
      <trkpt lat="48.03353" lon="6.7923">
        <ele>593.8</ele>
        <time>2024-08-04T12:49:52Z</time>
      </trkpt>
      <trkpt lat="48.0336" lon="6.79241">
        <ele>593.9</ele>
        <time>2024-08-04T12:50:01Z</time>
      </trkpt>
      <trkpt lat="48.03366" lon="6.79252">
        <ele>594.1</ele>
        <time>2024-08-04T12:50:09Z</time>
      </trkpt>
      <trkpt lat="48.03371" lon="6.79264">
        <ele>594.3</ele>
        <time>2024-08-04T12:50:17Z</time>
      </trkpt>
      <trkpt lat="48.03374" lon="6.79278">
        <ele>594.5</ele>
        <time>2024-08-04T12:50:25Z</time>
      </trkpt>
      <trkpt lat="48.03378" lon="6.7929">
        <ele>594.8</ele>
        <time>2024-08-04T12:50:33Z</time>
      </trkpt>
      <trkpt lat="48.0338" lon="6.79304">
        <ele>595.1</ele>
        <time>2024-08-04T12:50:41Z</time>
      </trkpt>
      <trkpt lat="48.03381" lon="6.79319">
        <ele>595.5</ele>
        <time>2024-08-04T12:50:49Z</time>
      </trkpt>
      <trkpt lat="48.0338" lon="6.79334">
        <ele>595.8</ele>
        <time>2024-08-04T12:50:57Z</time>
      </trkpt>
      <trkpt lat="48.03376" lon="6.79347">
        <ele>596.2</ele>
        <time>2024-08-04T12:51:06Z</time>
      </trkpt>
      <trkpt lat="48.03369" lon="6.79357">
        <ele>596.4</ele>
        <time>2024-08-04T12:51:16Z</time>
      </trkpt>
      <trkpt lat="48.03365" lon="6.79361">
        <ele>596.5</ele>
        <time>2024-08-04T12:51:34Z</time>
      </trkpt>
      <trkpt lat="48.03365" lon="6.79361">
        <ele>596.5</ele>
        <time>2024-08-04T12:51:35Z</time>
      </trkpt>
      <trkpt lat="48.03364" lon="6.79361">
        <ele>596.5</ele>
        <time>2024-08-04T12:52:09Z</time>
      </trkpt>
      <trkpt lat="48.03364" lon="6.79361">
        <ele>596.5</ele>
        <time>2024-08-04T12:52:10Z</time>
      </trkpt>
      <trkpt lat="48.03364" lon="6.79361">
        <ele>596.5</ele>
        <time>2024-08-04T12:52:11Z</time>
      </trkpt>
      <trkpt lat="48.03365" lon="6.79362">
        <ele>596.5</ele>
        <time>2024-08-04T12:52:12Z</time>
      </trkpt>
      <trkpt lat="48.03365" lon="6.79362">
        <ele>596.5</ele>
        <time>2024-08-04T12:52:13Z</time>
      </trkpt>
      <trkpt lat="48.03365" lon="6.79366">
        <ele>596.5</ele>
        <time>2024-08-04T12:52:47Z</time>
      </trkpt>
      <trkpt lat="48.03363" lon="6.79366">
        <ele>596.6</ele>
        <time>2024-08-04T12:52:48Z</time>
      </trkpt>
      <trkpt lat="48.03354" lon="6.79365">
        <ele>597</ele>
        <time>2024-08-04T12:52:54Z</time>
      </trkpt>
      <trkpt lat="48.03345" lon="6.7936">
        <ele>597.5</ele>
        <time>2024-08-04T12:53:02Z</time>
      </trkpt>
      <trkpt lat="48.03336" lon="6.79355">
        <ele>598</ele>
        <time>2024-08-04T12:53:10Z</time>
      </trkpt>
      <trkpt lat="48.03326" lon="6.79351">
        <ele>598.7</ele>
        <time>2024-08-04T12:53:18Z</time>
      </trkpt>
      <trkpt lat="48.03317" lon="6.79351">
        <ele>599.3</ele>
        <time>2024-08-04T12:53:26Z</time>
      </trkpt>
      <trkpt lat="48.03307" lon="6.79353">
        <ele>600</ele>
        <time>2024-08-04T12:53:35Z</time>
      </trkpt>
      <trkpt lat="48.03298" lon="6.79357">
        <ele>600.6</ele>
        <time>2024-08-04T12:53:43Z</time>
      </trkpt>
      <trkpt lat="48.03289" lon="6.79366">
        <ele>601.2</ele>
        <time>2024-08-04T12:53:50Z</time>
      </trkpt>
      <trkpt lat="48.0328" lon="6.79371">
        <ele>601.8</ele>
        <time>2024-08-04T12:53:57Z</time>
      </trkpt>
      <trkpt lat="48.03271" lon="6.79374">
        <ele>602.2</ele>
        <time>2024-08-04T12:54:04Z</time>
      </trkpt>
      <trkpt lat="48.03261" lon="6.79375">
        <ele>602.7</ele>
        <time>2024-08-04T12:54:12Z</time>
      </trkpt>
      <trkpt lat="48.03252" lon="6.79373">
        <ele>603.3</ele>
        <time>2024-08-04T12:54:20Z</time>
      </trkpt>
      <trkpt lat="48.03243" lon="6.79372">
        <ele>603.8</ele>
        <time>2024-08-04T12:54:28Z</time>
      </trkpt>
      <trkpt lat="48.03234" lon="6.79368">
        <ele>604.3</ele>
        <time>2024-08-04T12:54:36Z</time>
      </trkpt>
      <trkpt lat="48.03226" lon="6.7936">
        <ele>604.9</ele>
        <time>2024-08-04T12:54:44Z</time>
      </trkpt>
      <trkpt lat="48.0322" lon="6.7935">
        <ele>605.4</ele>
        <time>2024-08-04T12:54:52Z</time>
      </trkpt>
      <trkpt lat="48.03214" lon="6.79338">
        <ele>605.9</ele>
        <time>2024-08-04T12:55:01Z</time>
      </trkpt>
      <trkpt lat="48.03211" lon="6.79325">
        <ele>606.4</ele>
        <time>2024-08-04T12:55:10Z</time>
      </trkpt>
      <trkpt lat="48.0321" lon="6.7931">
        <ele>607</ele>
        <time>2024-08-04T12:55:19Z</time>
      </trkpt>
      <trkpt lat="48.03213" lon="6.79296">
        <ele>607.6</ele>
        <time>2024-08-04T12:55:29Z</time>
      </trkpt>
      <trkpt lat="48.03214" lon="6.79282">
        <ele>608.1</ele>
        <time>2024-08-04T12:55:39Z</time>
      </trkpt>
      <trkpt lat="48.03216" lon="6.79267">
        <ele>608.7</ele>
        <time>2024-08-04T12:55:48Z</time>
      </trkpt>
      <trkpt lat="48.03218" lon="6.79252">
        <ele>609.4</ele>
        <time>2024-08-04T12:55:55Z</time>
      </trkpt>
      <trkpt lat="48.03216" lon="6.79239">
        <ele>610</ele>
        <time>2024-08-04T12:56:02Z</time>
      </trkpt>
      <trkpt lat="48.03211" lon="6.79227">
        <ele>610.7</ele>
        <time>2024-08-04T12:56:10Z</time>
      </trkpt>
      <trkpt lat="48.03203" lon="6.79219">
        <ele>611.4</ele>
        <time>2024-08-04T12:56:31Z</time>
      </trkpt>
      <trkpt lat="48.03198" lon="6.79216">
        <ele>611.7</ele>
        <time>2024-08-04T12:56:47Z</time>
      </trkpt>
      <trkpt lat="48.03198" lon="6.79216">
        <ele>611.7</ele>
        <time>2024-08-04T12:56:48Z</time>
      </trkpt>
      <trkpt lat="48.03197" lon="6.79216">
        <ele>611.8</ele>
        <time>2024-08-04T12:56:59Z</time>
      </trkpt>
      <trkpt lat="48.03196" lon="6.79216">
        <ele>611.9</ele>
        <time>2024-08-04T12:57:00Z</time>
      </trkpt>
      <trkpt lat="48.03195" lon="6.79216">
        <ele>611.9</ele>
        <time>2024-08-04T12:57:01Z</time>
      </trkpt>
      <trkpt lat="48.03186" lon="6.79215">
        <ele>612.6</ele>
        <time>2024-08-04T12:57:10Z</time>
      </trkpt>
      <trkpt lat="48.03176" lon="6.79215">
        <ele>613.3</ele>
        <time>2024-08-04T12:57:19Z</time>
      </trkpt>
      <trkpt lat="48.03167" lon="6.79216">
        <ele>613.9</ele>
        <time>2024-08-04T12:57:28Z</time>
      </trkpt>
      <trkpt lat="48.03158" lon="6.79219">
        <ele>614.6</ele>
        <time>2024-08-04T12:57:38Z</time>
      </trkpt>
      <trkpt lat="48.03148" lon="6.79223">
        <ele>615.3</ele>
        <time>2024-08-04T12:57:51Z</time>
      </trkpt>
      <trkpt lat="48.03139" lon="6.79225">
        <ele>615.9</ele>
        <time>2024-08-04T12:57:59Z</time>
      </trkpt>
      <trkpt lat="48.0313" lon="6.79228">
        <ele>616.6</ele>
        <time>2024-08-04T12:58:09Z</time>
      </trkpt>
      <trkpt lat="48.0312" lon="6.7923">
        <ele>617.3</ele>
        <time>2024-08-04T12:58:16Z</time>
      </trkpt>
      <trkpt lat="48.03111" lon="6.79231">
        <ele>618</ele>
        <time>2024-08-04T12:58:24Z</time>
      </trkpt>
      <trkpt lat="48.03101" lon="6.79228">
        <ele>618.9</ele>
        <time>2024-08-04T12:58:33Z</time>
      </trkpt>
      <trkpt lat="48.03092" lon="6.79224">
        <ele>619.6</ele>
        <time>2024-08-04T12:58:42Z</time>
      </trkpt>
      <trkpt lat="48.03082" lon="6.7922">
        <ele>620.4</ele>
        <time>2024-08-04T12:58:51Z</time>
      </trkpt>
      <trkpt lat="48.03074" lon="6.79213">
        <ele>621.1</ele>
        <time>2024-08-04T12:59:02Z</time>
      </trkpt>
      <trkpt lat="48.03068" lon="6.79201">
        <ele>621.8</ele>
        <time>2024-08-04T12:59:17Z</time>
      </trkpt>
      <trkpt lat="48.03065" lon="6.79187">
        <ele>622.4</ele>
        <time>2024-08-04T12:59:27Z</time>
      </trkpt>
      <trkpt lat="48.03064" lon="6.79173">
        <ele>622.9</ele>
        <time>2024-08-04T12:59:36Z</time>
      </trkpt>
      <trkpt lat="48.03062" lon="6.7916">
        <ele>623.4</ele>
        <time>2024-08-04T12:59:45Z</time>
      </trkpt>
      <trkpt lat="48.03057" lon="6.79147">
        <ele>623.8</ele>
        <time>2024-08-04T12:59:54Z</time>
      </trkpt>
      <trkpt lat="48.0305" lon="6.79137">
        <ele>624.2</ele>
        <time>2024-08-04T13:00:01Z</time>
      </trkpt>
      <trkpt lat="48.03043" lon="6.79126">
        <ele>624.5</ele>
        <time>2024-08-04T13:00:10Z</time>
      </trkpt>
      <trkpt lat="48.03038" lon="6.79115">
        <ele>624.6</ele>
        <time>2024-08-04T13:00:18Z</time>
      </trkpt>
      <trkpt lat="48.03033" lon="6.79103">
        <ele>624.7</ele>
        <time>2024-08-04T13:00:25Z</time>
      </trkpt>
      <trkpt lat="48.0303" lon="6.79089">
        <ele>624.7</ele>
        <time>2024-08-04T13:00:35Z</time>
      </trkpt>
      <trkpt lat="48.03026" lon="6.79077">
        <ele>624.6</ele>
        <time>2024-08-04T13:00:44Z</time>
      </trkpt>
      <trkpt lat="48.03026" lon="6.79063">
        <ele>624.4</ele>
        <time>2024-08-04T13:00:51Z</time>
      </trkpt>
      <trkpt lat="48.03021" lon="6.79051">
        <ele>624.3</ele>
        <time>2024-08-04T13:00:58Z</time>
      </trkpt>
      <trkpt lat="48.03017" lon="6.79037">
        <ele>624.1</ele>
        <time>2024-08-04T13:01:06Z</time>
      </trkpt>
      <trkpt lat="48.03014" lon="6.79024">
        <ele>623.8</ele>
        <time>2024-08-04T13:01:13Z</time>
      </trkpt>
      <trkpt lat="48.03007" lon="6.79014">
        <ele>623.6</ele>
        <time>2024-08-04T13:01:21Z</time>
      </trkpt>
      <trkpt lat="48.03004" lon="6.79001">
        <ele>623.4</ele>
        <time>2024-08-04T13:01:27Z</time>
      </trkpt>
      <trkpt lat="48.02997" lon="6.78991">
        <ele>623.3</ele>
        <time>2024-08-04T13:01:34Z</time>
      </trkpt>
      <trkpt lat="48.02988" lon="6.78986">
        <ele>623.9</ele>
        <time>2024-08-04T13:01:42Z</time>
      </trkpt>
      <trkpt lat="48.02984" lon="6.78979">
        <ele>624.3</ele>
        <time>2024-08-04T13:01:54Z</time>
      </trkpt>
      <trkpt lat="48.02984" lon="6.78978">
        <ele>624.3</ele>
        <time>2024-08-04T13:01:55Z</time>
      </trkpt>
      <trkpt lat="48.02984" lon="6.78978">
        <ele>624.4</ele>
        <time>2024-08-04T13:01:56Z</time>
      </trkpt>
      <trkpt lat="48.02984" lon="6.78978">
        <ele>624.4</ele>
        <time>2024-08-04T13:01:57Z</time>
      </trkpt>
      <trkpt lat="48.02983" lon="6.78978">
        <ele>624.4</ele>
        <time>2024-08-04T13:02:01Z</time>
      </trkpt>
      <trkpt lat="48.02983" lon="6.78978">
        <ele>624.4</ele>
        <time>2024-08-04T13:02:02Z</time>
      </trkpt>
      <trkpt lat="48.02983" lon="6.78978">
        <ele>624.4</ele>
        <time>2024-08-04T13:02:03Z</time>
      </trkpt>
      <trkpt lat="48.02981" lon="6.78974">
        <ele>624.7</ele>
        <time>2024-08-04T13:02:51Z</time>
      </trkpt>
      <trkpt lat="48.02981" lon="6.78974">
        <ele>624.7</ele>
        <time>2024-08-04T13:02:52Z</time>
      </trkpt>
      <trkpt lat="48.02981" lon="6.78974">
        <ele>624.7</ele>
        <time>2024-08-04T13:02:53Z</time>
      </trkpt>
      <trkpt lat="48.02981" lon="6.78974">
        <ele>624.7</ele>
        <time>2024-08-04T13:02:54Z</time>
      </trkpt>
      <trkpt lat="48.0298" lon="6.78974">
        <ele>624.7</ele>
        <time>2024-08-04T13:02:55Z</time>
      </trkpt>
      <trkpt lat="48.0298" lon="6.78973">
        <ele>624.7</ele>
        <time>2024-08-04T13:02:56Z</time>
      </trkpt>
      <trkpt lat="48.0298" lon="6.78973">
        <ele>624.8</ele>
        <time>2024-08-04T13:02:57Z</time>
      </trkpt>
      <trkpt lat="48.02971" lon="6.78966">
        <ele>625.4</ele>
        <time>2024-08-04T13:03:06Z</time>
      </trkpt>
      <trkpt lat="48.02966" lon="6.78954">
        <ele>626.2</ele>
        <time>2024-08-04T13:03:14Z</time>
      </trkpt>
      <trkpt lat="48.02964" lon="6.78939">
        <ele>627</ele>
        <time>2024-08-04T13:03:22Z</time>
      </trkpt>
      <trkpt lat="48.02959" lon="6.78926">
        <ele>627.8</ele>
        <time>2024-08-04T13:03:34Z</time>
      </trkpt>
      <trkpt lat="48.02953" lon="6.78915">
        <ele>628.6</ele>
        <time>2024-08-04T13:03:42Z</time>
      </trkpt>
      <trkpt lat="48.02947" lon="6.78903">
        <ele>629.3</ele>
        <time>2024-08-04T13:03:49Z</time>
      </trkpt>
      <trkpt lat="48.0294" lon="6.78895">
        <ele>630</ele>
        <time>2024-08-04T13:03:57Z</time>
      </trkpt>
      <trkpt lat="48.02933" lon="6.78885">
        <ele>630.8</ele>
        <time>2024-08-04T13:04:05Z</time>
      </trkpt>
      <trkpt lat="48.02925" lon="6.78877">
        <ele>631.6</ele>
        <time>2024-08-04T13:04:13Z</time>
      </trkpt>
      <trkpt lat="48.02918" lon="6.78869">
        <ele>632.3</ele>
        <time>2024-08-04T13:04:22Z</time>
      </trkpt>
      <trkpt lat="48.02909" lon="6.78864">
        <ele>633</ele>
        <time>2024-08-04T13:04:30Z</time>
      </trkpt>
      <trkpt lat="48.029" lon="6.7886">
        <ele>633.6</ele>
        <time>2024-08-04T13:04:39Z</time>
      </trkpt>
      <trkpt lat="48.0289" lon="6.78856">
        <ele>634.3</ele>
        <time>2024-08-04T13:04:48Z</time>
      </trkpt>
      <trkpt lat="48.02881" lon="6.78853">
        <ele>635.1</ele>
        <time>2024-08-04T13:04:56Z</time>
      </trkpt>
      <trkpt lat="48.02872" lon="6.78848">
        <ele>635.9</ele>
        <time>2024-08-04T13:05:04Z</time>
      </trkpt>
      <trkpt lat="48.02864" lon="6.78842">
        <ele>636.6</ele>
        <time>2024-08-04T13:05:12Z</time>
      </trkpt>
      <trkpt lat="48.02857" lon="6.78834">
        <ele>637.2</ele>
        <time>2024-08-04T13:05:19Z</time>
      </trkpt>
      <trkpt lat="48.02849" lon="6.78825">
        <ele>637.9</ele>
        <time>2024-08-04T13:05:28Z</time>
      </trkpt>
      <trkpt lat="48.02841" lon="6.78818">
        <ele>638.5</ele>
        <time>2024-08-04T13:05:37Z</time>
      </trkpt>
      <trkpt lat="48.02832" lon="6.78811">
        <ele>639.2</ele>
        <time>2024-08-04T13:05:45Z</time>
      </trkpt>
      <trkpt lat="48.02825" lon="6.78803">
        <ele>639.8</ele>
        <time>2024-08-04T13:05:52Z</time>
      </trkpt>
      <trkpt lat="48.02817" lon="6.78795">
        <ele>640.5</ele>
        <time>2024-08-04T13:05:59Z</time>
      </trkpt>
      <trkpt lat="48.0281" lon="6.78785">
        <ele>641.2</ele>
        <time>2024-08-04T13:06:07Z</time>
      </trkpt>
      <trkpt lat="48.02802" lon="6.78778">
        <ele>641.9</ele>
        <time>2024-08-04T13:06:15Z</time>
      </trkpt>
      <trkpt lat="48.02794" lon="6.78774">
        <ele>642.5</ele>
        <time>2024-08-04T13:06:23Z</time>
      </trkpt>
      <trkpt lat="48.02784" lon="6.78771">
        <ele>643.2</ele>
        <time>2024-08-04T13:06:30Z</time>
      </trkpt>
      <trkpt lat="48.02775" lon="6.78771">
        <ele>643.9</ele>
        <time>2024-08-04T13:06:38Z</time>
      </trkpt>
      <trkpt lat="48.02765" lon="6.78773">
        <ele>644.6</ele>
        <time>2024-08-04T13:06:49Z</time>
      </trkpt>
      <trkpt lat="48.02755" lon="6.78772">
        <ele>645.3</ele>
        <time>2024-08-04T13:06:58Z</time>
      </trkpt>
      <trkpt lat="48.02746" lon="6.78767">
        <ele>646.1</ele>
        <time>2024-08-04T13:07:06Z</time>
      </trkpt>
      <trkpt lat="48.02737" lon="6.78763">
        <ele>646.8</ele>
        <time>2024-08-04T13:07:14Z</time>
      </trkpt>
      <trkpt lat="48.02729" lon="6.78755">
        <ele>647.6</ele>
        <time>2024-08-04T13:07:25Z</time>
      </trkpt>
      <trkpt lat="48.0272" lon="6.78751">
        <ele>648.2</ele>
        <time>2024-08-04T13:07:32Z</time>
      </trkpt>
      <trkpt lat="48.02711" lon="6.78747">
        <ele>648.9</ele>
        <time>2024-08-04T13:07:40Z</time>
      </trkpt>
      <trkpt lat="48.02702" lon="6.78746">
        <ele>649.6</ele>
        <time>2024-08-04T13:07:48Z</time>
      </trkpt>
      <trkpt lat="48.02693" lon="6.78748">
        <ele>650.3</ele>
        <time>2024-08-04T13:07:56Z</time>
      </trkpt>
      <trkpt lat="48.02684" lon="6.78754">
        <ele>651.2</ele>
        <time>2024-08-04T13:08:04Z</time>
      </trkpt>
      <trkpt lat="48.02676" lon="6.78761">
        <ele>652.2</ele>
        <time>2024-08-04T13:08:12Z</time>
      </trkpt>
      <trkpt lat="48.02671" lon="6.78773">
        <ele>653.1</ele>
        <time>2024-08-04T13:08:20Z</time>
      </trkpt>
      <trkpt lat="48.02668" lon="6.78786">
        <ele>653.9</ele>
        <time>2024-08-04T13:08:28Z</time>
      </trkpt>
      <trkpt lat="48.02664" lon="6.78799">
        <ele>654.8</ele>
        <time>2024-08-04T13:08:37Z</time>
      </trkpt>
      <trkpt lat="48.02656" lon="6.78806">
        <ele>655.5</ele>
        <time>2024-08-04T13:08:45Z</time>
      </trkpt>
      <trkpt lat="48.02649" lon="6.78816">
        <ele>656.2</ele>
        <time>2024-08-04T13:08:54Z</time>
      </trkpt>
      <trkpt lat="48.02646" lon="6.78829">
        <ele>656.8</ele>
        <time>2024-08-04T13:09:02Z</time>
      </trkpt>
      <trkpt lat="48.02644" lon="6.78844">
        <ele>657.4</ele>
        <time>2024-08-04T13:09:11Z</time>
      </trkpt>
      <trkpt lat="48.02641" lon="6.78858">
        <ele>658</ele>
        <time>2024-08-04T13:09:20Z</time>
      </trkpt>
      <trkpt lat="48.02638" lon="6.78871">
        <ele>658.6</ele>
        <time>2024-08-04T13:09:28Z</time>
      </trkpt>
      <trkpt lat="48.02635" lon="6.78884">
        <ele>659.2</ele>
        <time>2024-08-04T13:09:37Z</time>
      </trkpt>
      <trkpt lat="48.0263" lon="6.78897">
        <ele>659.5</ele>
        <time>2024-08-04T13:09:46Z</time>
      </trkpt>
      <trkpt lat="48.02627" lon="6.7891">
        <ele>659.7</ele>
        <time>2024-08-04T13:09:54Z</time>
      </trkpt>
      <trkpt lat="48.02625" lon="6.78924">
        <ele>659.7</ele>
        <time>2024-08-04T13:10:06Z</time>
      </trkpt>
      <trkpt lat="48.02624" lon="6.78932">
        <ele>659.8</ele>
        <time>2024-08-04T13:10:18Z</time>
      </trkpt>
      <trkpt lat="48.02623" lon="6.78932">
        <ele>659.8</ele>
        <time>2024-08-04T13:10:19Z</time>
      </trkpt>
      <trkpt lat="48.02623" lon="6.78932">
        <ele>659.8</ele>
        <time>2024-08-04T13:10:20Z</time>
      </trkpt>
      <trkpt lat="48.02621" lon="6.7893">
        <ele>659.9</ele>
        <time>2024-08-04T13:10:32Z</time>
      </trkpt>
      <trkpt lat="48.02622" lon="6.78929">
        <ele>660</ele>
        <time>2024-08-04T13:10:33Z</time>
      </trkpt>
      <trkpt lat="48.02624" lon="6.78929">
        <ele>660.1</ele>
        <time>2024-08-04T13:10:39Z</time>
      </trkpt>
      <trkpt lat="48.02625" lon="6.78928">
        <ele>660.2</ele>
        <time>2024-08-04T13:10:40Z</time>
      </trkpt>
      <trkpt lat="48.02625" lon="6.78927">
        <ele>660.2</ele>
        <time>2024-08-04T13:10:41Z</time>
      </trkpt>
      <trkpt lat="48.02624" lon="6.78927">
        <ele>660.3</ele>
        <time>2024-08-04T13:10:42Z</time>
      </trkpt>
      <trkpt lat="48.02624" lon="6.78927">
        <ele>660.3</ele>
        <time>2024-08-04T13:10:43Z</time>
      </trkpt>
      <trkpt lat="48.02623" lon="6.78926">
        <ele>660.3</ele>
        <time>2024-08-04T13:10:51Z</time>
      </trkpt>
      <trkpt lat="48.02623" lon="6.78926">
        <ele>660.4</ele>
        <time>2024-08-04T13:10:52Z</time>
      </trkpt>
      <trkpt lat="48.02623" lon="6.78926">
        <ele>660.4</ele>
        <time>2024-08-04T13:10:53Z</time>
      </trkpt>
      <trkpt lat="48.02624" lon="6.78926">
        <ele>660.4</ele>
        <time>2024-08-04T13:11:01Z</time>
      </trkpt>
      <trkpt lat="48.02624" lon="6.78926">
        <ele>660.4</ele>
        <time>2024-08-04T13:11:02Z</time>
      </trkpt>
      <trkpt lat="48.02624" lon="6.78926">
        <ele>660.4</ele>
        <time>2024-08-04T13:11:03Z</time>
      </trkpt>
      <trkpt lat="48.02624" lon="6.78926">
        <ele>660.4</ele>
        <time>2024-08-04T13:11:04Z</time>
      </trkpt>
      <trkpt lat="48.02624" lon="6.78926">
        <ele>660.4</ele>
        <time>2024-08-04T13:11:05Z</time>
      </trkpt>
      <trkpt lat="48.02625" lon="6.78924">
        <ele>660.6</ele>
        <time>2024-08-04T13:11:21Z</time>
      </trkpt>
      <trkpt lat="48.02626" lon="6.78923">
        <ele>660.6</ele>
        <time>2024-08-04T13:11:22Z</time>
      </trkpt>
      <trkpt lat="48.02626" lon="6.78922">
        <ele>660.6</ele>
        <time>2024-08-04T13:11:23Z</time>
      </trkpt>
      <trkpt lat="48.02626" lon="6.78923">
        <ele>660.7</ele>
        <time>2024-08-04T13:11:24Z</time>
      </trkpt>
      <trkpt lat="48.02626" lon="6.78923">
        <ele>660.7</ele>
        <time>2024-08-04T13:11:25Z</time>
      </trkpt>
      <trkpt lat="48.02623" lon="6.78921">
        <ele>660.9</ele>
        <time>2024-08-04T13:12:13Z</time>
      </trkpt>
      <trkpt lat="48.02623" lon="6.7892">
        <ele>660.9</ele>
        <time>2024-08-04T13:12:14Z</time>
      </trkpt>
      <trkpt lat="48.02623" lon="6.78919">
        <ele>661</ele>
        <time>2024-08-04T13:12:15Z</time>
      </trkpt>
      <trkpt lat="48.02623" lon="6.78919">
        <ele>661</ele>
        <time>2024-08-04T13:12:16Z</time>
      </trkpt>
      <trkpt lat="48.02623" lon="6.78918">
        <ele>661</ele>
        <time>2024-08-04T13:12:17Z</time>
      </trkpt>
      <trkpt lat="48.0262" lon="6.78911">
        <ele>661.5</ele>
        <time>2024-08-04T13:12:46Z</time>
      </trkpt>
      <trkpt lat="48.0262" lon="6.7891">
        <ele>661.5</ele>
        <time>2024-08-04T13:12:47Z</time>
      </trkpt>
      <trkpt lat="48.02619" lon="6.7891">
        <ele>661.6</ele>
        <time>2024-08-04T13:12:48Z</time>
      </trkpt>
      <trkpt lat="48.02619" lon="6.78909">
        <ele>661.6</ele>
        <time>2024-08-04T13:12:49Z</time>
      </trkpt>
      <trkpt lat="48.02618" lon="6.78909">
        <ele>661.7</ele>
        <time>2024-08-04T13:12:50Z</time>
      </trkpt>
      <trkpt lat="48.02617" lon="6.78911">
        <ele>661.8</ele>
        <time>2024-08-04T13:13:14Z</time>
      </trkpt>
      <trkpt lat="48.02617" lon="6.78911">
        <ele>661.8</ele>
        <time>2024-08-04T13:13:15Z</time>
      </trkpt>
      <trkpt lat="48.02617" lon="6.78911">
        <ele>661.8</ele>
        <time>2024-08-04T13:13:16Z</time>
      </trkpt>
      <trkpt lat="48.02617" lon="6.78911">
        <ele>661.8</ele>
        <time>2024-08-04T13:13:17Z</time>
      </trkpt>
      <trkpt lat="48.02618" lon="6.78911">
        <ele>661.9</ele>
        <time>2024-08-04T13:13:27Z</time>
      </trkpt>
      <trkpt lat="48.02618" lon="6.7891">
        <ele>662</ele>
        <time>2024-08-04T13:13:28Z</time>
      </trkpt>
      <trkpt lat="48.02628" lon="6.78907">
        <ele>662.9</ele>
        <time>2024-08-04T13:13:37Z</time>
      </trkpt>
      <trkpt lat="48.02637" lon="6.78905">
        <ele>664</ele>
        <time>2024-08-04T13:13:47Z</time>
      </trkpt>
      <trkpt lat="48.02646" lon="6.78905">
        <ele>665.1</ele>
        <time>2024-08-04T13:13:58Z</time>
      </trkpt>
      <trkpt lat="48.02655" lon="6.789">
        <ele>666.5</ele>
        <time>2024-08-04T13:14:07Z</time>
      </trkpt>
      <trkpt lat="48.02662" lon="6.7889">
        <ele>667.9</ele>
        <time>2024-08-04T13:14:20Z</time>
      </trkpt>
      <trkpt lat="48.02671" lon="6.78884">
        <ele>669.6</ele>
        <time>2024-08-04T13:14:29Z</time>
      </trkpt>
      <trkpt lat="48.0268" lon="6.78877">
        <ele>671.1</ele>
        <time>2024-08-04T13:14:38Z</time>
      </trkpt>
      <trkpt lat="48.02689" lon="6.78875">
        <ele>672.5</ele>
        <time>2024-08-04T13:14:48Z</time>
      </trkpt>
      <trkpt lat="48.02698" lon="6.78873">
        <ele>673.8</ele>
        <time>2024-08-04T13:15:05Z</time>
      </trkpt>
      <trkpt lat="48.02708" lon="6.78873">
        <ele>675.2</ele>
        <time>2024-08-04T13:15:15Z</time>
      </trkpt>
      <trkpt lat="48.02717" lon="6.78876">
        <ele>676.8</ele>
        <time>2024-08-04T13:15:24Z</time>
      </trkpt>
      <trkpt lat="48.02724" lon="6.78883">
        <ele>678.3</ele>
        <time>2024-08-04T13:15:37Z</time>
      </trkpt>
      <trkpt lat="48.02733" lon="6.78889">
        <ele>679.9</ele>
        <time>2024-08-04T13:15:52Z</time>
      </trkpt>
      <trkpt lat="48.02738" lon="6.78902">
        <ele>683.5</ele>
        <time>2024-08-04T13:16:09Z</time>
      </trkpt>
      <trkpt lat="48.0274" lon="6.78916">
        <ele>686</ele>
        <time>2024-08-04T13:16:28Z</time>
      </trkpt>
      <trkpt lat="48.02734" lon="6.78927">
        <ele>688.3</ele>
        <time>2024-08-04T13:16:50Z</time>
      </trkpt>
      <trkpt lat="48.02733" lon="6.78935">
        <ele>689.4</ele>
        <time>2024-08-04T13:17:02Z</time>
      </trkpt>
      <trkpt lat="48.02733" lon="6.78935">
        <ele>689.5</ele>
        <time>2024-08-04T13:17:03Z</time>
      </trkpt>
      <trkpt lat="48.02734" lon="6.78935">
        <ele>689.6</ele>
        <time>2024-08-04T13:17:04Z</time>
      </trkpt>
      <trkpt lat="48.02733" lon="6.78936">
        <ele>689.7</ele>
        <time>2024-08-04T13:17:05Z</time>
      </trkpt>
      <trkpt lat="48.02724" lon="6.78941">
        <ele>691.8</ele>
        <time>2024-08-04T13:17:16Z</time>
      </trkpt>
      <trkpt lat="48.02718" lon="6.78951">
        <ele>693.9</ele>
        <time>2024-08-04T13:17:27Z</time>
      </trkpt>
      <trkpt lat="48.02709" lon="6.78958">
        <ele>696.4</ele>
        <time>2024-08-04T13:17:41Z</time>
      </trkpt>
      <trkpt lat="48.02704" lon="6.7897">
        <ele>699</ele>
        <time>2024-08-04T13:17:57Z</time>
      </trkpt>
      <trkpt lat="48.02695" lon="6.78976">
        <ele>701.7</ele>
        <time>2024-08-04T13:18:10Z</time>
      </trkpt>
      <trkpt lat="48.02689" lon="6.78986">
        <ele>704.1</ele>
        <time>2024-08-04T13:18:26Z</time>
      </trkpt>
      <trkpt lat="48.02693" lon="6.78999">
        <ele>706.4</ele>
        <time>2024-08-04T13:18:35Z</time>
      </trkpt>
      <trkpt lat="48.02702" lon="6.79">
        <ele>708.8</ele>
        <time>2024-08-04T13:18:46Z</time>
      </trkpt>
      <trkpt lat="48.02709" lon="6.79009">
        <ele>711.4</ele>
        <time>2024-08-04T13:19:01Z</time>
      </trkpt>
      <trkpt lat="48.02716" lon="6.79017">
        <ele>713.8</ele>
        <time>2024-08-04T13:19:14Z</time>
      </trkpt>
      <trkpt lat="48.02721" lon="6.79029">
        <ele>715.7</ele>
        <time>2024-08-04T13:19:25Z</time>
      </trkpt>
      <trkpt lat="48.02728" lon="6.79037">
        <ele>717.3</ele>
        <time>2024-08-04T13:19:37Z</time>
      </trkpt>
      <trkpt lat="48.0273" lon="6.79051">
        <ele>718.9</ele>
        <time>2024-08-04T13:19:48Z</time>
      </trkpt>
      <trkpt lat="48.02736" lon="6.79062">
        <ele>720.5</ele>
        <time>2024-08-04T13:20:00Z</time>
      </trkpt>
      <trkpt lat="48.02742" lon="6.79074">
        <ele>722</ele>
        <time>2024-08-04T13:20:10Z</time>
      </trkpt>
      <trkpt lat="48.02749" lon="6.79083">
        <ele>723.1</ele>
        <time>2024-08-04T13:20:18Z</time>
      </trkpt>
      <trkpt lat="48.02758" lon="6.7909">
        <ele>724</ele>
        <time>2024-08-04T13:20:27Z</time>
      </trkpt>
      <trkpt lat="48.02764" lon="6.791">
        <ele>724.7</ele>
        <time>2024-08-04T13:20:35Z</time>
      </trkpt>
      <trkpt lat="48.02771" lon="6.7911">
        <ele>725</ele>
        <time>2024-08-04T13:20:45Z</time>
      </trkpt>
      <trkpt lat="48.02776" lon="6.79122">
        <ele>725.1</ele>
        <time>2024-08-04T13:20:54Z</time>
      </trkpt>
      <trkpt lat="48.02781" lon="6.79135">
        <ele>725.1</ele>
        <time>2024-08-04T13:21:03Z</time>
      </trkpt>
      <trkpt lat="48.02785" lon="6.79147">
        <ele>725</ele>
        <time>2024-08-04T13:21:14Z</time>
      </trkpt>
      <trkpt lat="48.02786" lon="6.79161">
        <ele>724.4</ele>
        <time>2024-08-04T13:21:26Z</time>
      </trkpt>
      <trkpt lat="48.02791" lon="6.79172">
        <ele>723.1</ele>
        <time>2024-08-04T13:21:38Z</time>
      </trkpt>
      <trkpt lat="48.028" lon="6.79179">
        <ele>721.7</ele>
        <time>2024-08-04T13:21:46Z</time>
      </trkpt>
      <trkpt lat="48.02808" lon="6.79185">
        <ele>720.4</ele>
        <time>2024-08-04T13:21:55Z</time>
      </trkpt>
      <trkpt lat="48.02818" lon="6.79187">
        <ele>719.1</ele>
        <time>2024-08-04T13:22:06Z</time>
      </trkpt>
      <trkpt lat="48.02824" lon="6.79198">
        <ele>718</ele>
        <time>2024-08-04T13:22:20Z</time>
      </trkpt>
      <trkpt lat="48.02824" lon="6.79213">
        <ele>716.7</ele>
        <time>2024-08-04T13:22:30Z</time>
      </trkpt>
      <trkpt lat="48.02827" lon="6.79226">
        <ele>715.4</ele>
        <time>2024-08-04T13:22:40Z</time>
      </trkpt>
      <trkpt lat="48.02831" lon="6.79237">
        <ele>714.3</ele>
        <time>2024-08-04T13:22:49Z</time>
      </trkpt>
      <trkpt lat="48.02836" lon="6.79249">
        <ele>713.6</ele>
        <time>2024-08-04T13:22:58Z</time>
      </trkpt>
      <trkpt lat="48.0284" lon="6.79261">
        <ele>712.7</ele>
        <time>2024-08-04T13:23:08Z</time>
      </trkpt>
      <trkpt lat="48.02843" lon="6.79274">
        <ele>711.2</ele>
        <time>2024-08-04T13:23:21Z</time>
      </trkpt>
      <trkpt lat="48.02843" lon="6.79288">
        <ele>709.3</ele>
        <time>2024-08-04T13:23:33Z</time>
      </trkpt>
      <trkpt lat="48.0285" lon="6.79298">
        <ele>707.2</ele>
        <time>2024-08-04T13:23:47Z</time>
      </trkpt>
      <trkpt lat="48.02853" lon="6.79301">
        <ele>707</ele>
        <time>2024-08-04T13:24:01Z</time>
      </trkpt>
      <trkpt lat="48.02853" lon="6.79301">
        <ele>707</ele>
        <time>2024-08-04T13:24:02Z</time>
      </trkpt>
      <trkpt lat="48.02855" lon="6.793">
        <ele>706.9</ele>
        <time>2024-08-04T13:24:19Z</time>
      </trkpt>
      <trkpt lat="48.02856" lon="6.79301">
        <ele>706.9</ele>
        <time>2024-08-04T13:24:20Z</time>
      </trkpt>
      <trkpt lat="48.02864" lon="6.79309">
        <ele>706.9</ele>
        <time>2024-08-04T13:24:29Z</time>
      </trkpt>
      <trkpt lat="48.02871" lon="6.79319">
        <ele>707.7</ele>
        <time>2024-08-04T13:24:38Z</time>
      </trkpt>
      <trkpt lat="48.02877" lon="6.7933">
        <ele>708.7</ele>
        <time>2024-08-04T13:24:51Z</time>
      </trkpt>
      <trkpt lat="48.02881" lon="6.79342">
        <ele>709.6</ele>
        <time>2024-08-04T13:25:00Z</time>
      </trkpt>
      <trkpt lat="48.02883" lon="6.79355">
        <ele>710.6</ele>
        <time>2024-08-04T13:25:11Z</time>
      </trkpt>
      <trkpt lat="48.0288" lon="6.79369">
        <ele>711.7</ele>
        <time>2024-08-04T13:25:21Z</time>
      </trkpt>
      <trkpt lat="48.02881" lon="6.79382">
        <ele>712.9</ele>
        <time>2024-08-04T13:25:31Z</time>
      </trkpt>
      <trkpt lat="48.02883" lon="6.79396">
        <ele>714.4</ele>
        <time>2024-08-04T13:25:43Z</time>
      </trkpt>
      <trkpt lat="48.02887" lon="6.79408">
        <ele>715.7</ele>
        <time>2024-08-04T13:25:54Z</time>
      </trkpt>
      <trkpt lat="48.02895" lon="6.79417">
        <ele>717.1</ele>
        <time>2024-08-04T13:26:05Z</time>
      </trkpt>
      <trkpt lat="48.029" lon="6.79428">
        <ele>719</ele>
        <time>2024-08-04T13:26:14Z</time>
      </trkpt>
      <trkpt lat="48.02906" lon="6.7944">
        <ele>721.4</ele>
        <time>2024-08-04T13:26:27Z</time>
      </trkpt>
      <trkpt lat="48.02908" lon="6.79453">
        <ele>724.4</ele>
        <time>2024-08-04T13:26:37Z</time>
      </trkpt>
      <trkpt lat="48.02905" lon="6.79466">
        <ele>728.1</ele>
        <time>2024-08-04T13:27:12Z</time>
      </trkpt>
      <trkpt lat="48.02906" lon="6.7947">
        <ele>729.4</ele>
        <time>2024-08-04T13:27:19Z</time>
      </trkpt>
      <trkpt lat="48.02906" lon="6.7947">
        <ele>729.5</ele>
        <time>2024-08-04T13:27:20Z</time>
      </trkpt>
      <trkpt lat="48.02907" lon="6.7947">
        <ele>729.7</ele>
        <time>2024-08-04T13:27:21Z</time>
      </trkpt>
      <trkpt lat="48.02907" lon="6.7947">
        <ele>729.7</ele>
        <time>2024-08-04T13:27:22Z</time>
      </trkpt>
      <trkpt lat="48.02903" lon="6.79483">
        <ele>733.8</ele>
        <time>2024-08-04T13:27:47Z</time>
      </trkpt>
      <trkpt lat="48.02906" lon="6.79496">
        <ele>737.9</ele>
        <time>2024-08-04T13:28:03Z</time>
      </trkpt>
      <trkpt lat="48.02906" lon="6.79509">
        <ele>742</ele>
        <time>2024-08-04T13:28:27Z</time>
      </trkpt>
      <trkpt lat="48.02912" lon="6.7952">
        <ele>745.9</ele>
        <time>2024-08-04T13:28:48Z</time>
      </trkpt>
      <trkpt lat="48.02918" lon="6.7953">
        <ele>749.5</ele>
        <time>2024-08-04T13:29:05Z</time>
      </trkpt>
      <trkpt lat="48.02926" lon="6.79538">
        <ele>752.5</ele>
        <time>2024-08-04T13:29:19Z</time>
      </trkpt>
      <trkpt lat="48.02932" lon="6.79542">
        <ele>754.2</ele>
        <time>2024-08-04T13:29:33Z</time>
      </trkpt>
      <trkpt lat="48.02932" lon="6.79542">
        <ele>754.2</ele>
        <time>2024-08-04T13:29:34Z</time>
      </trkpt>
      <trkpt lat="48.02932" lon="6.79542">
        <ele>754.2</ele>
        <time>2024-08-04T13:29:35Z</time>
      </trkpt>
      <trkpt lat="48.02932" lon="6.79542">
        <ele>754.2</ele>
        <time>2024-08-04T13:29:36Z</time>
      </trkpt>
      <trkpt lat="48.02932" lon="6.79542">
        <ele>754.2</ele>
        <time>2024-08-04T13:29:37Z</time>
      </trkpt>
      <trkpt lat="48.0294" lon="6.79547">
        <ele>756.2</ele>
        <time>2024-08-04T13:29:52Z</time>
      </trkpt>
      <trkpt lat="48.02948" lon="6.79555">
        <ele>758.1</ele>
        <time>2024-08-04T13:30:04Z</time>
      </trkpt>
      <trkpt lat="48.0295" lon="6.79561">
        <ele>758.9</ele>
        <time>2024-08-04T13:30:13Z</time>
      </trkpt>
      <trkpt lat="48.0295" lon="6.79561">
        <ele>758.9</ele>
        <time>2024-08-04T13:30:14Z</time>
      </trkpt>
      <trkpt lat="48.0295" lon="6.79561">
        <ele>758.9</ele>
        <time>2024-08-04T13:30:15Z</time>
      </trkpt>
      <trkpt lat="48.0295" lon="6.79563">
        <ele>759.2</ele>
        <time>2024-08-04T13:30:23Z</time>
      </trkpt>
      <trkpt lat="48.0295" lon="6.79565">
        <ele>759.3</ele>
        <time>2024-08-04T13:30:24Z</time>
      </trkpt>
      <trkpt lat="48.0295" lon="6.79566">
        <ele>759.5</ele>
        <time>2024-08-04T13:30:25Z</time>
      </trkpt>
      <trkpt lat="48.02956" lon="6.79567">
        <ele>760.5</ele>
        <time>2024-08-04T13:30:37Z</time>
      </trkpt>
      <trkpt lat="48.02956" lon="6.79566">
        <ele>760.6</ele>
        <time>2024-08-04T13:30:38Z</time>
      </trkpt>
      <trkpt lat="48.02956" lon="6.79567">
        <ele>760.6</ele>
        <time>2024-08-04T13:30:39Z</time>
      </trkpt>
      <trkpt lat="48.02956" lon="6.79566">
        <ele>760.6</ele>
        <time>2024-08-04T13:30:40Z</time>
      </trkpt>
      <trkpt lat="48.02956" lon="6.79566">
        <ele>760.6</ele>
        <time>2024-08-04T13:30:41Z</time>
      </trkpt>
      <trkpt lat="48.02956" lon="6.79566">
        <ele>760.6</ele>
        <time>2024-08-04T13:30:42Z</time>
      </trkpt>
      <trkpt lat="48.02956" lon="6.79567">
        <ele>760.7</ele>
        <time>2024-08-04T13:30:46Z</time>
      </trkpt>
      <trkpt lat="48.02956" lon="6.79567">
        <ele>760.7</ele>
        <time>2024-08-04T13:30:47Z</time>
      </trkpt>
      <trkpt lat="48.02957" lon="6.79566">
        <ele>760.8</ele>
        <time>2024-08-04T13:30:48Z</time>
      </trkpt>
      <trkpt lat="48.02956" lon="6.79566">
        <ele>760.8</ele>
        <time>2024-08-04T13:30:49Z</time>
      </trkpt>
      <trkpt lat="48.02956" lon="6.79567">
        <ele>760.9</ele>
        <time>2024-08-04T13:30:50Z</time>
      </trkpt>
      <trkpt lat="48.02956" lon="6.79568">
        <ele>761.1</ele>
        <time>2024-08-04T13:30:51Z</time>
      </trkpt>
      <trkpt lat="48.02956" lon="6.79567">
        <ele>761.2</ele>
        <time>2024-08-04T13:30:52Z</time>
      </trkpt>
      <trkpt lat="48.02955" lon="6.79582">
        <ele>763.3</ele>
        <time>2024-08-04T13:31:05Z</time>
      </trkpt>
      <trkpt lat="48.02956" lon="6.79595">
        <ele>765.9</ele>
        <time>2024-08-04T13:31:18Z</time>
      </trkpt>
      <trkpt lat="48.02952" lon="6.79606">
        <ele>768.6</ele>
        <time>2024-08-04T13:31:34Z</time>
      </trkpt>
      <trkpt lat="48.02952" lon="6.79605">
        <ele>768.8</ele>
        <time>2024-08-04T13:31:35Z</time>
      </trkpt>
      <trkpt lat="48.0295" lon="6.79603">
        <ele>769.5</ele>
        <time>2024-08-04T13:32:01Z</time>
      </trkpt>
      <trkpt lat="48.0295" lon="6.79605">
        <ele>769.8</ele>
        <time>2024-08-04T13:32:02Z</time>
      </trkpt>
      <trkpt lat="48.0295" lon="6.79605">
        <ele>769.9</ele>
        <time>2024-08-04T13:32:03Z</time>
      </trkpt>
      <trkpt lat="48.02949" lon="6.79619">
        <ele>772.9</ele>
        <time>2024-08-04T13:32:28Z</time>
      </trkpt>
      <trkpt lat="48.02945" lon="6.79627">
        <ele>775.2</ele>
        <time>2024-08-04T13:32:43Z</time>
      </trkpt>
      <trkpt lat="48.02945" lon="6.79627">
        <ele>775.3</ele>
        <time>2024-08-04T13:32:44Z</time>
      </trkpt>
      <trkpt lat="48.02945" lon="6.79627">
        <ele>775.3</ele>
        <time>2024-08-04T13:32:45Z</time>
      </trkpt>
      <trkpt lat="48.02944" lon="6.79627">
        <ele>775.6</ele>
        <time>2024-08-04T13:32:51Z</time>
      </trkpt>
      <trkpt lat="48.02944" lon="6.79628">
        <ele>775.8</ele>
        <time>2024-08-04T13:32:52Z</time>
      </trkpt>
      <trkpt lat="48.02944" lon="6.79642">
        <ele>778.9</ele>
        <time>2024-08-04T13:33:21Z</time>
      </trkpt>
      <trkpt lat="48.02946" lon="6.79656">
        <ele>781.7</ele>
        <time>2024-08-04T13:33:37Z</time>
      </trkpt>
      <trkpt lat="48.02946" lon="6.7967">
        <ele>784.3</ele>
        <time>2024-08-04T13:33:50Z</time>
      </trkpt>
      <trkpt lat="48.02954" lon="6.79679">
        <ele>786.6</ele>
        <time>2024-08-04T13:34:03Z</time>
      </trkpt>
      <trkpt lat="48.02961" lon="6.79688">
        <ele>788.4</ele>
        <time>2024-08-04T13:34:15Z</time>
      </trkpt>
      <trkpt lat="48.02966" lon="6.79701">
        <ele>789.8</ele>
        <time>2024-08-04T13:34:27Z</time>
      </trkpt>
      <trkpt lat="48.02968" lon="6.79714">
        <ele>791.1</ele>
        <time>2024-08-04T13:34:37Z</time>
      </trkpt>
      <trkpt lat="48.0297" lon="6.79728">
        <ele>792.7</ele>
        <time>2024-08-04T13:34:47Z</time>
      </trkpt>
      <trkpt lat="48.02968" lon="6.79742">
        <ele>794.6</ele>
        <time>2024-08-04T13:35:02Z</time>
      </trkpt>
      <trkpt lat="48.02975" lon="6.79751">
        <ele>796.5</ele>
        <time>2024-08-04T13:35:26Z</time>
      </trkpt>
      <trkpt lat="48.02985" lon="6.79754">
        <ele>798.4</ele>
        <time>2024-08-04T13:35:37Z</time>
      </trkpt>
      <trkpt lat="48.02994" lon="6.79759">
        <ele>800</ele>
        <time>2024-08-04T13:35:49Z</time>
      </trkpt>
      <trkpt lat="48.02998" lon="6.79771">
        <ele>800.9</ele>
        <time>2024-08-04T13:36:04Z</time>
      </trkpt>
      <trkpt lat="48.02995" lon="6.79784">
        <ele>801.2</ele>
        <time>2024-08-04T13:36:20Z</time>
      </trkpt>
      <trkpt lat="48.02995" lon="6.79798">
        <ele>800.7</ele>
        <time>2024-08-04T13:36:37Z</time>
      </trkpt>
      <trkpt lat="48.02999" lon="6.79811">
        <ele>799.3</ele>
        <time>2024-08-04T13:36:47Z</time>
      </trkpt>
      <trkpt lat="48.03001" lon="6.79815">
        <ele>798.6</ele>
        <time>2024-08-04T13:36:56Z</time>
      </trkpt>
      <trkpt lat="48.03001" lon="6.79815">
        <ele>798.6</ele>
        <time>2024-08-04T13:36:57Z</time>
      </trkpt>
      <trkpt lat="48.03001" lon="6.79815">
        <ele>798.6</ele>
        <time>2024-08-04T13:37:01Z</time>
      </trkpt>
      <trkpt lat="48.03001" lon="6.79816">
        <ele>798.5</ele>
        <time>2024-08-04T13:37:02Z</time>
      </trkpt>
      <trkpt lat="48.03001" lon="6.79816">
        <ele>798.4</ele>
        <time>2024-08-04T13:37:03Z</time>
      </trkpt>
      <trkpt lat="48.03004" lon="6.79818">
        <ele>797.7</ele>
        <time>2024-08-04T13:37:13Z</time>
      </trkpt>
      <trkpt lat="48.03005" lon="6.79818">
        <ele>797.6</ele>
        <time>2024-08-04T13:37:14Z</time>
      </trkpt>
      <trkpt lat="48.03006" lon="6.79818">
        <ele>797.4</ele>
        <time>2024-08-04T13:37:15Z</time>
      </trkpt>
      <trkpt lat="48.03006" lon="6.79818">
        <ele>797.2</ele>
        <time>2024-08-04T13:37:16Z</time>
      </trkpt>
      <trkpt lat="48.03007" lon="6.79819">
        <ele>797</ele>
        <time>2024-08-04T13:37:17Z</time>
      </trkpt>
      <trkpt lat="48.02998" lon="6.7982">
        <ele>794.8</ele>
        <time>2024-08-04T13:37:40Z</time>
      </trkpt>
      <trkpt lat="48.02999" lon="6.79831">
        <ele>793.1</ele>
        <time>2024-08-04T13:38:01Z</time>
      </trkpt>
      <trkpt lat="48.02999" lon="6.79831">
        <ele>793</ele>
        <time>2024-08-04T13:38:02Z</time>
      </trkpt>
      <trkpt lat="48.02999" lon="6.7983">
        <ele>792.9</ele>
        <time>2024-08-04T13:38:03Z</time>
      </trkpt>
      <trkpt lat="48.02999" lon="6.7983">
        <ele>792.9</ele>
        <time>2024-08-04T13:38:04Z</time>
      </trkpt>
      <trkpt lat="48.02999" lon="6.7983">
        <ele>792.9</ele>
        <time>2024-08-04T13:38:05Z</time>
      </trkpt>
      <trkpt lat="48.02999" lon="6.7983">
        <ele>792.9</ele>
        <time>2024-08-04T13:38:06Z</time>
      </trkpt>
      <trkpt lat="48.02999" lon="6.7983">
        <ele>792.8</ele>
        <time>2024-08-04T13:38:07Z</time>
      </trkpt>
      <trkpt lat="48.02999" lon="6.7983">
        <ele>792.8</ele>
        <time>2024-08-04T13:38:08Z</time>
      </trkpt>
      <trkpt lat="48.02999" lon="6.7983">
        <ele>792.7</ele>
        <time>2024-08-04T13:38:09Z</time>
      </trkpt>
      <trkpt lat="48.02999" lon="6.79832">
        <ele>792.4</ele>
        <time>2024-08-04T13:38:10Z</time>
      </trkpt>
      <trkpt lat="48.03" lon="6.79834">
        <ele>792.2</ele>
        <time>2024-08-04T13:38:11Z</time>
      </trkpt>
      <trkpt lat="48.03" lon="6.79846">
        <ele>790.8</ele>
        <time>2024-08-04T13:38:31Z</time>
      </trkpt>
      <trkpt lat="48.03" lon="6.79846">
        <ele>790.8</ele>
        <time>2024-08-04T13:38:32Z</time>
      </trkpt>
      <trkpt lat="48.03" lon="6.79846">
        <ele>790.8</ele>
        <time>2024-08-04T13:38:33Z</time>
      </trkpt>
      <trkpt lat="48.03" lon="6.79847">
        <ele>790.7</ele>
        <time>2024-08-04T13:38:49Z</time>
      </trkpt>
      <trkpt lat="48.03" lon="6.79847">
        <ele>790.7</ele>
        <time>2024-08-04T13:38:50Z</time>
      </trkpt>
      <trkpt lat="48.03" lon="6.79847">
        <ele>790.7</ele>
        <time>2024-08-04T13:38:51Z</time>
      </trkpt>
      <trkpt lat="48.03" lon="6.79848">
        <ele>790.6</ele>
        <time>2024-08-04T13:38:54Z</time>
      </trkpt>
      <trkpt lat="48.03" lon="6.79848">
        <ele>790.6</ele>
        <time>2024-08-04T13:38:55Z</time>
      </trkpt>
      <trkpt lat="48.03" lon="6.79848">
        <ele>790.6</ele>
        <time>2024-08-04T13:38:56Z</time>
      </trkpt>
      <trkpt lat="48.03" lon="6.7985">
        <ele>790.5</ele>
        <time>2024-08-04T13:39:17Z</time>
      </trkpt>
      <trkpt lat="48.03" lon="6.79851">
        <ele>790.5</ele>
        <time>2024-08-04T13:39:18Z</time>
      </trkpt>
      <trkpt lat="48.03" lon="6.79865">
        <ele>790.6</ele>
        <time>2024-08-04T13:39:31Z</time>
      </trkpt>
      <trkpt lat="48.02991" lon="6.79866">
        <ele>792.2</ele>
        <time>2024-08-04T13:39:46Z</time>
      </trkpt>
      <trkpt lat="48.02991" lon="6.7988">
        <ele>794.7</ele>
        <time>2024-08-04T13:40:03Z</time>
      </trkpt>
      <trkpt lat="48.02998" lon="6.7989">
        <ele>797.4</ele>
        <time>2024-08-04T13:40:20Z</time>
      </trkpt>
      <trkpt lat="48.03006" lon="6.79896">
        <ele>799.7</ele>
        <time>2024-08-04T13:40:34Z</time>
      </trkpt>
      <trkpt lat="48.03015" lon="6.79897">
        <ele>801.8</ele>
        <time>2024-08-04T13:40:49Z</time>
      </trkpt>
      <trkpt lat="48.03013" lon="6.79911">
        <ele>803.8</ele>
        <time>2024-08-04T13:41:09Z</time>
      </trkpt>
      <trkpt lat="48.03011" lon="6.79925">
        <ele>806</ele>
        <time>2024-08-04T13:41:24Z</time>
      </trkpt>
      <trkpt lat="48.0301" lon="6.7993">
        <ele>806.7</ele>
        <time>2024-08-04T13:41:39Z</time>
      </trkpt>
      <trkpt lat="48.0301" lon="6.7993">
        <ele>806.7</ele>
        <time>2024-08-04T13:41:40Z</time>
      </trkpt>
      <trkpt lat="48.03011" lon="6.79931">
        <ele>807</ele>
        <time>2024-08-04T13:42:01Z</time>
      </trkpt>
      <trkpt lat="48.03012" lon="6.79931">
        <ele>807.1</ele>
        <time>2024-08-04T13:42:02Z</time>
      </trkpt>
      <trkpt lat="48.03012" lon="6.79932">
        <ele>807.2</ele>
        <time>2024-08-04T13:42:03Z</time>
      </trkpt>
      <trkpt lat="48.03013" lon="6.79936">
        <ele>807.8</ele>
        <time>2024-08-04T13:42:11Z</time>
      </trkpt>
      <trkpt lat="48.03013" lon="6.79936">
        <ele>807.8</ele>
        <time>2024-08-04T13:42:12Z</time>
      </trkpt>
      <trkpt lat="48.03014" lon="6.79937">
        <ele>807.9</ele>
        <time>2024-08-04T13:42:13Z</time>
      </trkpt>
      <trkpt lat="48.03014" lon="6.79938">
        <ele>808</ele>
        <time>2024-08-04T13:42:14Z</time>
      </trkpt>
      <trkpt lat="48.03014" lon="6.79939">
        <ele>808.2</ele>
        <time>2024-08-04T13:42:15Z</time>
      </trkpt>
      <trkpt lat="48.03011" lon="6.79953">
        <ele>809.7</ele>
        <time>2024-08-04T13:42:34Z</time>
      </trkpt>
      <trkpt lat="48.03013" lon="6.79967">
        <ele>810.6</ele>
        <time>2024-08-04T13:42:52Z</time>
      </trkpt>
      <trkpt lat="48.03016" lon="6.7998">
        <ele>811.1</ele>
        <time>2024-08-04T13:43:02Z</time>
      </trkpt>
      <trkpt lat="48.03008" lon="6.79987">
        <ele>811.6</ele>
        <time>2024-08-04T13:43:34Z</time>
      </trkpt>
      <trkpt lat="48.03006" lon="6.79986">
        <ele>811.7</ele>
        <time>2024-08-04T13:43:42Z</time>
      </trkpt>
      <trkpt lat="48.03006" lon="6.79986">
        <ele>811.7</ele>
        <time>2024-08-04T13:43:43Z</time>
      </trkpt>
      <trkpt lat="48.03006" lon="6.79986">
        <ele>811.7</ele>
        <time>2024-08-04T13:43:44Z</time>
      </trkpt>
      <trkpt lat="48.03006" lon="6.79986">
        <ele>811.7</ele>
        <time>2024-08-04T13:43:45Z</time>
      </trkpt>
      <trkpt lat="48.03006" lon="6.79986">
        <ele>811.7</ele>
        <time>2024-08-04T13:44:02Z</time>
      </trkpt>
      <trkpt lat="48.03006" lon="6.79986">
        <ele>811.7</ele>
        <time>2024-08-04T13:44:03Z</time>
      </trkpt>
      <trkpt lat="48.03015" lon="6.79992">
        <ele>812.1</ele>
        <time>2024-08-04T13:44:27Z</time>
      </trkpt>
      <trkpt lat="48.03014" lon="6.80005">
        <ele>811.7</ele>
        <time>2024-08-04T13:44:47Z</time>
      </trkpt>
      <trkpt lat="48.03017" lon="6.80018">
        <ele>810.4</ele>
        <time>2024-08-04T13:45:03Z</time>
      </trkpt>
      <trkpt lat="48.03008" lon="6.80019">
        <ele>808.8</ele>
        <time>2024-08-04T13:45:24Z</time>
      </trkpt>
      <trkpt lat="48.03008" lon="6.80033">
        <ele>807.6</ele>
        <time>2024-08-04T13:45:35Z</time>
      </trkpt>
      <trkpt lat="48.03011" lon="6.80046">
        <ele>807</ele>
        <time>2024-08-04T13:45:46Z</time>
      </trkpt>
      <trkpt lat="48.03014" lon="6.8006">
        <ele>807</ele>
        <time>2024-08-04T13:45:55Z</time>
      </trkpt>
      <trkpt lat="48.03014" lon="6.80074">
        <ele>807.4</ele>
        <time>2024-08-04T13:46:04Z</time>
      </trkpt>
      <trkpt lat="48.0301" lon="6.80086">
        <ele>808.1</ele>
        <time>2024-08-04T13:46:21Z</time>
      </trkpt>
      <trkpt lat="48.03008" lon="6.801">
        <ele>809.4</ele>
        <time>2024-08-04T13:46:32Z</time>
      </trkpt>
      <trkpt lat="48.03005" lon="6.80113">
        <ele>811</ele>
        <time>2024-08-04T13:46:49Z</time>
      </trkpt>
      <trkpt lat="48.02994" lon="6.80113">
        <ele>812.9</ele>
        <time>2024-08-04T13:47:06Z</time>
      </trkpt>
      <trkpt lat="48.02986" lon="6.80118">
        <ele>815</ele>
        <time>2024-08-04T13:47:22Z</time>
      </trkpt>
      <trkpt lat="48.0299" lon="6.80131">
        <ele>817.6</ele>
        <time>2024-08-04T13:47:33Z</time>
      </trkpt>
      <trkpt lat="48.02996" lon="6.80141">
        <ele>820.3</ele>
        <time>2024-08-04T13:47:50Z</time>
      </trkpt>
      <trkpt lat="48.02997" lon="6.80144">
        <ele>820.8</ele>
        <time>2024-08-04T13:47:57Z</time>
      </trkpt>
      <trkpt lat="48.02997" lon="6.80144">
        <ele>820.8</ele>
        <time>2024-08-04T13:47:58Z</time>
      </trkpt>
      <trkpt lat="48.02996" lon="6.80144">
        <ele>820.9</ele>
        <time>2024-08-04T13:48:04Z</time>
      </trkpt>
      <trkpt lat="48.02997" lon="6.80144">
        <ele>821</ele>
        <time>2024-08-04T13:48:05Z</time>
      </trkpt>
      <trkpt lat="48.02996" lon="6.80158">
        <ele>823.7</ele>
        <time>2024-08-04T13:48:25Z</time>
      </trkpt>
      <trkpt lat="48.02996" lon="6.80172">
        <ele>826.1</ele>
        <time>2024-08-04T13:48:41Z</time>
      </trkpt>
      <trkpt lat="48.02993" lon="6.80186">
        <ele>828</ele>
        <time>2024-08-04T13:48:54Z</time>
      </trkpt>
      <trkpt lat="48.02987" lon="6.80197">
        <ele>829.6</ele>
        <time>2024-08-04T13:49:05Z</time>
      </trkpt>
      <trkpt lat="48.02978" lon="6.80199">
        <ele>831.6</ele>
        <time>2024-08-04T13:49:20Z</time>
      </trkpt>
      <trkpt lat="48.02973" lon="6.80211">
        <ele>834</ele>
        <time>2024-08-04T13:49:42Z</time>
      </trkpt>
      <trkpt lat="48.0298" lon="6.80221">
        <ele>841.2</ele>
        <time>2024-08-04T13:49:58Z</time>
      </trkpt>
      <trkpt lat="48.02979" lon="6.80223">
        <ele>841.4</ele>
        <time>2024-08-04T13:50:07Z</time>
      </trkpt>
      <trkpt lat="48.02979" lon="6.80223">
        <ele>841.4</ele>
        <time>2024-08-04T13:50:08Z</time>
      </trkpt>
      <trkpt lat="48.02979" lon="6.80223">
        <ele>841.5</ele>
        <time>2024-08-04T13:50:14Z</time>
      </trkpt>
      <trkpt lat="48.02979" lon="6.80223">
        <ele>841.5</ele>
        <time>2024-08-04T13:50:15Z</time>
      </trkpt>
      <trkpt lat="48.02978" lon="6.80224">
        <ele>841.6</ele>
        <time>2024-08-04T13:50:16Z</time>
      </trkpt>
      <trkpt lat="48.02971" lon="6.80233">
        <ele>842.3</ele>
        <time>2024-08-04T13:50:29Z</time>
      </trkpt>
      <trkpt lat="48.02972" lon="6.80236">
        <ele>842.4</ele>
        <time>2024-08-04T13:50:37Z</time>
      </trkpt>
      <trkpt lat="48.02972" lon="6.80236">
        <ele>842.4</ele>
        <time>2024-08-04T13:50:38Z</time>
      </trkpt>
      <trkpt lat="48.02972" lon="6.80236">
        <ele>842.4</ele>
        <time>2024-08-04T13:50:41Z</time>
      </trkpt>
      <trkpt lat="48.02972" lon="6.80236">
        <ele>842.4</ele>
        <time>2024-08-04T13:50:42Z</time>
      </trkpt>
      <trkpt lat="48.02973" lon="6.80236">
        <ele>842.5</ele>
        <time>2024-08-04T13:50:43Z</time>
      </trkpt>
      <trkpt lat="48.02982" lon="6.80235">
        <ele>842.5</ele>
        <time>2024-08-04T13:50:57Z</time>
      </trkpt>
      <trkpt lat="48.02985" lon="6.80247">
        <ele>842.1</ele>
        <time>2024-08-04T13:51:21Z</time>
      </trkpt>
      <trkpt lat="48.02985" lon="6.80247">
        <ele>842.1</ele>
        <time>2024-08-04T13:51:22Z</time>
      </trkpt>
      <trkpt lat="48.02985" lon="6.80248">
        <ele>842</ele>
        <time>2024-08-04T13:51:23Z</time>
      </trkpt>
      <trkpt lat="48.02985" lon="6.8025">
        <ele>841.9</ele>
        <time>2024-08-04T13:51:24Z</time>
      </trkpt>
      <trkpt lat="48.02985" lon="6.80251">
        <ele>841.8</ele>
        <time>2024-08-04T13:51:25Z</time>
      </trkpt>
      <trkpt lat="48.02985" lon="6.80256">
        <ele>841.5</ele>
        <time>2024-08-04T13:51:44Z</time>
      </trkpt>
      <trkpt lat="48.02985" lon="6.80256">
        <ele>841.5</ele>
        <time>2024-08-04T13:51:45Z</time>
      </trkpt>
      <trkpt lat="48.02984" lon="6.80256">
        <ele>841.4</ele>
        <time>2024-08-04T13:51:48Z</time>
      </trkpt>
      <trkpt lat="48.02984" lon="6.80256">
        <ele>841.4</ele>
        <time>2024-08-04T13:51:49Z</time>
      </trkpt>
      <trkpt lat="48.02984" lon="6.80257">
        <ele>841.4</ele>
        <time>2024-08-04T13:51:50Z</time>
      </trkpt>
      <trkpt lat="48.02984" lon="6.80258">
        <ele>841.3</ele>
        <time>2024-08-04T13:52:04Z</time>
      </trkpt>
      <trkpt lat="48.02984" lon="6.80258">
        <ele>841.3</ele>
        <time>2024-08-04T13:52:05Z</time>
      </trkpt>
      <trkpt lat="48.02984" lon="6.80258">
        <ele>841.3</ele>
        <time>2024-08-04T13:52:09Z</time>
      </trkpt>
      <trkpt lat="48.02984" lon="6.80258">
        <ele>841.2</ele>
        <time>2024-08-04T13:52:10Z</time>
      </trkpt>
      <trkpt lat="48.02984" lon="6.80258">
        <ele>841.2</ele>
        <time>2024-08-04T13:52:13Z</time>
      </trkpt>
      <trkpt lat="48.02984" lon="6.80258">
        <ele>841.2</ele>
        <time>2024-08-04T13:52:14Z</time>
      </trkpt>
      <trkpt lat="48.02984" lon="6.80258">
        <ele>841.2</ele>
        <time>2024-08-04T13:52:15Z</time>
      </trkpt>
      <trkpt lat="48.02981" lon="6.80256">
        <ele>840.8</ele>
        <time>2024-08-04T14:01:44Z</time>
      </trkpt>
      <trkpt lat="48.02981" lon="6.80256">
        <ele>840.8</ele>
        <time>2024-08-04T14:01:45Z</time>
      </trkpt>
      <trkpt lat="48.02981" lon="6.80256">
        <ele>840.8</ele>
        <time>2024-08-04T14:01:46Z</time>
      </trkpt>
      <trkpt lat="48.02981" lon="6.80256">
        <ele>840.8</ele>
        <time>2024-08-04T14:01:47Z</time>
      </trkpt>
      <trkpt lat="48.02981" lon="6.80256">
        <ele>840.7</ele>
        <time>2024-08-04T14:02:07Z</time>
      </trkpt>
      <trkpt lat="48.02982" lon="6.80256">
        <ele>840.6</ele>
        <time>2024-08-04T14:02:08Z</time>
      </trkpt>
      <trkpt lat="48.02982" lon="6.80256">
        <ele>840.6</ele>
        <time>2024-08-04T14:02:09Z</time>
      </trkpt>
      <trkpt lat="48.02983" lon="6.80256">
        <ele>840.5</ele>
        <time>2024-08-04T14:02:10Z</time>
      </trkpt>
      <trkpt lat="48.02983" lon="6.80257">
        <ele>840.4</ele>
        <time>2024-08-04T14:02:11Z</time>
      </trkpt>
      <trkpt lat="48.02983" lon="6.80257">
        <ele>840.4</ele>
        <time>2024-08-04T14:02:12Z</time>
      </trkpt>
      <trkpt lat="48.02983" lon="6.80257">
        <ele>840.3</ele>
        <time>2024-08-04T14:02:13Z</time>
      </trkpt>
      <trkpt lat="48.02984" lon="6.80257">
        <ele>840.2</ele>
        <time>2024-08-04T14:02:19Z</time>
      </trkpt>
      <trkpt lat="48.02984" lon="6.80257">
        <ele>840.2</ele>
        <time>2024-08-04T14:02:20Z</time>
      </trkpt>
      <trkpt lat="48.02985" lon="6.80257">
        <ele>840.1</ele>
        <time>2024-08-04T14:02:24Z</time>
      </trkpt>
      <trkpt lat="48.02985" lon="6.80256">
        <ele>840.1</ele>
        <time>2024-08-04T14:02:25Z</time>
      </trkpt>
      <trkpt lat="48.02985" lon="6.80256">
        <ele>840</ele>
        <time>2024-08-04T14:02:26Z</time>
      </trkpt>
      <trkpt lat="48.02992" lon="6.80246">
        <ele>838.5</ele>
        <time>2024-08-04T14:02:38Z</time>
      </trkpt>
      <trkpt lat="48.03001" lon="6.80252">
        <ele>837.3</ele>
        <time>2024-08-04T14:02:54Z</time>
      </trkpt>
      <trkpt lat="48.03008" lon="6.8026">
        <ele>836.4</ele>
        <time>2024-08-04T14:03:15Z</time>
      </trkpt>
      <trkpt lat="48.0301" lon="6.80274">
        <ele>835.4</ele>
        <time>2024-08-04T14:03:29Z</time>
      </trkpt>
      <trkpt lat="48.03013" lon="6.80286">
        <ele>834.2</ele>
        <time>2024-08-04T14:03:44Z</time>
      </trkpt>
      <trkpt lat="48.03013" lon="6.80288">
        <ele>834</ele>
        <time>2024-08-04T14:03:51Z</time>
      </trkpt>
      <trkpt lat="48.03013" lon="6.80288">
        <ele>834</ele>
        <time>2024-08-04T14:03:52Z</time>
      </trkpt>
      <trkpt lat="48.03013" lon="6.80288">
        <ele>834</ele>
        <time>2024-08-04T14:03:53Z</time>
      </trkpt>
      <trkpt lat="48.03013" lon="6.80288">
        <ele>834</ele>
        <time>2024-08-04T14:04:07Z</time>
      </trkpt>
      <trkpt lat="48.03013" lon="6.80289">
        <ele>833.8</ele>
        <time>2024-08-04T14:04:08Z</time>
      </trkpt>
      <trkpt lat="48.03021" lon="6.80297">
        <ele>832.5</ele>
        <time>2024-08-04T14:04:19Z</time>
      </trkpt>
      <trkpt lat="48.03031" lon="6.80297">
        <ele>831.5</ele>
        <time>2024-08-04T14:04:30Z</time>
      </trkpt>
      <trkpt lat="48.03039" lon="6.80304">
        <ele>830.9</ele>
        <time>2024-08-04T14:04:41Z</time>
      </trkpt>
      <trkpt lat="48.03042" lon="6.80317">
        <ele>830.4</ele>
        <time>2024-08-04T14:04:54Z</time>
      </trkpt>
      <trkpt lat="48.03041" lon="6.8033">
        <ele>829.9</ele>
        <time>2024-08-04T14:05:14Z</time>
      </trkpt>
      <trkpt lat="48.03036" lon="6.80342">
        <ele>829.2</ele>
        <time>2024-08-04T14:05:27Z</time>
      </trkpt>
      <trkpt lat="48.03033" lon="6.80355">
        <ele>828.1</ele>
        <time>2024-08-04T14:05:41Z</time>
      </trkpt>
      <trkpt lat="48.03034" lon="6.80369">
        <ele>826.6</ele>
        <time>2024-08-04T14:05:53Z</time>
      </trkpt>
      <trkpt lat="48.03036" lon="6.80383">
        <ele>825.1</ele>
        <time>2024-08-04T14:06:04Z</time>
      </trkpt>
      <trkpt lat="48.03036" lon="6.80397">
        <ele>823.7</ele>
        <time>2024-08-04T14:06:17Z</time>
      </trkpt>
      <trkpt lat="48.03037" lon="6.80411">
        <ele>822.4</ele>
        <time>2024-08-04T14:06:29Z</time>
      </trkpt>
      <trkpt lat="48.03039" lon="6.80425">
        <ele>821.6</ele>
        <time>2024-08-04T14:06:39Z</time>
      </trkpt>
      <trkpt lat="48.0304" lon="6.80438">
        <ele>821.1</ele>
        <time>2024-08-04T14:06:49Z</time>
      </trkpt>
      <trkpt lat="48.03039" lon="6.80453">
        <ele>820.4</ele>
        <time>2024-08-04T14:07:00Z</time>
      </trkpt>
      <trkpt lat="48.0304" lon="6.80466">
        <ele>819.5</ele>
        <time>2024-08-04T14:07:10Z</time>
      </trkpt>
      <trkpt lat="48.0304" lon="6.80481">
        <ele>818.4</ele>
        <time>2024-08-04T14:07:23Z</time>
      </trkpt>
      <trkpt lat="48.0304" lon="6.80494">
        <ele>817.1</ele>
        <time>2024-08-04T14:07:35Z</time>
      </trkpt>
      <trkpt lat="48.03043" lon="6.80508">
        <ele>815.7</ele>
        <time>2024-08-04T14:07:47Z</time>
      </trkpt>
      <trkpt lat="48.03051" lon="6.80514">
        <ele>814.5</ele>
        <time>2024-08-04T14:07:59Z</time>
      </trkpt>
      <trkpt lat="48.0305" lon="6.80528">
        <ele>813.6</ele>
        <time>2024-08-04T14:08:19Z</time>
      </trkpt>
      <trkpt lat="48.03051" lon="6.80542">
        <ele>813</ele>
        <time>2024-08-04T14:08:34Z</time>
      </trkpt>
      <trkpt lat="48.03054" lon="6.80555">
        <ele>812.5</ele>
        <time>2024-08-04T14:08:48Z</time>
      </trkpt>
      <trkpt lat="48.03055" lon="6.80568">
        <ele>811.8</ele>
        <time>2024-08-04T14:09:00Z</time>
      </trkpt>
      <trkpt lat="48.0306" lon="6.8058">
        <ele>811.2</ele>
        <time>2024-08-04T14:09:12Z</time>
      </trkpt>
      <trkpt lat="48.03067" lon="6.80589">
        <ele>810.8</ele>
        <time>2024-08-04T14:09:33Z</time>
      </trkpt>
      <trkpt lat="48.03073" lon="6.806">
        <ele>810.8</ele>
        <time>2024-08-04T14:09:47Z</time>
      </trkpt>
      <trkpt lat="48.03081" lon="6.80608">
        <ele>811.2</ele>
        <time>2024-08-04T14:09:59Z</time>
      </trkpt>
      <trkpt lat="48.03084" lon="6.80622">
        <ele>812.1</ele>
        <time>2024-08-04T14:10:13Z</time>
      </trkpt>
      <trkpt lat="48.03083" lon="6.80636">
        <ele>813.4</ele>
        <time>2024-08-04T14:10:26Z</time>
      </trkpt>
      <trkpt lat="48.03086" lon="6.8065">
        <ele>815</ele>
        <time>2024-08-04T14:10:38Z</time>
      </trkpt>
      <trkpt lat="48.03092" lon="6.80661">
        <ele>817</ele>
        <time>2024-08-04T14:10:48Z</time>
      </trkpt>
      <trkpt lat="48.03096" lon="6.80674">
        <ele>819.1</ele>
        <time>2024-08-04T14:11:01Z</time>
      </trkpt>
      <trkpt lat="48.03101" lon="6.80686">
        <ele>821.3</ele>
        <time>2024-08-04T14:11:15Z</time>
      </trkpt>
      <trkpt lat="48.031" lon="6.80699">
        <ele>823.1</ele>
        <time>2024-08-04T14:11:30Z</time>
      </trkpt>
      <trkpt lat="48.031" lon="6.80703">
        <ele>823.5</ele>
        <time>2024-08-04T14:11:53Z</time>
      </trkpt>
      <trkpt lat="48.031" lon="6.80703">
        <ele>823.5</ele>
        <time>2024-08-04T14:11:54Z</time>
      </trkpt>
      <trkpt lat="48.031" lon="6.80703">
        <ele>823.5</ele>
        <time>2024-08-04T14:11:55Z</time>
      </trkpt>
      <trkpt lat="48.031" lon="6.80703">
        <ele>823.6</ele>
        <time>2024-08-04T14:11:56Z</time>
      </trkpt>
      <trkpt lat="48.031" lon="6.80703">
        <ele>823.6</ele>
        <time>2024-08-04T14:11:57Z</time>
      </trkpt>
      <trkpt lat="48.03101" lon="6.80702">
        <ele>823.8</ele>
        <time>2024-08-04T14:12:04Z</time>
      </trkpt>
      <trkpt lat="48.03101" lon="6.80702">
        <ele>823.8</ele>
        <time>2024-08-04T14:12:05Z</time>
      </trkpt>
      <trkpt lat="48.031" lon="6.80702">
        <ele>823.9</ele>
        <time>2024-08-04T14:12:14Z</time>
      </trkpt>
      <trkpt lat="48.031" lon="6.80703">
        <ele>824.1</ele>
        <time>2024-08-04T14:12:15Z</time>
      </trkpt>
      <trkpt lat="48.03099" lon="6.80704">
        <ele>824.2</ele>
        <time>2024-08-04T14:12:16Z</time>
      </trkpt>
      <trkpt lat="48.03098" lon="6.80718">
        <ele>825.5</ele>
        <time>2024-08-04T14:12:27Z</time>
      </trkpt>
      <trkpt lat="48.03096" lon="6.80732">
        <ele>826.8</ele>
        <time>2024-08-04T14:12:38Z</time>
      </trkpt>
      <trkpt lat="48.03096" lon="6.80746">
        <ele>828</ele>
        <time>2024-08-04T14:12:51Z</time>
      </trkpt>
      <trkpt lat="48.03093" lon="6.80755">
        <ele>828.7</ele>
        <time>2024-08-04T14:13:09Z</time>
      </trkpt>
      <trkpt lat="48.03093" lon="6.80755">
        <ele>828.7</ele>
        <time>2024-08-04T14:13:10Z</time>
      </trkpt>
      <trkpt lat="48.03093" lon="6.80755">
        <ele>828.7</ele>
        <time>2024-08-04T14:13:11Z</time>
      </trkpt>
      <trkpt lat="48.03094" lon="6.80758">
        <ele>828.9</ele>
        <time>2024-08-04T14:13:21Z</time>
      </trkpt>
      <trkpt lat="48.03093" lon="6.80759">
        <ele>828.9</ele>
        <time>2024-08-04T14:13:22Z</time>
      </trkpt>
      <trkpt lat="48.03094" lon="6.8076">
        <ele>829</ele>
        <time>2024-08-04T14:13:23Z</time>
      </trkpt>
      <trkpt lat="48.03095" lon="6.80774">
        <ele>829.6</ele>
        <time>2024-08-04T14:13:33Z</time>
      </trkpt>
      <trkpt lat="48.03094" lon="6.80787">
        <ele>830</ele>
        <time>2024-08-04T14:13:43Z</time>
      </trkpt>
      <trkpt lat="48.03099" lon="6.80799">
        <ele>830.4</ele>
        <time>2024-08-04T14:13:55Z</time>
      </trkpt>
      <trkpt lat="48.03106" lon="6.80809">
        <ele>830.8</ele>
        <time>2024-08-04T14:14:08Z</time>
      </trkpt>
      <trkpt lat="48.03111" lon="6.8082">
        <ele>831.3</ele>
        <time>2024-08-04T14:14:17Z</time>
      </trkpt>
      <trkpt lat="48.03117" lon="6.80831">
        <ele>831.8</ele>
        <time>2024-08-04T14:14:27Z</time>
      </trkpt>
      <trkpt lat="48.03121" lon="6.80843">
        <ele>832.4</ele>
        <time>2024-08-04T14:14:38Z</time>
      </trkpt>
      <trkpt lat="48.03126" lon="6.80856">
        <ele>832.9</ele>
        <time>2024-08-04T14:14:47Z</time>
      </trkpt>
      <trkpt lat="48.0313" lon="6.80868">
        <ele>833.4</ele>
        <time>2024-08-04T14:14:55Z</time>
      </trkpt>
      <trkpt lat="48.03138" lon="6.80875">
        <ele>834.1</ele>
        <time>2024-08-04T14:15:05Z</time>
      </trkpt>
      <trkpt lat="48.03148" lon="6.80874">
        <ele>834.5</ele>
        <time>2024-08-04T14:15:13Z</time>
      </trkpt>
      <trkpt lat="48.03157" lon="6.80878">
        <ele>834.7</ele>
        <time>2024-08-04T14:15:25Z</time>
      </trkpt>
      <trkpt lat="48.03166" lon="6.80882">
        <ele>834.5</ele>
        <time>2024-08-04T14:15:36Z</time>
      </trkpt>
      <trkpt lat="48.03175" lon="6.80889">
        <ele>834.1</ele>
        <time>2024-08-04T14:15:47Z</time>
      </trkpt>
      <trkpt lat="48.03179" lon="6.80901">
        <ele>833.4</ele>
        <time>2024-08-04T14:15:57Z</time>
      </trkpt>
      <trkpt lat="48.03183" lon="6.80914">
        <ele>832.7</ele>
        <time>2024-08-04T14:16:07Z</time>
      </trkpt>
      <trkpt lat="48.0319" lon="6.80926">
        <ele>831.9</ele>
        <time>2024-08-04T14:16:17Z</time>
      </trkpt>
      <trkpt lat="48.03193" lon="6.80939">
        <ele>831.5</ele>
        <time>2024-08-04T14:16:27Z</time>
      </trkpt>
      <trkpt lat="48.03194" lon="6.80953">
        <ele>831.4</ele>
        <time>2024-08-04T14:16:36Z</time>
      </trkpt>
      <trkpt lat="48.03194" lon="6.80967">
        <ele>831.6</ele>
        <time>2024-08-04T14:16:44Z</time>
      </trkpt>
      <trkpt lat="48.03198" lon="6.8098">
        <ele>831.7</ele>
        <time>2024-08-04T14:16:53Z</time>
      </trkpt>
      <trkpt lat="48.03201" lon="6.80994">
        <ele>831.4</ele>
        <time>2024-08-04T14:17:03Z</time>
      </trkpt>
      <trkpt lat="48.03206" lon="6.81006">
        <ele>830.6</ele>
        <time>2024-08-04T14:17:13Z</time>
      </trkpt>
      <trkpt lat="48.0321" lon="6.81019">
        <ele>829.4</ele>
        <time>2024-08-04T14:17:23Z</time>
      </trkpt>
      <trkpt lat="48.03216" lon="6.8103">
        <ele>827.9</ele>
        <time>2024-08-04T14:17:33Z</time>
      </trkpt>
      <trkpt lat="48.03216" lon="6.81043">
        <ele>826.3</ele>
        <time>2024-08-04T14:17:53Z</time>
      </trkpt>
      <trkpt lat="48.03208" lon="6.81051">
        <ele>824.5</ele>
        <time>2024-08-04T14:18:06Z</time>
      </trkpt>
      <trkpt lat="48.03202" lon="6.81062">
        <ele>822.7</ele>
        <time>2024-08-04T14:18:17Z</time>
      </trkpt>
      <trkpt lat="48.03207" lon="6.81076">
        <ele>822.6</ele>
        <time>2024-08-04T14:18:25Z</time>
      </trkpt>
      <trkpt lat="48.0321" lon="6.81089">
        <ele>822.6</ele>
        <time>2024-08-04T14:18:34Z</time>
      </trkpt>
      <trkpt lat="48.03213" lon="6.81104">
        <ele>822.5</ele>
        <time>2024-08-04T14:18:44Z</time>
      </trkpt>
      <trkpt lat="48.03215" lon="6.81117">
        <ele>822.4</ele>
        <time>2024-08-04T14:18:52Z</time>
      </trkpt>
      <trkpt lat="48.03218" lon="6.81131">
        <ele>822.4</ele>
        <time>2024-08-04T14:19:01Z</time>
      </trkpt>
      <trkpt lat="48.03222" lon="6.81144">
        <ele>822.8</ele>
        <time>2024-08-04T14:19:11Z</time>
      </trkpt>
      <trkpt lat="48.03226" lon="6.81156">
        <ele>823.4</ele>
        <time>2024-08-04T14:19:21Z</time>
      </trkpt>
      <trkpt lat="48.03232" lon="6.81167">
        <ele>824.1</ele>
        <time>2024-08-04T14:19:30Z</time>
      </trkpt>
      <trkpt lat="48.03239" lon="6.81176">
        <ele>824.5</ele>
        <time>2024-08-04T14:19:39Z</time>
      </trkpt>
      <trkpt lat="48.03243" lon="6.81188">
        <ele>824.3</ele>
        <time>2024-08-04T14:19:52Z</time>
      </trkpt>
      <trkpt lat="48.03243" lon="6.81203">
        <ele>823.8</ele>
        <time>2024-08-04T14:20:03Z</time>
      </trkpt>
      <trkpt lat="48.03245" lon="6.81216">
        <ele>823.5</ele>
        <time>2024-08-04T14:20:14Z</time>
      </trkpt>
      <trkpt lat="48.03243" lon="6.8123">
        <ele>823.7</ele>
        <time>2024-08-04T14:20:23Z</time>
      </trkpt>
      <trkpt lat="48.03247" lon="6.81243">
        <ele>824.3</ele>
        <time>2024-08-04T14:20:37Z</time>
      </trkpt>
      <trkpt lat="48.03246" lon="6.81257">
        <ele>825.2</ele>
        <time>2024-08-04T14:20:47Z</time>
      </trkpt>
      <trkpt lat="48.03249" lon="6.8127">
        <ele>826</ele>
        <time>2024-08-04T14:20:57Z</time>
      </trkpt>
      <trkpt lat="48.03255" lon="6.81282">
        <ele>826.8</ele>
        <time>2024-08-04T14:21:04Z</time>
      </trkpt>
      <trkpt lat="48.03262" lon="6.81291">
        <ele>827.5</ele>
        <time>2024-08-04T14:21:12Z</time>
      </trkpt>
      <trkpt lat="48.03268" lon="6.81302">
        <ele>827.9</ele>
        <time>2024-08-04T14:21:21Z</time>
      </trkpt>
      <trkpt lat="48.0327" lon="6.81315">
        <ele>828</ele>
        <time>2024-08-04T14:21:30Z</time>
      </trkpt>
      <trkpt lat="48.03269" lon="6.81329">
        <ele>827.8</ele>
        <time>2024-08-04T14:21:41Z</time>
      </trkpt>
      <trkpt lat="48.03264" lon="6.81341">
        <ele>827.5</ele>
        <time>2024-08-04T14:21:50Z</time>
      </trkpt>
      <trkpt lat="48.03264" lon="6.81342">
        <ele>827.5</ele>
        <time>2024-08-04T14:21:53Z</time>
      </trkpt>
      <trkpt lat="48.03264" lon="6.81343">
        <ele>827.5</ele>
        <time>2024-08-04T14:21:54Z</time>
      </trkpt>
      <trkpt lat="48.03263" lon="6.81344">
        <ele>827.5</ele>
        <time>2024-08-04T14:21:55Z</time>
      </trkpt>
      <trkpt lat="48.03263" lon="6.81346">
        <ele>827.5</ele>
        <time>2024-08-04T14:21:56Z</time>
      </trkpt>
      <trkpt lat="48.03263" lon="6.81347">
        <ele>827.5</ele>
        <time>2024-08-04T14:21:57Z</time>
      </trkpt>
      <trkpt lat="48.03262" lon="6.81348">
        <ele>827.6</ele>
        <time>2024-08-04T14:21:58Z</time>
      </trkpt>
      <trkpt lat="48.03262" lon="6.81362">
        <ele>827.9</ele>
        <time>2024-08-04T14:22:08Z</time>
      </trkpt>
      <trkpt lat="48.03266" lon="6.81375">
        <ele>828.7</ele>
        <time>2024-08-04T14:22:18Z</time>
      </trkpt>
      <trkpt lat="48.03271" lon="6.81386">
        <ele>829.5</ele>
        <time>2024-08-04T14:22:27Z</time>
      </trkpt>
      <trkpt lat="48.03278" lon="6.81398">
        <ele>830.5</ele>
        <time>2024-08-04T14:22:37Z</time>
      </trkpt>
      <trkpt lat="48.03283" lon="6.8141">
        <ele>831.6</ele>
        <time>2024-08-04T14:22:47Z</time>
      </trkpt>
      <trkpt lat="48.03289" lon="6.81421">
        <ele>832.6</ele>
        <time>2024-08-04T14:22:59Z</time>
      </trkpt>
      <trkpt lat="48.03294" lon="6.81434">
        <ele>832.8</ele>
        <time>2024-08-04T14:23:09Z</time>
      </trkpt>
      <trkpt lat="48.03301" lon="6.81443">
        <ele>832.5</ele>
        <time>2024-08-04T14:23:19Z</time>
      </trkpt>
      <trkpt lat="48.03308" lon="6.81452">
        <ele>832</ele>
        <time>2024-08-04T14:23:31Z</time>
      </trkpt>
      <trkpt lat="48.03313" lon="6.81463">
        <ele>831.2</ele>
        <time>2024-08-04T14:23:42Z</time>
      </trkpt>
      <trkpt lat="48.0332" lon="6.81475">
        <ele>830.2</ele>
        <time>2024-08-04T14:23:53Z</time>
      </trkpt>
      <trkpt lat="48.03324" lon="6.81487">
        <ele>829</ele>
        <time>2024-08-04T14:24:02Z</time>
      </trkpt>
      <trkpt lat="48.03326" lon="6.815">
        <ele>827.6</ele>
        <time>2024-08-04T14:24:13Z</time>
      </trkpt>
      <trkpt lat="48.0333" lon="6.81512">
        <ele>826</ele>
        <time>2024-08-04T14:24:24Z</time>
      </trkpt>
      <trkpt lat="48.03335" lon="6.81525">
        <ele>824.2</ele>
        <time>2024-08-04T14:24:35Z</time>
      </trkpt>
      <trkpt lat="48.03339" lon="6.81537">
        <ele>822.1</ele>
        <time>2024-08-04T14:24:46Z</time>
      </trkpt>
      <trkpt lat="48.03343" lon="6.8155">
        <ele>819.9</ele>
        <time>2024-08-04T14:24:59Z</time>
      </trkpt>
      <trkpt lat="48.03347" lon="6.81562">
        <ele>817.5</ele>
        <time>2024-08-04T14:25:12Z</time>
      </trkpt>
      <trkpt lat="48.03352" lon="6.81574">
        <ele>815.1</ele>
        <time>2024-08-04T14:25:26Z</time>
      </trkpt>
      <trkpt lat="48.03359" lon="6.81586">
        <ele>812.7</ele>
        <time>2024-08-04T14:25:39Z</time>
      </trkpt>
      <trkpt lat="48.03365" lon="6.81595">
        <ele>810.6</ele>
        <time>2024-08-04T14:25:50Z</time>
      </trkpt>
      <trkpt lat="48.03368" lon="6.81608">
        <ele>809</ele>
        <time>2024-08-04T14:26:00Z</time>
      </trkpt>
      <trkpt lat="48.03371" lon="6.81622">
        <ele>807.7</ele>
        <time>2024-08-04T14:26:13Z</time>
      </trkpt>
      <trkpt lat="48.03372" lon="6.81625">
        <ele>807.5</ele>
        <time>2024-08-04T14:26:21Z</time>
      </trkpt>
      <trkpt lat="48.03372" lon="6.81625">
        <ele>807.5</ele>
        <time>2024-08-04T14:26:22Z</time>
      </trkpt>
      <trkpt lat="48.03372" lon="6.81626">
        <ele>807.4</ele>
        <time>2024-08-04T14:26:28Z</time>
      </trkpt>
      <trkpt lat="48.03372" lon="6.81628">
        <ele>807.3</ele>
        <time>2024-08-04T14:26:29Z</time>
      </trkpt>
      <trkpt lat="48.03372" lon="6.81629">
        <ele>807.2</ele>
        <time>2024-08-04T14:26:30Z</time>
      </trkpt>
      <trkpt lat="48.03375" lon="6.81643">
        <ele>806.4</ele>
        <time>2024-08-04T14:26:40Z</time>
      </trkpt>
      <trkpt lat="48.03378" lon="6.81657">
        <ele>805.8</ele>
        <time>2024-08-04T14:26:50Z</time>
      </trkpt>
      <trkpt lat="48.03381" lon="6.8167">
        <ele>805.4</ele>
        <time>2024-08-04T14:27:01Z</time>
      </trkpt>
      <trkpt lat="48.03384" lon="6.81683">
        <ele>804.9</ele>
        <time>2024-08-04T14:27:09Z</time>
      </trkpt>
      <trkpt lat="48.03387" lon="6.81697">
        <ele>804.5</ele>
        <time>2024-08-04T14:27:17Z</time>
      </trkpt>
      <trkpt lat="48.0339" lon="6.81709">
        <ele>804.3</ele>
        <time>2024-08-04T14:27:25Z</time>
      </trkpt>
      <trkpt lat="48.03393" lon="6.81723">
        <ele>804.1</ele>
        <time>2024-08-04T14:27:34Z</time>
      </trkpt>
      <trkpt lat="48.03397" lon="6.81736">
        <ele>804</ele>
        <time>2024-08-04T14:27:43Z</time>
      </trkpt>
      <trkpt lat="48.034" lon="6.8175">
        <ele>804</ele>
        <time>2024-08-04T14:27:52Z</time>
      </trkpt>
      <trkpt lat="48.03404" lon="6.81763">
        <ele>804</ele>
        <time>2024-08-04T14:28:01Z</time>
      </trkpt>
      <trkpt lat="48.03407" lon="6.81777">
        <ele>804</ele>
        <time>2024-08-04T14:28:10Z</time>
      </trkpt>
      <trkpt lat="48.03408" lon="6.8179">
        <ele>804.1</ele>
        <time>2024-08-04T14:28:18Z</time>
      </trkpt>
      <trkpt lat="48.03411" lon="6.81804">
        <ele>804.4</ele>
        <time>2024-08-04T14:28:27Z</time>
      </trkpt>
      <trkpt lat="48.03413" lon="6.81817">
        <ele>804.6</ele>
        <time>2024-08-04T14:28:36Z</time>
      </trkpt>
      <trkpt lat="48.03417" lon="6.8183">
        <ele>804.8</ele>
        <time>2024-08-04T14:28:45Z</time>
      </trkpt>
      <trkpt lat="48.03419" lon="6.81845">
        <ele>805.1</ele>
        <time>2024-08-04T14:28:54Z</time>
      </trkpt>
      <trkpt lat="48.03421" lon="6.81859">
        <ele>805.4</ele>
        <time>2024-08-04T14:29:03Z</time>
      </trkpt>
      <trkpt lat="48.03425" lon="6.81872">
        <ele>805.9</ele>
        <time>2024-08-04T14:29:12Z</time>
      </trkpt>
      <trkpt lat="48.03429" lon="6.81886">
        <ele>806.4</ele>
        <time>2024-08-04T14:29:22Z</time>
      </trkpt>
      <trkpt lat="48.03433" lon="6.81898">
        <ele>806.7</ele>
        <time>2024-08-04T14:29:32Z</time>
      </trkpt>
      <trkpt lat="48.03437" lon="6.81911">
        <ele>806.7</ele>
        <time>2024-08-04T14:29:46Z</time>
      </trkpt>
      <trkpt lat="48.03439" lon="6.81924">
        <ele>806.2</ele>
        <time>2024-08-04T14:29:56Z</time>
      </trkpt>
      <trkpt lat="48.03444" lon="6.81937">
        <ele>805.7</ele>
        <time>2024-08-04T14:30:06Z</time>
      </trkpt>
      <trkpt lat="48.03449" lon="6.81949">
        <ele>805.3</ele>
        <time>2024-08-04T14:30:17Z</time>
      </trkpt>
      <trkpt lat="48.03453" lon="6.81962">
        <ele>805.1</ele>
        <time>2024-08-04T14:30:27Z</time>
      </trkpt>
      <trkpt lat="48.03449" lon="6.81975">
        <ele>804.9</ele>
        <time>2024-08-04T14:30:38Z</time>
      </trkpt>
      <trkpt lat="48.03445" lon="6.81988">
        <ele>804.7</ele>
        <time>2024-08-04T14:30:48Z</time>
      </trkpt>
      <trkpt lat="48.03442" lon="6.82">
        <ele>804.3</ele>
        <time>2024-08-04T14:30:59Z</time>
      </trkpt>
      <trkpt lat="48.03441" lon="6.82014">
        <ele>803.6</ele>
        <time>2024-08-04T14:31:08Z</time>
      </trkpt>
      <trkpt lat="48.03438" lon="6.82027">
        <ele>802.6</ele>
        <time>2024-08-04T14:31:22Z</time>
      </trkpt>
      <trkpt lat="48.03436" lon="6.82041">
        <ele>801.3</ele>
        <time>2024-08-04T14:31:32Z</time>
      </trkpt>
      <trkpt lat="48.03434" lon="6.82055">
        <ele>800</ele>
        <time>2024-08-04T14:31:43Z</time>
      </trkpt>
      <trkpt lat="48.03436" lon="6.82069">
        <ele>799</ele>
        <time>2024-08-04T14:31:51Z</time>
      </trkpt>
      <trkpt lat="48.03436" lon="6.82083">
        <ele>798.2</ele>
        <time>2024-08-04T14:32:00Z</time>
      </trkpt>
      <trkpt lat="48.03438" lon="6.82097">
        <ele>797.6</ele>
        <time>2024-08-04T14:32:10Z</time>
      </trkpt>
      <trkpt lat="48.03438" lon="6.82111">
        <ele>797</ele>
        <time>2024-08-04T14:32:21Z</time>
      </trkpt>
      <trkpt lat="48.0344" lon="6.82125">
        <ele>796.1</ele>
        <time>2024-08-04T14:32:30Z</time>
      </trkpt>
      <trkpt lat="48.03442" lon="6.82139">
        <ele>795</ele>
        <time>2024-08-04T14:32:41Z</time>
      </trkpt>
      <trkpt lat="48.03441" lon="6.82153">
        <ele>793.8</ele>
        <time>2024-08-04T14:32:56Z</time>
      </trkpt>
      <trkpt lat="48.03442" lon="6.82167">
        <ele>792.7</ele>
        <time>2024-08-04T14:33:06Z</time>
      </trkpt>
      <trkpt lat="48.03443" lon="6.8218">
        <ele>791.7</ele>
        <time>2024-08-04T14:33:19Z</time>
      </trkpt>
      <trkpt lat="48.03444" lon="6.82194">
        <ele>790.8</ele>
        <time>2024-08-04T14:33:30Z</time>
      </trkpt>
      <trkpt lat="48.03447" lon="6.82207">
        <ele>791</ele>
        <time>2024-08-04T14:33:39Z</time>
      </trkpt>
      <trkpt lat="48.03448" lon="6.82222">
        <ele>791.3</ele>
        <time>2024-08-04T14:33:50Z</time>
      </trkpt>
      <trkpt lat="48.03449" lon="6.82236">
        <ele>791.5</ele>
        <time>2024-08-04T14:34:02Z</time>
      </trkpt>
      <trkpt lat="48.03447" lon="6.82251">
        <ele>790.7</ele>
        <time>2024-08-04T14:34:09Z</time>
      </trkpt>
      <trkpt lat="48.03447" lon="6.82265">
        <ele>789.7</ele>
        <time>2024-08-04T14:34:18Z</time>
      </trkpt>
      <trkpt lat="48.03447" lon="6.82279">
        <ele>788.7</ele>
        <time>2024-08-04T14:34:28Z</time>
      </trkpt>
      <trkpt lat="48.03449" lon="6.82282">
        <ele>788.3</ele>
        <time>2024-08-04T14:34:38Z</time>
      </trkpt>
      <trkpt lat="48.03449" lon="6.82282">
        <ele>788.3</ele>
        <time>2024-08-04T14:34:39Z</time>
      </trkpt>
      <trkpt lat="48.03449" lon="6.82282">
        <ele>788.3</ele>
        <time>2024-08-04T14:34:40Z</time>
      </trkpt>
      <trkpt lat="48.03449" lon="6.82283">
        <ele>788.3</ele>
        <time>2024-08-04T14:34:43Z</time>
      </trkpt>
      <trkpt lat="48.03449" lon="6.82283">
        <ele>788.3</ele>
        <time>2024-08-04T14:34:44Z</time>
      </trkpt>
      <trkpt lat="48.0345" lon="6.82284">
        <ele>788.2</ele>
        <time>2024-08-04T14:34:45Z</time>
      </trkpt>
      <trkpt lat="48.03448" lon="6.82299">
        <ele>787</ele>
        <time>2024-08-04T14:34:59Z</time>
      </trkpt>
      <trkpt lat="48.03447" lon="6.82313">
        <ele>786</ele>
        <time>2024-08-04T14:35:12Z</time>
      </trkpt>
      <trkpt lat="48.03448" lon="6.82319">
        <ele>786.2</ele>
        <time>2024-08-04T14:35:26Z</time>
      </trkpt>
      <trkpt lat="48.03448" lon="6.8232">
        <ele>786.2</ele>
        <time>2024-08-04T14:35:27Z</time>
      </trkpt>
      <trkpt lat="48.03448" lon="6.8232">
        <ele>786.2</ele>
        <time>2024-08-04T14:35:28Z</time>
      </trkpt>
      <trkpt lat="48.03448" lon="6.8232">
        <ele>786.3</ele>
        <time>2024-08-04T14:35:37Z</time>
      </trkpt>
      <trkpt lat="48.03448" lon="6.8232">
        <ele>786.3</ele>
        <time>2024-08-04T14:35:38Z</time>
      </trkpt>
      <trkpt lat="48.03451" lon="6.82326">
        <ele>786.6</ele>
        <time>2024-08-04T14:35:47Z</time>
      </trkpt>
      <trkpt lat="48.03451" lon="6.82327">
        <ele>786.6</ele>
        <time>2024-08-04T14:35:48Z</time>
      </trkpt>
      <trkpt lat="48.03456" lon="6.82338">
        <ele>787.2</ele>
        <time>2024-08-04T14:36:19Z</time>
      </trkpt>
      <trkpt lat="48.03456" lon="6.82339">
        <ele>787.3</ele>
        <time>2024-08-04T14:36:20Z</time>
      </trkpt>
      <trkpt lat="48.03455" lon="6.82354">
        <ele>788</ele>
        <time>2024-08-04T14:36:35Z</time>
      </trkpt>
      <trkpt lat="48.03457" lon="6.82368">
        <ele>788.7</ele>
        <time>2024-08-04T14:36:48Z</time>
      </trkpt>
      <trkpt lat="48.03458" lon="6.82374">
        <ele>788.9</ele>
        <time>2024-08-04T14:36:58Z</time>
      </trkpt>
      <trkpt lat="48.03458" lon="6.82374">
        <ele>788.9</ele>
        <time>2024-08-04T14:36:59Z</time>
      </trkpt>
      <trkpt lat="48.03458" lon="6.82374">
        <ele>788.9</ele>
        <time>2024-08-04T14:37:00Z</time>
      </trkpt>
      <trkpt lat="48.03459" lon="6.82375">
        <ele>789</ele>
        <time>2024-08-04T14:37:44Z</time>
      </trkpt>
      <trkpt lat="48.03459" lon="6.82375">
        <ele>789</ele>
        <time>2024-08-04T14:37:45Z</time>
      </trkpt>
      <trkpt lat="48.03459" lon="6.82375">
        <ele>789</ele>
        <time>2024-08-04T14:37:46Z</time>
      </trkpt>
      <trkpt lat="48.03459" lon="6.82375">
        <ele>789</ele>
        <time>2024-08-04T14:37:47Z</time>
      </trkpt>
      <trkpt lat="48.03459" lon="6.82375">
        <ele>789</ele>
        <time>2024-08-04T14:37:48Z</time>
      </trkpt>
      <trkpt lat="48.03459" lon="6.82376">
        <ele>789</ele>
        <time>2024-08-04T14:37:59Z</time>
      </trkpt>
      <trkpt lat="48.03459" lon="6.82376">
        <ele>789</ele>
        <time>2024-08-04T14:38:00Z</time>
      </trkpt>
      <trkpt lat="48.03459" lon="6.82376">
        <ele>789</ele>
        <time>2024-08-04T14:38:01Z</time>
      </trkpt>
      <trkpt lat="48.03459" lon="6.82376">
        <ele>789</ele>
        <time>2024-08-04T14:38:02Z</time>
      </trkpt>
      <trkpt lat="48.03459" lon="6.82376">
        <ele>789</ele>
        <time>2024-08-04T14:38:03Z</time>
      </trkpt>
      <trkpt lat="48.03459" lon="6.82376">
        <ele>789</ele>
        <time>2024-08-04T14:38:13Z</time>
      </trkpt>
      <trkpt lat="48.0346" lon="6.82377">
        <ele>789.1</ele>
        <time>2024-08-04T14:38:14Z</time>
      </trkpt>
      <trkpt lat="48.0346" lon="6.82378">
        <ele>789.1</ele>
        <time>2024-08-04T14:38:15Z</time>
      </trkpt>
      <trkpt lat="48.03462" lon="6.82391">
        <ele>789.6</ele>
        <time>2024-08-04T14:38:27Z</time>
      </trkpt>
      <trkpt lat="48.03466" lon="6.82404">
        <ele>790</ele>
        <time>2024-08-04T14:38:38Z</time>
      </trkpt>
      <trkpt lat="48.03468" lon="6.82415">
        <ele>790.3</ele>
        <time>2024-08-04T14:38:58Z</time>
      </trkpt>
      <trkpt lat="48.03468" lon="6.82415">
        <ele>790.3</ele>
        <time>2024-08-04T14:38:59Z</time>
      </trkpt>
      <trkpt lat="48.03468" lon="6.82416">
        <ele>790.3</ele>
        <time>2024-08-04T14:39:00Z</time>
      </trkpt>
      <trkpt lat="48.03469" lon="6.82416">
        <ele>790.4</ele>
        <time>2024-08-04T14:39:07Z</time>
      </trkpt>
      <trkpt lat="48.03469" lon="6.82417">
        <ele>790.4</ele>
        <time>2024-08-04T14:39:08Z</time>
      </trkpt>
      <trkpt lat="48.03469" lon="6.82417">
        <ele>790.4</ele>
        <time>2024-08-04T14:39:14Z</time>
      </trkpt>
      <trkpt lat="48.03469" lon="6.82417">
        <ele>790.4</ele>
        <time>2024-08-04T14:39:15Z</time>
      </trkpt>
      <trkpt lat="48.0347" lon="6.82421">
        <ele>790.5</ele>
        <time>2024-08-04T14:39:26Z</time>
      </trkpt>
      <trkpt lat="48.0347" lon="6.82423">
        <ele>790.5</ele>
        <time>2024-08-04T14:39:27Z</time>
      </trkpt>
      <trkpt lat="48.03474" lon="6.82437">
        <ele>790.9</ele>
        <time>2024-08-04T14:39:36Z</time>
      </trkpt>
      <trkpt lat="48.03477" lon="6.82447">
        <ele>791.2</ele>
        <time>2024-08-04T14:39:47Z</time>
      </trkpt>
      <trkpt lat="48.03477" lon="6.82448">
        <ele>791.2</ele>
        <time>2024-08-04T14:39:48Z</time>
      </trkpt>
      <trkpt lat="48.03478" lon="6.82449">
        <ele>791.3</ele>
        <time>2024-08-04T14:39:49Z</time>
      </trkpt>
      <trkpt lat="48.03478" lon="6.8245">
        <ele>791.3</ele>
        <time>2024-08-04T14:39:50Z</time>
      </trkpt>
      <trkpt lat="48.03483" lon="6.82463">
        <ele>791.8</ele>
        <time>2024-08-04T14:39:59Z</time>
      </trkpt>
      <trkpt lat="48.03487" lon="6.82475">
        <ele>792.3</ele>
        <time>2024-08-04T14:40:07Z</time>
      </trkpt>
      <trkpt lat="48.03492" lon="6.82486">
        <ele>793</ele>
        <time>2024-08-04T14:40:20Z</time>
      </trkpt>
      <trkpt lat="48.03498" lon="6.82498">
        <ele>793.7</ele>
        <time>2024-08-04T14:40:31Z</time>
      </trkpt>
      <trkpt lat="48.03504" lon="6.82509">
        <ele>794.4</ele>
        <time>2024-08-04T14:40:42Z</time>
      </trkpt>
      <trkpt lat="48.03512" lon="6.82516">
        <ele>795</ele>
        <time>2024-08-04T14:40:51Z</time>
      </trkpt>
      <trkpt lat="48.03521" lon="6.82522">
        <ele>795.4</ele>
        <time>2024-08-04T14:41:00Z</time>
      </trkpt>
      <trkpt lat="48.03529" lon="6.8253">
        <ele>795.8</ele>
        <time>2024-08-04T14:41:11Z</time>
      </trkpt>
      <trkpt lat="48.03537" lon="6.82537">
        <ele>796.2</ele>
        <time>2024-08-04T14:41:22Z</time>
      </trkpt>
      <trkpt lat="48.03545" lon="6.82544">
        <ele>796.7</ele>
        <time>2024-08-04T14:41:31Z</time>
      </trkpt>
      <trkpt lat="48.03554" lon="6.82551">
        <ele>797.4</ele>
        <time>2024-08-04T14:41:40Z</time>
      </trkpt>
      <trkpt lat="48.03562" lon="6.82557">
        <ele>798.2</ele>
        <time>2024-08-04T14:41:49Z</time>
      </trkpt>
      <trkpt lat="48.03568" lon="6.82567">
        <ele>799.2</ele>
        <time>2024-08-04T14:42:00Z</time>
      </trkpt>
      <trkpt lat="48.03575" lon="6.82576">
        <ele>800.1</ele>
        <time>2024-08-04T14:42:10Z</time>
      </trkpt>
      <trkpt lat="48.03578" lon="6.8259">
        <ele>801</ele>
        <time>2024-08-04T14:42:20Z</time>
      </trkpt>
      <trkpt lat="48.03582" lon="6.82602">
        <ele>801.7</ele>
        <time>2024-08-04T14:42:30Z</time>
      </trkpt>
      <trkpt lat="48.03586" lon="6.82615">
        <ele>802.1</ele>
        <time>2024-08-04T14:42:40Z</time>
      </trkpt>
      <trkpt lat="48.0359" lon="6.82628">
        <ele>802.4</ele>
        <time>2024-08-04T14:42:49Z</time>
      </trkpt>
      <trkpt lat="48.03597" lon="6.82638">
        <ele>802.4</ele>
        <time>2024-08-04T14:43:04Z</time>
      </trkpt>
      <trkpt lat="48.03598" lon="6.82651">
        <ele>802.4</ele>
        <time>2024-08-04T14:43:12Z</time>
      </trkpt>
      <trkpt lat="48.03602" lon="6.82664">
        <ele>802.4</ele>
        <time>2024-08-04T14:43:22Z</time>
      </trkpt>
      <trkpt lat="48.03603" lon="6.82677">
        <ele>802.2</ele>
        <time>2024-08-04T14:43:36Z</time>
      </trkpt>
      <trkpt lat="48.03603" lon="6.82692">
        <ele>802</ele>
        <time>2024-08-04T14:43:45Z</time>
      </trkpt>
      <trkpt lat="48.03605" lon="6.82705">
        <ele>801.9</ele>
        <time>2024-08-04T14:43:55Z</time>
      </trkpt>
      <trkpt lat="48.03609" lon="6.82718">
        <ele>801.8</ele>
        <time>2024-08-04T14:44:04Z</time>
      </trkpt>
      <trkpt lat="48.03613" lon="6.82732">
        <ele>801.6</ele>
        <time>2024-08-04T14:44:13Z</time>
      </trkpt>
      <trkpt lat="48.03617" lon="6.82745">
        <ele>801.3</ele>
        <time>2024-08-04T14:44:22Z</time>
      </trkpt>
      <trkpt lat="48.03623" lon="6.82756">
        <ele>801</ele>
        <time>2024-08-04T14:44:31Z</time>
      </trkpt>
      <trkpt lat="48.03623" lon="6.82757">
        <ele>801</ele>
        <time>2024-08-04T14:44:36Z</time>
      </trkpt>
      <trkpt lat="48.03623" lon="6.82757">
        <ele>801</ele>
        <time>2024-08-04T14:44:37Z</time>
      </trkpt>
      <trkpt lat="48.03623" lon="6.82757">
        <ele>801</ele>
        <time>2024-08-04T14:44:38Z</time>
      </trkpt>
      <trkpt lat="48.03625" lon="6.82762">
        <ele>800.9</ele>
        <time>2024-08-04T14:44:46Z</time>
      </trkpt>
      <trkpt lat="48.03625" lon="6.82763">
        <ele>800.8</ele>
        <time>2024-08-04T14:44:47Z</time>
      </trkpt>
      <trkpt lat="48.03626" lon="6.82765">
        <ele>800.8</ele>
        <time>2024-08-04T14:44:48Z</time>
      </trkpt>
      <trkpt lat="48.03628" lon="6.82779">
        <ele>800.5</ele>
        <time>2024-08-04T14:44:57Z</time>
      </trkpt>
      <trkpt lat="48.03631" lon="6.82792">
        <ele>800.4</ele>
        <time>2024-08-04T14:45:07Z</time>
      </trkpt>
      <trkpt lat="48.03632" lon="6.82806">
        <ele>800.4</ele>
        <time>2024-08-04T14:45:16Z</time>
      </trkpt>
      <trkpt lat="48.03634" lon="6.8282">
        <ele>800.5</ele>
        <time>2024-08-04T14:45:26Z</time>
      </trkpt>
      <trkpt lat="48.03636" lon="6.82834">
        <ele>800.6</ele>
        <time>2024-08-04T14:45:35Z</time>
      </trkpt>
      <trkpt lat="48.03638" lon="6.82848">
        <ele>800.6</ele>
        <time>2024-08-04T14:45:44Z</time>
      </trkpt>
      <trkpt lat="48.03636" lon="6.82862">
        <ele>800.5</ele>
        <time>2024-08-04T14:45:54Z</time>
      </trkpt>
      <trkpt lat="48.03636" lon="6.82876">
        <ele>800.9</ele>
        <time>2024-08-04T14:46:04Z</time>
      </trkpt>
      <trkpt lat="48.0364" lon="6.82889">
        <ele>801.4</ele>
        <time>2024-08-04T14:46:12Z</time>
      </trkpt>
      <trkpt lat="48.03643" lon="6.82902">
        <ele>801.9</ele>
        <time>2024-08-04T14:46:20Z</time>
      </trkpt>
      <trkpt lat="48.03647" lon="6.82914">
        <ele>802.4</ele>
        <time>2024-08-04T14:46:28Z</time>
      </trkpt>
      <trkpt lat="48.03653" lon="6.82926">
        <ele>802.9</ele>
        <time>2024-08-04T14:46:37Z</time>
      </trkpt>
      <trkpt lat="48.03659" lon="6.82937">
        <ele>803.3</ele>
        <time>2024-08-04T14:46:46Z</time>
      </trkpt>
      <trkpt lat="48.03665" lon="6.82948">
        <ele>803.6</ele>
        <time>2024-08-04T14:46:55Z</time>
      </trkpt>
      <trkpt lat="48.0367" lon="6.82959">
        <ele>803.9</ele>
        <time>2024-08-04T14:47:06Z</time>
      </trkpt>
      <trkpt lat="48.03677" lon="6.82969">
        <ele>804.1</ele>
        <time>2024-08-04T14:47:17Z</time>
      </trkpt>
      <trkpt lat="48.03677" lon="6.8297">
        <ele>804.1</ele>
        <time>2024-08-04T14:47:22Z</time>
      </trkpt>
      <trkpt lat="48.03677" lon="6.8297">
        <ele>804.2</ele>
        <time>2024-08-04T14:47:23Z</time>
      </trkpt>
      <trkpt lat="48.03677" lon="6.8297">
        <ele>804.2</ele>
        <time>2024-08-04T14:47:24Z</time>
      </trkpt>
      <trkpt lat="48.03677" lon="6.82972">
        <ele>804.2</ele>
        <time>2024-08-04T14:47:25Z</time>
      </trkpt>
      <trkpt lat="48.03682" lon="6.82984">
        <ele>804.5</ele>
        <time>2024-08-04T14:47:34Z</time>
      </trkpt>
      <trkpt lat="48.03684" lon="6.82997">
        <ele>805.1</ele>
        <time>2024-08-04T14:47:43Z</time>
      </trkpt>
      <trkpt lat="48.03686" lon="6.83012">
        <ele>806</ele>
        <time>2024-08-04T14:47:53Z</time>
      </trkpt>
      <trkpt lat="48.03687" lon="6.83026">
        <ele>807</ele>
        <time>2024-08-04T14:48:02Z</time>
      </trkpt>
      <trkpt lat="48.03688" lon="6.8304">
        <ele>808.1</ele>
        <time>2024-08-04T14:48:12Z</time>
      </trkpt>
      <trkpt lat="48.03689" lon="6.83055">
        <ele>809</ele>
        <time>2024-08-04T14:48:22Z</time>
      </trkpt>
      <trkpt lat="48.03686" lon="6.83068">
        <ele>809.6</ele>
        <time>2024-08-04T14:48:31Z</time>
      </trkpt>
      <trkpt lat="48.03682" lon="6.8308">
        <ele>810.3</ele>
        <time>2024-08-04T14:48:40Z</time>
      </trkpt>
      <trkpt lat="48.0368" lon="6.83095">
        <ele>811.1</ele>
        <time>2024-08-04T14:48:50Z</time>
      </trkpt>
      <trkpt lat="48.0368" lon="6.8311">
        <ele>811.7</ele>
        <time>2024-08-04T14:48:59Z</time>
      </trkpt>
      <trkpt lat="48.0368" lon="6.83124">
        <ele>812.1</ele>
        <time>2024-08-04T14:49:07Z</time>
      </trkpt>
      <trkpt lat="48.03685" lon="6.83136">
        <ele>812.3</ele>
        <time>2024-08-04T14:49:15Z</time>
      </trkpt>
      <trkpt lat="48.03688" lon="6.83149">
        <ele>812.6</ele>
        <time>2024-08-04T14:49:23Z</time>
      </trkpt>
      <trkpt lat="48.03692" lon="6.83162">
        <ele>813.1</ele>
        <time>2024-08-04T14:49:31Z</time>
      </trkpt>
      <trkpt lat="48.037" lon="6.8317">
        <ele>813.7</ele>
        <time>2024-08-04T14:49:39Z</time>
      </trkpt>
      <trkpt lat="48.03709" lon="6.83175">
        <ele>814.4</ele>
        <time>2024-08-04T14:49:47Z</time>
      </trkpt>
      <trkpt lat="48.03719" lon="6.83178">
        <ele>815.2</ele>
        <time>2024-08-04T14:49:56Z</time>
      </trkpt>
      <trkpt lat="48.03728" lon="6.83178">
        <ele>815.7</ele>
        <time>2024-08-04T14:50:04Z</time>
      </trkpt>
      <trkpt lat="48.03737" lon="6.83179">
        <ele>816</ele>
        <time>2024-08-04T14:50:13Z</time>
      </trkpt>
      <trkpt lat="48.03746" lon="6.83181">
        <ele>816.1</ele>
        <time>2024-08-04T14:50:20Z</time>
      </trkpt>
      <trkpt lat="48.03756" lon="6.8318">
        <ele>816</ele>
        <time>2024-08-04T14:50:31Z</time>
      </trkpt>
      <trkpt lat="48.03765" lon="6.83182">
        <ele>815.9</ele>
        <time>2024-08-04T14:50:42Z</time>
      </trkpt>
      <trkpt lat="48.03773" lon="6.83188">
        <ele>815.9</ele>
        <time>2024-08-04T14:50:53Z</time>
      </trkpt>
      <trkpt lat="48.03782" lon="6.83194">
        <ele>816</ele>
        <time>2024-08-04T14:51:02Z</time>
      </trkpt>
      <trkpt lat="48.03791" lon="6.832">
        <ele>816.2</ele>
        <time>2024-08-04T14:51:13Z</time>
      </trkpt>
      <trkpt lat="48.038" lon="6.83203">
        <ele>816.3</ele>
        <time>2024-08-04T14:51:20Z</time>
      </trkpt>
      <trkpt lat="48.0381" lon="6.83206">
        <ele>816.4</ele>
        <time>2024-08-04T14:51:26Z</time>
      </trkpt>
      <trkpt lat="48.0382" lon="6.83207">
        <ele>816.5</ele>
        <time>2024-08-04T14:51:34Z</time>
      </trkpt>
      <trkpt lat="48.03829" lon="6.83211">
        <ele>816.5</ele>
        <time>2024-08-04T14:51:43Z</time>
      </trkpt>
      <trkpt lat="48.03838" lon="6.83217">
        <ele>816.6</ele>
        <time>2024-08-04T14:51:51Z</time>
      </trkpt>
      <trkpt lat="48.03841" lon="6.83231">
        <ele>816.7</ele>
        <time>2024-08-04T14:52:00Z</time>
      </trkpt>
      <trkpt lat="48.03847" lon="6.83243">
        <ele>816.9</ele>
        <time>2024-08-04T14:52:08Z</time>
      </trkpt>
      <trkpt lat="48.03853" lon="6.83255">
        <ele>817.1</ele>
        <time>2024-08-04T14:52:17Z</time>
      </trkpt>
      <trkpt lat="48.03859" lon="6.83255">
        <ele>817.1</ele>
        <time>2024-08-04T14:52:29Z</time>
      </trkpt>
      <trkpt lat="48.0386" lon="6.83255">
        <ele>817.1</ele>
        <time>2024-08-04T14:52:30Z</time>
      </trkpt>
      <trkpt lat="48.0386" lon="6.83255">
        <ele>817.1</ele>
        <time>2024-08-04T14:52:31Z</time>
      </trkpt>
      <trkpt lat="48.03863" lon="6.83255">
        <ele>817.1</ele>
        <time>2024-08-04T14:52:37Z</time>
      </trkpt>
      <trkpt lat="48.03864" lon="6.83255">
        <ele>817.1</ele>
        <time>2024-08-04T14:52:38Z</time>
      </trkpt>
      <trkpt lat="48.03873" lon="6.83258">
        <ele>817.1</ele>
        <time>2024-08-04T14:52:50Z</time>
      </trkpt>
      <trkpt lat="48.03883" lon="6.83259">
        <ele>817.1</ele>
        <time>2024-08-04T14:53:00Z</time>
      </trkpt>
      <trkpt lat="48.03892" lon="6.8326">
        <ele>817.2</ele>
        <time>2024-08-04T14:53:08Z</time>
      </trkpt>
      <trkpt lat="48.03902" lon="6.8326">
        <ele>817.4</ele>
        <time>2024-08-04T14:53:17Z</time>
      </trkpt>
      <trkpt lat="48.03911" lon="6.83263">
        <ele>817.6</ele>
        <time>2024-08-04T14:53:25Z</time>
      </trkpt>
      <trkpt lat="48.03921" lon="6.83263">
        <ele>818</ele>
        <time>2024-08-04T14:53:34Z</time>
      </trkpt>
      <trkpt lat="48.0393" lon="6.83265">
        <ele>818.6</ele>
        <time>2024-08-04T14:53:44Z</time>
      </trkpt>
      <trkpt lat="48.03939" lon="6.83269">
        <ele>819.1</ele>
        <time>2024-08-04T14:53:53Z</time>
      </trkpt>
      <trkpt lat="48.03948" lon="6.83276">
        <ele>819.6</ele>
        <time>2024-08-04T14:54:04Z</time>
      </trkpt>
      <trkpt lat="48.03956" lon="6.83284">
        <ele>820.1</ele>
        <time>2024-08-04T14:54:14Z</time>
      </trkpt>
      <trkpt lat="48.03962" lon="6.83291">
        <ele>820.5</ele>
        <time>2024-08-04T14:54:26Z</time>
      </trkpt>
      <trkpt lat="48.03962" lon="6.83291">
        <ele>820.5</ele>
        <time>2024-08-04T14:54:27Z</time>
      </trkpt>
      <trkpt lat="48.03962" lon="6.83291">
        <ele>820.5</ele>
        <time>2024-08-04T14:54:28Z</time>
      </trkpt>
      <trkpt lat="48.03962" lon="6.83291">
        <ele>820.5</ele>
        <time>2024-08-04T14:54:29Z</time>
      </trkpt>
      <trkpt lat="48.03962" lon="6.83291">
        <ele>820.5</ele>
        <time>2024-08-04T14:54:30Z</time>
      </trkpt>
      <trkpt lat="48.03962" lon="6.83291">
        <ele>820.5</ele>
        <time>2024-08-04T14:54:31Z</time>
      </trkpt>
      <trkpt lat="48.03962" lon="6.83291">
        <ele>820.5</ele>
        <time>2024-08-04T14:54:32Z</time>
      </trkpt>
      <trkpt lat="48.03962" lon="6.83291">
        <ele>820.5</ele>
        <time>2024-08-04T14:54:33Z</time>
      </trkpt>
      <trkpt lat="48.03963" lon="6.8329">
        <ele>820.6</ele>
        <time>2024-08-04T14:54:38Z</time>
      </trkpt>
      <trkpt lat="48.03964" lon="6.83289">
        <ele>820.6</ele>
        <time>2024-08-04T14:54:39Z</time>
      </trkpt>
      <trkpt lat="48.03965" lon="6.8329">
        <ele>820.7</ele>
        <time>2024-08-04T14:54:40Z</time>
      </trkpt>
      <trkpt lat="48.03974" lon="6.8329">
        <ele>821.1</ele>
        <time>2024-08-04T14:54:50Z</time>
      </trkpt>
      <trkpt lat="48.03975" lon="6.83289">
        <ele>821.1</ele>
        <time>2024-08-04T14:54:54Z</time>
      </trkpt>
      <trkpt lat="48.03975" lon="6.83289">
        <ele>821.1</ele>
        <time>2024-08-04T14:54:55Z</time>
      </trkpt>
      <trkpt lat="48.03976" lon="6.8329">
        <ele>821.2</ele>
        <time>2024-08-04T14:55:12Z</time>
      </trkpt>
      <trkpt lat="48.03977" lon="6.8329">
        <ele>821.2</ele>
        <time>2024-08-04T14:55:13Z</time>
      </trkpt>
      <trkpt lat="48.03987" lon="6.83293">
        <ele>821.6</ele>
        <time>2024-08-04T14:55:22Z</time>
      </trkpt>
      <trkpt lat="48.03996" lon="6.83295">
        <ele>821.9</ele>
        <time>2024-08-04T14:55:30Z</time>
      </trkpt>
      <trkpt lat="48.04006" lon="6.83297">
        <ele>822.3</ele>
        <time>2024-08-04T14:55:38Z</time>
      </trkpt>
      <trkpt lat="48.04015" lon="6.83301">
        <ele>822.7</ele>
        <time>2024-08-04T14:55:48Z</time>
      </trkpt>
      <trkpt lat="48.04022" lon="6.83309">
        <ele>823</ele>
        <time>2024-08-04T14:55:56Z</time>
      </trkpt>
      <trkpt lat="48.04032" lon="6.83314">
        <ele>823.2</ele>
        <time>2024-08-04T14:56:04Z</time>
      </trkpt>
      <trkpt lat="48.0404" lon="6.83321">
        <ele>823.4</ele>
        <time>2024-08-04T14:56:14Z</time>
      </trkpt>
      <trkpt lat="48.04049" lon="6.83326">
        <ele>823.6</ele>
        <time>2024-08-04T14:56:22Z</time>
      </trkpt>
      <trkpt lat="48.04058" lon="6.83331">
        <ele>823.7</ele>
        <time>2024-08-04T14:56:31Z</time>
      </trkpt>
      <trkpt lat="48.04067" lon="6.83334">
        <ele>823.6</ele>
        <time>2024-08-04T14:56:39Z</time>
      </trkpt>
      <trkpt lat="48.04077" lon="6.83337">
        <ele>823.4</ele>
        <time>2024-08-04T14:56:47Z</time>
      </trkpt>
      <trkpt lat="48.04086" lon="6.83338">
        <ele>823.2</ele>
        <time>2024-08-04T14:56:55Z</time>
      </trkpt>
      <trkpt lat="48.04095" lon="6.83344">
        <ele>822.9</ele>
        <time>2024-08-04T14:57:05Z</time>
      </trkpt>
      <trkpt lat="48.04104" lon="6.83346">
        <ele>822.7</ele>
        <time>2024-08-04T14:57:14Z</time>
      </trkpt>
      <trkpt lat="48.04113" lon="6.83344">
        <ele>822.5</ele>
        <time>2024-08-04T14:57:21Z</time>
      </trkpt>
      <trkpt lat="48.04121" lon="6.83339">
        <ele>822.5</ele>
        <time>2024-08-04T14:57:27Z</time>
      </trkpt>
      <trkpt lat="48.04129" lon="6.83331">
        <ele>822.5</ele>
        <time>2024-08-04T14:57:35Z</time>
      </trkpt>
      <trkpt lat="48.04136" lon="6.83321">
        <ele>822.8</ele>
        <time>2024-08-04T14:57:43Z</time>
      </trkpt>
      <trkpt lat="48.04145" lon="6.83314">
        <ele>823.3</ele>
        <time>2024-08-04T14:57:54Z</time>
      </trkpt>
      <trkpt lat="48.04154" lon="6.83315">
        <ele>824.2</ele>
        <time>2024-08-04T14:58:10Z</time>
      </trkpt>
      <trkpt lat="48.04159" lon="6.83327">
        <ele>824.6</ele>
        <time>2024-08-04T14:58:23Z</time>
      </trkpt>
      <trkpt lat="48.04152" lon="6.83337">
        <ele>825.1</ele>
        <time>2024-08-04T14:58:44Z</time>
      </trkpt>
      <trkpt lat="48.0415" lon="6.8334">
        <ele>825.2</ele>
        <time>2024-08-04T14:59:12Z</time>
      </trkpt>
      <trkpt lat="48.0415" lon="6.8334">
        <ele>825.2</ele>
        <time>2024-08-04T14:59:13Z</time>
      </trkpt>
      <trkpt lat="48.04151" lon="6.83342">
        <ele>825.3</ele>
        <time>2024-08-04T15:01:14Z</time>
      </trkpt>
      <trkpt lat="48.04151" lon="6.83342">
        <ele>825.3</ele>
        <time>2024-08-04T15:01:15Z</time>
      </trkpt>
      <trkpt lat="48.04151" lon="6.83341">
        <ele>825.3</ele>
        <time>2024-08-04T15:01:29Z</time>
      </trkpt>
      <trkpt lat="48.04151" lon="6.83341">
        <ele>825.3</ele>
        <time>2024-08-04T15:01:30Z</time>
      </trkpt>
      <trkpt lat="48.04151" lon="6.83341">
        <ele>825.3</ele>
        <time>2024-08-04T15:01:31Z</time>
      </trkpt>
      <trkpt lat="48.04151" lon="6.83341">
        <ele>825.3</ele>
        <time>2024-08-04T15:01:42Z</time>
      </trkpt>
      <trkpt lat="48.04151" lon="6.83341">
        <ele>825.3</ele>
        <time>2024-08-04T15:01:43Z</time>
      </trkpt>
      <trkpt lat="48.04151" lon="6.83341">
        <ele>825.3</ele>
        <time>2024-08-04T15:01:46Z</time>
      </trkpt>
      <trkpt lat="48.04151" lon="6.83341">
        <ele>825.3</ele>
        <time>2024-08-04T15:01:47Z</time>
      </trkpt>
      <trkpt lat="48.04151" lon="6.83341">
        <ele>825.3</ele>
        <time>2024-08-04T15:01:53Z</time>
      </trkpt>
      <trkpt lat="48.04151" lon="6.83341">
        <ele>825.3</ele>
        <time>2024-08-04T15:01:54Z</time>
      </trkpt>
      <trkpt lat="48.04151" lon="6.83341">
        <ele>825.3</ele>
        <time>2024-08-04T15:01:55Z</time>
      </trkpt>
      <trkpt lat="48.04151" lon="6.83341">
        <ele>825.3</ele>
        <time>2024-08-04T15:01:59Z</time>
      </trkpt>
      <trkpt lat="48.04151" lon="6.83341">
        <ele>825.3</ele>
        <time>2024-08-04T15:02:00Z</time>
      </trkpt>
      <trkpt lat="48.04151" lon="6.83341">
        <ele>825.3</ele>
        <time>2024-08-04T15:02:01Z</time>
      </trkpt>
      <trkpt lat="48.04151" lon="6.83341">
        <ele>825.3</ele>
        <time>2024-08-04T15:02:07Z</time>
      </trkpt>
      <trkpt lat="48.04151" lon="6.8334">
        <ele>825.3</ele>
        <time>2024-08-04T15:02:08Z</time>
      </trkpt>
      <trkpt lat="48.04151" lon="6.8334">
        <ele>825.3</ele>
        <time>2024-08-04T15:02:11Z</time>
      </trkpt>
      <trkpt lat="48.04151" lon="6.8334">
        <ele>825.3</ele>
        <time>2024-08-04T15:02:12Z</time>
      </trkpt>
      <trkpt lat="48.04151" lon="6.8334">
        <ele>825.3</ele>
        <time>2024-08-04T15:02:13Z</time>
      </trkpt>
      <trkpt lat="48.04151" lon="6.8334">
        <ele>825.3</ele>
        <time>2024-08-04T15:02:19Z</time>
      </trkpt>
      <trkpt lat="48.04151" lon="6.8334">
        <ele>825.3</ele>
        <time>2024-08-04T15:02:20Z</time>
      </trkpt>
      <trkpt lat="48.04151" lon="6.8334">
        <ele>825.3</ele>
        <time>2024-08-04T15:02:37Z</time>
      </trkpt>
      <trkpt lat="48.04151" lon="6.8334">
        <ele>825.3</ele>
        <time>2024-08-04T15:02:38Z</time>
      </trkpt>
      <trkpt lat="48.04151" lon="6.8334">
        <ele>825.3</ele>
        <time>2024-08-04T15:02:41Z</time>
      </trkpt>
      <trkpt lat="48.04151" lon="6.8334">
        <ele>825.3</ele>
        <time>2024-08-04T15:02:42Z</time>
      </trkpt>
      <trkpt lat="48.04151" lon="6.8334">
        <ele>825.3</ele>
        <time>2024-08-04T15:02:43Z</time>
      </trkpt>
      <trkpt lat="48.04151" lon="6.8334">
        <ele>825.3</ele>
        <time>2024-08-04T15:02:44Z</time>
      </trkpt>
      <trkpt lat="48.04151" lon="6.8334">
        <ele>825.3</ele>
        <time>2024-08-04T15:02:45Z</time>
      </trkpt>
      <trkpt lat="48.04151" lon="6.8334">
        <ele>825.3</ele>
        <time>2024-08-04T15:02:46Z</time>
      </trkpt>
      <trkpt lat="48.04151" lon="6.8334">
        <ele>825.3</ele>
        <time>2024-08-04T15:02:47Z</time>
      </trkpt>
      <trkpt lat="48.04151" lon="6.8334">
        <ele>825.3</ele>
        <time>2024-08-04T15:02:48Z</time>
      </trkpt>
      <trkpt lat="48.04151" lon="6.8334">
        <ele>825.3</ele>
        <time>2024-08-04T15:02:49Z</time>
      </trkpt>
      <trkpt lat="48.04151" lon="6.8334">
        <ele>825.3</ele>
        <time>2024-08-04T15:02:50Z</time>
      </trkpt>
      <trkpt lat="48.04151" lon="6.8334">
        <ele>825.3</ele>
        <time>2024-08-04T15:02:51Z</time>
      </trkpt>
      <trkpt lat="48.04151" lon="6.8334">
        <ele>825.3</ele>
        <time>2024-08-04T15:02:52Z</time>
      </trkpt>
      <trkpt lat="48.04151" lon="6.8334">
        <ele>825.3</ele>
        <time>2024-08-04T15:02:53Z</time>
      </trkpt>
      <trkpt lat="48.04151" lon="6.8334">
        <ele>825.3</ele>
        <time>2024-08-04T15:02:57Z</time>
      </trkpt>
      <trkpt lat="48.04151" lon="6.8334">
        <ele>825.3</ele>
        <time>2024-08-04T15:02:58Z</time>
      </trkpt>
      <trkpt lat="48.04151" lon="6.8334">
        <ele>825.3</ele>
        <time>2024-08-04T15:03:04Z</time>
      </trkpt>
      <trkpt lat="48.04151" lon="6.8334">
        <ele>825.3</ele>
        <time>2024-08-04T15:03:05Z</time>
      </trkpt>
      <trkpt lat="48.04151" lon="6.8334">
        <ele>825.3</ele>
        <time>2024-08-04T15:03:06Z</time>
      </trkpt>
      <trkpt lat="48.0415" lon="6.8334">
        <ele>825.4</ele>
        <time>2024-08-04T15:03:09Z</time>
      </trkpt>
      <trkpt lat="48.0415" lon="6.8334">
        <ele>825.4</ele>
        <time>2024-08-04T15:03:10Z</time>
      </trkpt>
      <trkpt lat="48.0415" lon="6.8334">
        <ele>825.4</ele>
        <time>2024-08-04T15:03:11Z</time>
      </trkpt>
      <trkpt lat="48.0415" lon="6.8334">
        <ele>825.4</ele>
        <time>2024-08-04T15:03:12Z</time>
      </trkpt>
      <trkpt lat="48.0415" lon="6.8334">
        <ele>825.4</ele>
        <time>2024-08-04T15:03:13Z</time>
      </trkpt>
      <trkpt lat="48.0415" lon="6.8334">
        <ele>825.4</ele>
        <time>2024-08-04T15:03:32Z</time>
      </trkpt>
      <trkpt lat="48.04151" lon="6.8334">
        <ele>825.4</ele>
        <time>2024-08-04T15:03:33Z</time>
      </trkpt>
      <trkpt lat="48.04149" lon="6.8334">
        <ele>825.4</ele>
        <time>2024-08-04T15:03:48Z</time>
      </trkpt>
      <trkpt lat="48.04149" lon="6.8334">
        <ele>825.4</ele>
        <time>2024-08-04T15:03:49Z</time>
      </trkpt>
      <trkpt lat="48.04149" lon="6.8334">
        <ele>825.4</ele>
        <time>2024-08-04T15:03:50Z</time>
      </trkpt>
      <trkpt lat="48.04149" lon="6.83339">
        <ele>825.4</ele>
        <time>2024-08-04T15:03:57Z</time>
      </trkpt>
      <trkpt lat="48.0415" lon="6.8334">
        <ele>825.5</ele>
        <time>2024-08-04T15:03:58Z</time>
      </trkpt>
      <trkpt lat="48.04156" lon="6.83329">
        <ele>825.9</ele>
        <time>2024-08-04T15:04:12Z</time>
      </trkpt>
      <trkpt lat="48.04164" lon="6.83336">
        <ele>826.3</ele>
        <time>2024-08-04T15:04:22Z</time>
      </trkpt>
      <trkpt lat="48.04169" lon="6.83347">
        <ele>826.7</ele>
        <time>2024-08-04T15:04:31Z</time>
      </trkpt>
      <trkpt lat="48.04175" lon="6.8336">
        <ele>827.2</ele>
        <time>2024-08-04T15:04:40Z</time>
      </trkpt>
      <trkpt lat="48.04178" lon="6.83373">
        <ele>827.6</ele>
        <time>2024-08-04T15:04:51Z</time>
      </trkpt>
      <trkpt lat="48.04184" lon="6.83384">
        <ele>828</ele>
        <time>2024-08-04T15:05:00Z</time>
      </trkpt>
      <trkpt lat="48.04188" lon="6.83397">
        <ele>828.4</ele>
        <time>2024-08-04T15:05:09Z</time>
      </trkpt>
      <trkpt lat="48.04194" lon="6.83408">
        <ele>828.8</ele>
        <time>2024-08-04T15:05:17Z</time>
      </trkpt>
      <trkpt lat="48.04201" lon="6.83417">
        <ele>829.3</ele>
        <time>2024-08-04T15:05:24Z</time>
      </trkpt>
      <trkpt lat="48.04208" lon="6.83426">
        <ele>829.7</ele>
        <time>2024-08-04T15:05:32Z</time>
      </trkpt>
      <trkpt lat="48.04215" lon="6.83437">
        <ele>830.1</ele>
        <time>2024-08-04T15:05:41Z</time>
      </trkpt>
      <trkpt lat="48.04222" lon="6.83447">
        <ele>830.5</ele>
        <time>2024-08-04T15:05:49Z</time>
      </trkpt>
      <trkpt lat="48.0423" lon="6.83455">
        <ele>830.9</ele>
        <time>2024-08-04T15:05:58Z</time>
      </trkpt>
      <trkpt lat="48.04238" lon="6.83463">
        <ele>831.3</ele>
        <time>2024-08-04T15:06:06Z</time>
      </trkpt>
      <trkpt lat="48.04245" lon="6.83472">
        <ele>831.5</ele>
        <time>2024-08-04T15:06:14Z</time>
      </trkpt>
      <trkpt lat="48.04252" lon="6.8348">
        <ele>831.8</ele>
        <time>2024-08-04T15:06:22Z</time>
      </trkpt>
      <trkpt lat="48.04259" lon="6.83489">
        <ele>832</ele>
        <time>2024-08-04T15:06:30Z</time>
      </trkpt>
      <trkpt lat="48.04267" lon="6.83497">
        <ele>832.3</ele>
        <time>2024-08-04T15:06:39Z</time>
      </trkpt>
      <trkpt lat="48.04276" lon="6.83503">
        <ele>832.5</ele>
        <time>2024-08-04T15:06:48Z</time>
      </trkpt>
      <trkpt lat="48.04284" lon="6.83511">
        <ele>832.7</ele>
        <time>2024-08-04T15:06:56Z</time>
      </trkpt>
      <trkpt lat="48.04292" lon="6.83519">
        <ele>832.9</ele>
        <time>2024-08-04T15:07:04Z</time>
      </trkpt>
      <trkpt lat="48.043" lon="6.83526">
        <ele>833.1</ele>
        <time>2024-08-04T15:07:11Z</time>
      </trkpt>
      <trkpt lat="48.04307" lon="6.83535">
        <ele>833.3</ele>
        <time>2024-08-04T15:07:19Z</time>
      </trkpt>
      <trkpt lat="48.04315" lon="6.83543">
        <ele>833.5</ele>
        <time>2024-08-04T15:07:28Z</time>
      </trkpt>
      <trkpt lat="48.04323" lon="6.83552">
        <ele>833.7</ele>
        <time>2024-08-04T15:07:37Z</time>
      </trkpt>
      <trkpt lat="48.04329" lon="6.83561">
        <ele>833.9</ele>
        <time>2024-08-04T15:07:44Z</time>
      </trkpt>
      <trkpt lat="48.04336" lon="6.83572">
        <ele>834</ele>
        <time>2024-08-04T15:07:53Z</time>
      </trkpt>
      <trkpt lat="48.04343" lon="6.83579">
        <ele>834.1</ele>
        <time>2024-08-04T15:08:04Z</time>
      </trkpt>
      <trkpt lat="48.04343" lon="6.83579">
        <ele>834.1</ele>
        <time>2024-08-04T15:08:05Z</time>
      </trkpt>
      <trkpt lat="48.04344" lon="6.83579">
        <ele>834.1</ele>
        <time>2024-08-04T15:08:08Z</time>
      </trkpt>
      <trkpt lat="48.04345" lon="6.83579">
        <ele>834.1</ele>
        <time>2024-08-04T15:08:09Z</time>
      </trkpt>
      <trkpt lat="48.04346" lon="6.8358">
        <ele>834.1</ele>
        <time>2024-08-04T15:08:10Z</time>
      </trkpt>
      <trkpt lat="48.04353" lon="6.83589">
        <ele>834.1</ele>
        <time>2024-08-04T15:08:18Z</time>
      </trkpt>
      <trkpt lat="48.0436" lon="6.836">
        <ele>834</ele>
        <time>2024-08-04T15:08:26Z</time>
      </trkpt>
      <trkpt lat="48.04366" lon="6.83612">
        <ele>833.9</ele>
        <time>2024-08-04T15:08:34Z</time>
      </trkpt>
      <trkpt lat="48.0437" lon="6.83624">
        <ele>833.9</ele>
        <time>2024-08-04T15:08:41Z</time>
      </trkpt>
      <trkpt lat="48.04372" lon="6.8363">
        <ele>833.8</ele>
        <time>2024-08-04T15:08:47Z</time>
      </trkpt>
      <trkpt lat="48.04372" lon="6.8363">
        <ele>833.8</ele>
        <time>2024-08-04T15:08:48Z</time>
      </trkpt>
      <trkpt lat="48.04372" lon="6.8363">
        <ele>833.8</ele>
        <time>2024-08-04T15:08:49Z</time>
      </trkpt>
      <trkpt lat="48.04373" lon="6.83632">
        <ele>833.8</ele>
        <time>2024-08-04T15:08:50Z</time>
      </trkpt>
      <trkpt lat="48.04377" lon="6.83646">
        <ele>833.7</ele>
        <time>2024-08-04T15:08:57Z</time>
      </trkpt>
      <trkpt lat="48.04382" lon="6.83659">
        <ele>833.7</ele>
        <time>2024-08-04T15:09:04Z</time>
      </trkpt>
      <trkpt lat="48.04386" lon="6.83672">
        <ele>833.6</ele>
        <time>2024-08-04T15:09:11Z</time>
      </trkpt>
      <trkpt lat="48.04391" lon="6.83685">
        <ele>833.6</ele>
        <time>2024-08-04T15:09:19Z</time>
      </trkpt>
      <trkpt lat="48.04395" lon="6.83698">
        <ele>833.5</ele>
        <time>2024-08-04T15:09:27Z</time>
      </trkpt>
      <trkpt lat="48.044" lon="6.83711">
        <ele>833.4</ele>
        <time>2024-08-04T15:09:35Z</time>
      </trkpt>
      <trkpt lat="48.04401" lon="6.83724">
        <ele>833.3</ele>
        <time>2024-08-04T15:09:43Z</time>
      </trkpt>
      <trkpt lat="48.04405" lon="6.83737">
        <ele>833.1</ele>
        <time>2024-08-04T15:09:50Z</time>
      </trkpt>
      <trkpt lat="48.04407" lon="6.83751">
        <ele>833</ele>
        <time>2024-08-04T15:09:57Z</time>
      </trkpt>
      <trkpt lat="48.04412" lon="6.83762">
        <ele>832.9</ele>
        <time>2024-08-04T15:10:04Z</time>
      </trkpt>
      <trkpt lat="48.04414" lon="6.83775">
        <ele>832.8</ele>
        <time>2024-08-04T15:10:13Z</time>
      </trkpt>
      <trkpt lat="48.04414" lon="6.83789">
        <ele>832.7</ele>
        <time>2024-08-04T15:10:22Z</time>
      </trkpt>
      <trkpt lat="48.04412" lon="6.83789">
        <ele>832.7</ele>
        <time>2024-08-04T15:10:29Z</time>
      </trkpt>
      <trkpt lat="48.04412" lon="6.83789">
        <ele>832.7</ele>
        <time>2024-08-04T15:10:30Z</time>
      </trkpt>
      <trkpt lat="48.04413" lon="6.83789">
        <ele>832.7</ele>
        <time>2024-08-04T15:10:31Z</time>
      </trkpt>
      <trkpt lat="48.04412" lon="6.8379">
        <ele>832.7</ele>
        <time>2024-08-04T15:10:48Z</time>
      </trkpt>
      <trkpt lat="48.0441" lon="6.8379">
        <ele>832.7</ele>
        <time>2024-08-04T15:10:49Z</time>
      </trkpt>
      <trkpt lat="48.04409" lon="6.83791">
        <ele>832.8</ele>
        <time>2024-08-04T15:10:50Z</time>
      </trkpt>
      <trkpt lat="48.044" lon="6.83797">
        <ele>833</ele>
        <time>2024-08-04T15:10:58Z</time>
      </trkpt>
      <trkpt lat="48.0439" lon="6.83801">
        <ele>833.3</ele>
        <time>2024-08-04T15:11:06Z</time>
      </trkpt>
      <trkpt lat="48.04381" lon="6.83801">
        <ele>833.6</ele>
        <time>2024-08-04T15:11:13Z</time>
      </trkpt>
      <trkpt lat="48.04371" lon="6.83801">
        <ele>833.8</ele>
        <time>2024-08-04T15:11:21Z</time>
      </trkpt>
      <trkpt lat="48.04362" lon="6.83802">
        <ele>833.9</ele>
        <time>2024-08-04T15:11:29Z</time>
      </trkpt>
      <trkpt lat="48.04353" lon="6.83806">
        <ele>834</ele>
        <time>2024-08-04T15:11:36Z</time>
      </trkpt>
      <trkpt lat="48.04343" lon="6.83807">
        <ele>834.2</ele>
        <time>2024-08-04T15:11:44Z</time>
      </trkpt>
      <trkpt lat="48.04334" lon="6.8381">
        <ele>834.5</ele>
        <time>2024-08-04T15:11:51Z</time>
      </trkpt>
      <trkpt lat="48.04329" lon="6.83813">
        <ele>834.7</ele>
        <time>2024-08-04T15:12:01Z</time>
      </trkpt>
      <trkpt lat="48.04329" lon="6.83813">
        <ele>834.7</ele>
        <time>2024-08-04T15:12:02Z</time>
      </trkpt>
      <trkpt lat="48.04329" lon="6.83813">
        <ele>834.7</ele>
        <time>2024-08-04T15:12:11Z</time>
      </trkpt>
      <trkpt lat="48.04329" lon="6.83813">
        <ele>834.7</ele>
        <time>2024-08-04T15:12:12Z</time>
      </trkpt>
      <trkpt lat="48.04329" lon="6.83813">
        <ele>834.7</ele>
        <time>2024-08-04T15:12:16Z</time>
      </trkpt>
      <trkpt lat="48.04329" lon="6.83813">
        <ele>834.7</ele>
        <time>2024-08-04T15:12:17Z</time>
      </trkpt>
      <trkpt lat="48.04329" lon="6.83812">
        <ele>834.7</ele>
        <time>2024-08-04T15:12:18Z</time>
      </trkpt>
      <trkpt lat="48.04329" lon="6.83814">
        <ele>834.7</ele>
        <time>2024-08-04T15:12:22Z</time>
      </trkpt>
      <trkpt lat="48.04328" lon="6.83815">
        <ele>834.8</ele>
        <time>2024-08-04T15:12:23Z</time>
      </trkpt>
      <trkpt lat="48.04324" lon="6.83827">
        <ele>834.9</ele>
        <time>2024-08-04T15:12:30Z</time>
      </trkpt>
      <trkpt lat="48.04319" lon="6.83841">
        <ele>834.8</ele>
        <time>2024-08-04T15:12:38Z</time>
      </trkpt>
      <trkpt lat="48.04316" lon="6.83855">
        <ele>834.8</ele>
        <time>2024-08-04T15:12:46Z</time>
      </trkpt>
      <trkpt lat="48.04313" lon="6.83868">
        <ele>834.8</ele>
        <time>2024-08-04T15:12:54Z</time>
      </trkpt>
      <trkpt lat="48.0431" lon="6.83883">
        <ele>834.9</ele>
        <time>2024-08-04T15:13:03Z</time>
      </trkpt>
      <trkpt lat="48.04309" lon="6.83898">
        <ele>835.2</ele>
        <time>2024-08-04T15:13:11Z</time>
      </trkpt>
      <trkpt lat="48.04311" lon="6.83912">
        <ele>835.6</ele>
        <time>2024-08-04T15:13:19Z</time>
      </trkpt>
      <trkpt lat="48.04317" lon="6.83923">
        <ele>836.3</ele>
        <time>2024-08-04T15:13:28Z</time>
      </trkpt>
      <trkpt lat="48.04326" lon="6.83931">
        <ele>837.2</ele>
        <time>2024-08-04T15:13:37Z</time>
      </trkpt>
      <trkpt lat="48.04329" lon="6.83935">
        <ele>837.6</ele>
        <time>2024-08-04T15:13:46Z</time>
      </trkpt>
      <trkpt lat="48.0433" lon="6.83935">
        <ele>837.6</ele>
        <time>2024-08-04T15:13:47Z</time>
      </trkpt>
      <trkpt lat="48.0433" lon="6.83935">
        <ele>837.7</ele>
        <time>2024-08-04T15:13:48Z</time>
      </trkpt>
      <trkpt lat="48.04331" lon="6.83935">
        <ele>837.8</ele>
        <time>2024-08-04T15:13:49Z</time>
      </trkpt>
      <trkpt lat="48.04332" lon="6.83936">
        <ele>837.9</ele>
        <time>2024-08-04T15:13:50Z</time>
      </trkpt>
      <trkpt lat="48.04341" lon="6.83942">
        <ele>838.6</ele>
        <time>2024-08-04T15:13:59Z</time>
      </trkpt>
      <trkpt lat="48.04349" lon="6.83949">
        <ele>839.3</ele>
        <time>2024-08-04T15:14:08Z</time>
      </trkpt>
      <trkpt lat="48.04356" lon="6.83957">
        <ele>839.9</ele>
        <time>2024-08-04T15:14:17Z</time>
      </trkpt>
      <trkpt lat="48.04363" lon="6.83967">
        <ele>840.5</ele>
        <time>2024-08-04T15:14:26Z</time>
      </trkpt>
      <trkpt lat="48.04369" lon="6.83978">
        <ele>841.1</ele>
        <time>2024-08-04T15:14:34Z</time>
      </trkpt>
      <trkpt lat="48.04376" lon="6.83989">
        <ele>841.7</ele>
        <time>2024-08-04T15:14:42Z</time>
      </trkpt>
      <trkpt lat="48.04383" lon="6.84">
        <ele>842.3</ele>
        <time>2024-08-04T15:14:50Z</time>
      </trkpt>
      <trkpt lat="48.04389" lon="6.84011">
        <ele>842.9</ele>
        <time>2024-08-04T15:14:58Z</time>
      </trkpt>
      <trkpt lat="48.04395" lon="6.84022">
        <ele>843.5</ele>
        <time>2024-08-04T15:15:06Z</time>
      </trkpt>
      <trkpt lat="48.044" lon="6.84035">
        <ele>844.2</ele>
        <time>2024-08-04T15:15:14Z</time>
      </trkpt>
      <trkpt lat="48.04404" lon="6.84048">
        <ele>844.8</ele>
        <time>2024-08-04T15:15:22Z</time>
      </trkpt>
      <trkpt lat="48.04404" lon="6.84063">
        <ele>845.2</ele>
        <time>2024-08-04T15:15:30Z</time>
      </trkpt>
      <trkpt lat="48.04398" lon="6.84075">
        <ele>844.9</ele>
        <time>2024-08-04T15:15:39Z</time>
      </trkpt>
      <trkpt lat="48.04391" lon="6.84082">
        <ele>844.5</ele>
        <time>2024-08-04T15:15:48Z</time>
      </trkpt>
      <trkpt lat="48.04382" lon="6.84087">
        <ele>844</ele>
        <time>2024-08-04T15:15:56Z</time>
      </trkpt>
      <trkpt lat="48.04374" lon="6.84092">
        <ele>843.5</ele>
        <time>2024-08-04T15:16:04Z</time>
      </trkpt>
      <trkpt lat="48.04364" lon="6.84094">
        <ele>843.1</ele>
        <time>2024-08-04T15:16:12Z</time>
      </trkpt>
      <trkpt lat="48.04355" lon="6.84098">
        <ele>842.6</ele>
        <time>2024-08-04T15:16:20Z</time>
      </trkpt>
      <trkpt lat="48.04346" lon="6.84105">
        <ele>842.2</ele>
        <time>2024-08-04T15:16:28Z</time>
      </trkpt>
      <trkpt lat="48.04342" lon="6.84117">
        <ele>841.8</ele>
        <time>2024-08-04T15:16:36Z</time>
      </trkpt>
      <trkpt lat="48.04345" lon="6.84131">
        <ele>841.3</ele>
        <time>2024-08-04T15:16:43Z</time>
      </trkpt>
      <trkpt lat="48.0435" lon="6.84142">
        <ele>840.8</ele>
        <time>2024-08-04T15:16:54Z</time>
      </trkpt>
      <trkpt lat="48.04357" lon="6.84153">
        <ele>840.2</ele>
        <time>2024-08-04T15:17:02Z</time>
      </trkpt>
      <trkpt lat="48.04363" lon="6.84165">
        <ele>839.8</ele>
        <time>2024-08-04T15:17:10Z</time>
      </trkpt>
      <trkpt lat="48.04367" lon="6.84179">
        <ele>839.4</ele>
        <time>2024-08-04T15:17:19Z</time>
      </trkpt>
      <trkpt lat="48.04368" lon="6.84193">
        <ele>839.1</ele>
        <time>2024-08-04T15:17:27Z</time>
      </trkpt>
      <trkpt lat="48.04364" lon="6.84207">
        <ele>838.9</ele>
        <time>2024-08-04T15:17:35Z</time>
      </trkpt>
      <trkpt lat="48.04364" lon="6.84221">
        <ele>838.7</ele>
        <time>2024-08-04T15:17:43Z</time>
      </trkpt>
      <trkpt lat="48.04367" lon="6.84234">
        <ele>838.6</ele>
        <time>2024-08-04T15:17:52Z</time>
      </trkpt>
      <trkpt lat="48.04373" lon="6.84246">
        <ele>838.5</ele>
        <time>2024-08-04T15:18:00Z</time>
      </trkpt>
      <trkpt lat="48.04379" lon="6.84258">
        <ele>838.3</ele>
        <time>2024-08-04T15:18:08Z</time>
      </trkpt>
      <trkpt lat="48.04384" lon="6.84271">
        <ele>838.3</ele>
        <time>2024-08-04T15:18:16Z</time>
      </trkpt>
      <trkpt lat="48.04388" lon="6.84281">
        <ele>838.2</ele>
        <time>2024-08-04T15:18:26Z</time>
      </trkpt>
      <trkpt lat="48.04388" lon="6.84281">
        <ele>838.2</ele>
        <time>2024-08-04T15:18:27Z</time>
      </trkpt>
      <trkpt lat="48.04388" lon="6.84282">
        <ele>838.2</ele>
        <time>2024-08-04T15:18:28Z</time>
      </trkpt>
      <trkpt lat="48.04387" lon="6.84283">
        <ele>838.2</ele>
        <time>2024-08-04T15:18:29Z</time>
      </trkpt>
      <trkpt lat="48.04387" lon="6.84283">
        <ele>838.2</ele>
        <time>2024-08-04T15:18:30Z</time>
      </trkpt>
      <trkpt lat="48.04387" lon="6.84284">
        <ele>838.2</ele>
        <time>2024-08-04T15:18:31Z</time>
      </trkpt>
      <trkpt lat="48.04387" lon="6.84297">
        <ele>838.1</ele>
        <time>2024-08-04T15:18:39Z</time>
      </trkpt>
      <trkpt lat="48.04385" lon="6.84311">
        <ele>838</ele>
        <time>2024-08-04T15:18:49Z</time>
      </trkpt>
      <trkpt lat="48.04383" lon="6.84324">
        <ele>837.9</ele>
        <time>2024-08-04T15:19:01Z</time>
      </trkpt>
      <trkpt lat="48.04383" lon="6.84325">
        <ele>837.9</ele>
        <time>2024-08-04T15:19:02Z</time>
      </trkpt>
      <trkpt lat="48.04382" lon="6.84325">
        <ele>837.9</ele>
        <time>2024-08-04T15:19:03Z</time>
      </trkpt>
      <trkpt lat="48.04382" lon="6.84326">
        <ele>837.9</ele>
        <time>2024-08-04T15:19:08Z</time>
      </trkpt>
      <trkpt lat="48.04382" lon="6.84327">
        <ele>837.9</ele>
        <time>2024-08-04T15:19:09Z</time>
      </trkpt>
      <trkpt lat="48.04381" lon="6.84328">
        <ele>837.9</ele>
        <time>2024-08-04T15:19:10Z</time>
      </trkpt>
      <trkpt lat="48.0438" lon="6.84342">
        <ele>837.8</ele>
        <time>2024-08-04T15:19:18Z</time>
      </trkpt>
      <trkpt lat="48.04375" lon="6.84353">
        <ele>837.8</ele>
        <time>2024-08-04T15:19:26Z</time>
      </trkpt>
      <trkpt lat="48.04371" lon="6.84367">
        <ele>837.7</ele>
        <time>2024-08-04T15:19:35Z</time>
      </trkpt>
      <trkpt lat="48.04365" lon="6.84378">
        <ele>837.6</ele>
        <time>2024-08-04T15:19:45Z</time>
      </trkpt>
      <trkpt lat="48.04358" lon="6.84388">
        <ele>837.6</ele>
        <time>2024-08-04T15:19:53Z</time>
      </trkpt>
      <trkpt lat="48.0435" lon="6.84396">
        <ele>837.6</ele>
        <time>2024-08-04T15:20:01Z</time>
      </trkpt>
      <trkpt lat="48.04344" lon="6.84407">
        <ele>837.6</ele>
        <time>2024-08-04T15:20:10Z</time>
      </trkpt>
      <trkpt lat="48.04341" lon="6.84416">
        <ele>837.6</ele>
        <time>2024-08-04T15:20:21Z</time>
      </trkpt>
      <trkpt lat="48.04341" lon="6.84416">
        <ele>837.6</ele>
        <time>2024-08-04T15:20:22Z</time>
      </trkpt>
      <trkpt lat="48.04339" lon="6.8442">
        <ele>837.6</ele>
        <time>2024-08-04T15:20:51Z</time>
      </trkpt>
      <trkpt lat="48.04337" lon="6.8442">
        <ele>837.6</ele>
        <time>2024-08-04T15:20:52Z</time>
      </trkpt>
      <trkpt lat="48.04336" lon="6.8442">
        <ele>837.6</ele>
        <time>2024-08-04T15:20:53Z</time>
      </trkpt>
      <trkpt lat="48.04327" lon="6.84428">
        <ele>837.7</ele>
        <time>2024-08-04T15:21:03Z</time>
      </trkpt>
      <trkpt lat="48.04327" lon="6.84442">
        <ele>837.7</ele>
        <time>2024-08-04T15:21:11Z</time>
      </trkpt>
      <trkpt lat="48.04331" lon="6.84455">
        <ele>837.7</ele>
        <time>2024-08-04T15:21:20Z</time>
      </trkpt>
      <trkpt lat="48.04339" lon="6.84463">
        <ele>837.7</ele>
        <time>2024-08-04T15:21:28Z</time>
      </trkpt>
      <trkpt lat="48.04348" lon="6.84469">
        <ele>837.6</ele>
        <time>2024-08-04T15:21:35Z</time>
      </trkpt>
      <trkpt lat="48.04356" lon="6.84476">
        <ele>837.6</ele>
        <time>2024-08-04T15:21:44Z</time>
      </trkpt>
      <trkpt lat="48.04364" lon="6.84483">
        <ele>837.6</ele>
        <time>2024-08-04T15:21:53Z</time>
      </trkpt>
      <trkpt lat="48.04373" lon="6.84486">
        <ele>837.6</ele>
        <time>2024-08-04T15:22:01Z</time>
      </trkpt>
      <trkpt lat="48.04383" lon="6.84487">
        <ele>837.6</ele>
        <time>2024-08-04T15:22:09Z</time>
      </trkpt>
      <trkpt lat="48.04392" lon="6.84492">
        <ele>837.6</ele>
        <time>2024-08-04T15:22:19Z</time>
      </trkpt>
      <trkpt lat="48.044" lon="6.84498">
        <ele>837.6</ele>
        <time>2024-08-04T15:22:28Z</time>
      </trkpt>
      <trkpt lat="48.04409" lon="6.84503">
        <ele>837.6</ele>
        <time>2024-08-04T15:22:37Z</time>
      </trkpt>
      <trkpt lat="48.04417" lon="6.84511">
        <ele>837.6</ele>
        <time>2024-08-04T15:22:46Z</time>
      </trkpt>
      <trkpt lat="48.04422" lon="6.84525">
        <ele>837.5</ele>
        <time>2024-08-04T15:22:56Z</time>
      </trkpt>
      <trkpt lat="48.04427" lon="6.84534">
        <ele>837.5</ele>
        <time>2024-08-04T15:23:08Z</time>
      </trkpt>
      <trkpt lat="48.04427" lon="6.84534">
        <ele>837.5</ele>
        <time>2024-08-04T15:23:09Z</time>
      </trkpt>
      <trkpt lat="48.04427" lon="6.84534">
        <ele>837.5</ele>
        <time>2024-08-04T15:23:10Z</time>
      </trkpt>
      <trkpt lat="48.04428" lon="6.84534">
        <ele>837.5</ele>
        <time>2024-08-04T15:23:11Z</time>
      </trkpt>
      <trkpt lat="48.04428" lon="6.84534">
        <ele>837.5</ele>
        <time>2024-08-04T15:23:12Z</time>
      </trkpt>
      <trkpt lat="48.04428" lon="6.84534">
        <ele>837.5</ele>
        <time>2024-08-04T15:23:13Z</time>
      </trkpt>
      <trkpt lat="48.04429" lon="6.84533">
        <ele>837.5</ele>
        <time>2024-08-04T15:23:14Z</time>
      </trkpt>
      <trkpt lat="48.04429" lon="6.84533">
        <ele>837.5</ele>
        <time>2024-08-04T15:23:15Z</time>
      </trkpt>
      <trkpt lat="48.04431" lon="6.84533">
        <ele>837.5</ele>
        <time>2024-08-04T15:23:26Z</time>
      </trkpt>
      <trkpt lat="48.04431" lon="6.84533">
        <ele>837.5</ele>
        <time>2024-08-04T15:23:27Z</time>
      </trkpt>
      <trkpt lat="48.04431" lon="6.84534">
        <ele>837.5</ele>
        <time>2024-08-04T15:23:28Z</time>
      </trkpt>
      <trkpt lat="48.04438" lon="6.84544">
        <ele>837.6</ele>
        <time>2024-08-04T15:23:42Z</time>
      </trkpt>
      <trkpt lat="48.04444" lon="6.84555">
        <ele>837.6</ele>
        <time>2024-08-04T15:23:53Z</time>
      </trkpt>
      <trkpt lat="48.0445" lon="6.84566">
        <ele>837.6</ele>
        <time>2024-08-04T15:24:05Z</time>
      </trkpt>
      <trkpt lat="48.04452" lon="6.8458">
        <ele>837.6</ele>
        <time>2024-08-04T15:24:15Z</time>
      </trkpt>
      <trkpt lat="48.04455" lon="6.84594">
        <ele>837.6</ele>
        <time>2024-08-04T15:24:25Z</time>
      </trkpt>
      <trkpt lat="48.0446" lon="6.84605">
        <ele>837.5</ele>
        <time>2024-08-04T15:24:35Z</time>
      </trkpt>
      <trkpt lat="48.04467" lon="6.84614">
        <ele>837.3</ele>
        <time>2024-08-04T15:24:46Z</time>
      </trkpt>
      <trkpt lat="48.04471" lon="6.84627">
        <ele>837</ele>
        <time>2024-08-04T15:24:56Z</time>
      </trkpt>
      <trkpt lat="48.04477" lon="6.84639">
        <ele>836.7</ele>
        <time>2024-08-04T15:25:04Z</time>
      </trkpt>
      <trkpt lat="48.04482" lon="6.8465">
        <ele>836.3</ele>
        <time>2024-08-04T15:25:13Z</time>
      </trkpt>
      <trkpt lat="48.04486" lon="6.84662">
        <ele>836</ele>
        <time>2024-08-04T15:25:22Z</time>
      </trkpt>
      <trkpt lat="48.04493" lon="6.84671">
        <ele>835.6</ele>
        <time>2024-08-04T15:25:30Z</time>
      </trkpt>
      <trkpt lat="48.04502" lon="6.84674">
        <ele>835.2</ele>
        <time>2024-08-04T15:25:43Z</time>
      </trkpt>
      <trkpt lat="48.04503" lon="6.84673">
        <ele>835.1</ele>
        <time>2024-08-04T15:25:44Z</time>
      </trkpt>
      <trkpt lat="48.04503" lon="6.84673">
        <ele>835.1</ele>
        <time>2024-08-04T15:25:45Z</time>
      </trkpt>
      <trkpt lat="48.0451" lon="6.84664">
        <ele>834.7</ele>
        <time>2024-08-04T15:25:56Z</time>
      </trkpt>
      <trkpt lat="48.04512" lon="6.84664">
        <ele>834.6</ele>
        <time>2024-08-04T15:26:04Z</time>
      </trkpt>
      <trkpt lat="48.04512" lon="6.84664">
        <ele>834.6</ele>
        <time>2024-08-04T15:26:05Z</time>
      </trkpt>
      <trkpt lat="48.04512" lon="6.84664">
        <ele>834.5</ele>
        <time>2024-08-04T15:26:06Z</time>
      </trkpt>
      <trkpt lat="48.04517" lon="6.84668">
        <ele>834.2</ele>
        <time>2024-08-04T15:26:21Z</time>
      </trkpt>
      <trkpt lat="48.04517" lon="6.84668">
        <ele>834.2</ele>
        <time>2024-08-04T15:26:22Z</time>
      </trkpt>
      <trkpt lat="48.04517" lon="6.84668">
        <ele>834.2</ele>
        <time>2024-08-04T15:26:23Z</time>
      </trkpt>
      <trkpt lat="48.04516" lon="6.84674">
        <ele>834</ele>
        <time>2024-08-04T15:26:41Z</time>
      </trkpt>
      <trkpt lat="48.04516" lon="6.84674">
        <ele>834</ele>
        <time>2024-08-04T15:26:42Z</time>
      </trkpt>
      <trkpt lat="48.04525" lon="6.84681">
        <ele>833.4</ele>
        <time>2024-08-04T15:26:53Z</time>
      </trkpt>
      <trkpt lat="48.04534" lon="6.84683">
        <ele>832.6</ele>
        <time>2024-08-04T15:27:04Z</time>
      </trkpt>
      <trkpt lat="48.04542" lon="6.8469">
        <ele>832.1</ele>
        <time>2024-08-04T15:27:12Z</time>
      </trkpt>
      <trkpt lat="48.04549" lon="6.84698">
        <ele>831.5</ele>
        <time>2024-08-04T15:27:23Z</time>
      </trkpt>
      <trkpt lat="48.04549" lon="6.84698">
        <ele>831.5</ele>
        <time>2024-08-04T15:27:24Z</time>
      </trkpt>
      <trkpt lat="48.04549" lon="6.84698">
        <ele>831.5</ele>
        <time>2024-08-04T15:27:25Z</time>
      </trkpt>
      <trkpt lat="48.04549" lon="6.84699">
        <ele>831.5</ele>
        <time>2024-08-04T15:27:32Z</time>
      </trkpt>
      <trkpt lat="48.0455" lon="6.847">
        <ele>831.4</ele>
        <time>2024-08-04T15:27:33Z</time>
      </trkpt>
      <trkpt lat="48.04556" lon="6.8471">
        <ele>830.9</ele>
        <time>2024-08-04T15:27:44Z</time>
      </trkpt>
      <trkpt lat="48.04563" lon="6.84719">
        <ele>830.4</ele>
        <time>2024-08-04T15:27:53Z</time>
      </trkpt>
      <trkpt lat="48.04571" lon="6.84727">
        <ele>829.8</ele>
        <time>2024-08-04T15:28:02Z</time>
      </trkpt>
      <trkpt lat="48.04578" lon="6.84736">
        <ele>829.3</ele>
        <time>2024-08-04T15:28:14Z</time>
      </trkpt>
      <trkpt lat="48.04583" lon="6.84747">
        <ele>828.9</ele>
        <time>2024-08-04T15:28:25Z</time>
      </trkpt>
      <trkpt lat="48.04592" lon="6.84756">
        <ele>828.3</ele>
        <time>2024-08-04T15:28:33Z</time>
      </trkpt>
      <trkpt lat="48.04598" lon="6.84767">
        <ele>827.9</ele>
        <time>2024-08-04T15:28:44Z</time>
      </trkpt>
      <trkpt lat="48.04603" lon="6.84778">
        <ele>827.5</ele>
        <time>2024-08-04T15:28:52Z</time>
      </trkpt>
      <trkpt lat="48.04609" lon="6.84789">
        <ele>827</ele>
        <time>2024-08-04T15:29:00Z</time>
      </trkpt>
      <trkpt lat="48.04617" lon="6.84798">
        <ele>826.6</ele>
        <time>2024-08-04T15:29:07Z</time>
      </trkpt>
      <trkpt lat="48.04623" lon="6.8481">
        <ele>826.1</ele>
        <time>2024-08-04T15:29:16Z</time>
      </trkpt>
      <trkpt lat="48.04632" lon="6.84814">
        <ele>825.5</ele>
        <time>2024-08-04T15:29:25Z</time>
      </trkpt>
      <trkpt lat="48.0464" lon="6.84821">
        <ele>825</ele>
        <time>2024-08-04T15:29:33Z</time>
      </trkpt>
      <trkpt lat="48.04648" lon="6.84828">
        <ele>824.4</ele>
        <time>2024-08-04T15:29:41Z</time>
      </trkpt>
      <trkpt lat="48.04657" lon="6.84834">
        <ele>823.9</ele>
        <time>2024-08-04T15:29:50Z</time>
      </trkpt>
      <trkpt lat="48.04665" lon="6.84841">
        <ele>823.4</ele>
        <time>2024-08-04T15:29:59Z</time>
      </trkpt>
      <trkpt lat="48.04672" lon="6.8485">
        <ele>822.8</ele>
        <time>2024-08-04T15:30:08Z</time>
      </trkpt>
      <trkpt lat="48.0468" lon="6.84858">
        <ele>822.3</ele>
        <time>2024-08-04T15:30:17Z</time>
      </trkpt>
      <trkpt lat="48.04689" lon="6.84864">
        <ele>821.7</ele>
        <time>2024-08-04T15:30:24Z</time>
      </trkpt>
      <trkpt lat="48.04697" lon="6.84871">
        <ele>821.1</ele>
        <time>2024-08-04T15:30:31Z</time>
      </trkpt>
      <trkpt lat="48.04705" lon="6.84882">
        <ele>820.5</ele>
        <time>2024-08-04T15:30:39Z</time>
      </trkpt>
      <trkpt lat="48.04713" lon="6.84891">
        <ele>819.8</ele>
        <time>2024-08-04T15:30:47Z</time>
      </trkpt>
      <trkpt lat="48.04717" lon="6.84904">
        <ele>819.2</ele>
        <time>2024-08-04T15:30:56Z</time>
      </trkpt>
      <trkpt lat="48.04718" lon="6.84918">
        <ele>818.7</ele>
        <time>2024-08-04T15:31:06Z</time>
      </trkpt>
      <trkpt lat="48.04714" lon="6.84931">
        <ele>818.3</ele>
        <time>2024-08-04T15:31:13Z</time>
      </trkpt>
      <trkpt lat="48.04712" lon="6.84945">
        <ele>817.9</ele>
        <time>2024-08-04T15:31:21Z</time>
      </trkpt>
      <trkpt lat="48.04711" lon="6.84959">
        <ele>817.5</ele>
        <time>2024-08-04T15:31:29Z</time>
      </trkpt>
      <trkpt lat="48.04709" lon="6.84972">
        <ele>817.1</ele>
        <time>2024-08-04T15:31:38Z</time>
      </trkpt>
      <trkpt lat="48.04712" lon="6.84986">
        <ele>816.7</ele>
        <time>2024-08-04T15:31:51Z</time>
      </trkpt>
      <trkpt lat="48.04715" lon="6.85">
        <ele>816.3</ele>
        <time>2024-08-04T15:32:00Z</time>
      </trkpt>
      <trkpt lat="48.04714" lon="6.85014">
        <ele>815.8</ele>
        <time>2024-08-04T15:32:09Z</time>
      </trkpt>
      <trkpt lat="48.04715" lon="6.85029">
        <ele>815.3</ele>
        <time>2024-08-04T15:32:18Z</time>
      </trkpt>
      <trkpt lat="48.04713" lon="6.85043">
        <ele>814.8</ele>
        <time>2024-08-04T15:32:28Z</time>
      </trkpt>
      <trkpt lat="48.04711" lon="6.85057">
        <ele>814.2</ele>
        <time>2024-08-04T15:32:37Z</time>
      </trkpt>
      <trkpt lat="48.04713" lon="6.85072">
        <ele>813.7</ele>
        <time>2024-08-04T15:32:46Z</time>
      </trkpt>
      <trkpt lat="48.04717" lon="6.85085">
        <ele>813.2</ele>
        <time>2024-08-04T15:32:54Z</time>
      </trkpt>
      <trkpt lat="48.04722" lon="6.85098">
        <ele>812.6</ele>
        <time>2024-08-04T15:33:03Z</time>
      </trkpt>
      <trkpt lat="48.04728" lon="6.8511">
        <ele>812</ele>
        <time>2024-08-04T15:33:11Z</time>
      </trkpt>
      <trkpt lat="48.04731" lon="6.85124">
        <ele>811.4</ele>
        <time>2024-08-04T15:33:19Z</time>
      </trkpt>
      <trkpt lat="48.04734" lon="6.85136">
        <ele>810.9</ele>
        <time>2024-08-04T15:33:28Z</time>
      </trkpt>
      <trkpt lat="48.04735" lon="6.8515">
        <ele>810.3</ele>
        <time>2024-08-04T15:33:36Z</time>
      </trkpt>
      <trkpt lat="48.04731" lon="6.85163">
        <ele>809.8</ele>
        <time>2024-08-04T15:33:45Z</time>
      </trkpt>
      <trkpt lat="48.04726" lon="6.85175">
        <ele>809.2</ele>
        <time>2024-08-04T15:33:54Z</time>
      </trkpt>
      <trkpt lat="48.04718" lon="6.85183">
        <ele>808.7</ele>
        <time>2024-08-04T15:34:02Z</time>
      </trkpt>
      <trkpt lat="48.0471" lon="6.85191">
        <ele>808.3</ele>
        <time>2024-08-04T15:34:10Z</time>
      </trkpt>
      <trkpt lat="48.04703" lon="6.852">
        <ele>807.8</ele>
        <time>2024-08-04T15:34:18Z</time>
      </trkpt>
      <trkpt lat="48.04699" lon="6.85212">
        <ele>807.4</ele>
        <time>2024-08-04T15:34:25Z</time>
      </trkpt>
      <trkpt lat="48.04694" lon="6.85219">
        <ele>807.1</ele>
        <time>2024-08-04T15:34:38Z</time>
      </trkpt>
      <trkpt lat="48.04694" lon="6.85219">
        <ele>807.1</ele>
        <time>2024-08-04T15:34:39Z</time>
      </trkpt>
      <trkpt lat="48.04694" lon="6.85219">
        <ele>807.1</ele>
        <time>2024-08-04T15:34:40Z</time>
      </trkpt>
      <trkpt lat="48.04692" lon="6.85221">
        <ele>807</ele>
        <time>2024-08-04T15:34:58Z</time>
      </trkpt>
      <trkpt lat="48.04691" lon="6.85222">
        <ele>807</ele>
        <time>2024-08-04T15:34:59Z</time>
      </trkpt>
      <trkpt lat="48.0469" lon="6.85223">
        <ele>806.9</ele>
        <time>2024-08-04T15:35:00Z</time>
      </trkpt>
      <trkpt lat="48.04681" lon="6.85227">
        <ele>806.5</ele>
        <time>2024-08-04T15:35:07Z</time>
      </trkpt>
      <trkpt lat="48.04672" lon="6.85229">
        <ele>806.1</ele>
        <time>2024-08-04T15:35:15Z</time>
      </trkpt>
      <trkpt lat="48.04662" lon="6.85229">
        <ele>805.9</ele>
        <time>2024-08-04T15:35:24Z</time>
      </trkpt>
      <trkpt lat="48.04653" lon="6.85235">
        <ele>805.8</ele>
        <time>2024-08-04T15:35:33Z</time>
      </trkpt>
      <trkpt lat="48.04645" lon="6.85244">
        <ele>805.8</ele>
        <time>2024-08-04T15:35:41Z</time>
      </trkpt>
      <trkpt lat="48.04639" lon="6.85256">
        <ele>806.1</ele>
        <time>2024-08-04T15:35:52Z</time>
      </trkpt>
      <trkpt lat="48.04634" lon="6.85268">
        <ele>806.5</ele>
        <time>2024-08-04T15:35:58Z</time>
      </trkpt>
      <trkpt lat="48.04634" lon="6.85282">
        <ele>806.9</ele>
        <time>2024-08-04T15:36:05Z</time>
      </trkpt>
      <trkpt lat="48.04631" lon="6.85295">
        <ele>807.4</ele>
        <time>2024-08-04T15:36:13Z</time>
      </trkpt>
      <trkpt lat="48.04628" lon="6.85309">
        <ele>807.9</ele>
        <time>2024-08-04T15:36:20Z</time>
      </trkpt>
      <trkpt lat="48.04628" lon="6.85323">
        <ele>808.4</ele>
        <time>2024-08-04T15:36:29Z</time>
      </trkpt>
      <trkpt lat="48.04625" lon="6.85337">
        <ele>808.8</ele>
        <time>2024-08-04T15:36:37Z</time>
      </trkpt>
      <trkpt lat="48.04621" lon="6.8535">
        <ele>809.2</ele>
        <time>2024-08-04T15:36:45Z</time>
      </trkpt>
      <trkpt lat="48.04618" lon="6.85363">
        <ele>809.5</ele>
        <time>2024-08-04T15:36:53Z</time>
      </trkpt>
      <trkpt lat="48.04617" lon="6.85378">
        <ele>809.9</ele>
        <time>2024-08-04T15:37:00Z</time>
      </trkpt>
      <trkpt lat="48.04619" lon="6.85392">
        <ele>810.2</ele>
        <time>2024-08-04T15:37:07Z</time>
      </trkpt>
      <trkpt lat="48.04623" lon="6.85404">
        <ele>810.6</ele>
        <time>2024-08-04T15:37:15Z</time>
      </trkpt>
      <trkpt lat="48.0463" lon="6.85414">
        <ele>810.9</ele>
        <time>2024-08-04T15:37:25Z</time>
      </trkpt>
      <trkpt lat="48.04636" lon="6.85425">
        <ele>811.2</ele>
        <time>2024-08-04T15:37:35Z</time>
      </trkpt>
      <trkpt lat="48.04641" lon="6.85431">
        <ele>811.4</ele>
        <time>2024-08-04T15:37:49Z</time>
      </trkpt>
      <trkpt lat="48.0464" lon="6.85432">
        <ele>811.4</ele>
        <time>2024-08-04T15:37:50Z</time>
      </trkpt>
      <trkpt lat="48.04641" lon="6.85432">
        <ele>811.4</ele>
        <time>2024-08-04T15:37:51Z</time>
      </trkpt>
      <trkpt lat="48.04642" lon="6.85432">
        <ele>811.5</ele>
        <time>2024-08-04T15:37:52Z</time>
      </trkpt>
      <trkpt lat="48.0465" lon="6.8544">
        <ele>811.8</ele>
        <time>2024-08-04T15:38:06Z</time>
      </trkpt>
      <trkpt lat="48.04659" lon="6.85446">
        <ele>812.1</ele>
        <time>2024-08-04T15:38:16Z</time>
      </trkpt>
      <trkpt lat="48.04666" lon="6.85457">
        <ele>812.5</ele>
        <time>2024-08-04T15:38:26Z</time>
      </trkpt>
      <trkpt lat="48.0467" lon="6.8547">
        <ele>812.8</ele>
        <time>2024-08-04T15:38:35Z</time>
      </trkpt>
      <trkpt lat="48.04677" lon="6.8548">
        <ele>813.1</ele>
        <time>2024-08-04T15:38:44Z</time>
      </trkpt>
      <trkpt lat="48.04685" lon="6.85488">
        <ele>813.4</ele>
        <time>2024-08-04T15:38:52Z</time>
      </trkpt>
      <trkpt lat="48.0469" lon="6.85498">
        <ele>813.7</ele>
        <time>2024-08-04T15:39:00Z</time>
      </trkpt>
      <trkpt lat="48.04692" lon="6.85512">
        <ele>814</ele>
        <time>2024-08-04T15:39:09Z</time>
      </trkpt>
      <trkpt lat="48.0469" lon="6.85525">
        <ele>814.3</ele>
        <time>2024-08-04T15:39:17Z</time>
      </trkpt>
      <trkpt lat="48.04688" lon="6.85539">
        <ele>814.5</ele>
        <time>2024-08-04T15:39:25Z</time>
      </trkpt>
      <trkpt lat="48.04688" lon="6.85554">
        <ele>814.8</ele>
        <time>2024-08-04T15:39:34Z</time>
      </trkpt>
      <trkpt lat="48.04691" lon="6.85568">
        <ele>815.1</ele>
        <time>2024-08-04T15:39:42Z</time>
      </trkpt>
      <trkpt lat="48.04694" lon="6.85583">
        <ele>815.3</ele>
        <time>2024-08-04T15:39:50Z</time>
      </trkpt>
      <trkpt lat="48.047" lon="6.85592">
        <ele>815.6</ele>
        <time>2024-08-04T15:39:57Z</time>
      </trkpt>
      <trkpt lat="48.04705" lon="6.85604">
        <ele>815.9</ele>
        <time>2024-08-04T15:40:11Z</time>
      </trkpt>
      <trkpt lat="48.04713" lon="6.85612">
        <ele>816.2</ele>
        <time>2024-08-04T15:40:19Z</time>
      </trkpt>
      <trkpt lat="48.04718" lon="6.85625">
        <ele>816.6</ele>
        <time>2024-08-04T15:40:28Z</time>
      </trkpt>
      <trkpt lat="48.04724" lon="6.85637">
        <ele>817</ele>
        <time>2024-08-04T15:40:37Z</time>
      </trkpt>
      <trkpt lat="48.04729" lon="6.8565">
        <ele>817.4</ele>
        <time>2024-08-04T15:40:46Z</time>
      </trkpt>
      <trkpt lat="48.04733" lon="6.85664">
        <ele>817.9</ele>
        <time>2024-08-04T15:40:54Z</time>
      </trkpt>
      <trkpt lat="48.04734" lon="6.85677">
        <ele>818</ele>
        <time>2024-08-04T15:41:01Z</time>
      </trkpt>
      <trkpt lat="48.04738" lon="6.8569">
        <ele>818.2</ele>
        <time>2024-08-04T15:41:10Z</time>
      </trkpt>
      <trkpt lat="48.04746" lon="6.857">
        <ele>818.4</ele>
        <time>2024-08-04T15:41:18Z</time>
      </trkpt>
      <trkpt lat="48.04752" lon="6.8571">
        <ele>818.6</ele>
        <time>2024-08-04T15:41:26Z</time>
      </trkpt>
      <trkpt lat="48.0476" lon="6.85719">
        <ele>818.8</ele>
        <time>2024-08-04T15:41:33Z</time>
      </trkpt>
      <trkpt lat="48.04769" lon="6.85726">
        <ele>819</ele>
        <time>2024-08-04T15:41:41Z</time>
      </trkpt>
      <trkpt lat="48.04777" lon="6.85732">
        <ele>819.2</ele>
        <time>2024-08-04T15:41:49Z</time>
      </trkpt>
      <trkpt lat="48.04787" lon="6.85735">
        <ele>819.4</ele>
        <time>2024-08-04T15:41:56Z</time>
      </trkpt>
      <trkpt lat="48.04797" lon="6.85739">
        <ele>819.6</ele>
        <time>2024-08-04T15:42:04Z</time>
      </trkpt>
      <trkpt lat="48.04806" lon="6.85744">
        <ele>819.8</ele>
        <time>2024-08-04T15:42:11Z</time>
      </trkpt>
      <trkpt lat="48.04814" lon="6.85749">
        <ele>819.9</ele>
        <time>2024-08-04T15:42:18Z</time>
      </trkpt>
      <trkpt lat="48.04822" lon="6.85757">
        <ele>820.1</ele>
        <time>2024-08-04T15:42:26Z</time>
      </trkpt>
      <trkpt lat="48.04831" lon="6.85761">
        <ele>820.3</ele>
        <time>2024-08-04T15:42:34Z</time>
      </trkpt>
      <trkpt lat="48.04839" lon="6.85771">
        <ele>820.5</ele>
        <time>2024-08-04T15:42:42Z</time>
      </trkpt>
      <trkpt lat="48.04846" lon="6.85778">
        <ele>820.8</ele>
        <time>2024-08-04T15:42:51Z</time>
      </trkpt>
      <trkpt lat="48.04853" lon="6.85787">
        <ele>821.1</ele>
        <time>2024-08-04T15:42:59Z</time>
      </trkpt>
      <trkpt lat="48.04863" lon="6.85789">
        <ele>821.1</ele>
        <time>2024-08-04T15:43:06Z</time>
      </trkpt>
      <trkpt lat="48.04872" lon="6.8579">
        <ele>821</ele>
        <time>2024-08-04T15:43:13Z</time>
      </trkpt>
      <trkpt lat="48.04882" lon="6.85789">
        <ele>820.9</ele>
        <time>2024-08-04T15:43:19Z</time>
      </trkpt>
      <trkpt lat="48.04891" lon="6.85786">
        <ele>820.8</ele>
        <time>2024-08-04T15:43:25Z</time>
      </trkpt>
      <trkpt lat="48.04901" lon="6.85785">
        <ele>820.8</ele>
        <time>2024-08-04T15:43:30Z</time>
      </trkpt>
      <trkpt lat="48.0491" lon="6.8578">
        <ele>820.7</ele>
        <time>2024-08-04T15:43:37Z</time>
      </trkpt>
      <trkpt lat="48.04919" lon="6.85772">
        <ele>820.7</ele>
        <time>2024-08-04T15:43:44Z</time>
      </trkpt>
      <trkpt lat="48.04927" lon="6.85764">
        <ele>820.6</ele>
        <time>2024-08-04T15:43:51Z</time>
      </trkpt>
      <trkpt lat="48.04936" lon="6.85759">
        <ele>820.4</ele>
        <time>2024-08-04T15:43:58Z</time>
      </trkpt>
      <trkpt lat="48.04946" lon="6.85752">
        <ele>820</ele>
        <time>2024-08-04T15:44:05Z</time>
      </trkpt>
      <trkpt lat="48.04955" lon="6.85749">
        <ele>819.6</ele>
        <time>2024-08-04T15:44:10Z</time>
      </trkpt>
      <trkpt lat="48.04964" lon="6.85744">
        <ele>819.1</ele>
        <time>2024-08-04T15:44:18Z</time>
      </trkpt>
      <trkpt lat="48.04973" lon="6.85741">
        <ele>818.5</ele>
        <time>2024-08-04T15:44:27Z</time>
      </trkpt>
      <trkpt lat="48.04982" lon="6.85737">
        <ele>817.9</ele>
        <time>2024-08-04T15:44:35Z</time>
      </trkpt>
      <trkpt lat="48.04991" lon="6.85732">
        <ele>817.3</ele>
        <time>2024-08-04T15:44:40Z</time>
      </trkpt>
      <trkpt lat="48.05" lon="6.85726">
        <ele>816.6</ele>
        <time>2024-08-04T15:44:49Z</time>
      </trkpt>
      <trkpt lat="48.05009" lon="6.85722">
        <ele>815.9</ele>
        <time>2024-08-04T15:44:59Z</time>
      </trkpt>
      <trkpt lat="48.05019" lon="6.85719">
        <ele>815.1</ele>
        <time>2024-08-04T15:45:07Z</time>
      </trkpt>
      <trkpt lat="48.05028" lon="6.85715">
        <ele>814.3</ele>
        <time>2024-08-04T15:45:13Z</time>
      </trkpt>
      <trkpt lat="48.05036" lon="6.85707">
        <ele>813.5</ele>
        <time>2024-08-04T15:45:20Z</time>
      </trkpt>
      <trkpt lat="48.05035" lon="6.85693">
        <ele>813.9</ele>
        <time>2024-08-04T15:45:27Z</time>
      </trkpt>
      <trkpt lat="48.05027" lon="6.85684">
        <ele>814.3</ele>
        <time>2024-08-04T15:45:33Z</time>
      </trkpt>
      <trkpt lat="48.05019" lon="6.85675">
        <ele>814.7</ele>
        <time>2024-08-04T15:45:40Z</time>
      </trkpt>
      <trkpt lat="48.05011" lon="6.85668">
        <ele>815.1</ele>
        <time>2024-08-04T15:45:47Z</time>
      </trkpt>
      <trkpt lat="48.05003" lon="6.85659">
        <ele>815.5</ele>
        <time>2024-08-04T15:45:55Z</time>
      </trkpt>
      <trkpt lat="48.04994" lon="6.85652">
        <ele>815.9</ele>
        <time>2024-08-04T15:46:03Z</time>
      </trkpt>
      <trkpt lat="48.04986" lon="6.85644">
        <ele>816.2</ele>
        <time>2024-08-04T15:46:11Z</time>
      </trkpt>
      <trkpt lat="48.04979" lon="6.85633">
        <ele>816.6</ele>
        <time>2024-08-04T15:46:20Z</time>
      </trkpt>
      <trkpt lat="48.04979" lon="6.85618">
        <ele>816.9</ele>
        <time>2024-08-04T15:46:30Z</time>
      </trkpt>
      <trkpt lat="48.04968" lon="6.85614">
        <ele>817.2</ele>
        <time>2024-08-04T15:46:45Z</time>
      </trkpt>
      <trkpt lat="48.04966" lon="6.85614">
        <ele>817.3</ele>
        <time>2024-08-04T15:46:51Z</time>
      </trkpt>
      <trkpt lat="48.04965" lon="6.85614">
        <ele>817.4</ele>
        <time>2024-08-04T15:46:51Z</time>
      </trkpt>
      <trkpt lat="48.04963" lon="6.85614">
        <ele>817.4</ele>
        <time>2024-08-04T15:46:51Z</time>
      </trkpt>
    </trkseg>
  </trk>
</gpx>